<?xml version="1.0" encoding="UTF-8" standalone="no" ?>
<gpx xmlns="http://www.topografix.com/GPX/1/1" xmlns:xsi="http://www.w3.org/2001/XMLSchema-instance" xsi:schemaLocation="http://www.topografix.com/GPX/1/1 http://www.topografix.com/GPX/1/1/gpx.xsd" version="1.1" creator="VisuGPX - https://www.visugpx.com">
  <metadata>
    <name>BOUCLE BOURGOGNE - BRIONNAIS</name>
  </metadata>
  <trk>
    <name><![CDATA[BOUCLE BOURGOGNE - BRIONNAIS]]></name>
    <trkseg>
      <trkpt lat="45.88505" lon="4.48798">
        <ele>421.322265625</ele>
        <time>2020-06-15T19:28:19Z</time>
      </trkpt>
      <trkpt lat="45.88542" lon="4.48866">
        <ele>423.62579345703</ele>
        <time>2020-06-15T19:28:19Z</time>
      </trkpt>
      <trkpt lat="45.88546" lon="4.48934">
        <ele>422.32684326172</ele>
        <time>2020-06-15T19:28:19Z</time>
      </trkpt>
      <trkpt lat="45.88556" lon="4.48974">
        <ele>422.69229125977</ele>
        <time>2020-06-15T19:28:19Z</time>
      </trkpt>
      <trkpt lat="45.88553" lon="4.48995">
        <ele>422.15484619141</ele>
        <time>2020-06-15T19:28:19Z</time>
      </trkpt>
      <trkpt lat="45.88527" lon="4.49051">
        <ele>419.82244873047</ele>
        <time>2020-06-15T19:28:19Z</time>
      </trkpt>
      <trkpt lat="45.88472" lon="4.49141">
        <ele>418.64456176758</ele>
        <time>2020-06-15T19:28:19Z</time>
      </trkpt>
      <trkpt lat="45.88443" lon="4.49239">
        <ele>415.27697753906</ele>
        <time>2020-06-15T19:28:19Z</time>
      </trkpt>
      <trkpt lat="45.88405" lon="4.49331">
        <ele>412.13754272461</ele>
        <time>2020-06-15T19:28:19Z</time>
      </trkpt>
      <trkpt lat="45.88322" lon="4.49479">
        <ele>404.21328735352</ele>
        <time>2020-06-15T19:28:19Z</time>
      </trkpt>
      <trkpt lat="45.88235" lon="4.49647">
        <ele>396.68127441406</ele>
        <time>2020-06-15T19:28:19Z</time>
      </trkpt>
      <trkpt lat="45.88196" lon="4.49772">
        <ele>395.64929199219</ele>
        <time>2020-06-15T19:28:19Z</time>
      </trkpt>
      <trkpt lat="45.88175" lon="4.49868">
        <ele>392.65063476562</ele>
        <time>2020-06-15T19:28:19Z</time>
      </trkpt>
      <trkpt lat="45.88161" lon="4.49912">
        <ele>390.51370239258</ele>
        <time>2020-06-15T19:28:19Z</time>
      </trkpt>
      <trkpt lat="45.88036" lon="4.50134">
        <ele>379.18432617188</ele>
        <time>2020-06-15T19:28:20Z</time>
      </trkpt>
      <trkpt lat="45.88027" lon="4.50177">
        <ele>376.95764160156</ele>
        <time>2020-06-15T19:28:20Z</time>
      </trkpt>
      <trkpt lat="45.88035" lon="4.50243">
        <ele>370.90670776367</ele>
        <time>2020-06-15T19:28:20Z</time>
      </trkpt>
      <trkpt lat="45.8803" lon="4.50274">
        <ele>367.95861816406</ele>
        <time>2020-06-15T19:28:20Z</time>
      </trkpt>
      <trkpt lat="45.88018" lon="4.50299">
        <ele>366.71505737305</ele>
        <time>2020-06-15T19:28:20Z</time>
      </trkpt>
      <trkpt lat="45.87992" lon="4.50332">
        <ele>365.81060791016</ele>
        <time>2020-06-15T19:28:21Z</time>
      </trkpt>
      <trkpt lat="45.8797" lon="4.50387">
        <ele>364.66284179688</ele>
        <time>2020-06-15T19:28:21Z</time>
      </trkpt>
      <trkpt lat="45.87949" lon="4.50411">
        <ele>363.58828735352</ele>
        <time>2020-06-15T19:28:21Z</time>
      </trkpt>
      <trkpt lat="45.87937" lon="4.50433">
        <ele>362.89999389648</ele>
        <time>2020-06-15T19:28:21Z</time>
      </trkpt>
      <trkpt lat="45.87924" lon="4.50472">
        <ele>361.22351074219</ele>
        <time>2020-06-15T19:28:21Z</time>
      </trkpt>
      <trkpt lat="45.87902" lon="4.50586">
        <ele>356.67398071289</ele>
        <time>2020-06-15T19:28:22Z</time>
      </trkpt>
      <trkpt lat="45.87887" lon="4.50625">
        <ele>355.80883789062</ele>
        <time>2020-06-15T19:28:22Z</time>
      </trkpt>
      <trkpt lat="45.87858" lon="4.50679">
        <ele>354.6335144043</ele>
        <time>2020-06-15T19:28:22Z</time>
      </trkpt>
      <trkpt lat="45.87833" lon="4.50708">
        <ele>353.84512329102</ele>
        <time>2020-06-15T19:28:23Z</time>
      </trkpt>
      <trkpt lat="45.87813" lon="4.50718">
        <ele>353.78759765625</ele>
        <time>2020-06-15T19:28:23Z</time>
      </trkpt>
      <trkpt lat="45.87784" lon="4.50718">
        <ele>353.30609130859</ele>
        <time>2020-06-15T19:28:23Z</time>
      </trkpt>
      <trkpt lat="45.87779" lon="4.50726">
        <ele>352.76184082031</ele>
        <time>2020-06-15T19:28:23Z</time>
      </trkpt>
      <trkpt lat="45.87819" lon="4.51057">
        <ele>336.72125244141</ele>
        <time>2020-06-15T19:28:24Z</time>
      </trkpt>
      <trkpt lat="45.87824" lon="4.51138">
        <ele>335.70465087891</ele>
        <time>2020-06-15T19:28:24Z</time>
      </trkpt>
      <trkpt lat="45.87823" lon="4.51225">
        <ele>334.59112548828</ele>
        <time>2020-06-15T19:28:24Z</time>
      </trkpt>
      <trkpt lat="45.8783" lon="4.51247">
        <ele>334.86386108398</ele>
        <time>2020-06-15T19:28:25Z</time>
      </trkpt>
      <trkpt lat="45.87847" lon="4.51268">
        <ele>335.45370483398</ele>
        <time>2020-06-15T19:28:25Z</time>
      </trkpt>
      <trkpt lat="45.87854" lon="4.51287">
        <ele>335.93447875977</ele>
        <time>2020-06-15T19:28:25Z</time>
      </trkpt>
      <trkpt lat="45.8785" lon="4.51311">
        <ele>337.23950195312</ele>
        <time>2020-06-15T19:28:26Z</time>
      </trkpt>
      <trkpt lat="45.87827" lon="4.51331">
        <ele>336.99203491211</ele>
        <time>2020-06-15T19:28:26Z</time>
      </trkpt>
      <trkpt lat="45.87823" lon="4.51343">
        <ele>337.15829467773</ele>
        <time>2020-06-15T19:28:26Z</time>
      </trkpt>
      <trkpt lat="45.8786" lon="4.51475">
        <ele>341.84326171875</ele>
        <time>2020-06-15T19:28:27Z</time>
      </trkpt>
      <trkpt lat="45.87871" lon="4.515">
        <ele>342.67956542969</ele>
        <time>2020-06-15T19:28:27Z</time>
      </trkpt>
      <trkpt lat="45.87893" lon="4.51532">
        <ele>344.31372070312</ele>
        <time>2020-06-15T19:28:27Z</time>
      </trkpt>
      <trkpt lat="45.87919" lon="4.51552">
        <ele>345.77435302734</ele>
        <time>2020-06-15T19:28:28Z</time>
      </trkpt>
      <trkpt lat="45.88062" lon="4.5162">
        <ele>354.18988037109</ele>
        <time>2020-06-15T19:28:28Z</time>
      </trkpt>
      <trkpt lat="45.88121" lon="4.51632">
        <ele>356.58145141602</ele>
        <time>2020-06-15T19:28:29Z</time>
      </trkpt>
      <trkpt lat="45.88253" lon="4.51648">
        <ele>359.3479309082</ele>
        <time>2020-06-15T19:28:29Z</time>
      </trkpt>
      <trkpt lat="45.88321" lon="4.51665">
        <ele>361.35150146484</ele>
        <time>2020-06-15T19:28:29Z</time>
      </trkpt>
      <trkpt lat="45.88324" lon="4.5168">
        <ele>361.11907958984</ele>
        <time>2020-06-15T19:28:30Z</time>
      </trkpt>
      <trkpt lat="45.88309" lon="4.51756">
        <ele>357.3759765625</ele>
        <time>2020-06-15T19:28:30Z</time>
      </trkpt>
      <trkpt lat="45.88337" lon="4.51783">
        <ele>356.3703918457</ele>
        <time>2020-06-15T19:28:31Z</time>
      </trkpt>
      <trkpt lat="45.88358" lon="4.51816">
        <ele>356.62292480469</ele>
        <time>2020-06-15T19:28:31Z</time>
      </trkpt>
      <trkpt lat="45.88359" lon="4.51939">
        <ele>355.39419555664</ele>
        <time>2020-06-15T19:28:32Z</time>
      </trkpt>
      <trkpt lat="45.88368" lon="4.52035">
        <ele>353.93615722656</ele>
        <time>2020-06-15T19:28:32Z</time>
      </trkpt>
      <trkpt lat="45.88402" lon="4.52169">
        <ele>350.70617675781</ele>
        <time>2020-06-15T19:28:33Z</time>
      </trkpt>
      <trkpt lat="45.88416" lon="4.52292">
        <ele>347.35321044922</ele>
        <time>2020-06-15T19:28:33Z</time>
      </trkpt>
      <trkpt lat="45.88407" lon="4.52373">
        <ele>349.39077758789</ele>
        <time>2020-06-15T19:28:34Z</time>
      </trkpt>
      <trkpt lat="45.88408" lon="4.52495">
        <ele>355.92636108398</ele>
        <time>2020-06-15T19:28:34Z</time>
      </trkpt>
      <trkpt lat="45.88396" lon="4.52538">
        <ele>356.41149902344</ele>
        <time>2020-06-15T19:28:35Z</time>
      </trkpt>
      <trkpt lat="45.88354" lon="4.52643">
        <ele>356.16891479492</ele>
        <time>2020-06-15T19:28:36Z</time>
      </trkpt>
      <trkpt lat="45.88345" lon="4.52676">
        <ele>356.52517700195</ele>
        <time>2020-06-15T19:28:36Z</time>
      </trkpt>
      <trkpt lat="45.88304" lon="4.52999">
        <ele>354.87936401367</ele>
        <time>2020-06-15T19:28:37Z</time>
      </trkpt>
      <trkpt lat="45.88299" lon="4.53189">
        <ele>351.86373901367</ele>
        <time>2020-06-15T19:28:37Z</time>
      </trkpt>
      <trkpt lat="45.88276" lon="4.53283">
        <ele>351.28192138672</ele>
        <time>2020-06-15T19:28:38Z</time>
      </trkpt>
      <trkpt lat="45.88259" lon="4.53413">
        <ele>348.74102783203</ele>
        <time>2020-06-15T19:28:39Z</time>
      </trkpt>
      <trkpt lat="45.88269" lon="4.53491">
        <ele>347.69491577148</ele>
        <time>2020-06-15T19:28:39Z</time>
      </trkpt>
      <trkpt lat="45.88274" lon="4.53595">
        <ele>346</ele>
        <time>2020-06-15T19:28:40Z</time>
      </trkpt>
      <trkpt lat="45.88299" lon="4.53669">
        <ele>346</ele>
        <time>2020-06-15T19:28:41Z</time>
      </trkpt>
      <trkpt lat="45.88325" lon="4.53811">
        <ele>348.90594482422</ele>
        <time>2020-06-15T19:28:41Z</time>
      </trkpt>
      <trkpt lat="45.88384" lon="4.53989">
        <ele>356.10437011719</ele>
        <time>2020-06-15T19:28:42Z</time>
      </trkpt>
      <trkpt lat="45.88363" lon="4.54133">
        <ele>360.58779907227</ele>
        <time>2020-06-15T19:28:43Z</time>
      </trkpt>
      <trkpt lat="45.88377" lon="4.54242">
        <ele>362.24142456055</ele>
        <time>2020-06-15T19:28:44Z</time>
      </trkpt>
      <trkpt lat="45.88365" lon="4.54339">
        <ele>362.83309936523</ele>
        <time>2020-06-15T19:28:44Z</time>
      </trkpt>
      <trkpt lat="45.88376" lon="4.54442">
        <ele>362.67022705078</ele>
        <time>2020-06-15T19:28:45Z</time>
      </trkpt>
      <trkpt lat="45.88426" lon="4.54641">
        <ele>361.02029418945</ele>
        <time>2020-06-15T19:28:46Z</time>
      </trkpt>
      <trkpt lat="45.88479" lon="4.54795">
        <ele>361.28024291992</ele>
        <time>2020-06-15T19:28:47Z</time>
      </trkpt>
      <trkpt lat="45.88523" lon="4.54993">
        <ele>361.59219360352</ele>
        <time>2020-06-15T19:28:48Z</time>
      </trkpt>
      <trkpt lat="45.88516" lon="4.55015">
        <ele>361.73663330078</ele>
        <time>2020-06-15T19:28:48Z</time>
      </trkpt>
      <trkpt lat="45.88225" lon="4.55431">
        <ele>356.60192871094</ele>
        <time>2020-06-15T19:28:49Z</time>
      </trkpt>
      <trkpt lat="45.88182" lon="4.55482">
        <ele>356.99954223633</ele>
        <time>2020-06-15T19:28:50Z</time>
      </trkpt>
      <trkpt lat="45.8815" lon="4.55508">
        <ele>358.22308349609</ele>
        <time>2020-06-15T19:28:51Z</time>
      </trkpt>
      <trkpt lat="45.88109" lon="4.5553">
        <ele>358.8994140625</ele>
        <time>2020-06-15T19:28:52Z</time>
      </trkpt>
      <trkpt lat="45.88008" lon="4.55561">
        <ele>357.56011962891</ele>
        <time>2020-06-15T19:28:53Z</time>
      </trkpt>
      <trkpt lat="45.8792" lon="4.556">
        <ele>354.84982299805</ele>
        <time>2020-06-15T19:28:54Z</time>
      </trkpt>
      <trkpt lat="45.87895" lon="4.556">
        <ele>355.15069580078</ele>
        <time>2020-06-15T19:28:55Z</time>
      </trkpt>
      <trkpt lat="45.87891" lon="4.5573">
        <ele>356.2389831543</ele>
        <time>2020-06-15T19:28:56Z</time>
      </trkpt>
      <trkpt lat="45.87895" lon="4.55837">
        <ele>358.2829284668</ele>
        <time>2020-06-15T19:28:57Z</time>
      </trkpt>
      <trkpt lat="45.87907" lon="4.55906">
        <ele>360.7385559082</ele>
        <time>2020-06-15T19:28:58Z</time>
      </trkpt>
      <trkpt lat="45.87959" lon="4.55971">
        <ele>361.93627929688</ele>
        <time>2020-06-15T19:28:59Z</time>
      </trkpt>
      <trkpt lat="45.87973" lon="4.55977">
        <ele>361.89462280273</ele>
        <time>2020-06-15T19:29:00Z</time>
      </trkpt>
      <trkpt lat="45.88007" lon="4.55969">
        <ele>359.11178588867</ele>
        <time>2020-06-15T19:29:01Z</time>
      </trkpt>
      <trkpt lat="45.88041" lon="4.55972">
        <ele>356.90725708008</ele>
        <time>2020-06-15T19:29:02Z</time>
      </trkpt>
      <trkpt lat="45.88106" lon="4.55965">
        <ele>350.96746826172</ele>
        <time>2020-06-15T19:29:03Z</time>
      </trkpt>
      <trkpt lat="45.88209" lon="4.55975">
        <ele>347.22146606445</ele>
        <time>2020-06-15T19:29:04Z</time>
      </trkpt>
      <trkpt lat="45.8825" lon="4.55971">
        <ele>346.70986938477</ele>
        <time>2020-06-15T19:29:05Z</time>
      </trkpt>
      <trkpt lat="45.88298" lon="4.55944">
        <ele>344.58966064453</ele>
        <time>2020-06-15T19:29:06Z</time>
      </trkpt>
      <trkpt lat="45.8839" lon="4.55857">
        <ele>335.07159423828</ele>
        <time>2020-06-15T19:29:08Z</time>
      </trkpt>
      <trkpt lat="45.88418" lon="4.55836">
        <ele>332.34866333008</ele>
        <time>2020-06-15T19:29:09Z</time>
      </trkpt>
      <trkpt lat="45.8847" lon="4.55828">
        <ele>328.89041137695</ele>
        <time>2020-06-15T19:29:10Z</time>
      </trkpt>
      <trkpt lat="45.88491" lon="4.55831">
        <ele>326.62814331055</ele>
        <time>2020-06-15T19:29:11Z</time>
      </trkpt>
      <trkpt lat="45.88511" lon="4.5584">
        <ele>324.99295043945</ele>
        <time>2020-06-15T19:29:12Z</time>
      </trkpt>
      <trkpt lat="45.88634" lon="4.55935">
        <ele>320.04824829102</ele>
        <time>2020-06-15T19:29:13Z</time>
      </trkpt>
      <trkpt lat="45.88678" lon="4.55981">
        <ele>316.41421508789</ele>
        <time>2020-06-15T19:29:14Z</time>
      </trkpt>
      <trkpt lat="45.88702" lon="4.56014">
        <ele>314.26217651367</ele>
        <time>2020-06-15T19:29:15Z</time>
      </trkpt>
      <trkpt lat="45.88826" lon="4.56257">
        <ele>306.32272338867</ele>
        <time>2020-06-15T19:29:17Z</time>
      </trkpt>
      <trkpt lat="45.88837" lon="4.56301">
        <ele>306.84451293945</ele>
        <time>2020-06-15T19:29:18Z</time>
      </trkpt>
      <trkpt lat="45.88848" lon="4.5639">
        <ele>307.54968261719</ele>
        <time>2020-06-15T19:29:19Z</time>
      </trkpt>
      <trkpt lat="45.88862" lon="4.56424">
        <ele>306.99746704102</ele>
        <time>2020-06-15T19:29:20Z</time>
      </trkpt>
      <trkpt lat="45.88877" lon="4.5644">
        <ele>305.37069702148</ele>
        <time>2020-06-15T19:29:22Z</time>
      </trkpt>
      <trkpt lat="45.88902" lon="4.56452">
        <ele>302.68594360352</ele>
        <time>2020-06-15T19:29:23Z</time>
      </trkpt>
      <trkpt lat="45.8892" lon="4.56451">
        <ele>300.76754760742</ele>
        <time>2020-06-15T19:29:24Z</time>
      </trkpt>
      <trkpt lat="45.88948" lon="4.56437">
        <ele>297.01956176758</ele>
        <time>2020-06-15T19:29:25Z</time>
      </trkpt>
      <trkpt lat="45.88977" lon="4.56437">
        <ele>295.12841796875</ele>
        <time>2020-06-15T19:29:26Z</time>
      </trkpt>
      <trkpt lat="45.89005" lon="4.56459">
        <ele>294.32385253906</ele>
        <time>2020-06-15T19:29:28Z</time>
      </trkpt>
      <trkpt lat="45.89024" lon="4.56485">
        <ele>293.15991210938</ele>
        <time>2020-06-15T19:29:29Z</time>
      </trkpt>
      <trkpt lat="45.89033" lon="4.5652">
        <ele>292.26184082031</ele>
        <time>2020-06-15T19:29:30Z</time>
      </trkpt>
      <trkpt lat="45.89038" lon="4.56646">
        <ele>291.10586547852</ele>
        <time>2020-06-15T19:29:31Z</time>
      </trkpt>
      <trkpt lat="45.89065" lon="4.56755">
        <ele>292.17013549805</ele>
        <time>2020-06-15T19:29:33Z</time>
      </trkpt>
      <trkpt lat="45.89069" lon="4.56794">
        <ele>293.05355834961</ele>
        <time>2020-06-15T19:29:34Z</time>
      </trkpt>
      <trkpt lat="45.89039" lon="4.57113">
        <ele>292.42709350586</ele>
        <time>2020-06-15T19:29:35Z</time>
      </trkpt>
      <trkpt lat="45.89024" lon="4.57182">
        <ele>289.22967529297</ele>
        <time>2020-06-15T19:29:37Z</time>
      </trkpt>
      <trkpt lat="45.89031" lon="4.57284">
        <ele>286.8102722168</ele>
        <time>2020-06-15T19:29:38Z</time>
      </trkpt>
      <trkpt lat="45.89015" lon="4.57385">
        <ele>283.03912353516</ele>
        <time>2020-06-15T19:29:39Z</time>
      </trkpt>
      <trkpt lat="45.89022" lon="4.57571">
        <ele>276.79476928711</ele>
        <time>2020-06-15T19:29:41Z</time>
      </trkpt>
      <trkpt lat="45.89042" lon="4.57717">
        <ele>278.79626464844</ele>
        <time>2020-06-15T19:29:42Z</time>
      </trkpt>
      <trkpt lat="45.89056" lon="4.57766">
        <ele>277.8076171875</ele>
        <time>2020-06-15T19:29:43Z</time>
      </trkpt>
      <trkpt lat="45.89083" lon="4.57815">
        <ele>277.23992919922</ele>
        <time>2020-06-15T19:29:45Z</time>
      </trkpt>
      <trkpt lat="45.89092" lon="4.57824">
        <ele>276.90182495117</ele>
        <time>2020-06-15T19:29:46Z</time>
      </trkpt>
      <trkpt lat="45.89143" lon="4.57847">
        <ele>274.77261352539</ele>
        <time>2020-06-15T19:29:48Z</time>
      </trkpt>
      <trkpt lat="45.89161" lon="4.57862">
        <ele>273.22671508789</ele>
        <time>2020-06-15T19:29:49Z</time>
      </trkpt>
      <trkpt lat="45.89331" lon="4.5805">
        <ele>267.31600952148</ele>
        <time>2020-06-15T19:29:51Z</time>
      </trkpt>
      <trkpt lat="45.89418" lon="4.58214">
        <ele>266.28378295898</ele>
        <time>2020-06-15T19:29:52Z</time>
      </trkpt>
      <trkpt lat="45.89435" lon="4.58269">
        <ele>263.38854980469</ele>
        <time>2020-06-15T19:29:54Z</time>
      </trkpt>
      <trkpt lat="45.89447" lon="4.58341">
        <ele>259.65319824219</ele>
        <time>2020-06-15T19:29:55Z</time>
      </trkpt>
      <trkpt lat="45.89458" lon="4.58472">
        <ele>252.37188720703</ele>
        <time>2020-06-15T19:29:57Z</time>
      </trkpt>
      <trkpt lat="45.89456" lon="4.58596">
        <ele>249.03547668457</ele>
        <time>2020-06-15T19:29:58Z</time>
      </trkpt>
      <trkpt lat="45.89483" lon="4.58752">
        <ele>240.99291992188</ele>
        <time>2020-06-15T19:30:00Z</time>
      </trkpt>
      <trkpt lat="45.89476" lon="4.58785">
        <ele>239.86817932129</ele>
        <time>2020-06-15T19:30:01Z</time>
      </trkpt>
      <trkpt lat="45.89439" lon="4.58842">
        <ele>239.93283081055</ele>
        <time>2020-06-15T19:30:03Z</time>
      </trkpt>
      <trkpt lat="45.89435" lon="4.58874">
        <ele>238.05839538574</ele>
        <time>2020-06-15T19:30:04Z</time>
      </trkpt>
      <trkpt lat="45.8948" lon="4.59006">
        <ele>233.57807922363</ele>
        <time>2020-06-15T19:30:06Z</time>
      </trkpt>
      <trkpt lat="45.89526" lon="4.59102">
        <ele>232.5590057373</ele>
        <time>2020-06-15T19:30:07Z</time>
      </trkpt>
      <trkpt lat="45.89554" lon="4.59126">
        <ele>232.22027587891</ele>
        <time>2020-06-15T19:30:09Z</time>
      </trkpt>
      <trkpt lat="45.89594" lon="4.59132">
        <ele>232.72508239746</ele>
        <time>2020-06-15T19:30:11Z</time>
      </trkpt>
      <trkpt lat="45.89617" lon="4.5915">
        <ele>233.07434082031</ele>
        <time>2020-06-15T19:30:12Z</time>
      </trkpt>
      <trkpt lat="45.89625" lon="4.59151">
        <ele>233.26019287109</ele>
        <time>2020-06-15T19:30:14Z</time>
      </trkpt>
      <trkpt lat="45.89643" lon="4.59137">
        <ele>234.10800170898</ele>
        <time>2020-06-15T19:30:15Z</time>
      </trkpt>
      <trkpt lat="45.89649" lon="4.59144">
        <ele>234.51327514648</ele>
        <time>2020-06-15T19:30:17Z</time>
      </trkpt>
      <trkpt lat="45.89606" lon="4.59318">
        <ele>239.13024902344</ele>
        <time>2020-06-15T19:30:19Z</time>
      </trkpt>
      <trkpt lat="45.89578" lon="4.59398">
        <ele>240.25494384766</ele>
        <time>2020-06-15T19:30:20Z</time>
      </trkpt>
      <trkpt lat="45.89534" lon="4.59482">
        <ele>241.28967285156</ele>
        <time>2020-06-15T19:30:22Z</time>
      </trkpt>
      <trkpt lat="45.8943" lon="4.59607">
        <ele>235.13456726074</ele>
        <time>2020-06-15T19:30:24Z</time>
      </trkpt>
      <trkpt lat="45.89285" lon="4.59823">
        <ele>237.48791503906</ele>
        <time>2020-06-15T19:30:25Z</time>
      </trkpt>
      <trkpt lat="45.89163" lon="4.59977">
        <ele>239.61471557617</ele>
        <time>2020-06-15T19:30:27Z</time>
      </trkpt>
      <trkpt lat="45.89137" lon="4.6002">
        <ele>237.22486877441</ele>
        <time>2020-06-15T19:30:29Z</time>
      </trkpt>
      <trkpt lat="45.89118" lon="4.60066">
        <ele>239.57069396973</ele>
        <time>2020-06-15T19:30:31Z</time>
      </trkpt>
      <trkpt lat="45.89102" lon="4.60133">
        <ele>241.94119262695</ele>
        <time>2020-06-15T19:30:32Z</time>
      </trkpt>
      <trkpt lat="45.89066" lon="4.60375">
        <ele>243.98715209961</ele>
        <time>2020-06-15T19:30:34Z</time>
      </trkpt>
      <trkpt lat="45.89039" lon="4.60501">
        <ele>243.60209655762</ele>
        <time>2020-06-15T19:30:36Z</time>
      </trkpt>
      <trkpt lat="45.89005" lon="4.60619">
        <ele>239.5209197998</ele>
        <time>2020-06-15T19:30:38Z</time>
      </trkpt>
      <trkpt lat="45.88904" lon="4.60899">
        <ele>230.17500305176</ele>
        <time>2020-06-15T19:30:40Z</time>
      </trkpt>
      <trkpt lat="45.8888" lon="4.61008">
        <ele>230.11073303223</ele>
        <time>2020-06-15T19:30:41Z</time>
      </trkpt>
      <trkpt lat="45.88872" lon="4.61319">
        <ele>227.01556396484</ele>
        <time>2020-06-15T19:30:43Z</time>
      </trkpt>
      <trkpt lat="45.8889" lon="4.61352">
        <ele>228.38938903809</ele>
        <time>2020-06-15T19:30:45Z</time>
      </trkpt>
      <trkpt lat="45.88893" lon="4.61367">
        <ele>229.27981567383</ele>
        <time>2020-06-15T19:30:47Z</time>
      </trkpt>
      <trkpt lat="45.88875" lon="4.61431">
        <ele>228.28280639648</ele>
        <time>2020-06-15T19:30:49Z</time>
      </trkpt>
      <trkpt lat="45.88849" lon="4.61574">
        <ele>229.91366577148</ele>
        <time>2020-06-15T19:30:51Z</time>
      </trkpt>
      <trkpt lat="45.88831" lon="4.61715">
        <ele>226.85116577148</ele>
        <time>2020-06-15T19:30:53Z</time>
      </trkpt>
      <trkpt lat="45.88795" lon="4.61843">
        <ele>224.58270263672</ele>
        <time>2020-06-15T19:30:55Z</time>
      </trkpt>
      <trkpt lat="45.88791" lon="4.62066">
        <ele>229.54995727539</ele>
        <time>2020-06-15T19:30:57Z</time>
      </trkpt>
      <trkpt lat="45.88797" lon="4.62083">
        <ele>230.36514282227</ele>
        <time>2020-06-15T19:30:59Z</time>
      </trkpt>
      <trkpt lat="45.88923" lon="4.6213">
        <ele>235.92224121094</ele>
        <time>2020-06-15T19:31:01Z</time>
      </trkpt>
      <trkpt lat="45.88953" lon="4.62135">
        <ele>239.84622192383</ele>
        <time>2020-06-15T19:31:03Z</time>
      </trkpt>
      <trkpt lat="45.89007" lon="4.62117">
        <ele>243.82138061523</ele>
        <time>2020-06-15T19:31:05Z</time>
      </trkpt>
      <trkpt lat="45.89079" lon="4.62076">
        <ele>245.7702331543</ele>
        <time>2020-06-15T19:31:07Z</time>
      </trkpt>
      <trkpt lat="45.89142" lon="4.62057">
        <ele>247.9598236084</ele>
        <time>2020-06-15T19:31:09Z</time>
      </trkpt>
      <trkpt lat="45.8917" lon="4.62058">
        <ele>250.02313232422</ele>
        <time>2020-06-15T19:31:11Z</time>
      </trkpt>
      <trkpt lat="45.89338" lon="4.62086">
        <ele>258.57751464844</ele>
        <time>2020-06-15T19:31:13Z</time>
      </trkpt>
      <trkpt lat="45.89393" lon="4.6211">
        <ele>263.65997314453</ele>
        <time>2020-06-15T19:31:15Z</time>
      </trkpt>
      <trkpt lat="45.89466" lon="4.62159">
        <ele>273.67602539062</ele>
        <time>2020-06-15T19:31:17Z</time>
      </trkpt>
      <trkpt lat="45.89484" lon="4.62164">
        <ele>275.28796386719</ele>
        <time>2020-06-15T19:31:19Z</time>
      </trkpt>
      <trkpt lat="45.89521" lon="4.62157">
        <ele>276.88302612305</ele>
        <time>2020-06-15T19:31:22Z</time>
      </trkpt>
      <trkpt lat="45.89596" lon="4.62114">
        <ele>282.22201538086</ele>
        <time>2020-06-15T19:31:24Z</time>
      </trkpt>
      <trkpt lat="45.89629" lon="4.62111">
        <ele>286.53839111328</ele>
        <time>2020-06-15T19:31:26Z</time>
      </trkpt>
      <trkpt lat="45.89654" lon="4.62135">
        <ele>291.4013671875</ele>
        <time>2020-06-15T19:31:28Z</time>
      </trkpt>
      <trkpt lat="45.8968" lon="4.62195">
        <ele>298.25042724609</ele>
        <time>2020-06-15T19:31:30Z</time>
      </trkpt>
      <trkpt lat="45.89713" lon="4.62384">
        <ele>305.23007202148</ele>
        <time>2020-06-15T19:31:32Z</time>
      </trkpt>
      <trkpt lat="45.89725" lon="4.62424">
        <ele>306.04989624023</ele>
        <time>2020-06-15T19:31:34Z</time>
      </trkpt>
      <trkpt lat="45.89749" lon="4.62458">
        <ele>306.47619628906</ele>
        <time>2020-06-15T19:31:37Z</time>
      </trkpt>
      <trkpt lat="45.89791" lon="4.62493">
        <ele>306.63848876953</ele>
        <time>2020-06-15T19:31:39Z</time>
      </trkpt>
      <trkpt lat="45.90051" lon="4.62665">
        <ele>310.85522460938</ele>
        <time>2020-06-15T19:31:41Z</time>
      </trkpt>
      <trkpt lat="45.90069" lon="4.62675">
        <ele>311.15277099609</ele>
        <time>2020-06-15T19:31:43Z</time>
      </trkpt>
      <trkpt lat="45.90101" lon="4.62678">
        <ele>311.52548217773</ele>
        <time>2020-06-15T19:31:46Z</time>
      </trkpt>
      <trkpt lat="45.9014" lon="4.62659">
        <ele>313.03601074219</ele>
        <time>2020-06-15T19:31:48Z</time>
      </trkpt>
      <trkpt lat="45.9084" lon="4.62131">
        <ele>327.11083984375</ele>
        <time>2020-06-15T19:31:50Z</time>
      </trkpt>
      <trkpt lat="45.90888" lon="4.62103">
        <ele>327.64031982422</ele>
        <time>2020-06-15T19:31:53Z</time>
      </trkpt>
      <trkpt lat="45.90968" lon="4.62073">
        <ele>326.48233032227</ele>
        <time>2020-06-15T19:31:55Z</time>
      </trkpt>
      <trkpt lat="45.91031" lon="4.62061">
        <ele>328.12271118164</ele>
        <time>2020-06-15T19:31:57Z</time>
      </trkpt>
      <trkpt lat="45.91163" lon="4.62077">
        <ele>332.06732177734</ele>
        <time>2020-06-15T19:32:00Z</time>
      </trkpt>
      <trkpt lat="45.91273" lon="4.62057">
        <ele>339.49703979492</ele>
        <time>2020-06-15T19:32:02Z</time>
      </trkpt>
      <trkpt lat="45.91354" lon="4.62021">
        <ele>343.83682250977</ele>
        <time>2020-06-15T19:32:05Z</time>
      </trkpt>
      <trkpt lat="45.91394" lon="4.62008">
        <ele>346.78128051758</ele>
        <time>2020-06-15T19:32:07Z</time>
      </trkpt>
      <trkpt lat="45.91424" lon="4.6201">
        <ele>347.67892456055</ele>
        <time>2020-06-15T19:32:10Z</time>
      </trkpt>
      <trkpt lat="45.91498" lon="4.62025">
        <ele>348.16394042969</ele>
        <time>2020-06-15T19:32:12Z</time>
      </trkpt>
      <trkpt lat="45.91783" lon="4.61985">
        <ele>356.33056640625</ele>
        <time>2020-06-15T19:32:15Z</time>
      </trkpt>
      <trkpt lat="45.91846" lon="4.62027">
        <ele>355.45571899414</ele>
        <time>2020-06-15T19:32:17Z</time>
      </trkpt>
      <trkpt lat="45.91852" lon="4.62009">
        <ele>357.07684326172</ele>
        <time>2020-06-15T19:32:20Z</time>
      </trkpt>
      <trkpt lat="45.91863" lon="4.62001">
        <ele>357.99026489258</ele>
        <time>2020-06-15T19:32:22Z</time>
      </trkpt>
      <trkpt lat="45.91982" lon="4.61939">
        <ele>364.41567993164</ele>
        <time>2020-06-15T19:32:25Z</time>
      </trkpt>
      <trkpt lat="45.92029" lon="4.61935">
        <ele>363.48666381836</ele>
        <time>2020-06-15T19:32:28Z</time>
      </trkpt>
      <trkpt lat="45.92128" lon="4.61947">
        <ele>359.71087646484</ele>
        <time>2020-06-15T19:32:30Z</time>
      </trkpt>
      <trkpt lat="45.92171" lon="4.61947">
        <ele>358.25997924805</ele>
        <time>2020-06-15T19:32:33Z</time>
      </trkpt>
      <trkpt lat="45.92416" lon="4.61853">
        <ele>361.79257202148</ele>
        <time>2020-06-15T19:32:35Z</time>
      </trkpt>
      <trkpt lat="45.92448" lon="4.61849">
        <ele>363.46566772461</ele>
        <time>2020-06-15T19:32:38Z</time>
      </trkpt>
      <trkpt lat="45.92501" lon="4.61857">
        <ele>365.55307006836</ele>
        <time>2020-06-15T19:32:41Z</time>
      </trkpt>
      <trkpt lat="45.92641" lon="4.61762">
        <ele>375.87203979492</ele>
        <time>2020-06-15T19:32:43Z</time>
      </trkpt>
      <trkpt lat="45.92651" lon="4.61764">
        <ele>376.65344238281</ele>
        <time>2020-06-15T19:32:46Z</time>
      </trkpt>
      <trkpt lat="45.92769" lon="4.61865">
        <ele>379.80380249023</ele>
        <time>2020-06-15T19:32:49Z</time>
      </trkpt>
      <trkpt lat="45.92796" lon="4.61879">
        <ele>379.73699951172</ele>
        <time>2020-06-15T19:32:52Z</time>
      </trkpt>
      <trkpt lat="45.92866" lon="4.61869">
        <ele>378.11254882812</ele>
        <time>2020-06-15T19:32:54Z</time>
      </trkpt>
      <trkpt lat="45.9295" lon="4.61869">
        <ele>371.23330688477</ele>
        <time>2020-06-15T19:32:57Z</time>
      </trkpt>
      <trkpt lat="45.92972" lon="4.61859">
        <ele>369.42227172852</ele>
        <time>2020-06-15T19:33:00Z</time>
      </trkpt>
      <trkpt lat="45.92991" lon="4.61839">
        <ele>366.8427734375</ele>
        <time>2020-06-15T19:33:03Z</time>
      </trkpt>
      <trkpt lat="45.93025" lon="4.61779">
        <ele>365.98089599609</ele>
        <time>2020-06-15T19:33:05Z</time>
      </trkpt>
      <trkpt lat="45.93054" lon="4.61743">
        <ele>366.34481811523</ele>
        <time>2020-06-15T19:33:08Z</time>
      </trkpt>
      <trkpt lat="45.93089" lon="4.61678">
        <ele>370.13433837891</ele>
        <time>2020-06-15T19:33:11Z</time>
      </trkpt>
      <trkpt lat="45.93108" lon="4.61654">
        <ele>372.24139404297</ele>
        <time>2020-06-15T19:33:14Z</time>
      </trkpt>
      <trkpt lat="45.93133" lon="4.6164">
        <ele>373.42294311523</ele>
        <time>2020-06-15T19:33:16Z</time>
      </trkpt>
      <trkpt lat="45.93254" lon="4.61638">
        <ele>363.02322387695</ele>
        <time>2020-06-15T19:33:19Z</time>
      </trkpt>
      <trkpt lat="45.93285" lon="4.61647">
        <ele>360.21069335938</ele>
        <time>2020-06-15T19:33:22Z</time>
      </trkpt>
      <trkpt lat="45.93301" lon="4.61663">
        <ele>358.42132568359</ele>
        <time>2020-06-15T19:33:25Z</time>
      </trkpt>
      <trkpt lat="45.93314" lon="4.61684">
        <ele>358.47180175781</ele>
        <time>2020-06-15T19:33:28Z</time>
      </trkpt>
      <trkpt lat="45.93321" lon="4.61707">
        <ele>359.38055419922</ele>
        <time>2020-06-15T19:33:31Z</time>
      </trkpt>
      <trkpt lat="45.93337" lon="4.61815">
        <ele>362.60739135742</ele>
        <time>2020-06-15T19:33:33Z</time>
      </trkpt>
      <trkpt lat="45.93338" lon="4.61863">
        <ele>361.1904296875</ele>
        <time>2020-06-15T19:33:36Z</time>
      </trkpt>
      <trkpt lat="45.93297" lon="4.62162">
        <ele>365.90133666992</ele>
        <time>2020-06-15T19:33:39Z</time>
      </trkpt>
      <trkpt lat="45.93301" lon="4.62195">
        <ele>366.66384887695</ele>
        <time>2020-06-15T19:33:42Z</time>
      </trkpt>
      <trkpt lat="45.93315" lon="4.62217">
        <ele>366.14154052734</ele>
        <time>2020-06-15T19:33:45Z</time>
      </trkpt>
      <trkpt lat="45.93482" lon="4.62233">
        <ele>374.55816650391</ele>
        <time>2020-06-15T19:33:48Z</time>
      </trkpt>
      <trkpt lat="45.93643" lon="4.62283">
        <ele>368.74438476562</ele>
        <time>2020-06-15T19:33:51Z</time>
      </trkpt>
      <trkpt lat="45.93685" lon="4.62311">
        <ele>370.30490112305</ele>
        <time>2020-06-15T19:33:54Z</time>
      </trkpt>
      <trkpt lat="45.93777" lon="4.624">
        <ele>373.10299682617</ele>
        <time>2020-06-15T19:33:57Z</time>
      </trkpt>
      <trkpt lat="45.93811" lon="4.62414">
        <ele>375.45541381836</ele>
        <time>2020-06-15T19:34:00Z</time>
      </trkpt>
      <trkpt lat="45.93881" lon="4.62431">
        <ele>375.66812133789</ele>
        <time>2020-06-15T19:34:03Z</time>
      </trkpt>
      <trkpt lat="45.93954" lon="4.62402">
        <ele>376.97451782227</ele>
        <time>2020-06-15T19:34:06Z</time>
      </trkpt>
      <trkpt lat="45.94089" lon="4.62341">
        <ele>384.1237487793</ele>
        <time>2020-06-15T19:34:09Z</time>
      </trkpt>
      <trkpt lat="45.94118" lon="4.62347">
        <ele>384.58114624023</ele>
        <time>2020-06-15T19:34:12Z</time>
      </trkpt>
      <trkpt lat="45.94155" lon="4.6237">
        <ele>383.80459594727</ele>
        <time>2020-06-15T19:34:15Z</time>
      </trkpt>
      <trkpt lat="45.94184" lon="4.62382">
        <ele>384.84295654297</ele>
        <time>2020-06-15T19:34:18Z</time>
      </trkpt>
      <trkpt lat="45.94222" lon="4.62384">
        <ele>386.94830322266</ele>
        <time>2020-06-15T19:34:21Z</time>
      </trkpt>
      <trkpt lat="45.94241" lon="4.62376">
        <ele>388.60296630859</ele>
        <time>2020-06-15T19:34:24Z</time>
      </trkpt>
      <trkpt lat="45.94322" lon="4.62338">
        <ele>394.3112487793</ele>
        <time>2020-06-15T19:34:27Z</time>
      </trkpt>
      <trkpt lat="45.94564" lon="4.6219">
        <ele>395.25680541992</ele>
        <time>2020-06-15T19:34:30Z</time>
      </trkpt>
      <trkpt lat="45.94593" lon="4.62136">
        <ele>401.03070068359</ele>
        <time>2020-06-15T19:34:33Z</time>
      </trkpt>
      <trkpt lat="45.94639" lon="4.62091">
        <ele>406.11267089844</ele>
        <time>2020-06-15T19:34:36Z</time>
      </trkpt>
      <trkpt lat="45.94748" lon="4.62035">
        <ele>406.78866577148</ele>
        <time>2020-06-15T19:34:39Z</time>
      </trkpt>
      <trkpt lat="45.94776" lon="4.62033">
        <ele>410.2580871582</ele>
        <time>2020-06-15T19:34:42Z</time>
      </trkpt>
      <trkpt lat="45.94819" lon="4.62058">
        <ele>409.58126831055</ele>
        <time>2020-06-15T19:34:46Z</time>
      </trkpt>
      <trkpt lat="45.94843" lon="4.62062">
        <ele>409.17593383789</ele>
        <time>2020-06-15T19:34:49Z</time>
      </trkpt>
      <trkpt lat="45.94916" lon="4.62058">
        <ele>410.98574829102</ele>
        <time>2020-06-15T19:34:52Z</time>
      </trkpt>
      <trkpt lat="45.94932" lon="4.62053">
        <ele>411.66717529297</ele>
        <time>2020-06-15T19:34:55Z</time>
      </trkpt>
      <trkpt lat="45.94823" lon="4.62058">
        <ele>409.54162597656</ele>
        <time>2020-06-15T19:34:58Z</time>
      </trkpt>
      <trkpt lat="45.94805" lon="4.62052">
        <ele>410.24334716797</ele>
        <time>2020-06-15T19:35:01Z</time>
      </trkpt>
      <trkpt lat="45.94777" lon="4.62032">
        <ele>410.53866577148</ele>
        <time>2020-06-15T19:35:05Z</time>
      </trkpt>
      <trkpt lat="45.94747" lon="4.62029">
        <ele>408.00732421875</ele>
        <time>2020-06-15T19:35:08Z</time>
      </trkpt>
      <trkpt lat="45.94639" lon="4.62082">
        <ele>407.74426269531</ele>
        <time>2020-06-15T19:35:11Z</time>
      </trkpt>
      <trkpt lat="45.94591" lon="4.62123">
        <ele>403.20593261719</ele>
        <time>2020-06-15T19:35:14Z</time>
      </trkpt>
      <trkpt lat="45.94522" lon="4.62238">
        <ele>396.5774230957</ele>
        <time>2020-06-15T19:35:17Z</time>
      </trkpt>
      <trkpt lat="45.94487" lon="4.62258">
        <ele>400.13687133789</ele>
        <time>2020-06-15T19:35:21Z</time>
      </trkpt>
      <trkpt lat="45.94469" lon="4.6226">
        <ele>401.79022216797</ele>
        <time>2020-06-15T19:35:24Z</time>
      </trkpt>
      <trkpt lat="45.94441" lon="4.62252">
        <ele>402.99038696289</ele>
        <time>2020-06-15T19:35:27Z</time>
      </trkpt>
      <trkpt lat="45.94463" lon="4.6227">
        <ele>401.77975463867</ele>
        <time>2020-06-15T19:35:30Z</time>
      </trkpt>
      <trkpt lat="45.94488" lon="4.62262">
        <ele>399.84664916992</ele>
        <time>2020-06-15T19:35:34Z</time>
      </trkpt>
      <trkpt lat="45.94503" lon="4.62266">
        <ele>398.06381225586</ele>
        <time>2020-06-15T19:35:37Z</time>
      </trkpt>
      <trkpt lat="45.94517" lon="4.62282">
        <ele>395.99996948242</ele>
        <time>2020-06-15T19:35:40Z</time>
      </trkpt>
      <trkpt lat="45.94548" lon="4.62335">
        <ele>393.38461303711</ele>
        <time>2020-06-15T19:35:44Z</time>
      </trkpt>
      <trkpt lat="45.94508" lon="4.62255">
        <ele>397.6315612793</ele>
        <time>2020-06-15T19:35:47Z</time>
      </trkpt>
      <trkpt lat="45.9454" lon="4.62227">
        <ele>395.03604125977</ele>
        <time>2020-06-15T19:35:50Z</time>
      </trkpt>
      <trkpt lat="45.94601" lon="4.62124">
        <ele>402.48901367188</ele>
        <time>2020-06-15T19:35:53Z</time>
      </trkpt>
      <trkpt lat="45.94645" lon="4.62086">
        <ele>406.57879638672</ele>
        <time>2020-06-15T19:35:57Z</time>
      </trkpt>
      <trkpt lat="45.94735" lon="4.6204">
        <ele>404.556640625</ele>
        <time>2020-06-15T19:36:00Z</time>
      </trkpt>
      <trkpt lat="45.94762" lon="4.62031">
        <ele>409.14703369141</ele>
        <time>2020-06-15T19:36:03Z</time>
      </trkpt>
      <trkpt lat="45.94782" lon="4.62034">
        <ele>410.65051269531</ele>
        <time>2020-06-15T19:36:07Z</time>
      </trkpt>
      <trkpt lat="45.94815" lon="4.62056">
        <ele>409.88787841797</ele>
        <time>2020-06-15T19:36:10Z</time>
      </trkpt>
      <trkpt lat="45.94833" lon="4.6206">
        <ele>409.12393188477</ele>
        <time>2020-06-15T19:36:14Z</time>
      </trkpt>
      <trkpt lat="45.94917" lon="4.62059">
        <ele>410.75283813477</ele>
        <time>2020-06-15T19:36:17Z</time>
      </trkpt>
      <trkpt lat="45.9494" lon="4.62051">
        <ele>411.83755493164</ele>
        <time>2020-06-15T19:36:20Z</time>
      </trkpt>
      <trkpt lat="45.95127" lon="4.61952">
        <ele>416.85247802734</ele>
        <time>2020-06-15T19:36:24Z</time>
      </trkpt>
      <trkpt lat="45.95172" lon="4.61922">
        <ele>414.02340698242</ele>
        <time>2020-06-15T19:36:27Z</time>
      </trkpt>
      <trkpt lat="45.95197" lon="4.61893">
        <ele>412.76449584961</ele>
        <time>2020-06-15T19:36:30Z</time>
      </trkpt>
      <trkpt lat="45.95248" lon="4.61816">
        <ele>409.52816772461</ele>
        <time>2020-06-15T19:36:34Z</time>
      </trkpt>
      <trkpt lat="45.95269" lon="4.61779">
        <ele>410.84606933594</ele>
        <time>2020-06-15T19:36:37Z</time>
      </trkpt>
      <trkpt lat="45.95283" lon="4.61735">
        <ele>416.5637512207</ele>
        <time>2020-06-15T19:36:41Z</time>
      </trkpt>
      <trkpt lat="45.95301" lon="4.61711">
        <ele>421.26672363281</ele>
        <time>2020-06-15T19:36:44Z</time>
      </trkpt>
      <trkpt lat="45.95321" lon="4.61701">
        <ele>422.83737182617</ele>
        <time>2020-06-15T19:36:48Z</time>
      </trkpt>
      <trkpt lat="45.95367" lon="4.61692">
        <ele>423.16583251953</ele>
        <time>2020-06-15T19:36:51Z</time>
      </trkpt>
      <trkpt lat="45.95473" lon="4.61702">
        <ele>422.01498413086</ele>
        <time>2020-06-15T19:36:55Z</time>
      </trkpt>
      <trkpt lat="45.955" lon="4.6169">
        <ele>420.98638916016</ele>
        <time>2020-06-15T19:36:58Z</time>
      </trkpt>
      <trkpt lat="45.95515" lon="4.61676">
        <ele>420.96649169922</ele>
        <time>2020-06-15T19:37:02Z</time>
      </trkpt>
      <trkpt lat="45.95536" lon="4.61641">
        <ele>420.47338867188</ele>
        <time>2020-06-15T19:37:05Z</time>
      </trkpt>
      <trkpt lat="45.95563" lon="4.61571">
        <ele>420.24838256836</ele>
        <time>2020-06-15T19:37:09Z</time>
      </trkpt>
      <trkpt lat="45.95571" lon="4.61469">
        <ele>420.8971862793</ele>
        <time>2020-06-15T19:37:12Z</time>
      </trkpt>
      <trkpt lat="45.9557" lon="4.61413">
        <ele>418.20736694336</ele>
        <time>2020-06-15T19:37:16Z</time>
      </trkpt>
      <trkpt lat="45.95561" lon="4.61358">
        <ele>415.49896240234</ele>
        <time>2020-06-15T19:37:19Z</time>
      </trkpt>
      <trkpt lat="45.95525" lon="4.6128">
        <ele>418.2151184082</ele>
        <time>2020-06-15T19:37:23Z</time>
      </trkpt>
      <trkpt lat="45.9552" lon="4.61259">
        <ele>418.32723999023</ele>
        <time>2020-06-15T19:37:26Z</time>
      </trkpt>
      <trkpt lat="45.95517" lon="4.61218">
        <ele>418.30975341797</ele>
        <time>2020-06-15T19:37:30Z</time>
      </trkpt>
      <trkpt lat="45.95523" lon="4.61148">
        <ele>417.97732543945</ele>
        <time>2020-06-15T19:37:33Z</time>
      </trkpt>
      <trkpt lat="45.95534" lon="4.61093">
        <ele>418.94091796875</ele>
        <time>2020-06-15T19:37:37Z</time>
      </trkpt>
      <trkpt lat="45.95546" lon="4.61058">
        <ele>418.15106201172</ele>
        <time>2020-06-15T19:37:40Z</time>
      </trkpt>
      <trkpt lat="45.95591" lon="4.61011">
        <ele>413.42190551758</ele>
        <time>2020-06-15T19:37:44Z</time>
      </trkpt>
      <trkpt lat="45.95603" lon="4.6094">
        <ele>417.72720336914</ele>
        <time>2020-06-15T19:37:48Z</time>
      </trkpt>
      <trkpt lat="45.95611" lon="4.60916">
        <ele>418.47775268555</ele>
        <time>2020-06-15T19:37:51Z</time>
      </trkpt>
      <trkpt lat="45.95626" lon="4.60899">
        <ele>420.09729003906</ele>
        <time>2020-06-15T19:37:55Z</time>
      </trkpt>
      <trkpt lat="45.95649" lon="4.60894">
        <ele>420.84051513672</ele>
        <time>2020-06-15T19:37:58Z</time>
      </trkpt>
      <trkpt lat="45.95684" lon="4.609">
        <ele>421.53363037109</ele>
        <time>2020-06-15T19:38:02Z</time>
      </trkpt>
      <trkpt lat="45.95757" lon="4.60924">
        <ele>420.67724609375</ele>
        <time>2020-06-15T19:38:05Z</time>
      </trkpt>
      <trkpt lat="45.95854" lon="4.60929">
        <ele>426.6689453125</ele>
        <time>2020-06-15T19:38:09Z</time>
      </trkpt>
      <trkpt lat="45.95917" lon="4.6092">
        <ele>429.32473754883</ele>
        <time>2020-06-15T19:38:13Z</time>
      </trkpt>
      <trkpt lat="45.95972" lon="4.60897">
        <ele>428.42932128906</ele>
        <time>2020-06-15T19:38:16Z</time>
      </trkpt>
      <trkpt lat="45.95978" lon="4.60886">
        <ele>428.3076171875</ele>
        <time>2020-06-15T19:38:20Z</time>
      </trkpt>
      <trkpt lat="45.95981" lon="4.60855">
        <ele>428.95935058594</ele>
        <time>2020-06-15T19:38:24Z</time>
      </trkpt>
      <trkpt lat="45.96003" lon="4.60839">
        <ele>426.95123291016</ele>
        <time>2020-06-15T19:38:27Z</time>
      </trkpt>
      <trkpt lat="45.96021" lon="4.60815">
        <ele>425.50491333008</ele>
        <time>2020-06-15T19:38:31Z</time>
      </trkpt>
      <trkpt lat="45.96053" lon="4.60722">
        <ele>423.51370239258</ele>
        <time>2020-06-15T19:38:35Z</time>
      </trkpt>
      <trkpt lat="45.96105" lon="4.6063">
        <ele>422.97991943359</ele>
        <time>2020-06-15T19:38:38Z</time>
      </trkpt>
      <trkpt lat="45.96141" lon="4.60541">
        <ele>419.6037902832</ele>
        <time>2020-06-15T19:38:42Z</time>
      </trkpt>
      <trkpt lat="45.96181" lon="4.60408">
        <ele>427.82586669922</ele>
        <time>2020-06-15T19:38:46Z</time>
      </trkpt>
      <trkpt lat="45.96189" lon="4.60393">
        <ele>431.44653320312</ele>
        <time>2020-06-15T19:38:49Z</time>
      </trkpt>
      <trkpt lat="45.96205" lon="4.60377">
        <ele>435.45852661133</ele>
        <time>2020-06-15T19:38:53Z</time>
      </trkpt>
      <trkpt lat="45.96229" lon="4.60367">
        <ele>438.80374145508</ele>
        <time>2020-06-15T19:38:57Z</time>
      </trkpt>
      <trkpt lat="45.96259" lon="4.60365">
        <ele>443.12948608398</ele>
        <time>2020-06-15T19:39:01Z</time>
      </trkpt>
      <trkpt lat="45.96318" lon="4.60384">
        <ele>445.29602050781</ele>
        <time>2020-06-15T19:39:04Z</time>
      </trkpt>
      <trkpt lat="45.96374" lon="4.60387">
        <ele>450.24758911133</ele>
        <time>2020-06-15T19:39:08Z</time>
      </trkpt>
      <trkpt lat="45.96389" lon="4.60393">
        <ele>450.28890991211</ele>
        <time>2020-06-15T19:39:12Z</time>
      </trkpt>
      <trkpt lat="45.96404" lon="4.60416">
        <ele>451.873046875</ele>
        <time>2020-06-15T19:39:16Z</time>
      </trkpt>
      <trkpt lat="45.96433" lon="4.6048">
        <ele>450.95315551758</ele>
        <time>2020-06-15T19:39:19Z</time>
      </trkpt>
      <trkpt lat="45.9649" lon="4.60558">
        <ele>453.85693359375</ele>
        <time>2020-06-15T19:39:23Z</time>
      </trkpt>
      <trkpt lat="45.96559" lon="4.60643">
        <ele>452.86080932617</ele>
        <time>2020-06-15T19:39:27Z</time>
      </trkpt>
      <trkpt lat="45.96625" lon="4.60706">
        <ele>440.98971557617</ele>
        <time>2020-06-15T19:39:31Z</time>
      </trkpt>
      <trkpt lat="45.96686" lon="4.60778">
        <ele>432.07824707031</ele>
        <time>2020-06-15T19:39:34Z</time>
      </trkpt>
      <trkpt lat="45.96706" lon="4.60789">
        <ele>430.17974853516</ele>
        <time>2020-06-15T19:39:38Z</time>
      </trkpt>
      <trkpt lat="45.96722" lon="4.60787">
        <ele>429.1611328125</ele>
        <time>2020-06-15T19:39:42Z</time>
      </trkpt>
      <trkpt lat="45.96754" lon="4.60764">
        <ele>428.40927124023</ele>
        <time>2020-06-15T19:39:46Z</time>
      </trkpt>
      <trkpt lat="45.97157" lon="4.60427">
        <ele>405.06433105469</ele>
        <time>2020-06-15T19:39:50Z</time>
      </trkpt>
      <trkpt lat="45.97179" lon="4.60413">
        <ele>406.22235107422</ele>
        <time>2020-06-15T19:39:54Z</time>
      </trkpt>
      <trkpt lat="45.972" lon="4.60408">
        <ele>407.40899658203</ele>
        <time>2020-06-15T19:39:58Z</time>
      </trkpt>
      <trkpt lat="45.9722" lon="4.60415">
        <ele>407.23580932617</ele>
        <time>2020-06-15T19:40:02Z</time>
      </trkpt>
      <trkpt lat="45.97312" lon="4.60512">
        <ele>401.35446166992</ele>
        <time>2020-06-15T19:40:05Z</time>
      </trkpt>
      <trkpt lat="45.97438" lon="4.60617">
        <ele>401.71893310547</ele>
        <time>2020-06-15T19:40:09Z</time>
      </trkpt>
      <trkpt lat="45.97481" lon="4.6067">
        <ele>402.13998413086</ele>
        <time>2020-06-15T19:40:13Z</time>
      </trkpt>
      <trkpt lat="45.97502" lon="4.60704">
        <ele>400.63830566406</ele>
        <time>2020-06-15T19:40:17Z</time>
      </trkpt>
      <trkpt lat="45.9752" lon="4.6071">
        <ele>398.93933105469</ele>
        <time>2020-06-15T19:40:21Z</time>
      </trkpt>
      <trkpt lat="45.97557" lon="4.60702">
        <ele>398.95050048828</ele>
        <time>2020-06-15T19:40:25Z</time>
      </trkpt>
      <trkpt lat="45.97595" lon="4.60687">
        <ele>392.25445556641</ele>
        <time>2020-06-15T19:40:29Z</time>
      </trkpt>
      <trkpt lat="45.97633" lon="4.60654">
        <ele>391.16711425781</ele>
        <time>2020-06-15T19:40:33Z</time>
      </trkpt>
      <trkpt lat="45.97661" lon="4.60617">
        <ele>391.22036743164</ele>
        <time>2020-06-15T19:40:37Z</time>
      </trkpt>
      <trkpt lat="45.97687" lon="4.60572">
        <ele>388.00442504883</ele>
        <time>2020-06-15T19:40:41Z</time>
      </trkpt>
      <trkpt lat="45.97746" lon="4.60457">
        <ele>387.46542358398</ele>
        <time>2020-06-15T19:40:45Z</time>
      </trkpt>
      <trkpt lat="45.97795" lon="4.60345">
        <ele>383.97161865234</ele>
        <time>2020-06-15T19:40:49Z</time>
      </trkpt>
      <trkpt lat="45.97847" lon="4.60203">
        <ele>385.72454833984</ele>
        <time>2020-06-15T19:40:53Z</time>
      </trkpt>
      <trkpt lat="45.97902" lon="4.60124">
        <ele>379.15466308594</ele>
        <time>2020-06-15T19:40:58Z</time>
      </trkpt>
      <trkpt lat="45.97925" lon="4.60081">
        <ele>378.04400634766</ele>
        <time>2020-06-15T19:41:02Z</time>
      </trkpt>
      <trkpt lat="45.97958" lon="4.59973">
        <ele>381.44873046875</ele>
        <time>2020-06-15T19:41:06Z</time>
      </trkpt>
      <trkpt lat="45.97973" lon="4.59959">
        <ele>381.02655029297</ele>
        <time>2020-06-15T19:41:10Z</time>
      </trkpt>
      <trkpt lat="45.98008" lon="4.59959">
        <ele>376.56005859375</ele>
        <time>2020-06-15T19:41:14Z</time>
      </trkpt>
      <trkpt lat="45.98025" lon="4.59952">
        <ele>374.82171630859</ele>
        <time>2020-06-15T19:41:18Z</time>
      </trkpt>
      <trkpt lat="45.98099" lon="4.59845">
        <ele>381.56735229492</ele>
        <time>2020-06-15T19:41:22Z</time>
      </trkpt>
      <trkpt lat="45.98124" lon="4.59822">
        <ele>378.72912597656</ele>
        <time>2020-06-15T19:41:26Z</time>
      </trkpt>
      <trkpt lat="45.98139" lon="4.59816">
        <ele>374.880859375</ele>
        <time>2020-06-15T19:41:30Z</time>
      </trkpt>
      <trkpt lat="45.9815" lon="4.59835">
        <ele>376.96038818359</ele>
        <time>2020-06-15T19:41:34Z</time>
      </trkpt>
      <trkpt lat="45.9815" lon="4.59873">
        <ele>377.98538208008</ele>
        <time>2020-06-15T19:41:39Z</time>
      </trkpt>
      <trkpt lat="45.98113" lon="4.59991">
        <ele>383.26007080078</ele>
        <time>2020-06-15T19:41:43Z</time>
      </trkpt>
      <trkpt lat="45.98058" lon="4.6022">
        <ele>372.70181274414</ele>
        <time>2020-06-15T19:41:47Z</time>
      </trkpt>
      <trkpt lat="45.9804" lon="4.60332">
        <ele>379.02081298828</ele>
        <time>2020-06-15T19:41:51Z</time>
      </trkpt>
      <trkpt lat="45.98033" lon="4.60431">
        <ele>380.79611206055</ele>
        <time>2020-06-15T19:41:55Z</time>
      </trkpt>
      <trkpt lat="45.98038" lon="4.60465">
        <ele>381.84909057617</ele>
        <time>2020-06-15T19:41:59Z</time>
      </trkpt>
      <trkpt lat="45.98047" lon="4.60482">
        <ele>382.11315917969</ele>
        <time>2020-06-15T19:42:04Z</time>
      </trkpt>
      <trkpt lat="45.98109" lon="4.6056">
        <ele>383.58395385742</ele>
        <time>2020-06-15T19:42:08Z</time>
      </trkpt>
      <trkpt lat="45.98143" lon="4.60587">
        <ele>385.51864624023</ele>
        <time>2020-06-15T19:42:12Z</time>
      </trkpt>
      <trkpt lat="45.98152" lon="4.60613">
        <ele>382.30334472656</ele>
        <time>2020-06-15T19:42:16Z</time>
      </trkpt>
      <trkpt lat="45.98146" lon="4.60636">
        <ele>380.81365966797</ele>
        <time>2020-06-15T19:42:21Z</time>
      </trkpt>
      <trkpt lat="45.98093" lon="4.60685">
        <ele>370.68020629883</ele>
        <time>2020-06-15T19:42:25Z</time>
      </trkpt>
      <trkpt lat="45.98029" lon="4.6077">
        <ele>367.91827392578</ele>
        <time>2020-06-15T19:42:29Z</time>
      </trkpt>
      <trkpt lat="45.98029" lon="4.60801">
        <ele>370.47402954102</ele>
        <time>2020-06-15T19:42:33Z</time>
      </trkpt>
      <trkpt lat="45.98054" lon="4.60826">
        <ele>374.10314941406</ele>
        <time>2020-06-15T19:42:38Z</time>
      </trkpt>
      <trkpt lat="45.98063" lon="4.60854">
        <ele>376.19641113281</ele>
        <time>2020-06-15T19:42:42Z</time>
      </trkpt>
      <trkpt lat="45.98044" lon="4.60964">
        <ele>377.72579956055</ele>
        <time>2020-06-15T19:42:46Z</time>
      </trkpt>
      <trkpt lat="45.98038" lon="4.61042">
        <ele>385.7607421875</ele>
        <time>2020-06-15T19:42:50Z</time>
      </trkpt>
      <trkpt lat="45.98064" lon="4.61285">
        <ele>377.5283203125</ele>
        <time>2020-06-15T19:42:55Z</time>
      </trkpt>
      <trkpt lat="45.9807" lon="4.61294">
        <ele>376.42828369141</ele>
        <time>2020-06-15T19:42:59Z</time>
      </trkpt>
      <trkpt lat="45.98085" lon="4.61303">
        <ele>376.02291870117</ele>
        <time>2020-06-15T19:43:03Z</time>
      </trkpt>
      <trkpt lat="45.98219" lon="4.61336">
        <ele>379.25698852539</ele>
        <time>2020-06-15T19:43:08Z</time>
      </trkpt>
      <trkpt lat="45.9824" lon="4.61354">
        <ele>378.1897277832</ele>
        <time>2020-06-15T19:43:12Z</time>
      </trkpt>
      <trkpt lat="45.98247" lon="4.61375">
        <ele>376.29409790039</ele>
        <time>2020-06-15T19:43:16Z</time>
      </trkpt>
      <trkpt lat="45.98243" lon="4.61399">
        <ele>375.30187988281</ele>
        <time>2020-06-15T19:43:21Z</time>
      </trkpt>
      <trkpt lat="45.98231" lon="4.61417">
        <ele>373.12631225586</ele>
        <time>2020-06-15T19:43:25Z</time>
      </trkpt>
      <trkpt lat="45.98181" lon="4.61438">
        <ele>367.47189331055</ele>
        <time>2020-06-15T19:43:30Z</time>
      </trkpt>
      <trkpt lat="45.98151" lon="4.61467">
        <ele>364.77911376953</ele>
        <time>2020-06-15T19:43:34Z</time>
      </trkpt>
      <trkpt lat="45.98085" lon="4.6158">
        <ele>361.8837890625</ele>
        <time>2020-06-15T19:43:38Z</time>
      </trkpt>
      <trkpt lat="45.98065" lon="4.61629">
        <ele>364.96752929688</ele>
        <time>2020-06-15T19:43:43Z</time>
      </trkpt>
      <trkpt lat="45.98055" lon="4.61678">
        <ele>366.60931396484</ele>
        <time>2020-06-15T19:43:47Z</time>
      </trkpt>
      <trkpt lat="45.98053" lon="4.61728">
        <ele>367.57727050781</ele>
        <time>2020-06-15T19:43:52Z</time>
      </trkpt>
      <trkpt lat="45.98059" lon="4.61773">
        <ele>368.3576965332</ele>
        <time>2020-06-15T19:43:56Z</time>
      </trkpt>
      <trkpt lat="45.9808" lon="4.61823">
        <ele>368.9280090332</ele>
        <time>2020-06-15T19:44:00Z</time>
      </trkpt>
      <trkpt lat="45.98128" lon="4.61896">
        <ele>371.02453613281</ele>
        <time>2020-06-15T19:44:05Z</time>
      </trkpt>
      <trkpt lat="45.98132" lon="4.61913">
        <ele>370.24475097656</ele>
        <time>2020-06-15T19:44:09Z</time>
      </trkpt>
      <trkpt lat="45.98156" lon="4.61937">
        <ele>370.47888183594</ele>
        <time>2020-06-15T19:44:14Z</time>
      </trkpt>
      <trkpt lat="45.98205" lon="4.6201">
        <ele>364.91052246094</ele>
        <time>2020-06-15T19:44:18Z</time>
      </trkpt>
      <trkpt lat="45.98277" lon="4.6208">
        <ele>362.74179077148</ele>
        <time>2020-06-15T19:44:23Z</time>
      </trkpt>
      <trkpt lat="45.98289" lon="4.62118">
        <ele>360.28982543945</ele>
        <time>2020-06-15T19:44:27Z</time>
      </trkpt>
      <trkpt lat="45.98301" lon="4.62256">
        <ele>362.14108276367</ele>
        <time>2020-06-15T19:44:32Z</time>
      </trkpt>
      <trkpt lat="45.98313" lon="4.6232">
        <ele>364.40744018555</ele>
        <time>2020-06-15T19:44:36Z</time>
      </trkpt>
      <trkpt lat="45.98335" lon="4.62371">
        <ele>366.06759643555</ele>
        <time>2020-06-15T19:44:41Z</time>
      </trkpt>
      <trkpt lat="45.98406" lon="4.62477">
        <ele>362.79113769531</ele>
        <time>2020-06-15T19:44:45Z</time>
      </trkpt>
      <trkpt lat="45.98446" lon="4.62517">
        <ele>357.99212646484</ele>
        <time>2020-06-15T19:44:50Z</time>
      </trkpt>
      <trkpt lat="45.98464" lon="4.62526">
        <ele>356.26901245117</ele>
        <time>2020-06-15T19:44:54Z</time>
      </trkpt>
      <trkpt lat="45.98489" lon="4.62529">
        <ele>354.8542175293</ele>
        <time>2020-06-15T19:44:59Z</time>
      </trkpt>
      <trkpt lat="45.98655" lon="4.62487">
        <ele>353.25973510742</ele>
        <time>2020-06-15T19:45:03Z</time>
      </trkpt>
      <trkpt lat="45.98703" lon="4.62479">
        <ele>353.68215942383</ele>
        <time>2020-06-15T19:45:08Z</time>
      </trkpt>
      <trkpt lat="45.98742" lon="4.6248">
        <ele>354.18389892578</ele>
        <time>2020-06-15T19:45:12Z</time>
      </trkpt>
      <trkpt lat="45.98754" lon="4.62494">
        <ele>353.34677124023</ele>
        <time>2020-06-15T19:45:17Z</time>
      </trkpt>
      <trkpt lat="45.98787" lon="4.62611">
        <ele>344.50503540039</ele>
        <time>2020-06-15T19:45:22Z</time>
      </trkpt>
      <trkpt lat="45.98794" lon="4.62643">
        <ele>342.17794799805</ele>
        <time>2020-06-15T19:45:26Z</time>
      </trkpt>
      <trkpt lat="45.98795" lon="4.62668">
        <ele>340.03518676758</ele>
        <time>2020-06-15T19:45:31Z</time>
      </trkpt>
      <trkpt lat="45.98782" lon="4.62778">
        <ele>336.08279418945</ele>
        <time>2020-06-15T19:45:35Z</time>
      </trkpt>
      <trkpt lat="45.98755" lon="4.62832">
        <ele>333.34094238281</ele>
        <time>2020-06-15T19:45:40Z</time>
      </trkpt>
      <trkpt lat="45.9874" lon="4.6285">
        <ele>331.09649658203</ele>
        <time>2020-06-15T19:45:45Z</time>
      </trkpt>
      <trkpt lat="45.98648" lon="4.62914">
        <ele>325.69085693359</ele>
        <time>2020-06-15T19:45:49Z</time>
      </trkpt>
      <trkpt lat="45.98568" lon="4.63012">
        <ele>320.09423828125</ele>
        <time>2020-06-15T19:45:54Z</time>
      </trkpt>
      <trkpt lat="45.98483" lon="4.63081">
        <ele>316.50137329102</ele>
        <time>2020-06-15T19:45:59Z</time>
      </trkpt>
      <trkpt lat="45.98446" lon="4.63137">
        <ele>315.19467163086</ele>
        <time>2020-06-15T19:46:03Z</time>
      </trkpt>
      <trkpt lat="45.98438" lon="4.63196">
        <ele>314.17202758789</ele>
        <time>2020-06-15T19:46:08Z</time>
      </trkpt>
      <trkpt lat="45.98438" lon="4.63297">
        <ele>310.15740966797</ele>
        <time>2020-06-15T19:46:13Z</time>
      </trkpt>
      <trkpt lat="45.98424" lon="4.63527">
        <ele>301.04754638672</ele>
        <time>2020-06-15T19:46:17Z</time>
      </trkpt>
      <trkpt lat="45.98425" lon="4.63599">
        <ele>296.09091186523</ele>
        <time>2020-06-15T19:46:22Z</time>
      </trkpt>
      <trkpt lat="45.98416" lon="4.6365">
        <ele>293.81622314453</ele>
        <time>2020-06-15T19:46:27Z</time>
      </trkpt>
      <trkpt lat="45.98396" lon="4.63697">
        <ele>287.16677856445</ele>
        <time>2020-06-15T19:46:32Z</time>
      </trkpt>
      <trkpt lat="45.98356" lon="4.63767">
        <ele>288.32052612305</ele>
        <time>2020-06-15T19:46:36Z</time>
      </trkpt>
      <trkpt lat="45.98217" lon="4.63914">
        <ele>272.40881347656</ele>
        <time>2020-06-15T19:46:41Z</time>
      </trkpt>
      <trkpt lat="45.98183" lon="4.64042">
        <ele>267.46411132812</ele>
        <time>2020-06-15T19:46:46Z</time>
      </trkpt>
      <trkpt lat="45.98176" lon="4.64203">
        <ele>262.76086425781</ele>
        <time>2020-06-15T19:46:51Z</time>
      </trkpt>
      <trkpt lat="45.98163" lon="4.643">
        <ele>260.58404541016</ele>
        <time>2020-06-15T19:46:56Z</time>
      </trkpt>
      <trkpt lat="45.98157" lon="4.64388">
        <ele>258.30960083008</ele>
        <time>2020-06-15T19:47:00Z</time>
      </trkpt>
      <trkpt lat="45.98167" lon="4.6442">
        <ele>258.01272583008</ele>
        <time>2020-06-15T19:47:05Z</time>
      </trkpt>
      <trkpt lat="45.98214" lon="4.6447">
        <ele>258.40270996094</ele>
        <time>2020-06-15T19:47:10Z</time>
      </trkpt>
      <trkpt lat="45.9822" lon="4.64482">
        <ele>258.00677490234</ele>
        <time>2020-06-15T19:47:15Z</time>
      </trkpt>
      <trkpt lat="45.98219" lon="4.64492">
        <ele>257.34265136719</ele>
        <time>2020-06-15T19:47:20Z</time>
      </trkpt>
      <trkpt lat="45.98206" lon="4.64506">
        <ele>255.91198730469</ele>
        <time>2020-06-15T19:47:25Z</time>
      </trkpt>
      <trkpt lat="45.98228" lon="4.64496">
        <ele>257.62222290039</ele>
        <time>2020-06-15T19:50:09Z</time>
      </trkpt>
      <trkpt lat="45.98281" lon="4.64498">
        <ele>261.32666015625</ele>
        <time>2020-06-15T19:50:14Z</time>
      </trkpt>
      <trkpt lat="45.98299" lon="4.6449">
        <ele>263.12408447266</ele>
        <time>2020-06-15T19:50:19Z</time>
      </trkpt>
      <trkpt lat="45.98391" lon="4.64423">
        <ele>271.13912963867</ele>
        <time>2020-06-15T19:50:24Z</time>
      </trkpt>
      <trkpt lat="45.9844" lon="4.64399">
        <ele>274.42074584961</ele>
        <time>2020-06-15T19:50:29Z</time>
      </trkpt>
      <trkpt lat="45.98502" lon="4.6438">
        <ele>276.84875488281</ele>
        <time>2020-06-15T19:50:34Z</time>
      </trkpt>
      <trkpt lat="45.98525" lon="4.64379">
        <ele>279.27954101562</ele>
        <time>2020-06-15T19:50:40Z</time>
      </trkpt>
      <trkpt lat="45.98578" lon="4.64394">
        <ele>283.66027832031</ele>
        <time>2020-06-15T19:50:45Z</time>
      </trkpt>
      <trkpt lat="45.98639" lon="4.64394">
        <ele>287.25454711914</ele>
        <time>2020-06-15T19:50:50Z</time>
      </trkpt>
      <trkpt lat="45.9867" lon="4.64404">
        <ele>288.54000854492</ele>
        <time>2020-06-15T19:50:55Z</time>
      </trkpt>
      <trkpt lat="45.98723" lon="4.64433">
        <ele>290.59475708008</ele>
        <time>2020-06-15T19:51:00Z</time>
      </trkpt>
      <trkpt lat="45.98778" lon="4.64497">
        <ele>289.46243286133</ele>
        <time>2020-06-15T19:51:05Z</time>
      </trkpt>
      <trkpt lat="45.98801" lon="4.64514">
        <ele>289.26611328125</ele>
        <time>2020-06-15T19:51:11Z</time>
      </trkpt>
      <trkpt lat="45.99184" lon="4.64533">
        <ele>292.11779785156</ele>
        <time>2020-06-15T19:51:16Z</time>
      </trkpt>
      <trkpt lat="45.99243" lon="4.64554">
        <ele>293.3342590332</ele>
        <time>2020-06-15T19:51:21Z</time>
      </trkpt>
      <trkpt lat="45.99317" lon="4.64564">
        <ele>292.65219116211</ele>
        <time>2020-06-15T19:51:26Z</time>
      </trkpt>
      <trkpt lat="45.99336" lon="4.64576">
        <ele>293.02044677734</ele>
        <time>2020-06-15T19:51:32Z</time>
      </trkpt>
      <trkpt lat="45.99341" lon="4.64607">
        <ele>292.48504638672</ele>
        <time>2020-06-15T19:51:37Z</time>
      </trkpt>
      <trkpt lat="45.99378" lon="4.64624">
        <ele>293.45751953125</ele>
        <time>2020-06-15T19:51:42Z</time>
      </trkpt>
      <trkpt lat="45.99454" lon="4.6464">
        <ele>293.75</ele>
        <time>2020-06-15T19:51:47Z</time>
      </trkpt>
      <trkpt lat="45.99535" lon="4.64682">
        <ele>293.24545288086</ele>
        <time>2020-06-15T19:51:53Z</time>
      </trkpt>
      <trkpt lat="45.99574" lon="4.64694">
        <ele>293.5947265625</ele>
        <time>2020-06-15T19:51:58Z</time>
      </trkpt>
      <trkpt lat="45.99625" lon="4.64693">
        <ele>294.81539916992</ele>
        <time>2020-06-15T19:52:03Z</time>
      </trkpt>
      <trkpt lat="45.99774" lon="4.64658">
        <ele>290.81265258789</ele>
        <time>2020-06-15T19:52:09Z</time>
      </trkpt>
      <trkpt lat="45.99793" lon="4.64644">
        <ele>290.63674926758</ele>
        <time>2020-06-15T19:52:14Z</time>
      </trkpt>
      <trkpt lat="45.9985" lon="4.64576">
        <ele>290.0852355957</ele>
        <time>2020-06-15T19:52:19Z</time>
      </trkpt>
      <trkpt lat="45.99858" lon="4.64573">
        <ele>289.53302001953</ele>
        <time>2020-06-15T19:52:25Z</time>
      </trkpt>
      <trkpt lat="45.99862" lon="4.64579">
        <ele>288.9557800293</ele>
        <time>2020-06-15T19:52:30Z</time>
      </trkpt>
      <trkpt lat="45.99841" lon="4.64681">
        <ele>286.79824829102</ele>
        <time>2020-06-15T19:52:36Z</time>
      </trkpt>
      <trkpt lat="45.99773" lon="4.65152">
        <ele>281.73580932617</ele>
        <time>2020-06-15T19:52:41Z</time>
      </trkpt>
      <trkpt lat="45.99764" lon="4.65221">
        <ele>281.23831176758</ele>
        <time>2020-06-15T19:52:46Z</time>
      </trkpt>
      <trkpt lat="45.99767" lon="4.65228">
        <ele>280.85946655273</ele>
        <time>2020-06-15T19:52:52Z</time>
      </trkpt>
      <trkpt lat="45.99778" lon="4.65178">
        <ele>281.1457824707</ele>
        <time>2020-06-15T19:52:57Z</time>
      </trkpt>
      <trkpt lat="45.99818" lon="4.65172">
        <ele>278.5673828125</ele>
        <time>2020-06-15T19:53:03Z</time>
      </trkpt>
      <trkpt lat="45.99832" lon="4.65157">
        <ele>277.55737304688</ele>
        <time>2020-06-15T19:53:08Z</time>
      </trkpt>
      <trkpt lat="45.99917" lon="4.64916">
        <ele>278.37326049805</ele>
        <time>2020-06-15T19:53:14Z</time>
      </trkpt>
      <trkpt lat="45.99934" lon="4.64887">
        <ele>276.77285766602</ele>
        <time>2020-06-15T19:53:19Z</time>
      </trkpt>
      <trkpt lat="45.9995" lon="4.6488">
        <ele>275.30239868164</ele>
        <time>2020-06-15T19:53:25Z</time>
      </trkpt>
      <trkpt lat="46.00104" lon="4.64879">
        <ele>263.89022827148</ele>
        <time>2020-06-15T19:53:30Z</time>
      </trkpt>
      <trkpt lat="46.00176" lon="4.64872">
        <ele>260.44607543945</ele>
        <time>2020-06-15T19:53:36Z</time>
      </trkpt>
      <trkpt lat="46.00256" lon="4.64902">
        <ele>255.06164550781</ele>
        <time>2020-06-15T19:53:41Z</time>
      </trkpt>
      <trkpt lat="46.00308" lon="4.64917">
        <ele>252.85585021973</ele>
        <time>2020-06-15T19:53:47Z</time>
      </trkpt>
      <trkpt lat="46.00317" lon="4.64912">
        <ele>253.92747497559</ele>
        <time>2020-06-15T19:53:52Z</time>
      </trkpt>
      <trkpt lat="46.004" lon="4.64681">
        <ele>262.69424438477</ele>
        <time>2020-06-15T19:53:58Z</time>
      </trkpt>
      <trkpt lat="46.00426" lon="4.64638">
        <ele>268.54333496094</ele>
        <time>2020-06-15T19:54:04Z</time>
      </trkpt>
      <trkpt lat="46.00488" lon="4.6447">
        <ele>278.32052612305</ele>
        <time>2020-06-15T19:54:09Z</time>
      </trkpt>
      <trkpt lat="46.00495" lon="4.64467">
        <ele>280.10284423828</ele>
        <time>2020-06-15T19:54:15Z</time>
      </trkpt>
      <trkpt lat="46.00501" lon="4.645">
        <ele>281.43978881836</ele>
        <time>2020-06-15T19:54:20Z</time>
      </trkpt>
      <trkpt lat="46.00487" lon="4.64564">
        <ele>279.17037963867</ele>
        <time>2020-06-15T19:54:26Z</time>
      </trkpt>
      <trkpt lat="46.00483" lon="4.6461">
        <ele>281.21487426758</ele>
        <time>2020-06-15T19:54:32Z</time>
      </trkpt>
      <trkpt lat="46.00479" lon="4.64708">
        <ele>284.63153076172</ele>
        <time>2020-06-15T19:54:37Z</time>
      </trkpt>
      <trkpt lat="46.00482" lon="4.64793">
        <ele>285.78012084961</ele>
        <time>2020-06-15T19:54:43Z</time>
      </trkpt>
      <trkpt lat="46.00488" lon="4.64845">
        <ele>286.42218017578</ele>
        <time>2020-06-15T19:54:49Z</time>
      </trkpt>
      <trkpt lat="46.00498" lon="4.6487">
        <ele>287.46578979492</ele>
        <time>2020-06-15T19:54:54Z</time>
      </trkpt>
      <trkpt lat="46.00513" lon="4.6489">
        <ele>288.39413452148</ele>
        <time>2020-06-15T19:55:00Z</time>
      </trkpt>
      <trkpt lat="46.00529" lon="4.64899">
        <ele>289.73941040039</ele>
        <time>2020-06-15T19:55:06Z</time>
      </trkpt>
      <trkpt lat="46.00555" lon="4.64906">
        <ele>292.36477661133</ele>
        <time>2020-06-15T19:55:11Z</time>
      </trkpt>
      <trkpt lat="46.00658" lon="4.64909">
        <ele>292.17660522461</ele>
        <time>2020-06-15T19:55:17Z</time>
      </trkpt>
      <trkpt lat="46.00783" lon="4.64923">
        <ele>290.71966552734</ele>
        <time>2020-06-15T19:55:23Z</time>
      </trkpt>
      <trkpt lat="46.00874" lon="4.64949">
        <ele>284.45205688477</ele>
        <time>2020-06-15T19:55:28Z</time>
      </trkpt>
      <trkpt lat="46.00926" lon="4.64976">
        <ele>286.56356811523</ele>
        <time>2020-06-15T19:55:34Z</time>
      </trkpt>
      <trkpt lat="46.00999" lon="4.65046">
        <ele>292.96710205078</ele>
        <time>2020-06-15T19:55:40Z</time>
      </trkpt>
      <trkpt lat="46.01034" lon="4.65053">
        <ele>294.70043945312</ele>
        <time>2020-06-15T19:55:46Z</time>
      </trkpt>
      <trkpt lat="46.01104" lon="4.65093">
        <ele>292.62408447266</ele>
        <time>2020-06-15T19:55:51Z</time>
      </trkpt>
      <trkpt lat="46.01208" lon="4.65225">
        <ele>284.08209228516</ele>
        <time>2020-06-15T19:55:57Z</time>
      </trkpt>
      <trkpt lat="46.01278" lon="4.65366">
        <ele>278.21493530273</ele>
        <time>2020-06-15T19:56:03Z</time>
      </trkpt>
      <trkpt lat="46.01302" lon="4.65386">
        <ele>276.08786010742</ele>
        <time>2020-06-15T19:56:09Z</time>
      </trkpt>
      <trkpt lat="46.01352" lon="4.65411">
        <ele>276.55960083008</ele>
        <time>2020-06-15T19:56:15Z</time>
      </trkpt>
      <trkpt lat="46.01379" lon="4.65441">
        <ele>276.82598876953</ele>
        <time>2020-06-15T19:56:21Z</time>
      </trkpt>
      <trkpt lat="46.01395" lon="4.65474">
        <ele>276.47311401367</ele>
        <time>2020-06-15T19:56:26Z</time>
      </trkpt>
      <trkpt lat="46.01414" lon="4.65544">
        <ele>275.55072021484</ele>
        <time>2020-06-15T19:56:32Z</time>
      </trkpt>
      <trkpt lat="46.01428" lon="4.65567">
        <ele>275.9072265625</ele>
        <time>2020-06-15T19:56:38Z</time>
      </trkpt>
      <trkpt lat="46.01449" lon="4.6558">
        <ele>277.23883056641</ele>
        <time>2020-06-15T19:56:44Z</time>
      </trkpt>
      <trkpt lat="46.01473" lon="4.65583">
        <ele>279.06851196289</ele>
        <time>2020-06-15T19:56:50Z</time>
      </trkpt>
      <trkpt lat="46.015" lon="4.65583">
        <ele>281.1044921875</ele>
        <time>2020-06-15T19:56:56Z</time>
      </trkpt>
      <trkpt lat="46.01554" lon="4.65574">
        <ele>284.79321289062</ele>
        <time>2020-06-15T19:57:02Z</time>
      </trkpt>
      <trkpt lat="46.01606" lon="4.65575">
        <ele>287.32928466797</ele>
        <time>2020-06-15T19:57:07Z</time>
      </trkpt>
      <trkpt lat="46.01625" lon="4.65588">
        <ele>287.94473266602</ele>
        <time>2020-06-15T19:57:13Z</time>
      </trkpt>
      <trkpt lat="46.01664" lon="4.65628">
        <ele>287.9944152832</ele>
        <time>2020-06-15T19:57:19Z</time>
      </trkpt>
      <trkpt lat="46.01719" lon="4.65702">
        <ele>284.78012084961</ele>
        <time>2020-06-15T19:57:25Z</time>
      </trkpt>
      <trkpt lat="46.01739" lon="4.65718">
        <ele>283.71154785156</ele>
        <time>2020-06-15T19:57:31Z</time>
      </trkpt>
      <trkpt lat="46.01898" lon="4.65758">
        <ele>280.22341918945</ele>
        <time>2020-06-15T19:57:37Z</time>
      </trkpt>
      <trkpt lat="46.01919" lon="4.65755">
        <ele>279.84609985352</ele>
        <time>2020-06-15T19:57:43Z</time>
      </trkpt>
      <trkpt lat="46.01973" lon="4.65734">
        <ele>278.96780395508</ele>
        <time>2020-06-15T19:57:49Z</time>
      </trkpt>
      <trkpt lat="46.01995" lon="4.65733">
        <ele>278.45086669922</ele>
        <time>2020-06-15T19:57:55Z</time>
      </trkpt>
      <trkpt lat="46.02102" lon="4.65772">
        <ele>273.06930541992</ele>
        <time>2020-06-15T19:58:01Z</time>
      </trkpt>
      <trkpt lat="46.02138" lon="4.65779">
        <ele>271.26696777344</ele>
        <time>2020-06-15T19:58:07Z</time>
      </trkpt>
      <trkpt lat="46.0222" lon="4.65773">
        <ele>266.51516723633</ele>
        <time>2020-06-15T19:58:13Z</time>
      </trkpt>
      <trkpt lat="46.02279" lon="4.65732">
        <ele>267.89196777344</ele>
        <time>2020-06-15T19:58:19Z</time>
      </trkpt>
      <trkpt lat="46.023" lon="4.65728">
        <ele>268.55529785156</ele>
        <time>2020-06-15T19:58:25Z</time>
      </trkpt>
      <trkpt lat="46.02378" lon="4.65816">
        <ele>261.01010131836</ele>
        <time>2020-06-15T19:58:31Z</time>
      </trkpt>
      <trkpt lat="46.02411" lon="4.65879">
        <ele>257.06338500977</ele>
        <time>2020-06-15T19:58:37Z</time>
      </trkpt>
      <trkpt lat="46.02421" lon="4.65918">
        <ele>255.06777954102</ele>
        <time>2020-06-15T19:58:43Z</time>
      </trkpt>
      <trkpt lat="46.02439" lon="4.66055">
        <ele>253.91441345215</ele>
        <time>2020-06-15T19:58:49Z</time>
      </trkpt>
      <trkpt lat="46.02481" lon="4.66184">
        <ele>252.74601745605</ele>
        <time>2020-06-15T19:58:55Z</time>
      </trkpt>
      <trkpt lat="46.02487" lon="4.66193">
        <ele>251.95648193359</ele>
        <time>2020-06-15T19:59:01Z</time>
      </trkpt>
      <trkpt lat="46.02506" lon="4.66192">
        <ele>249.06037902832</ele>
        <time>2020-06-15T19:59:07Z</time>
      </trkpt>
      <trkpt lat="46.0251" lon="4.66196">
        <ele>248.39573669434</ele>
        <time>2020-06-15T19:59:13Z</time>
      </trkpt>
      <trkpt lat="46.02546" lon="4.66257">
        <ele>244.94003295898</ele>
        <time>2020-06-15T19:59:19Z</time>
      </trkpt>
      <trkpt lat="46.02568" lon="4.66279">
        <ele>243.10507202148</ele>
        <time>2020-06-15T19:59:25Z</time>
      </trkpt>
      <trkpt lat="46.02584" lon="4.66284">
        <ele>242.14808654785</ele>
        <time>2020-06-15T19:59:31Z</time>
      </trkpt>
      <trkpt lat="46.02599" lon="4.66273">
        <ele>240.65437316895</ele>
        <time>2020-06-15T19:59:37Z</time>
      </trkpt>
      <trkpt lat="46.02609" lon="4.6625">
        <ele>239.1209564209</ele>
        <time>2020-06-15T19:59:43Z</time>
      </trkpt>
      <trkpt lat="46.02624" lon="4.66181">
        <ele>236.56968688965</ele>
        <time>2020-06-15T19:59:50Z</time>
      </trkpt>
      <trkpt lat="46.0264" lon="4.66162">
        <ele>235.16105651855</ele>
        <time>2020-06-15T19:59:56Z</time>
      </trkpt>
      <trkpt lat="46.02713" lon="4.66142">
        <ele>234.82278442383</ele>
        <time>2020-06-15T20:00:02Z</time>
      </trkpt>
      <trkpt lat="46.02747" lon="4.66127">
        <ele>233.90243530273</ele>
        <time>2020-06-15T20:00:08Z</time>
      </trkpt>
      <trkpt lat="46.02868" lon="4.66027">
        <ele>240.58517456055</ele>
        <time>2020-06-15T20:00:14Z</time>
      </trkpt>
      <trkpt lat="46.02899" lon="4.66008">
        <ele>243.76528930664</ele>
        <time>2020-06-15T20:00:20Z</time>
      </trkpt>
      <trkpt lat="46.02918" lon="4.66007">
        <ele>245.78938293457</ele>
        <time>2020-06-15T20:00:26Z</time>
      </trkpt>
      <trkpt lat="46.02952" lon="4.66026">
        <ele>248.83743286133</ele>
        <time>2020-06-15T20:00:32Z</time>
      </trkpt>
      <trkpt lat="46.03058" lon="4.66125">
        <ele>252.46838378906</ele>
        <time>2020-06-15T20:00:39Z</time>
      </trkpt>
      <trkpt lat="46.03075" lon="4.66144">
        <ele>251.42202758789</ele>
        <time>2020-06-15T20:00:45Z</time>
      </trkpt>
      <trkpt lat="46.03101" lon="4.66189">
        <ele>248.4977722168</ele>
        <time>2020-06-15T20:00:51Z</time>
      </trkpt>
      <trkpt lat="46.03116" lon="4.66206">
        <ele>247.61318969727</ele>
        <time>2020-06-15T20:00:57Z</time>
      </trkpt>
      <trkpt lat="46.03198" lon="4.66257">
        <ele>248.73098754883</ele>
        <time>2020-06-15T20:01:03Z</time>
      </trkpt>
      <trkpt lat="46.03247" lon="4.66342">
        <ele>246.17639160156</ele>
        <time>2020-06-15T20:01:10Z</time>
      </trkpt>
      <trkpt lat="46.03397" lon="4.66504">
        <ele>244.82727050781</ele>
        <time>2020-06-15T20:01:16Z</time>
      </trkpt>
      <trkpt lat="46.0342" lon="4.66551">
        <ele>244.33020019531</ele>
        <time>2020-06-15T20:01:22Z</time>
      </trkpt>
      <trkpt lat="46.0343" lon="4.66558">
        <ele>244.45309448242</ele>
        <time>2020-06-15T20:01:28Z</time>
      </trkpt>
      <trkpt lat="46.03448" lon="4.66559">
        <ele>244.66850280762</ele>
        <time>2020-06-15T20:01:35Z</time>
      </trkpt>
      <trkpt lat="46.03525" lon="4.66524">
        <ele>242.80126953125</ele>
        <time>2020-06-15T20:01:41Z</time>
      </trkpt>
      <trkpt lat="46.03577" lon="4.66475">
        <ele>239.1693572998</ele>
        <time>2020-06-15T20:01:47Z</time>
      </trkpt>
      <trkpt lat="46.03639" lon="4.66461">
        <ele>238.73638916016</ele>
        <time>2020-06-15T20:01:54Z</time>
      </trkpt>
      <trkpt lat="46.03755" lon="4.66381">
        <ele>243.29733276367</ele>
        <time>2020-06-15T20:02:00Z</time>
      </trkpt>
      <trkpt lat="46.03972" lon="4.66253">
        <ele>245.47752380371</ele>
        <time>2020-06-15T20:02:06Z</time>
      </trkpt>
      <trkpt lat="46.04023" lon="4.66199">
        <ele>245.05056762695</ele>
        <time>2020-06-15T20:02:13Z</time>
      </trkpt>
      <trkpt lat="46.0416" lon="4.66031">
        <ele>247.49966430664</ele>
        <time>2020-06-15T20:02:19Z</time>
      </trkpt>
      <trkpt lat="46.0417" lon="4.66022">
        <ele>248.19075012207</ele>
        <time>2020-06-15T20:02:25Z</time>
      </trkpt>
      <trkpt lat="46.04183" lon="4.6602">
        <ele>248.4567565918</ele>
        <time>2020-06-15T20:02:32Z</time>
      </trkpt>
      <trkpt lat="46.04205" lon="4.66039">
        <ele>247.67733764648</ele>
        <time>2020-06-15T20:02:38Z</time>
      </trkpt>
      <trkpt lat="46.0428" lon="4.66144">
        <ele>247.96264648438</ele>
        <time>2020-06-15T20:02:45Z</time>
      </trkpt>
      <trkpt lat="46.04684" lon="4.66892">
        <ele>250.72808837891</ele>
        <time>2020-06-15T20:02:51Z</time>
      </trkpt>
      <trkpt lat="46.04756" lon="4.67117">
        <ele>248.4167175293</ele>
        <time>2020-06-15T20:02:58Z</time>
      </trkpt>
      <trkpt lat="46.04784" lon="4.67365">
        <ele>238.47709655762</ele>
        <time>2020-06-15T20:03:04Z</time>
      </trkpt>
      <trkpt lat="46.04802" lon="4.67443">
        <ele>231.95034790039</ele>
        <time>2020-06-15T20:03:11Z</time>
      </trkpt>
      <trkpt lat="46.04826" lon="4.67502">
        <ele>225.89031982422</ele>
        <time>2020-06-15T20:03:18Z</time>
      </trkpt>
      <trkpt lat="46.04947" lon="4.67749">
        <ele>217</ele>
        <time>2020-06-15T20:03:24Z</time>
      </trkpt>
      <trkpt lat="46.05106" lon="4.68191">
        <ele>213</ele>
        <time>2020-06-15T20:03:31Z</time>
      </trkpt>
      <trkpt lat="46.05145" lon="4.68346">
        <ele>212.28440856934</ele>
        <time>2020-06-15T20:03:38Z</time>
      </trkpt>
      <trkpt lat="46.05175" lon="4.68498">
        <ele>211.4591217041</ele>
        <time>2020-06-15T20:03:44Z</time>
      </trkpt>
      <trkpt lat="46.052" lon="4.68724">
        <ele>210.7513885498</ele>
        <time>2020-06-15T20:03:51Z</time>
      </trkpt>
      <trkpt lat="46.05237" lon="4.68925">
        <ele>208.25863647461</ele>
        <time>2020-06-15T20:03:58Z</time>
      </trkpt>
      <trkpt lat="46.05313" lon="4.69262">
        <ele>206.54290771484</ele>
        <time>2020-06-15T20:04:05Z</time>
      </trkpt>
      <trkpt lat="46.05339" lon="4.69329">
        <ele>205.35313415527</ele>
        <time>2020-06-15T20:04:12Z</time>
      </trkpt>
      <trkpt lat="46.05411" lon="4.69437">
        <ele>204.56768798828</ele>
        <time>2020-06-15T20:04:18Z</time>
      </trkpt>
      <trkpt lat="46.05442" lon="4.69504">
        <ele>203.1886138916</ele>
        <time>2020-06-15T20:04:25Z</time>
      </trkpt>
      <trkpt lat="46.05511" lon="4.69676">
        <ele>200.74298095703</ele>
        <time>2020-06-15T20:04:32Z</time>
      </trkpt>
      <trkpt lat="46.05563" lon="4.69841">
        <ele>200.96159362793</ele>
        <time>2020-06-15T20:04:39Z</time>
      </trkpt>
      <trkpt lat="46.05584" lon="4.69886">
        <ele>200.51335144043</ele>
        <time>2020-06-15T20:04:46Z</time>
      </trkpt>
      <trkpt lat="46.05757" lon="4.70214">
        <ele>198.26676940918</ele>
        <time>2020-06-15T20:04:53Z</time>
      </trkpt>
      <trkpt lat="46.05819" lon="4.70316">
        <ele>196.88929748535</ele>
        <time>2020-06-15T20:05:00Z</time>
      </trkpt>
      <trkpt lat="46.05901" lon="4.70437">
        <ele>195.19366455078</ele>
        <time>2020-06-15T20:05:07Z</time>
      </trkpt>
      <trkpt lat="46.05923" lon="4.70479">
        <ele>194.69535827637</ele>
        <time>2020-06-15T20:05:14Z</time>
      </trkpt>
      <trkpt lat="46.05928" lon="4.70527">
        <ele>195.02716064453</ele>
        <time>2020-06-15T20:05:21Z</time>
      </trkpt>
      <trkpt lat="46.05909" lon="4.70602">
        <ele>194.82943725586</ele>
        <time>2020-06-15T20:05:28Z</time>
      </trkpt>
      <trkpt lat="46.05904" lon="4.70698">
        <ele>194.06414794922</ele>
        <time>2020-06-15T20:05:35Z</time>
      </trkpt>
      <trkpt lat="46.05921" lon="4.70792">
        <ele>193.93460083008</ele>
        <time>2020-06-15T20:05:42Z</time>
      </trkpt>
      <trkpt lat="46.05933" lon="4.7092">
        <ele>193.04937744141</ele>
        <time>2020-06-15T20:05:49Z</time>
      </trkpt>
      <trkpt lat="46.0595" lon="4.70992">
        <ele>192.72001647949</ele>
        <time>2020-06-15T20:05:56Z</time>
      </trkpt>
      <trkpt lat="46.06078" lon="4.71328">
        <ele>193</ele>
        <time>2020-06-15T20:06:03Z</time>
      </trkpt>
      <trkpt lat="46.06134" lon="4.71513">
        <ele>192.10107421875</ele>
        <time>2020-06-15T20:06:10Z</time>
      </trkpt>
      <trkpt lat="46.06187" lon="4.71592">
        <ele>190.81192016602</ele>
        <time>2020-06-15T20:06:17Z</time>
      </trkpt>
      <trkpt lat="46.06239" lon="4.71682">
        <ele>189.68255615234</ele>
        <time>2020-06-15T20:06:25Z</time>
      </trkpt>
      <trkpt lat="46.06275" lon="4.71783">
        <ele>189.79405212402</ele>
        <time>2020-06-15T20:06:32Z</time>
      </trkpt>
      <trkpt lat="46.06324" lon="4.71976">
        <ele>188.82928466797</ele>
        <time>2020-06-15T20:06:39Z</time>
      </trkpt>
      <trkpt lat="46.06409" lon="4.72242">
        <ele>187.14273071289</ele>
        <time>2020-06-15T20:06:46Z</time>
      </trkpt>
      <trkpt lat="46.06409" lon="4.72538">
        <ele>198.98579406738</ele>
        <time>2020-06-15T20:15:12Z</time>
      </trkpt>
      <trkpt lat="46.06471" lon="4.72906">
        <ele>188.93896484375</ele>
        <time>2020-06-15T20:15:20Z</time>
      </trkpt>
      <trkpt lat="46.06479" lon="4.72964">
        <ele>189</ele>
        <time>2020-06-15T20:15:28Z</time>
      </trkpt>
      <trkpt lat="46.06477" lon="4.72999">
        <ele>189</ele>
        <time>2020-06-15T20:15:37Z</time>
      </trkpt>
      <trkpt lat="46.065" lon="4.73042">
        <ele>188.82043457031</ele>
        <time>2020-06-15T20:15:45Z</time>
      </trkpt>
      <trkpt lat="46.06537" lon="4.73136">
        <ele>186.80752563477</ele>
        <time>2020-06-15T20:15:53Z</time>
      </trkpt>
      <trkpt lat="46.06549" lon="4.73222">
        <ele>186.16563415527</ele>
        <time>2020-06-15T20:16:02Z</time>
      </trkpt>
      <trkpt lat="46.06583" lon="4.73333">
        <ele>183.34063720703</ele>
        <time>2020-06-15T20:16:10Z</time>
      </trkpt>
      <trkpt lat="46.06592" lon="4.73346">
        <ele>182.88478088379</ele>
        <time>2020-06-15T20:16:19Z</time>
      </trkpt>
      <trkpt lat="46.06635" lon="4.73373">
        <ele>182</ele>
        <time>2020-06-15T20:16:27Z</time>
      </trkpt>
      <trkpt lat="46.06657" lon="4.73395">
        <ele>181.50228881836</ele>
        <time>2020-06-15T20:16:35Z</time>
      </trkpt>
      <trkpt lat="46.06729" lon="4.73499">
        <ele>178.96932983398</ele>
        <time>2020-06-15T20:16:44Z</time>
      </trkpt>
      <trkpt lat="46.06794" lon="4.73605">
        <ele>178.1990814209</ele>
        <time>2020-06-15T20:16:52Z</time>
      </trkpt>
      <trkpt lat="46.0693" lon="4.7377">
        <ele>176.78768920898</ele>
        <time>2020-06-15T20:17:01Z</time>
      </trkpt>
      <trkpt lat="46.06962" lon="4.73788">
        <ele>176.96174621582</ele>
        <time>2020-06-15T20:17:09Z</time>
      </trkpt>
      <trkpt lat="46.07033" lon="4.73798">
        <ele>178.79922485352</ele>
        <time>2020-06-15T20:17:18Z</time>
      </trkpt>
      <trkpt lat="46.07068" lon="4.73808">
        <ele>179.22604370117</ele>
        <time>2020-06-15T20:17:26Z</time>
      </trkpt>
      <trkpt lat="46.07104" lon="4.73832">
        <ele>177.33479309082</ele>
        <time>2020-06-15T20:17:35Z</time>
      </trkpt>
      <trkpt lat="46.0713" lon="4.73862">
        <ele>175.66227722168</ele>
        <time>2020-06-15T20:17:43Z</time>
      </trkpt>
      <trkpt lat="46.07159" lon="4.73925">
        <ele>176.4906463623</ele>
        <time>2020-06-15T20:17:52Z</time>
      </trkpt>
      <trkpt lat="46.07277" lon="4.74277">
        <ele>175.25271606445</ele>
        <time>2020-06-15T20:18:00Z</time>
      </trkpt>
      <trkpt lat="46.07288" lon="4.74327">
        <ele>175</ele>
        <time>2020-06-15T20:18:09Z</time>
      </trkpt>
      <trkpt lat="46.07301" lon="4.74434">
        <ele>174.80268859863</ele>
        <time>2020-06-15T20:18:17Z</time>
      </trkpt>
      <trkpt lat="46.07313" lon="4.74477">
        <ele>175.13215637207</ele>
        <time>2020-06-15T20:18:26Z</time>
      </trkpt>
      <trkpt lat="46.07426" lon="4.74701">
        <ele>172.04293823242</ele>
        <time>2020-06-15T20:18:34Z</time>
      </trkpt>
      <trkpt lat="46.07458" lon="4.74752">
        <ele>172.57815551758</ele>
        <time>2020-06-15T20:18:43Z</time>
      </trkpt>
      <trkpt lat="46.07479" lon="4.74777">
        <ele>172.80198669434</ele>
        <time>2020-06-15T20:18:52Z</time>
      </trkpt>
      <trkpt lat="46.07803" lon="4.75041">
        <ele>170.28327941895</ele>
        <time>2020-06-15T20:19:00Z</time>
      </trkpt>
      <trkpt lat="46.07845" lon="4.75088">
        <ele>169.76776123047</ele>
        <time>2020-06-15T20:19:09Z</time>
      </trkpt>
      <trkpt lat="46.07917" lon="4.75214">
        <ele>171.58387756348</ele>
        <time>2020-06-15T20:19:18Z</time>
      </trkpt>
      <trkpt lat="46.08089" lon="4.75583">
        <ele>170.68864440918</ele>
        <time>2020-06-15T20:19:27Z</time>
      </trkpt>
      <trkpt lat="46.08085" lon="4.75599">
        <ele>172.17169189453</ele>
        <time>2020-06-15T20:19:35Z</time>
      </trkpt>
      <trkpt lat="46.08032" lon="4.75651">
        <ele>172.0376739502</ele>
        <time>2020-06-15T20:19:44Z</time>
      </trkpt>
      <trkpt lat="46.08025" lon="4.75666">
        <ele>171.7826385498</ele>
        <time>2020-06-15T20:19:53Z</time>
      </trkpt>
      <trkpt lat="46.08072" lon="4.75796">
        <ele>177.56402587891</ele>
        <time>2020-06-15T20:20:02Z</time>
      </trkpt>
      <trkpt lat="46.08081" lon="4.75885">
        <ele>180.08700561523</ele>
        <time>2020-06-15T20:20:11Z</time>
      </trkpt>
      <trkpt lat="46.08194" lon="4.75942">
        <ele>189.22367858887</ele>
        <time>2020-06-15T20:20:19Z</time>
      </trkpt>
      <trkpt lat="46.08252" lon="4.75964">
        <ele>194.22860717773</ele>
        <time>2020-06-15T20:20:28Z</time>
      </trkpt>
      <trkpt lat="46.08276" lon="4.75968">
        <ele>195.83082580566</ele>
        <time>2020-06-15T20:20:37Z</time>
      </trkpt>
      <trkpt lat="46.08291" lon="4.75981">
        <ele>195.86622619629</ele>
        <time>2020-06-15T20:20:46Z</time>
      </trkpt>
      <trkpt lat="46.08293" lon="4.75991">
        <ele>195.08865356445</ele>
        <time>2020-06-15T20:20:55Z</time>
      </trkpt>
      <trkpt lat="46.08286" lon="4.76012">
        <ele>192.43983459473</ele>
        <time>2020-06-15T20:21:04Z</time>
      </trkpt>
      <trkpt lat="46.08262" lon="4.76041">
        <ele>191.24658203125</ele>
        <time>2020-06-15T20:21:12Z</time>
      </trkpt>
      <trkpt lat="46.08246" lon="4.76046">
        <ele>191.37742614746</ele>
        <time>2020-06-15T20:21:21Z</time>
      </trkpt>
      <trkpt lat="46.08195" lon="4.7604">
        <ele>189.77661132812</ele>
        <time>2020-06-15T20:21:30Z</time>
      </trkpt>
      <trkpt lat="46.08162" lon="4.76056">
        <ele>190.56988525391</ele>
        <time>2020-06-15T20:21:39Z</time>
      </trkpt>
      <trkpt lat="46.08146" lon="4.76078">
        <ele>194.23213195801</ele>
        <time>2020-06-15T20:21:48Z</time>
      </trkpt>
      <trkpt lat="46.08133" lon="4.76119">
        <ele>198.44557189941</ele>
        <time>2020-06-15T20:21:57Z</time>
      </trkpt>
      <trkpt lat="46.08119" lon="4.76286">
        <ele>202.33514404297</ele>
        <time>2020-06-15T20:22:06Z</time>
      </trkpt>
      <trkpt lat="46.08085" lon="4.76392">
        <ele>202.32432556152</ele>
        <time>2020-06-15T20:22:15Z</time>
      </trkpt>
      <trkpt lat="46.08067" lon="4.76491">
        <ele>204.42036437988</ele>
        <time>2020-06-15T20:22:23Z</time>
      </trkpt>
      <trkpt lat="46.08054" lon="4.76797">
        <ele>205.64253234863</ele>
        <time>2020-06-15T20:22:32Z</time>
      </trkpt>
      <trkpt lat="46.0806" lon="4.76898">
        <ele>207.98835754395</ele>
        <time>2020-06-15T20:22:41Z</time>
      </trkpt>
      <trkpt lat="46.08067" lon="4.76916">
        <ele>208.92965698242</ele>
        <time>2020-06-15T20:22:50Z</time>
      </trkpt>
      <trkpt lat="46.08079" lon="4.76918">
        <ele>209.59901428223</ele>
        <time>2020-06-15T20:22:59Z</time>
      </trkpt>
      <trkpt lat="46.08103" lon="4.76911">
        <ele>210.62391662598</ele>
        <time>2020-06-15T20:23:08Z</time>
      </trkpt>
      <trkpt lat="46.08403" lon="4.76873">
        <ele>221.5281829834</ele>
        <time>2020-06-15T20:23:17Z</time>
      </trkpt>
      <trkpt lat="46.08689" lon="4.76822">
        <ele>224.35676574707</ele>
        <time>2020-06-15T20:23:26Z</time>
      </trkpt>
      <trkpt lat="46.08718" lon="4.76828">
        <ele>223.31680297852</ele>
        <time>2020-06-15T20:23:36Z</time>
      </trkpt>
      <trkpt lat="46.08739" lon="4.76816">
        <ele>223</ele>
        <time>2020-06-15T20:23:45Z</time>
      </trkpt>
      <trkpt lat="46.08762" lon="4.7681">
        <ele>222.84837341309</ele>
        <time>2020-06-15T20:23:54Z</time>
      </trkpt>
      <trkpt lat="46.08856" lon="4.76809">
        <ele>221.15008544922</ele>
        <time>2020-06-15T20:24:03Z</time>
      </trkpt>
      <trkpt lat="46.08989" lon="4.76842">
        <ele>218.2333984375</ele>
        <time>2020-06-15T20:24:12Z</time>
      </trkpt>
      <trkpt lat="46.0905" lon="4.76866">
        <ele>213.72743225098</ele>
        <time>2020-06-15T20:24:21Z</time>
      </trkpt>
      <trkpt lat="46.09112" lon="4.76903">
        <ele>209.36968994141</ele>
        <time>2020-06-15T20:24:30Z</time>
      </trkpt>
      <trkpt lat="46.09436" lon="4.77127">
        <ele>196.06982421875</ele>
        <time>2020-06-15T20:24:39Z</time>
      </trkpt>
      <trkpt lat="46.09623" lon="4.77246">
        <ele>196.4874420166</ele>
        <time>2020-06-15T20:24:49Z</time>
      </trkpt>
      <trkpt lat="46.09642" lon="4.77265">
        <ele>196.94581604004</ele>
        <time>2020-06-15T20:24:58Z</time>
      </trkpt>
      <trkpt lat="46.09659" lon="4.77297">
        <ele>197.60920715332</ele>
        <time>2020-06-15T20:25:07Z</time>
      </trkpt>
      <trkpt lat="46.09693" lon="4.77291">
        <ele>195.21675109863</ele>
        <time>2020-06-15T20:25:16Z</time>
      </trkpt>
      <trkpt lat="46.09727" lon="4.77305">
        <ele>193.99450683594</ele>
        <time>2020-06-15T20:25:26Z</time>
      </trkpt>
      <trkpt lat="46.09957" lon="4.77429">
        <ele>189.63623046875</ele>
        <time>2020-06-15T20:25:35Z</time>
      </trkpt>
      <trkpt lat="46.09988" lon="4.77451">
        <ele>188.82403564453</ele>
        <time>2020-06-15T20:25:44Z</time>
      </trkpt>
      <trkpt lat="46.1" lon="4.77472">
        <ele>188.93807983398</ele>
        <time>2020-06-15T20:25:54Z</time>
      </trkpt>
      <trkpt lat="46.10008" lon="4.77479">
        <ele>188.90811157227</ele>
        <time>2020-06-15T20:26:03Z</time>
      </trkpt>
      <trkpt lat="46.10033" lon="4.77478">
        <ele>188.59916687012</ele>
        <time>2020-06-15T20:26:12Z</time>
      </trkpt>
      <trkpt lat="46.10128" lon="4.77513">
        <ele>187.07824707031</ele>
        <time>2020-06-15T20:26:22Z</time>
      </trkpt>
      <trkpt lat="46.10167" lon="4.77519">
        <ele>185.90827941895</ele>
        <time>2020-06-15T20:26:31Z</time>
      </trkpt>
      <trkpt lat="46.1025" lon="4.7752">
        <ele>183.4468536377</ele>
        <time>2020-06-15T20:26:40Z</time>
      </trkpt>
      <trkpt lat="46.10304" lon="4.77537">
        <ele>182.14654541016</ele>
        <time>2020-06-15T20:26:50Z</time>
      </trkpt>
      <trkpt lat="46.10356" lon="4.77567">
        <ele>181.4504699707</ele>
        <time>2020-06-15T20:26:59Z</time>
      </trkpt>
      <trkpt lat="46.10449" lon="4.7764">
        <ele>180.55226135254</ele>
        <time>2020-06-15T20:27:08Z</time>
      </trkpt>
      <trkpt lat="46.10569" lon="4.7769">
        <ele>180.2777557373</ele>
        <time>2020-06-15T20:27:18Z</time>
      </trkpt>
      <trkpt lat="46.10619" lon="4.77738">
        <ele>180.3080291748</ele>
        <time>2020-06-15T20:27:27Z</time>
      </trkpt>
      <trkpt lat="46.10726" lon="4.77886">
        <ele>177.31694030762</ele>
        <time>2020-06-15T20:27:37Z</time>
      </trkpt>
      <trkpt lat="46.10777" lon="4.77941">
        <ele>179.27810668945</ele>
        <time>2020-06-15T20:27:46Z</time>
      </trkpt>
      <trkpt lat="46.10863" lon="4.77985">
        <ele>181.70628356934</ele>
        <time>2020-06-15T20:27:56Z</time>
      </trkpt>
      <trkpt lat="46.11027" lon="4.78035">
        <ele>180.70794677734</ele>
        <time>2020-06-15T20:28:05Z</time>
      </trkpt>
      <trkpt lat="46.11109" lon="4.78076">
        <ele>180.79029846191</ele>
        <time>2020-06-15T20:28:15Z</time>
      </trkpt>
      <trkpt lat="46.11161" lon="4.78114">
        <ele>180.88293457031</ele>
        <time>2020-06-15T20:28:24Z</time>
      </trkpt>
      <trkpt lat="46.11308" lon="4.78249">
        <ele>179.21978759766</ele>
        <time>2020-06-15T20:28:34Z</time>
      </trkpt>
      <trkpt lat="46.11424" lon="4.78336">
        <ele>178.9453125</ele>
        <time>2020-06-15T20:28:43Z</time>
      </trkpt>
      <trkpt lat="46.11587" lon="4.7841">
        <ele>179.16725158691</ele>
        <time>2020-06-15T20:28:53Z</time>
      </trkpt>
      <trkpt lat="46.11766" lon="4.78512">
        <ele>183.28210449219</ele>
        <time>2020-06-15T20:29:02Z</time>
      </trkpt>
      <trkpt lat="46.11812" lon="4.78551">
        <ele>184.10174560547</ele>
        <time>2020-06-15T20:29:12Z</time>
      </trkpt>
      <trkpt lat="46.11859" lon="4.78606">
        <ele>182.47277832031</ele>
        <time>2020-06-15T20:29:22Z</time>
      </trkpt>
      <trkpt lat="46.11971" lon="4.78688">
        <ele>180.51069641113</ele>
        <time>2020-06-15T20:29:31Z</time>
      </trkpt>
      <trkpt lat="46.12035" lon="4.78726">
        <ele>179.51557922363</ele>
        <time>2020-06-15T20:29:41Z</time>
      </trkpt>
      <trkpt lat="46.12133" lon="4.78773">
        <ele>177.71899414062</ele>
        <time>2020-06-15T20:29:51Z</time>
      </trkpt>
      <trkpt lat="46.12206" lon="4.78821">
        <ele>176.93058776855</ele>
        <time>2020-06-15T20:30:00Z</time>
      </trkpt>
      <trkpt lat="46.12328" lon="4.78869">
        <ele>176.51411437988</ele>
        <time>2020-06-15T20:30:10Z</time>
      </trkpt>
      <trkpt lat="46.12448" lon="4.78968">
        <ele>178.21704101562</ele>
        <time>2020-06-15T20:30:20Z</time>
      </trkpt>
      <trkpt lat="46.12573" lon="4.79062">
        <ele>176.13423156738</ele>
        <time>2020-06-15T20:30:30Z</time>
      </trkpt>
      <trkpt lat="46.13009" lon="4.79437">
        <ele>175.17988586426</ele>
        <time>2020-06-15T20:30:40Z</time>
      </trkpt>
      <trkpt lat="46.13076" lon="4.79499">
        <ele>172.18765258789</ele>
        <time>2020-06-15T20:30:49Z</time>
      </trkpt>
      <trkpt lat="46.13148" lon="4.79577">
        <ele>173.19271850586</ele>
        <time>2020-06-15T20:30:59Z</time>
      </trkpt>
      <trkpt lat="46.13233" lon="4.79691">
        <ele>171.26191711426</ele>
        <time>2020-06-15T20:31:09Z</time>
      </trkpt>
      <trkpt lat="46.13577" lon="4.80218">
        <ele>177.11659240723</ele>
        <time>2020-06-15T20:31:19Z</time>
      </trkpt>
      <trkpt lat="46.13736" lon="4.80402">
        <ele>178.9945526123</ele>
        <time>2020-06-15T20:31:29Z</time>
      </trkpt>
      <trkpt lat="46.13823" lon="4.80512">
        <ele>182.8987121582</ele>
        <time>2020-06-15T20:31:39Z</time>
      </trkpt>
      <trkpt lat="46.13899" lon="4.80592">
        <ele>186.87187194824</ele>
        <time>2020-06-15T20:31:49Z</time>
      </trkpt>
      <trkpt lat="46.13954" lon="4.80632">
        <ele>184.38336181641</ele>
        <time>2020-06-15T20:31:59Z</time>
      </trkpt>
      <trkpt lat="46.14153" lon="4.80728">
        <ele>181.978515625</ele>
        <time>2020-06-15T20:32:10Z</time>
      </trkpt>
      <trkpt lat="46.14327" lon="4.80796">
        <ele>177.20819091797</ele>
        <time>2020-06-15T20:32:20Z</time>
      </trkpt>
      <trkpt lat="46.14603" lon="4.80939">
        <ele>172.08901977539</ele>
        <time>2020-06-15T20:32:30Z</time>
      </trkpt>
      <trkpt lat="46.14711" lon="4.80975">
        <ele>170.75958251953</ele>
        <time>2020-06-15T20:32:40Z</time>
      </trkpt>
      <trkpt lat="46.1486" lon="4.81066">
        <ele>171.5926361084</ele>
        <time>2020-06-15T20:32:50Z</time>
      </trkpt>
      <trkpt lat="46.14919" lon="4.81107">
        <ele>172.29830932617</ele>
        <time>2020-06-15T20:33:01Z</time>
      </trkpt>
      <trkpt lat="46.14997" lon="4.8118">
        <ele>172.52641296387</ele>
        <time>2020-06-15T20:33:11Z</time>
      </trkpt>
      <trkpt lat="46.15162" lon="4.81372">
        <ele>172.01239013672</ele>
        <time>2020-06-15T20:33:21Z</time>
      </trkpt>
      <trkpt lat="46.15407" lon="4.8158">
        <ele>179.20617675781</ele>
        <time>2020-06-15T20:33:31Z</time>
      </trkpt>
      <trkpt lat="46.15505" lon="4.81611">
        <ele>177.48991394043</ele>
        <time>2020-06-15T20:33:42Z</time>
      </trkpt>
      <trkpt lat="46.15578" lon="4.81656">
        <ele>179.02796936035</ele>
        <time>2020-06-15T20:33:52Z</time>
      </trkpt>
      <trkpt lat="46.15617" lon="4.81673">
        <ele>180.63803100586</ele>
        <time>2020-06-15T20:34:03Z</time>
      </trkpt>
      <trkpt lat="46.15651" lon="4.81683">
        <ele>181.64553833008</ele>
        <time>2020-06-15T20:34:13Z</time>
      </trkpt>
      <trkpt lat="46.15699" lon="4.81687">
        <ele>181.12390136719</ele>
        <time>2020-06-15T20:34:23Z</time>
      </trkpt>
      <trkpt lat="46.15828" lon="4.81673">
        <ele>180.17756652832</ele>
        <time>2020-06-15T20:34:34Z</time>
      </trkpt>
      <trkpt lat="46.15905" lon="4.81643">
        <ele>176.12794494629</ele>
        <time>2020-06-15T20:34:44Z</time>
      </trkpt>
      <trkpt lat="46.15988" lon="4.81628">
        <ele>173.29243469238</ele>
        <time>2020-06-15T20:34:55Z</time>
      </trkpt>
      <trkpt lat="46.16112" lon="4.81567">
        <ele>171.02809143066</ele>
        <time>2020-06-15T20:35:05Z</time>
      </trkpt>
      <trkpt lat="46.16158" lon="4.81554">
        <ele>170.70724487305</ele>
        <time>2020-06-15T20:35:16Z</time>
      </trkpt>
      <trkpt lat="46.16201" lon="4.81551">
        <ele>171.65618896484</ele>
        <time>2020-06-15T20:35:26Z</time>
      </trkpt>
      <trkpt lat="46.16294" lon="4.81568">
        <ele>173.15425109863</ele>
        <time>2020-06-15T20:35:36Z</time>
      </trkpt>
      <trkpt lat="46.16377" lon="4.81599">
        <ele>173.6636505127</ele>
        <time>2020-06-15T20:35:47Z</time>
      </trkpt>
      <trkpt lat="46.16441" lon="4.81636">
        <ele>174.67498779297</ele>
        <time>2020-06-15T20:35:57Z</time>
      </trkpt>
      <trkpt lat="46.16497" lon="4.81674">
        <ele>175.58578491211</ele>
        <time>2020-06-15T20:36:08Z</time>
      </trkpt>
      <trkpt lat="46.16566" lon="4.81735">
        <ele>175.40440368652</ele>
        <time>2020-06-15T20:36:19Z</time>
      </trkpt>
      <trkpt lat="46.16612" lon="4.81768">
        <ele>177.0186920166</ele>
        <time>2020-06-15T20:36:29Z</time>
      </trkpt>
      <trkpt lat="46.16799" lon="4.81879">
        <ele>180.4856262207</ele>
        <time>2020-06-15T20:36:40Z</time>
      </trkpt>
      <trkpt lat="46.16916" lon="4.81967">
        <ele>183.70481872559</ele>
        <time>2020-06-15T20:36:50Z</time>
      </trkpt>
      <trkpt lat="46.16985" lon="4.81983">
        <ele>183.17999267578</ele>
        <time>2020-06-15T20:37:01Z</time>
      </trkpt>
      <trkpt lat="46.17101" lon="4.81994">
        <ele>176.62269592285</ele>
        <time>2020-06-15T20:37:12Z</time>
      </trkpt>
      <trkpt lat="46.17151" lon="4.81993">
        <ele>174.14665222168</ele>
        <time>2020-06-15T20:37:22Z</time>
      </trkpt>
      <trkpt lat="46.17204" lon="4.81974">
        <ele>175.91812133789</ele>
        <time>2020-06-15T20:37:33Z</time>
      </trkpt>
      <trkpt lat="46.1737" lon="4.81889">
        <ele>177.49879455566</ele>
        <time>2020-06-15T20:37:43Z</time>
      </trkpt>
      <trkpt lat="46.17403" lon="4.8188">
        <ele>177</ele>
        <time>2020-06-15T20:37:54Z</time>
      </trkpt>
      <trkpt lat="46.17596" lon="4.8186">
        <ele>177.26121520996</ele>
        <time>2020-06-15T20:38:05Z</time>
      </trkpt>
      <trkpt lat="46.17667" lon="4.81844">
        <ele>178</ele>
        <time>2020-06-15T20:38:16Z</time>
      </trkpt>
      <trkpt lat="46.17706" lon="4.81847">
        <ele>178.03472900391</ele>
        <time>2020-06-15T20:38:26Z</time>
      </trkpt>
      <trkpt lat="46.1779" lon="4.8184">
        <ele>178.12368774414</ele>
        <time>2020-06-15T20:38:37Z</time>
      </trkpt>
      <trkpt lat="46.17818" lon="4.81859">
        <ele>177.76341247559</ele>
        <time>2020-06-15T20:38:48Z</time>
      </trkpt>
      <trkpt lat="46.17866" lon="4.81922">
        <ele>176.7512512207</ele>
        <time>2020-06-15T20:38:59Z</time>
      </trkpt>
      <trkpt lat="46.17924" lon="4.81984">
        <ele>175.31214904785</ele>
        <time>2020-06-15T20:39:09Z</time>
      </trkpt>
      <trkpt lat="46.17963" lon="4.82033">
        <ele>174.36183166504</ele>
        <time>2020-06-15T20:39:20Z</time>
      </trkpt>
      <trkpt lat="46.18101" lon="4.82157">
        <ele>176.57614135742</ele>
        <time>2020-06-15T20:39:31Z</time>
      </trkpt>
      <trkpt lat="46.18258" lon="4.82281">
        <ele>176</ele>
        <time>2020-06-15T20:39:42Z</time>
      </trkpt>
      <trkpt lat="46.18363" lon="4.8234">
        <ele>176.61991882324</ele>
        <time>2020-06-15T20:39:53Z</time>
      </trkpt>
      <trkpt lat="46.18439" lon="4.82377">
        <ele>177.05888366699</ele>
        <time>2020-06-15T20:40:04Z</time>
      </trkpt>
      <trkpt lat="46.18497" lon="4.8239">
        <ele>177</ele>
        <time>2020-06-15T20:40:14Z</time>
      </trkpt>
      <trkpt lat="46.18626" lon="4.8239">
        <ele>176.43768310547</ele>
        <time>2020-06-15T20:40:25Z</time>
      </trkpt>
      <trkpt lat="46.18692" lon="4.82385">
        <ele>175.58337402344</ele>
        <time>2020-06-15T20:40:36Z</time>
      </trkpt>
      <trkpt lat="46.18781" lon="4.82368">
        <ele>175.58169555664</ele>
        <time>2020-06-15T20:40:47Z</time>
      </trkpt>
      <trkpt lat="46.18836" lon="4.82365">
        <ele>176.29234313965</ele>
        <time>2020-06-15T20:40:58Z</time>
      </trkpt>
      <trkpt lat="46.18944" lon="4.82381">
        <ele>177.21189880371</ele>
        <time>2020-06-15T20:41:09Z</time>
      </trkpt>
      <trkpt lat="46.19066" lon="4.82416">
        <ele>178.57684326172</ele>
        <time>2020-06-15T20:41:20Z</time>
      </trkpt>
      <trkpt lat="46.19117" lon="4.82441">
        <ele>179.46444702148</ele>
        <time>2020-06-15T20:41:31Z</time>
      </trkpt>
      <trkpt lat="46.1918" lon="4.82461">
        <ele>179.86306762695</ele>
        <time>2020-06-15T20:41:42Z</time>
      </trkpt>
      <trkpt lat="46.19298" lon="4.82536">
        <ele>182.05279541016</ele>
        <time>2020-06-15T20:41:53Z</time>
      </trkpt>
      <trkpt lat="46.19375" lon="4.82579">
        <ele>179.71716308594</ele>
        <time>2020-06-15T20:42:04Z</time>
      </trkpt>
      <trkpt lat="46.19501" lon="4.82623">
        <ele>180.55195617676</ele>
        <time>2020-06-15T20:42:15Z</time>
      </trkpt>
      <trkpt lat="46.19577" lon="4.82661">
        <ele>182.72105407715</ele>
        <time>2020-06-15T20:42:26Z</time>
      </trkpt>
      <trkpt lat="46.19604" lon="4.82683">
        <ele>184.02520751953</ele>
        <time>2020-06-15T20:42:37Z</time>
      </trkpt>
      <trkpt lat="46.19655" lon="4.82741">
        <ele>186.18133544922</ele>
        <time>2020-06-15T20:42:48Z</time>
      </trkpt>
      <trkpt lat="46.19697" lon="4.82776">
        <ele>185.58749389648</ele>
        <time>2020-06-15T20:43:00Z</time>
      </trkpt>
      <trkpt lat="46.19744" lon="4.82804">
        <ele>185.0046081543</ele>
        <time>2020-06-15T20:43:11Z</time>
      </trkpt>
      <trkpt lat="46.198" lon="4.82817">
        <ele>183.97662353516</ele>
        <time>2020-06-15T20:43:22Z</time>
      </trkpt>
      <trkpt lat="46.19917" lon="4.82818">
        <ele>185.78051757812</ele>
        <time>2020-06-15T20:43:33Z</time>
      </trkpt>
      <trkpt lat="46.19966" lon="4.82833">
        <ele>187.28411865234</ele>
        <time>2020-06-15T20:43:44Z</time>
      </trkpt>
      <trkpt lat="46.20025" lon="4.82877">
        <ele>190.16427612305</ele>
        <time>2020-06-15T20:43:55Z</time>
      </trkpt>
      <trkpt lat="46.20119" lon="4.83013">
        <ele>194.07347106934</ele>
        <time>2020-06-15T20:44:06Z</time>
      </trkpt>
      <trkpt lat="46.20172" lon="4.83076">
        <ele>196.0944519043</ele>
        <time>2020-06-15T20:44:17Z</time>
      </trkpt>
      <trkpt lat="46.20213" lon="4.83113">
        <ele>197.53002929688</ele>
        <time>2020-06-15T20:44:29Z</time>
      </trkpt>
      <trkpt lat="46.20254" lon="4.8314">
        <ele>198.61280822754</ele>
        <time>2020-06-15T20:44:40Z</time>
      </trkpt>
      <trkpt lat="46.20363" lon="4.83194">
        <ele>200</ele>
        <time>2020-06-15T20:44:51Z</time>
      </trkpt>
      <trkpt lat="46.20494" lon="4.83282">
        <ele>202.91680908203</ele>
        <time>2020-06-15T20:45:02Z</time>
      </trkpt>
      <trkpt lat="46.20524" lon="4.83308">
        <ele>203.22523498535</ele>
        <time>2020-06-15T20:45:14Z</time>
      </trkpt>
      <trkpt lat="46.2061" lon="4.83399">
        <ele>205.14503479004</ele>
        <time>2020-06-15T20:45:25Z</time>
      </trkpt>
      <trkpt lat="46.20645" lon="4.83428">
        <ele>205.99662780762</ele>
        <time>2020-06-15T20:45:36Z</time>
      </trkpt>
      <trkpt lat="46.20773" lon="4.83505">
        <ele>206.53688049316</ele>
        <time>2020-06-15T20:45:47Z</time>
      </trkpt>
      <trkpt lat="46.20919" lon="4.83578">
        <ele>202.67906188965</ele>
        <time>2020-06-15T20:45:59Z</time>
      </trkpt>
      <trkpt lat="46.21097" lon="4.83606">
        <ele>196.94519042969</ele>
        <time>2020-06-15T20:46:10Z</time>
      </trkpt>
      <trkpt lat="46.21128" lon="4.83605">
        <ele>196.25592041016</ele>
        <time>2020-06-15T20:46:21Z</time>
      </trkpt>
      <trkpt lat="46.21243" lon="4.83557">
        <ele>195.30456542969</ele>
        <time>2020-06-15T20:46:33Z</time>
      </trkpt>
      <trkpt lat="46.21399" lon="4.83541">
        <ele>193.64332580566</ele>
        <time>2020-06-15T20:46:44Z</time>
      </trkpt>
      <trkpt lat="46.21535" lon="4.83504">
        <ele>188.69328308105</ele>
        <time>2020-06-15T20:46:56Z</time>
      </trkpt>
      <trkpt lat="46.2158" lon="4.83496">
        <ele>189.07263183594</ele>
        <time>2020-06-15T20:47:07Z</time>
      </trkpt>
      <trkpt lat="46.21676" lon="4.83443">
        <ele>187.48637390137</ele>
        <time>2020-06-15T20:47:18Z</time>
      </trkpt>
      <trkpt lat="46.21689" lon="4.8344">
        <ele>187.29046630859</ele>
        <time>2020-06-15T20:47:30Z</time>
      </trkpt>
      <trkpt lat="46.21751" lon="4.83449">
        <ele>186.65699768066</ele>
        <time>2020-06-15T20:47:41Z</time>
      </trkpt>
      <trkpt lat="46.21823" lon="4.83477">
        <ele>185.73344421387</ele>
        <time>2020-06-15T20:47:53Z</time>
      </trkpt>
      <trkpt lat="46.21873" lon="4.83487">
        <ele>185.23583984375</ele>
        <time>2020-06-15T20:48:04Z</time>
      </trkpt>
      <trkpt lat="46.21953" lon="4.83528">
        <ele>184.26174926758</ele>
        <time>2020-06-15T20:48:16Z</time>
      </trkpt>
      <trkpt lat="46.21985" lon="4.8353">
        <ele>183.85501098633</ele>
        <time>2020-06-15T20:48:27Z</time>
      </trkpt>
      <trkpt lat="46.22079" lon="4.83519">
        <ele>181.19821166992</ele>
        <time>2020-06-15T20:48:39Z</time>
      </trkpt>
      <trkpt lat="46.2209" lon="4.83531">
        <ele>180.64831542969</ele>
        <time>2020-06-15T20:48:50Z</time>
      </trkpt>
      <trkpt lat="46.22095" lon="4.83568">
        <ele>180.07081604004</ele>
        <time>2020-06-15T20:49:02Z</time>
      </trkpt>
      <trkpt lat="46.22115" lon="4.83618">
        <ele>177.87626647949</ele>
        <time>2020-06-15T20:49:13Z</time>
      </trkpt>
      <trkpt lat="46.22153" lon="4.83651">
        <ele>177.24632263184</ele>
        <time>2020-06-15T20:49:25Z</time>
      </trkpt>
      <trkpt lat="46.22174" lon="4.83678">
        <ele>177.32476806641</ele>
        <time>2020-06-15T20:49:36Z</time>
      </trkpt>
      <trkpt lat="46.223" lon="4.83746">
        <ele>177.96929931641</ele>
        <time>2020-06-15T20:49:48Z</time>
      </trkpt>
      <trkpt lat="46.22339" lon="4.83787">
        <ele>178.95463562012</ele>
        <time>2020-06-15T20:50:00Z</time>
      </trkpt>
      <trkpt lat="46.22371" lon="4.83803">
        <ele>179.69087219238</ele>
        <time>2020-06-15T20:50:11Z</time>
      </trkpt>
      <trkpt lat="46.22406" lon="4.83829">
        <ele>180.67153930664</ele>
        <time>2020-06-15T20:50:23Z</time>
      </trkpt>
      <trkpt lat="46.22439" lon="4.83865">
        <ele>181.60719299316</ele>
        <time>2020-06-15T20:50:34Z</time>
      </trkpt>
      <trkpt lat="46.22472" lon="4.83891">
        <ele>181.85139465332</ele>
        <time>2020-06-15T20:50:46Z</time>
      </trkpt>
      <trkpt lat="46.22624" lon="4.8398">
        <ele>185.13960266113</ele>
        <time>2020-06-15T20:50:58Z</time>
      </trkpt>
      <trkpt lat="46.2268" lon="4.84006">
        <ele>182.89485168457</ele>
        <time>2020-06-15T20:51:09Z</time>
      </trkpt>
      <trkpt lat="46.22693" lon="4.84029">
        <ele>182.63017272949</ele>
        <time>2020-06-15T20:51:21Z</time>
      </trkpt>
      <trkpt lat="46.22684" lon="4.84092">
        <ele>185.02058410645</ele>
        <time>2020-06-15T20:51:32Z</time>
      </trkpt>
      <trkpt lat="46.2269" lon="4.84107">
        <ele>184.89497375488</ele>
        <time>2020-06-15T20:51:44Z</time>
      </trkpt>
      <trkpt lat="46.22753" lon="4.84113">
        <ele>182.0701751709</ele>
        <time>2020-06-15T20:51:56Z</time>
      </trkpt>
      <trkpt lat="46.22811" lon="4.8414">
        <ele>183.40367126465</ele>
        <time>2020-06-15T20:52:07Z</time>
      </trkpt>
      <trkpt lat="46.2288" lon="4.84134">
        <ele>185.86505126953</ele>
        <time>2020-06-15T20:52:19Z</time>
      </trkpt>
      <trkpt lat="46.22912" lon="4.84122">
        <ele>186.37445068359</ele>
        <time>2020-06-15T20:52:31Z</time>
      </trkpt>
      <trkpt lat="46.2296" lon="4.8407">
        <ele>185.49214172363</ele>
        <time>2020-06-15T20:52:43Z</time>
      </trkpt>
      <trkpt lat="46.22983" lon="4.84063">
        <ele>185.01815795898</ele>
        <time>2020-06-15T20:52:54Z</time>
      </trkpt>
      <trkpt lat="46.23003" lon="4.84038">
        <ele>184.27209472656</ele>
        <time>2020-06-15T20:53:06Z</time>
      </trkpt>
      <trkpt lat="46.23042" lon="4.84021">
        <ele>184.5453338623</ele>
        <time>2020-06-15T20:53:18Z</time>
      </trkpt>
      <trkpt lat="46.23065" lon="4.84004">
        <ele>184.61090087891</ele>
        <time>2020-06-15T20:53:29Z</time>
      </trkpt>
      <trkpt lat="46.23089" lon="4.83974">
        <ele>184.54504394531</ele>
        <time>2020-06-15T20:53:41Z</time>
      </trkpt>
      <trkpt lat="46.23151" lon="4.83873">
        <ele>183.94052124023</ele>
        <time>2020-06-15T20:53:53Z</time>
      </trkpt>
      <trkpt lat="46.23206" lon="4.83814">
        <ele>182.30123901367</ele>
        <time>2020-06-15T20:54:05Z</time>
      </trkpt>
      <trkpt lat="46.23253" lon="4.83784">
        <ele>181.87377929688</ele>
        <time>2020-06-15T20:54:16Z</time>
      </trkpt>
      <trkpt lat="46.23274" lon="4.8378">
        <ele>181.77764892578</ele>
        <time>2020-06-15T20:54:28Z</time>
      </trkpt>
      <trkpt lat="46.23321" lon="4.83782">
        <ele>181.8072052002</ele>
        <time>2020-06-15T20:54:40Z</time>
      </trkpt>
      <trkpt lat="46.23342" lon="4.83775">
        <ele>181.48368835449</ele>
        <time>2020-06-15T20:54:52Z</time>
      </trkpt>
      <trkpt lat="46.23441" lon="4.83633">
        <ele>180</ele>
        <time>2020-06-15T20:55:03Z</time>
      </trkpt>
      <trkpt lat="46.2347" lon="4.83606">
        <ele>179.69116210938</ele>
        <time>2020-06-15T20:55:15Z</time>
      </trkpt>
      <trkpt lat="46.23495" lon="4.83592">
        <ele>179.63754272461</ele>
        <time>2020-06-15T20:55:27Z</time>
      </trkpt>
      <trkpt lat="46.23566" lon="4.83577">
        <ele>179.50564575195</ele>
        <time>2020-06-15T20:55:39Z</time>
      </trkpt>
      <trkpt lat="46.23609" lon="4.83561">
        <ele>179.81800842285</ele>
        <time>2020-06-15T20:55:51Z</time>
      </trkpt>
      <trkpt lat="46.23716" lon="4.83484">
        <ele>178.18507385254</ele>
        <time>2020-06-15T20:56:02Z</time>
      </trkpt>
      <trkpt lat="46.23752" lon="4.83452">
        <ele>177.96151733398</ele>
        <time>2020-06-15T20:56:14Z</time>
      </trkpt>
      <trkpt lat="46.23868" lon="4.8333">
        <ele>175.49546813965</ele>
        <time>2020-06-15T20:56:26Z</time>
      </trkpt>
      <trkpt lat="46.23899" lon="4.83285">
        <ele>175.04389953613</ele>
        <time>2020-06-15T20:56:38Z</time>
      </trkpt>
      <trkpt lat="46.23921" lon="4.83238">
        <ele>175.3013458252</ele>
        <time>2020-06-15T20:56:50Z</time>
      </trkpt>
      <trkpt lat="46.23972" lon="4.83209">
        <ele>177.65823364258</ele>
        <time>2020-06-15T20:57:02Z</time>
      </trkpt>
      <trkpt lat="46.2399" lon="4.83207">
        <ele>177.87370300293</ele>
        <time>2020-06-15T20:57:14Z</time>
      </trkpt>
      <trkpt lat="46.24021" lon="4.83146">
        <ele>176.78350830078</ele>
        <time>2020-06-15T20:57:26Z</time>
      </trkpt>
      <trkpt lat="46.24063" lon="4.83136">
        <ele>176.16532897949</ele>
        <time>2020-06-15T20:57:37Z</time>
      </trkpt>
      <trkpt lat="46.24091" lon="4.83125">
        <ele>175.37971496582</ele>
        <time>2020-06-15T20:57:49Z</time>
      </trkpt>
      <trkpt lat="46.24103" lon="4.83115">
        <ele>174.85113525391</ele>
        <time>2020-06-15T20:58:01Z</time>
      </trkpt>
      <trkpt lat="46.24121" lon="4.83067">
        <ele>174.36679077148</ele>
        <time>2020-06-15T20:58:13Z</time>
      </trkpt>
      <trkpt lat="46.24146" lon="4.82959">
        <ele>174.04052734375</ele>
        <time>2020-06-15T20:58:25Z</time>
      </trkpt>
      <trkpt lat="46.24155" lon="4.82892">
        <ele>172.23973083496</ele>
        <time>2020-06-15T20:58:37Z</time>
      </trkpt>
      <trkpt lat="46.24161" lon="4.8278">
        <ele>171.36996459961</ele>
        <time>2020-06-15T20:58:49Z</time>
      </trkpt>
      <trkpt lat="46.24179" lon="4.82599">
        <ele>172.28265380859</ele>
        <time>2020-06-15T20:59:01Z</time>
      </trkpt>
      <trkpt lat="46.24204" lon="4.82446">
        <ele>170.69114685059</ele>
        <time>2020-06-15T20:59:13Z</time>
      </trkpt>
      <trkpt lat="46.24242" lon="4.82272">
        <ele>171.56187438965</ele>
        <time>2020-06-15T20:59:25Z</time>
      </trkpt>
      <trkpt lat="46.24249" lon="4.82221">
        <ele>172.86923217773</ele>
        <time>2020-06-15T20:59:37Z</time>
      </trkpt>
      <trkpt lat="46.24237" lon="4.82133">
        <ele>170.48922729492</ele>
        <time>2020-06-15T20:59:49Z</time>
      </trkpt>
      <trkpt lat="46.24129" lon="4.81717">
        <ele>170.40460205078</ele>
        <time>2020-06-15T21:00:01Z</time>
      </trkpt>
      <trkpt lat="46.24116" lon="4.81631">
        <ele>171.06880187988</ele>
        <time>2020-06-15T21:00:13Z</time>
      </trkpt>
      <trkpt lat="46.24111" lon="4.81557">
        <ele>170.08811950684</ele>
        <time>2020-06-15T21:00:25Z</time>
      </trkpt>
      <trkpt lat="46.2412" lon="4.81442">
        <ele>169.47010803223</ele>
        <time>2020-06-15T21:00:38Z</time>
      </trkpt>
      <trkpt lat="46.24225" lon="4.80788">
        <ele>172.03253173828</ele>
        <time>2020-06-15T21:00:50Z</time>
      </trkpt>
      <trkpt lat="46.24249" lon="4.80594">
        <ele>169.66828918457</ele>
        <time>2020-06-15T21:01:02Z</time>
      </trkpt>
      <trkpt lat="46.24249" lon="4.80481">
        <ele>169.24172973633</ele>
        <time>2020-06-15T21:01:14Z</time>
      </trkpt>
      <trkpt lat="46.24215" lon="4.80268">
        <ele>169.41030883789</ele>
        <time>2020-06-15T21:01:26Z</time>
      </trkpt>
      <trkpt lat="46.24213" lon="4.80135">
        <ele>169.55113220215</ele>
        <time>2020-06-15T21:01:39Z</time>
      </trkpt>
      <trkpt lat="46.24264" lon="4.79773">
        <ele>173</ele>
        <time>2020-06-15T21:01:51Z</time>
      </trkpt>
      <trkpt lat="46.24427" lon="4.78731">
        <ele>178.56216430664</ele>
        <time>2020-06-15T21:02:03Z</time>
      </trkpt>
      <trkpt lat="46.2441" lon="4.78176">
        <ele>198.20471191406</ele>
        <time>2020-06-15T21:02:16Z</time>
      </trkpt>
      <trkpt lat="46.24461" lon="4.77898">
        <ele>204.57737731934</ele>
        <time>2020-06-15T21:02:28Z</time>
      </trkpt>
      <trkpt lat="46.2451" lon="4.77308">
        <ele>207.50428771973</ele>
        <time>2020-06-15T21:02:41Z</time>
      </trkpt>
      <trkpt lat="46.24595" lon="4.76895">
        <ele>210.0245513916</ele>
        <time>2020-06-15T21:02:54Z</time>
      </trkpt>
      <trkpt lat="46.24603" lon="4.7647">
        <ele>207.60348510742</ele>
        <time>2020-06-15T21:03:06Z</time>
      </trkpt>
      <trkpt lat="46.24639" lon="4.76243">
        <ele>205.67810058594</ele>
        <time>2020-06-15T21:03:19Z</time>
      </trkpt>
      <trkpt lat="46.24703" lon="4.76078">
        <ele>211.47039794922</ele>
        <time>2020-06-15T21:03:32Z</time>
      </trkpt>
      <trkpt lat="46.24717" lon="4.76028">
        <ele>214.36070251465</ele>
        <time>2020-06-15T21:03:45Z</time>
      </trkpt>
      <trkpt lat="46.24769" lon="4.75727">
        <ele>213.65757751465</ele>
        <time>2020-06-15T21:03:57Z</time>
      </trkpt>
      <trkpt lat="46.24784" lon="4.75686">
        <ele>214.37699890137</ele>
        <time>2020-06-15T21:04:10Z</time>
      </trkpt>
      <trkpt lat="46.24914" lon="4.75435">
        <ele>215.64198303223</ele>
        <time>2020-06-15T21:04:23Z</time>
      </trkpt>
      <trkpt lat="46.25022" lon="4.75145">
        <ele>221.00643920898</ele>
        <time>2020-06-15T21:04:36Z</time>
      </trkpt>
      <trkpt lat="46.25052" lon="4.75037">
        <ele>220.50732421875</ele>
        <time>2020-06-15T21:04:49Z</time>
      </trkpt>
      <trkpt lat="46.25059" lon="4.74959">
        <ele>220.05569458008</ele>
        <time>2020-06-15T21:05:02Z</time>
      </trkpt>
      <trkpt lat="46.25076" lon="4.74895">
        <ele>221.77059936523</ele>
        <time>2020-06-15T21:05:15Z</time>
      </trkpt>
      <trkpt lat="46.25129" lon="4.74805">
        <ele>224.4207611084</ele>
        <time>2020-06-15T21:05:28Z</time>
      </trkpt>
      <trkpt lat="46.25243" lon="4.74643">
        <ele>226.54495239258</ele>
        <time>2020-06-15T21:05:40Z</time>
      </trkpt>
      <trkpt lat="46.25295" lon="4.74561">
        <ele>228.61431884766</ele>
        <time>2020-06-15T21:05:53Z</time>
      </trkpt>
      <trkpt lat="46.25377" lon="4.74456">
        <ele>230.80639648438</ele>
        <time>2020-06-15T21:06:06Z</time>
      </trkpt>
      <trkpt lat="46.25404" lon="4.74409">
        <ele>232.42483520508</ele>
        <time>2020-06-15T21:06:19Z</time>
      </trkpt>
      <trkpt lat="46.25464" lon="4.74269">
        <ele>234.404296875</ele>
        <time>2020-06-15T21:06:32Z</time>
      </trkpt>
      <trkpt lat="46.25569" lon="4.73939">
        <ele>239.4774017334</ele>
        <time>2020-06-15T21:06:45Z</time>
      </trkpt>
      <trkpt lat="46.25582" lon="4.73909">
        <ele>240.46385192871</ele>
        <time>2020-06-15T21:06:58Z</time>
      </trkpt>
      <trkpt lat="46.25603" lon="4.7388">
        <ele>241.15293884277</ele>
        <time>2020-06-15T21:07:11Z</time>
      </trkpt>
      <trkpt lat="46.25727" lon="4.73758">
        <ele>245.18545532227</ele>
        <time>2020-06-15T21:07:25Z</time>
      </trkpt>
      <trkpt lat="46.25836" lon="4.73611">
        <ele>247.64347839355</ele>
        <time>2020-06-15T21:07:38Z</time>
      </trkpt>
      <trkpt lat="46.2586" lon="4.73568">
        <ele>249.63856506348</ele>
        <time>2020-06-15T21:07:51Z</time>
      </trkpt>
      <trkpt lat="46.25862" lon="4.73557">
        <ele>249.38784790039</ele>
        <time>2020-06-15T21:08:04Z</time>
      </trkpt>
      <trkpt lat="46.25911" lon="4.73482">
        <ele>252.40356445312</ele>
        <time>2020-06-15T21:08:17Z</time>
      </trkpt>
      <trkpt lat="46.26054" lon="4.7324">
        <ele>257.90277099609</ele>
        <time>2020-06-15T21:08:30Z</time>
      </trkpt>
      <trkpt lat="46.26093" lon="4.73182">
        <ele>261.29818725586</ele>
        <time>2020-06-15T21:08:43Z</time>
      </trkpt>
      <trkpt lat="46.26156" lon="4.73027">
        <ele>263.86654663086</ele>
        <time>2020-06-15T21:08:56Z</time>
      </trkpt>
      <trkpt lat="46.26182" lon="4.72976">
        <ele>265.27206420898</ele>
        <time>2020-06-15T21:09:10Z</time>
      </trkpt>
      <trkpt lat="46.26254" lon="4.72882">
        <ele>268.50640869141</ele>
        <time>2020-06-15T21:09:23Z</time>
      </trkpt>
      <trkpt lat="46.26276" lon="4.72868">
        <ele>270.4284362793</ele>
        <time>2020-06-15T21:09:36Z</time>
      </trkpt>
      <trkpt lat="46.26346" lon="4.72846">
        <ele>276.17767333984</ele>
        <time>2020-06-15T21:09:49Z</time>
      </trkpt>
      <trkpt lat="46.26372" lon="4.72829">
        <ele>277.49575805664</ele>
        <time>2020-06-15T21:10:02Z</time>
      </trkpt>
      <trkpt lat="46.26438" lon="4.72768">
        <ele>279.68930053711</ele>
        <time>2020-06-15T21:10:16Z</time>
      </trkpt>
      <trkpt lat="46.26459" lon="4.72756">
        <ele>280.9426574707</ele>
        <time>2020-06-15T21:10:29Z</time>
      </trkpt>
      <trkpt lat="46.26481" lon="4.72752">
        <ele>282.9382019043</ele>
        <time>2020-06-15T21:10:42Z</time>
      </trkpt>
      <trkpt lat="46.26519" lon="4.72764">
        <ele>284.09552001953</ele>
        <time>2020-06-15T21:10:55Z</time>
      </trkpt>
      <trkpt lat="46.26554" lon="4.72785">
        <ele>285.75555419922</ele>
        <time>2020-06-15T21:11:09Z</time>
      </trkpt>
      <trkpt lat="46.26665" lon="4.72971">
        <ele>296.64114379883</ele>
        <time>2020-06-15T21:11:22Z</time>
      </trkpt>
      <trkpt lat="46.26688" lon="4.72988">
        <ele>298.27435302734</ele>
        <time>2020-06-15T21:11:35Z</time>
      </trkpt>
      <trkpt lat="46.26721" lon="4.72993">
        <ele>298.80291748047</ele>
        <time>2020-06-15T21:11:49Z</time>
      </trkpt>
      <trkpt lat="46.26751" lon="4.72986">
        <ele>300.17895507812</ele>
        <time>2020-06-15T21:12:02Z</time>
      </trkpt>
      <trkpt lat="46.26833" lon="4.72946">
        <ele>304.9518737793</ele>
        <time>2020-06-15T21:12:15Z</time>
      </trkpt>
      <trkpt lat="46.26864" lon="4.72927">
        <ele>305.72845458984</ele>
        <time>2020-06-15T21:12:29Z</time>
      </trkpt>
      <trkpt lat="46.26928" lon="4.72859">
        <ele>310.94381713867</ele>
        <time>2020-06-15T21:12:42Z</time>
      </trkpt>
      <trkpt lat="46.26949" lon="4.72845">
        <ele>313.02130126953</ele>
        <time>2020-06-15T21:12:55Z</time>
      </trkpt>
      <trkpt lat="46.2696" lon="4.7282">
        <ele>315.72351074219</ele>
        <time>2020-06-15T21:13:09Z</time>
      </trkpt>
      <trkpt lat="46.27063" lon="4.72794">
        <ele>321.83773803711</ele>
        <time>2020-06-15T21:13:22Z</time>
      </trkpt>
      <trkpt lat="46.27125" lon="4.72769">
        <ele>326.06695556641</ele>
        <time>2020-06-15T21:13:35Z</time>
      </trkpt>
      <trkpt lat="46.27454" lon="4.72578">
        <ele>338.27056884766</ele>
        <time>2020-06-15T21:13:49Z</time>
      </trkpt>
      <trkpt lat="46.27482" lon="4.72578">
        <ele>338.07867431641</ele>
        <time>2020-06-15T21:14:02Z</time>
      </trkpt>
      <trkpt lat="46.27535" lon="4.72605">
        <ele>341.91104125977</ele>
        <time>2020-06-15T21:14:16Z</time>
      </trkpt>
      <trkpt lat="46.27569" lon="4.72608">
        <ele>343.33169555664</ele>
        <time>2020-06-15T21:14:29Z</time>
      </trkpt>
      <trkpt lat="46.27685" lon="4.72572">
        <ele>347.1877746582</ele>
        <time>2020-06-15T21:14:42Z</time>
      </trkpt>
      <trkpt lat="46.27734" lon="4.72567">
        <ele>348.45477294922</ele>
        <time>2020-06-15T21:14:56Z</time>
      </trkpt>
      <trkpt lat="46.2791" lon="4.72608">
        <ele>362.09866333008</ele>
        <time>2020-06-15T21:15:09Z</time>
      </trkpt>
      <trkpt lat="46.2794" lon="4.72612">
        <ele>364.91381835938</ele>
        <time>2020-06-15T21:15:23Z</time>
      </trkpt>
      <trkpt lat="46.27962" lon="4.72607">
        <ele>366.37380981445</ele>
        <time>2020-06-15T21:15:36Z</time>
      </trkpt>
      <trkpt lat="46.28081" lon="4.72539">
        <ele>376.76068115234</ele>
        <time>2020-06-15T21:15:50Z</time>
      </trkpt>
      <trkpt lat="46.28123" lon="4.72506">
        <ele>383.19934082031</ele>
        <time>2020-06-15T21:16:04Z</time>
      </trkpt>
      <trkpt lat="46.28158" lon="4.72449">
        <ele>384.98672485352</ele>
        <time>2020-06-15T21:16:17Z</time>
      </trkpt>
      <trkpt lat="46.28211" lon="4.72331">
        <ele>389.27883911133</ele>
        <time>2020-06-15T21:16:31Z</time>
      </trkpt>
      <trkpt lat="46.28228" lon="4.72303">
        <ele>388.80133056641</ele>
        <time>2020-06-15T21:16:44Z</time>
      </trkpt>
      <trkpt lat="46.28263" lon="4.72272">
        <ele>390.6130065918</ele>
        <time>2020-06-15T21:16:58Z</time>
      </trkpt>
      <trkpt lat="46.28318" lon="4.72237">
        <ele>394.21630859375</ele>
        <time>2020-06-15T21:17:11Z</time>
      </trkpt>
      <trkpt lat="46.28375" lon="4.72163">
        <ele>400.54132080078</ele>
        <time>2020-06-15T21:17:25Z</time>
      </trkpt>
      <trkpt lat="46.28411" lon="4.72103">
        <ele>404.33206176758</ele>
        <time>2020-06-15T21:17:39Z</time>
      </trkpt>
      <trkpt lat="46.28435" lon="4.72044">
        <ele>407.72036743164</ele>
        <time>2020-06-15T21:17:52Z</time>
      </trkpt>
      <trkpt lat="46.28531" lon="4.71667">
        <ele>423.32452392578</ele>
        <time>2020-06-15T21:18:06Z</time>
      </trkpt>
      <trkpt lat="46.28543" lon="4.71611">
        <ele>423.96557617188</ele>
        <time>2020-06-15T21:18:20Z</time>
      </trkpt>
      <trkpt lat="46.28552" lon="4.71532">
        <ele>426.03796386719</ele>
        <time>2020-06-15T21:18:33Z</time>
      </trkpt>
      <trkpt lat="46.28562" lon="4.71499">
        <ele>427.37490844727</ele>
        <time>2020-06-15T21:18:47Z</time>
      </trkpt>
      <trkpt lat="46.28591" lon="4.71458">
        <ele>429.36865234375</ele>
        <time>2020-06-15T21:19:01Z</time>
      </trkpt>
      <trkpt lat="46.28677" lon="4.7136">
        <ele>438.87075805664</ele>
        <time>2020-06-15T21:19:14Z</time>
      </trkpt>
      <trkpt lat="46.28756" lon="4.71324">
        <ele>441.06759643555</ele>
        <time>2020-06-15T21:19:28Z</time>
      </trkpt>
      <trkpt lat="46.28775" lon="4.71306">
        <ele>441.00524902344</ele>
        <time>2020-06-15T21:19:42Z</time>
      </trkpt>
      <trkpt lat="46.28797" lon="4.71273">
        <ele>440.55233764648</ele>
        <time>2020-06-15T21:19:56Z</time>
      </trkpt>
      <trkpt lat="46.28813" lon="4.71236">
        <ele>441.10781860352</ele>
        <time>2020-06-15T21:20:09Z</time>
      </trkpt>
      <trkpt lat="46.28818" lon="4.71209">
        <ele>442.29580688477</ele>
        <time>2020-06-15T21:20:23Z</time>
      </trkpt>
      <trkpt lat="46.28813" lon="4.71146">
        <ele>443.0325012207</ele>
        <time>2020-06-15T21:20:37Z</time>
      </trkpt>
      <trkpt lat="46.28798" lon="4.71097">
        <ele>444.55670166016</ele>
        <time>2020-06-15T21:20:50Z</time>
      </trkpt>
      <trkpt lat="46.28755" lon="4.7099">
        <ele>451.16854858398</ele>
        <time>2020-06-15T21:21:04Z</time>
      </trkpt>
      <trkpt lat="46.28747" lon="4.70957">
        <ele>453.54766845703</ele>
        <time>2020-06-15T21:21:18Z</time>
      </trkpt>
      <trkpt lat="46.28745" lon="4.70925">
        <ele>454.56015014648</ele>
        <time>2020-06-15T21:21:32Z</time>
      </trkpt>
      <trkpt lat="46.28769" lon="4.70731">
        <ele>462.21771240234</ele>
        <time>2020-06-15T21:21:46Z</time>
      </trkpt>
      <trkpt lat="46.28782" lon="4.70674">
        <ele>465.19729614258</ele>
        <time>2020-06-15T21:21:59Z</time>
      </trkpt>
      <trkpt lat="46.28906" lon="4.70231">
        <ele>486.54537963867</ele>
        <time>2020-06-15T21:22:13Z</time>
      </trkpt>
      <trkpt lat="46.28937" lon="4.70166">
        <ele>488.84899902344</ele>
        <time>2020-06-15T21:22:27Z</time>
      </trkpt>
      <trkpt lat="46.29012" lon="4.70029">
        <ele>494.21282958984</ele>
        <time>2020-06-15T21:22:41Z</time>
      </trkpt>
      <trkpt lat="46.2911" lon="4.69877">
        <ele>504.63888549805</ele>
        <time>2020-06-15T21:22:55Z</time>
      </trkpt>
      <trkpt lat="46.2913" lon="4.69851">
        <ele>508.02285766602</ele>
        <time>2020-06-15T21:23:09Z</time>
      </trkpt>
      <trkpt lat="46.29194" lon="4.69814">
        <ele>506.95562744141</ele>
        <time>2020-06-15T21:23:23Z</time>
      </trkpt>
      <trkpt lat="46.29215" lon="4.69771">
        <ele>507.3971862793</ele>
        <time>2020-06-15T21:23:37Z</time>
      </trkpt>
      <trkpt lat="46.29216" lon="4.69717">
        <ele>508.43783569336</ele>
        <time>2020-06-15T21:23:51Z</time>
      </trkpt>
      <trkpt lat="46.29203" lon="4.69572">
        <ele>519.22698974609</ele>
        <time>2020-06-15T21:24:05Z</time>
      </trkpt>
      <trkpt lat="46.29207" lon="4.69474">
        <ele>521.21734619141</ele>
        <time>2020-06-15T21:24:19Z</time>
      </trkpt>
      <trkpt lat="46.29181" lon="4.69149">
        <ele>501.67010498047</ele>
        <time>2020-06-15T21:24:33Z</time>
      </trkpt>
      <trkpt lat="46.29166" lon="4.69081">
        <ele>497.69595336914</ele>
        <time>2020-06-15T21:24:47Z</time>
      </trkpt>
      <trkpt lat="46.29142" lon="4.69022">
        <ele>497.49798583984</ele>
        <time>2020-06-15T21:25:01Z</time>
      </trkpt>
      <trkpt lat="46.29135" lon="4.68972">
        <ele>497.43502807617</ele>
        <time>2020-06-15T21:25:15Z</time>
      </trkpt>
      <trkpt lat="46.29136" lon="4.68927">
        <ele>501.09161376953</ele>
        <time>2020-06-15T21:25:29Z</time>
      </trkpt>
      <trkpt lat="46.29152" lon="4.68881">
        <ele>504.23413085938</ele>
        <time>2020-06-15T21:25:43Z</time>
      </trkpt>
      <trkpt lat="46.29188" lon="4.68847">
        <ele>502.59024047852</ele>
        <time>2020-06-15T21:25:57Z</time>
      </trkpt>
      <trkpt lat="46.29344" lon="4.68748">
        <ele>486.30688476562</ele>
        <time>2020-06-15T21:26:11Z</time>
      </trkpt>
      <trkpt lat="46.29491" lon="4.68608">
        <ele>468.63723754883</ele>
        <time>2020-06-15T21:26:25Z</time>
      </trkpt>
      <trkpt lat="46.29522" lon="4.68552">
        <ele>463.31814575195</ele>
        <time>2020-06-15T21:26:39Z</time>
      </trkpt>
      <trkpt lat="46.29547" lon="4.68496">
        <ele>458.90991210938</ele>
        <time>2020-06-15T21:26:53Z</time>
      </trkpt>
      <trkpt lat="46.29563" lon="4.68414">
        <ele>458.51593017578</ele>
        <time>2020-06-15T21:27:07Z</time>
      </trkpt>
      <trkpt lat="46.29598" lon="4.68309">
        <ele>459.47268676758</ele>
        <time>2020-06-15T21:27:21Z</time>
      </trkpt>
      <trkpt lat="46.29628" lon="4.68262">
        <ele>454.63400268555</ele>
        <time>2020-06-15T21:27:36Z</time>
      </trkpt>
      <trkpt lat="46.29739" lon="4.68122">
        <ele>439.04516601562</ele>
        <time>2020-06-15T21:27:50Z</time>
      </trkpt>
      <trkpt lat="46.29831" lon="4.67962">
        <ele>433.45660400391</ele>
        <time>2020-06-15T21:28:04Z</time>
      </trkpt>
      <trkpt lat="46.29847" lon="4.67943">
        <ele>433.48025512695</ele>
        <time>2020-06-15T21:28:18Z</time>
      </trkpt>
      <trkpt lat="46.29857" lon="4.67939">
        <ele>432.73687744141</ele>
        <time>2020-06-15T21:28:32Z</time>
      </trkpt>
      <trkpt lat="46.29911" lon="4.67938">
        <ele>424.17828369141</ele>
        <time>2020-06-15T21:28:47Z</time>
      </trkpt>
      <trkpt lat="46.29951" lon="4.67924">
        <ele>419.64514160156</ele>
        <time>2020-06-15T21:29:01Z</time>
      </trkpt>
      <trkpt lat="46.29981" lon="4.67894">
        <ele>416.54165649414</ele>
        <time>2020-06-15T21:29:15Z</time>
      </trkpt>
      <trkpt lat="46.30012" lon="4.67838">
        <ele>414.97796630859</ele>
        <time>2020-06-15T21:29:29Z</time>
      </trkpt>
      <trkpt lat="46.30028" lon="4.67825">
        <ele>412.4885559082</ele>
        <time>2020-06-15T21:29:43Z</time>
      </trkpt>
      <trkpt lat="46.30045" lon="4.67825">
        <ele>409.20407104492</ele>
        <time>2020-06-15T21:29:58Z</time>
      </trkpt>
      <trkpt lat="46.30053" lon="4.67832">
        <ele>408.53128051758</ele>
        <time>2020-06-15T21:30:12Z</time>
      </trkpt>
      <trkpt lat="46.30063" lon="4.67854">
        <ele>409.28091430664</ele>
        <time>2020-06-15T21:30:26Z</time>
      </trkpt>
      <trkpt lat="46.30068" lon="4.67898">
        <ele>411.85122680664</ele>
        <time>2020-06-15T21:30:40Z</time>
      </trkpt>
      <trkpt lat="46.30067" lon="4.67955">
        <ele>412.8974609375</ele>
        <time>2020-06-15T21:30:55Z</time>
      </trkpt>
      <trkpt lat="46.30052" lon="4.67983">
        <ele>410.4548034668</ele>
        <time>2020-06-15T21:31:09Z</time>
      </trkpt>
      <trkpt lat="46.30014" lon="4.67986">
        <ele>410.19360351562</ele>
        <time>2020-06-15T21:31:23Z</time>
      </trkpt>
      <trkpt lat="46.29996" lon="4.67997">
        <ele>409.31506347656</ele>
        <time>2020-06-15T21:31:37Z</time>
      </trkpt>
      <trkpt lat="46.29989" lon="4.68005">
        <ele>408.60336303711</ele>
        <time>2020-06-15T21:31:52Z</time>
      </trkpt>
      <trkpt lat="46.29974" lon="4.68062">
        <ele>403.2942199707</ele>
        <time>2020-06-15T21:32:06Z</time>
      </trkpt>
      <trkpt lat="46.2996" lon="4.68095">
        <ele>400.69537353516</ele>
        <time>2020-06-15T21:32:20Z</time>
      </trkpt>
      <trkpt lat="46.29962" lon="4.68211">
        <ele>391.25637817383</ele>
        <time>2020-06-15T21:32:35Z</time>
      </trkpt>
      <trkpt lat="46.29944" lon="4.68319">
        <ele>392.9052734375</ele>
        <time>2020-06-15T21:32:49Z</time>
      </trkpt>
      <trkpt lat="46.29949" lon="4.68338">
        <ele>393.24829101562</ele>
        <time>2020-06-15T21:33:03Z</time>
      </trkpt>
      <trkpt lat="46.29956" lon="4.68345">
        <ele>392.45120239258</ele>
        <time>2020-06-15T21:33:17Z</time>
      </trkpt>
      <trkpt lat="46.29964" lon="4.68345">
        <ele>391.21203613281</ele>
        <time>2020-06-15T21:33:32Z</time>
      </trkpt>
      <trkpt lat="46.29997" lon="4.68328">
        <ele>386.63690185547</ele>
        <time>2020-06-15T21:33:46Z</time>
      </trkpt>
      <trkpt lat="46.3011" lon="4.68258">
        <ele>373.07238769531</ele>
        <time>2020-06-15T21:34:00Z</time>
      </trkpt>
      <trkpt lat="46.30128" lon="4.68259">
        <ele>371.62539672852</ele>
        <time>2020-06-15T21:34:15Z</time>
      </trkpt>
      <trkpt lat="46.30193" lon="4.68287">
        <ele>363.55703735352</ele>
        <time>2020-06-15T21:34:29Z</time>
      </trkpt>
      <trkpt lat="46.30217" lon="4.68289">
        <ele>361.46829223633</ele>
        <time>2020-06-15T21:34:44Z</time>
      </trkpt>
      <trkpt lat="46.30288" lon="4.68275">
        <ele>357.46096801758</ele>
        <time>2020-06-15T21:34:58Z</time>
      </trkpt>
      <trkpt lat="46.30332" lon="4.68279">
        <ele>354.71694946289</ele>
        <time>2020-06-15T21:35:12Z</time>
      </trkpt>
      <trkpt lat="46.30426" lon="4.68266">
        <ele>353.02752685547</ele>
        <time>2020-06-15T21:35:27Z</time>
      </trkpt>
      <trkpt lat="46.30461" lon="4.68256">
        <ele>351.39907836914</ele>
        <time>2020-06-15T21:35:41Z</time>
      </trkpt>
      <trkpt lat="46.30482" lon="4.68243">
        <ele>348.04348754883</ele>
        <time>2020-06-15T21:35:55Z</time>
      </trkpt>
      <trkpt lat="46.305" lon="4.68224">
        <ele>348.45379638672</ele>
        <time>2020-06-15T21:36:10Z</time>
      </trkpt>
      <trkpt lat="46.30548" lon="4.68155">
        <ele>343.15084838867</ele>
        <time>2020-06-15T21:36:24Z</time>
      </trkpt>
      <trkpt lat="46.30568" lon="4.68144">
        <ele>339.96951293945</ele>
        <time>2020-06-15T21:36:39Z</time>
      </trkpt>
      <trkpt lat="46.30622" lon="4.68132">
        <ele>337.44619750977</ele>
        <time>2020-06-15T21:36:53Z</time>
      </trkpt>
      <trkpt lat="46.30645" lon="4.68121">
        <ele>335.23446655273</ele>
        <time>2020-06-15T21:37:08Z</time>
      </trkpt>
      <trkpt lat="46.3082" lon="4.67968">
        <ele>317.33123779297</ele>
        <time>2020-06-15T21:37:22Z</time>
      </trkpt>
      <trkpt lat="46.30848" lon="4.67886">
        <ele>310.3469543457</ele>
        <time>2020-06-15T21:37:36Z</time>
      </trkpt>
      <trkpt lat="46.30894" lon="4.67696">
        <ele>301.16760253906</ele>
        <time>2020-06-15T21:37:51Z</time>
      </trkpt>
      <trkpt lat="46.30894" lon="4.67675">
        <ele>301.6760559082</ele>
        <time>2020-06-15T21:38:05Z</time>
      </trkpt>
      <trkpt lat="46.30789" lon="4.67572">
        <ele>307.22415161133</ele>
        <time>2020-06-15T21:38:20Z</time>
      </trkpt>
      <trkpt lat="46.30719" lon="4.67488">
        <ele>317.72506713867</ele>
        <time>2020-06-15T21:38:35Z</time>
      </trkpt>
      <trkpt lat="46.30638" lon="4.67426">
        <ele>321.31063842773</ele>
        <time>2020-06-15T21:38:49Z</time>
      </trkpt>
      <trkpt lat="46.30616" lon="4.67404">
        <ele>321.11352539062</ele>
        <time>2020-06-15T21:39:04Z</time>
      </trkpt>
      <trkpt lat="46.30591" lon="4.6737">
        <ele>322.43768310547</ele>
        <time>2020-06-15T21:39:18Z</time>
      </trkpt>
      <trkpt lat="46.30583" lon="4.67337">
        <ele>323.41973876953</ele>
        <time>2020-06-15T21:39:33Z</time>
      </trkpt>
      <trkpt lat="46.30584" lon="4.67287">
        <ele>325.74859619141</ele>
        <time>2020-06-15T21:39:47Z</time>
      </trkpt>
      <trkpt lat="46.30594" lon="4.67227">
        <ele>333.15521240234</ele>
        <time>2020-06-15T21:40:02Z</time>
      </trkpt>
      <trkpt lat="46.30629" lon="4.67081">
        <ele>334.16094970703</ele>
        <time>2020-06-15T21:40:17Z</time>
      </trkpt>
      <trkpt lat="46.30665" lon="4.67011">
        <ele>335.80676269531</ele>
        <time>2020-06-15T21:40:31Z</time>
      </trkpt>
      <trkpt lat="46.30701" lon="4.66842">
        <ele>341.37759399414</ele>
        <time>2020-06-15T21:40:46Z</time>
      </trkpt>
      <trkpt lat="46.30756" lon="4.66712">
        <ele>344.83874511719</ele>
        <time>2020-06-15T21:41:00Z</time>
      </trkpt>
      <trkpt lat="46.30774" lon="4.6664">
        <ele>348.98861694336</ele>
        <time>2020-06-15T21:41:15Z</time>
      </trkpt>
      <trkpt lat="46.30791" lon="4.66498">
        <ele>350.8967590332</ele>
        <time>2020-06-15T21:41:30Z</time>
      </trkpt>
      <trkpt lat="46.30801" lon="4.66465">
        <ele>350.02676391602</ele>
        <time>2020-06-15T21:41:44Z</time>
      </trkpt>
      <trkpt lat="46.30807" lon="4.66458">
        <ele>348.99594116211</ele>
        <time>2020-06-15T21:41:59Z</time>
      </trkpt>
      <trkpt lat="46.30819" lon="4.66451">
        <ele>348.92602539062</ele>
        <time>2020-06-15T21:42:14Z</time>
      </trkpt>
      <trkpt lat="46.30841" lon="4.66453">
        <ele>352.24053955078</ele>
        <time>2020-06-15T21:42:28Z</time>
      </trkpt>
      <trkpt lat="46.30875" lon="4.66476">
        <ele>356.81680297852</ele>
        <time>2020-06-15T21:42:43Z</time>
      </trkpt>
      <trkpt lat="46.30892" lon="4.66507">
        <ele>358.27581787109</ele>
        <time>2020-06-15T21:42:58Z</time>
      </trkpt>
      <trkpt lat="46.30898" lon="4.6655">
        <ele>358.1477355957</ele>
        <time>2020-06-15T21:43:12Z</time>
      </trkpt>
      <trkpt lat="46.30894" lon="4.6666">
        <ele>360.36883544922</ele>
        <time>2020-06-15T21:43:27Z</time>
      </trkpt>
      <trkpt lat="46.30866" lon="4.66773">
        <ele>360.2724609375</ele>
        <time>2020-06-15T21:43:42Z</time>
      </trkpt>
      <trkpt lat="46.30876" lon="4.66855">
        <ele>365.30801391602</ele>
        <time>2020-06-15T21:43:57Z</time>
      </trkpt>
      <trkpt lat="46.30874" lon="4.66916">
        <ele>367.51550292969</ele>
        <time>2020-06-15T21:44:11Z</time>
      </trkpt>
      <trkpt lat="46.30854" lon="4.66987">
        <ele>367.31652832031</ele>
        <time>2020-06-15T21:44:26Z</time>
      </trkpt>
      <trkpt lat="46.30812" lon="4.67092">
        <ele>369.8796081543</ele>
        <time>2020-06-15T21:44:41Z</time>
      </trkpt>
      <trkpt lat="46.30801" lon="4.67135">
        <ele>370.40902709961</ele>
        <time>2020-06-15T21:44:56Z</time>
      </trkpt>
      <trkpt lat="46.30803" lon="4.67209">
        <ele>373.96304321289</ele>
        <time>2020-06-15T21:45:10Z</time>
      </trkpt>
      <trkpt lat="46.30811" lon="4.67224">
        <ele>374.81954956055</ele>
        <time>2020-06-15T21:45:25Z</time>
      </trkpt>
      <trkpt lat="46.30833" lon="4.67234">
        <ele>375.23318481445</ele>
        <time>2020-06-15T21:45:40Z</time>
      </trkpt>
      <trkpt lat="46.30975" lon="4.67224">
        <ele>387.46481323242</ele>
        <time>2020-06-15T21:45:55Z</time>
      </trkpt>
      <trkpt lat="46.31115" lon="4.67221">
        <ele>389.05349731445</ele>
        <time>2020-06-15T21:46:10Z</time>
      </trkpt>
      <trkpt lat="46.3119" lon="4.67209">
        <ele>390.14053344727</ele>
        <time>2020-06-15T21:46:24Z</time>
      </trkpt>
      <trkpt lat="46.31215" lon="4.67196">
        <ele>391.23986816406</ele>
        <time>2020-06-15T21:46:39Z</time>
      </trkpt>
      <trkpt lat="46.3123" lon="4.67152">
        <ele>394.63427734375</ele>
        <time>2020-06-15T21:46:54Z</time>
      </trkpt>
      <trkpt lat="46.31241" lon="4.67041">
        <ele>399.59762573242</ele>
        <time>2020-06-15T21:47:09Z</time>
      </trkpt>
      <trkpt lat="46.31281" lon="4.66926">
        <ele>407.0520324707</ele>
        <time>2020-06-15T21:47:24Z</time>
      </trkpt>
      <trkpt lat="46.31313" lon="4.66809">
        <ele>412.12908935547</ele>
        <time>2020-06-15T21:47:39Z</time>
      </trkpt>
      <trkpt lat="46.31314" lon="4.66754">
        <ele>414.24127197266</ele>
        <time>2020-06-15T21:47:54Z</time>
      </trkpt>
      <trkpt lat="46.31297" lon="4.66634">
        <ele>413.99295043945</ele>
        <time>2020-06-15T21:48:09Z</time>
      </trkpt>
      <trkpt lat="46.31304" lon="4.66592">
        <ele>413.42086791992</ele>
        <time>2020-06-15T21:48:24Z</time>
      </trkpt>
      <trkpt lat="46.31319" lon="4.66568">
        <ele>412.65466308594</ele>
        <time>2020-06-15T21:48:38Z</time>
      </trkpt>
      <trkpt lat="46.3134" lon="4.66563">
        <ele>413.49465942383</ele>
        <time>2020-06-15T21:48:53Z</time>
      </trkpt>
      <trkpt lat="46.31382" lon="4.66578">
        <ele>417.49496459961</ele>
        <time>2020-06-15T21:49:08Z</time>
      </trkpt>
      <trkpt lat="46.31551" lon="4.66698">
        <ele>432.86163330078</ele>
        <time>2020-06-15T21:49:23Z</time>
      </trkpt>
      <trkpt lat="46.3157" lon="4.66706">
        <ele>434.62390136719</ele>
        <time>2020-06-15T21:49:38Z</time>
      </trkpt>
      <trkpt lat="46.3159" lon="4.66697">
        <ele>436.81396484375</ele>
        <time>2020-06-15T21:49:53Z</time>
      </trkpt>
      <trkpt lat="46.31702" lon="4.66568">
        <ele>455.07141113281</ele>
        <time>2020-06-15T21:50:08Z</time>
      </trkpt>
      <trkpt lat="46.31709" lon="4.66543">
        <ele>459.84710693359</ele>
        <time>2020-06-15T21:50:23Z</time>
      </trkpt>
      <trkpt lat="46.31705" lon="4.66523">
        <ele>462.10067749023</ele>
        <time>2020-06-15T21:50:38Z</time>
      </trkpt>
      <trkpt lat="46.31649" lon="4.66442">
        <ele>464.23281860352</ele>
        <time>2020-06-15T21:50:53Z</time>
      </trkpt>
      <trkpt lat="46.31621" lon="4.66338">
        <ele>471.49612426758</ele>
        <time>2020-06-15T21:51:08Z</time>
      </trkpt>
      <trkpt lat="46.31546" lon="4.66164">
        <ele>481.70889282227</ele>
        <time>2020-06-15T21:51:23Z</time>
      </trkpt>
      <trkpt lat="46.31527" lon="4.66136">
        <ele>483.56192016602</ele>
        <time>2020-06-15T21:51:38Z</time>
      </trkpt>
      <trkpt lat="46.31463" lon="4.66084">
        <ele>483.56695556641</ele>
        <time>2020-06-15T21:51:53Z</time>
      </trkpt>
      <trkpt lat="46.31427" lon="4.66042">
        <ele>483.72695922852</ele>
        <time>2020-06-15T21:52:09Z</time>
      </trkpt>
      <trkpt lat="46.31409" lon="4.66001">
        <ele>484.50997924805</ele>
        <time>2020-06-15T21:52:24Z</time>
      </trkpt>
      <trkpt lat="46.3139" lon="4.65914">
        <ele>486.6653137207</ele>
        <time>2020-06-15T21:52:39Z</time>
      </trkpt>
      <trkpt lat="46.31385" lon="4.6583">
        <ele>487.62426757812</ele>
        <time>2020-06-15T21:52:54Z</time>
      </trkpt>
      <trkpt lat="46.31388" lon="4.65761">
        <ele>487.88653564453</ele>
        <time>2020-06-15T21:53:09Z</time>
      </trkpt>
      <trkpt lat="46.31403" lon="4.65713">
        <ele>489.21820068359</ele>
        <time>2020-06-15T21:53:24Z</time>
      </trkpt>
      <trkpt lat="46.31427" lon="4.65669">
        <ele>489.56713867188</ele>
        <time>2020-06-15T21:53:39Z</time>
      </trkpt>
      <trkpt lat="46.31517" lon="4.65563">
        <ele>496.38583374023</ele>
        <time>2020-06-15T21:53:54Z</time>
      </trkpt>
      <trkpt lat="46.31529" lon="4.6556">
        <ele>498.17370605469</ele>
        <time>2020-06-15T21:54:09Z</time>
      </trkpt>
      <trkpt lat="46.31544" lon="4.65565">
        <ele>500.19177246094</ele>
        <time>2020-06-15T21:54:25Z</time>
      </trkpt>
      <trkpt lat="46.31579" lon="4.65595">
        <ele>501.12915039062</ele>
        <time>2020-06-15T21:54:40Z</time>
      </trkpt>
      <trkpt lat="46.31598" lon="4.65603">
        <ele>499.9267578125</ele>
        <time>2020-06-15T21:54:55Z</time>
      </trkpt>
      <trkpt lat="46.31612" lon="4.65596">
        <ele>499.52944946289</ele>
        <time>2020-06-15T21:55:10Z</time>
      </trkpt>
      <trkpt lat="46.31624" lon="4.65582">
        <ele>500.85104370117</ele>
        <time>2020-06-15T21:55:25Z</time>
      </trkpt>
      <trkpt lat="46.31641" lon="4.65535">
        <ele>507.81393432617</ele>
        <time>2020-06-15T21:55:40Z</time>
      </trkpt>
      <trkpt lat="46.31641" lon="4.6551">
        <ele>511.66677856445</ele>
        <time>2020-06-15T21:55:56Z</time>
      </trkpt>
      <trkpt lat="46.31632" lon="4.65489">
        <ele>514.28198242188</ele>
        <time>2020-06-15T21:56:11Z</time>
      </trkpt>
      <trkpt lat="46.3159" lon="4.65447">
        <ele>517.69561767578</ele>
        <time>2020-06-15T21:56:26Z</time>
      </trkpt>
      <trkpt lat="46.31546" lon="4.65377">
        <ele>523.40924072266</ele>
        <time>2020-06-15T21:56:41Z</time>
      </trkpt>
      <trkpt lat="46.31515" lon="4.65343">
        <ele>523.14141845703</ele>
        <time>2020-06-15T21:56:56Z</time>
      </trkpt>
      <trkpt lat="46.31492" lon="4.6529">
        <ele>526.49542236328</ele>
        <time>2020-06-15T21:57:11Z</time>
      </trkpt>
      <trkpt lat="46.31484" lon="4.65219">
        <ele>529.65216064453</ele>
        <time>2020-06-15T21:57:27Z</time>
      </trkpt>
      <trkpt lat="46.31488" lon="4.65138">
        <ele>531.748046875</ele>
        <time>2020-06-15T21:57:42Z</time>
      </trkpt>
      <trkpt lat="46.31498" lon="4.65088">
        <ele>532.36047363281</ele>
        <time>2020-06-15T21:57:57Z</time>
      </trkpt>
      <trkpt lat="46.31508" lon="4.65065">
        <ele>533.44702148438</ele>
        <time>2020-06-15T21:58:12Z</time>
      </trkpt>
      <trkpt lat="46.31527" lon="4.6504">
        <ele>533.11370849609</ele>
        <time>2020-06-15T21:58:28Z</time>
      </trkpt>
      <trkpt lat="46.31548" lon="4.65023">
        <ele>534.04052734375</ele>
        <time>2020-06-15T21:58:43Z</time>
      </trkpt>
      <trkpt lat="46.3157" lon="4.65013">
        <ele>535.38641357422</ele>
        <time>2020-06-15T21:58:58Z</time>
      </trkpt>
      <trkpt lat="46.3169" lon="4.64971">
        <ele>544.13360595703</ele>
        <time>2020-06-15T21:59:13Z</time>
      </trkpt>
      <trkpt lat="46.31803" lon="4.64944">
        <ele>555.18585205078</ele>
        <time>2020-06-15T21:59:29Z</time>
      </trkpt>
      <trkpt lat="46.31845" lon="4.64922">
        <ele>559.93212890625</ele>
        <time>2020-06-15T21:59:44Z</time>
      </trkpt>
      <trkpt lat="46.31852" lon="4.64925">
        <ele>560.81854248047</ele>
        <time>2020-06-15T21:59:59Z</time>
      </trkpt>
      <trkpt lat="46.31849" lon="4.64933">
        <ele>560.91186523438</ele>
        <time>2020-06-15T22:00:14Z</time>
      </trkpt>
      <trkpt lat="46.3183" lon="4.64943">
        <ele>559.33477783203</ele>
        <time>2020-06-15T22:00:30Z</time>
      </trkpt>
      <trkpt lat="46.31707" lon="4.64985">
        <ele>548.19567871094</ele>
        <time>2020-06-15T22:00:45Z</time>
      </trkpt>
      <trkpt lat="46.31675" lon="4.65">
        <ele>546.71203613281</ele>
        <time>2020-06-15T22:01:00Z</time>
      </trkpt>
      <trkpt lat="46.31582" lon="4.65059">
        <ele>543.20941162109</ele>
        <time>2020-06-15T22:01:16Z</time>
      </trkpt>
      <trkpt lat="46.31567" lon="4.65076">
        <ele>543.16412353516</ele>
        <time>2020-06-15T22:01:31Z</time>
      </trkpt>
      <trkpt lat="46.31556" lon="4.65099">
        <ele>544.42071533203</ele>
        <time>2020-06-15T22:01:46Z</time>
      </trkpt>
      <trkpt lat="46.3155" lon="4.65125">
        <ele>545.16967773438</ele>
        <time>2020-06-15T22:02:02Z</time>
      </trkpt>
      <trkpt lat="46.3155" lon="4.6517">
        <ele>545.69763183594</ele>
        <time>2020-06-15T22:02:17Z</time>
      </trkpt>
      <trkpt lat="46.31558" lon="4.65214">
        <ele>546.80224609375</ele>
        <time>2020-06-15T22:02:32Z</time>
      </trkpt>
      <trkpt lat="46.31574" lon="4.65255">
        <ele>545.58679199219</ele>
        <time>2020-06-15T22:02:48Z</time>
      </trkpt>
      <trkpt lat="46.31599" lon="4.65284">
        <ele>545.57403564453</ele>
        <time>2020-06-15T22:03:03Z</time>
      </trkpt>
      <trkpt lat="46.31653" lon="4.65327">
        <ele>542.29071044922</ele>
        <time>2020-06-15T22:03:19Z</time>
      </trkpt>
      <trkpt lat="46.31681" lon="4.65341">
        <ele>538.38177490234</ele>
        <time>2020-06-15T22:03:34Z</time>
      </trkpt>
      <trkpt lat="46.31701" lon="4.65344">
        <ele>536.97094726562</ele>
        <time>2020-06-15T22:03:49Z</time>
      </trkpt>
      <trkpt lat="46.31739" lon="4.65333">
        <ele>536.13116455078</ele>
        <time>2020-06-15T22:04:05Z</time>
      </trkpt>
      <trkpt lat="46.31819" lon="4.65283">
        <ele>538.15582275391</ele>
        <time>2020-06-15T22:04:20Z</time>
      </trkpt>
      <trkpt lat="46.31895" lon="4.65251">
        <ele>538.09588623047</ele>
        <time>2020-06-15T22:04:36Z</time>
      </trkpt>
      <trkpt lat="46.31944" lon="4.65252">
        <ele>535.51647949219</ele>
        <time>2020-06-15T22:04:51Z</time>
      </trkpt>
      <trkpt lat="46.3202" lon="4.65282">
        <ele>523.05041503906</ele>
        <time>2020-06-15T22:05:06Z</time>
      </trkpt>
      <trkpt lat="46.32056" lon="4.65277">
        <ele>518.76239013672</ele>
        <time>2020-06-15T22:05:22Z</time>
      </trkpt>
      <trkpt lat="46.3209" lon="4.65248">
        <ele>514.09753417969</ele>
        <time>2020-06-15T22:05:37Z</time>
      </trkpt>
      <trkpt lat="46.32149" lon="4.6514">
        <ele>516.87573242188</ele>
        <time>2020-06-15T22:05:53Z</time>
      </trkpt>
      <trkpt lat="46.32181" lon="4.65109">
        <ele>519.0166015625</ele>
        <time>2020-06-15T22:06:08Z</time>
      </trkpt>
      <trkpt lat="46.32226" lon="4.65095">
        <ele>516.77319335938</ele>
        <time>2020-06-15T22:06:24Z</time>
      </trkpt>
      <trkpt lat="46.3231" lon="4.65085">
        <ele>510.705078125</ele>
        <time>2020-06-15T22:06:39Z</time>
      </trkpt>
      <trkpt lat="46.32388" lon="4.65048">
        <ele>512.13116455078</ele>
        <time>2020-06-15T22:06:55Z</time>
      </trkpt>
      <trkpt lat="46.32407" lon="4.65044">
        <ele>513.25469970703</ele>
        <time>2020-06-15T22:07:10Z</time>
      </trkpt>
      <trkpt lat="46.32416" lon="4.65047">
        <ele>514.25079345703</ele>
        <time>2020-06-15T22:07:26Z</time>
      </trkpt>
      <trkpt lat="46.32437" lon="4.65074">
        <ele>513.75335693359</ele>
        <time>2020-06-15T22:07:41Z</time>
      </trkpt>
      <trkpt lat="46.32487" lon="4.65212">
        <ele>501.04364013672</ele>
        <time>2020-06-15T22:07:57Z</time>
      </trkpt>
      <trkpt lat="46.32506" lon="4.6525">
        <ele>497.18975830078</ele>
        <time>2020-06-15T22:08:12Z</time>
      </trkpt>
      <trkpt lat="46.32521" lon="4.65267">
        <ele>495.54800415039</ele>
        <time>2020-06-15T22:08:28Z</time>
      </trkpt>
      <trkpt lat="46.3254" lon="4.65277">
        <ele>494.65850830078</ele>
        <time>2020-06-15T22:08:44Z</time>
      </trkpt>
      <trkpt lat="46.32617" lon="4.65297">
        <ele>496.29351806641</ele>
        <time>2020-06-15T22:08:59Z</time>
      </trkpt>
      <trkpt lat="46.32663" lon="4.65327">
        <ele>495.68807983398</ele>
        <time>2020-06-15T22:09:15Z</time>
      </trkpt>
      <trkpt lat="46.32705" lon="4.65369">
        <ele>493.54119873047</ele>
        <time>2020-06-15T22:09:30Z</time>
      </trkpt>
      <trkpt lat="46.32758" lon="4.65453">
        <ele>480.93118286133</ele>
        <time>2020-06-15T22:09:46Z</time>
      </trkpt>
      <trkpt lat="46.32773" lon="4.65467">
        <ele>478.27493286133</ele>
        <time>2020-06-15T22:10:01Z</time>
      </trkpt>
      <trkpt lat="46.32791" lon="4.65466">
        <ele>477.79977416992</ele>
        <time>2020-06-15T22:10:17Z</time>
      </trkpt>
      <trkpt lat="46.32816" lon="4.65435">
        <ele>482.07757568359</ele>
        <time>2020-06-15T22:10:33Z</time>
      </trkpt>
      <trkpt lat="46.32844" lon="4.65431">
        <ele>484.76287841797</ele>
        <time>2020-06-15T22:10:48Z</time>
      </trkpt>
      <trkpt lat="46.32897" lon="4.65462">
        <ele>483.02435302734</ele>
        <time>2020-06-15T22:11:04Z</time>
      </trkpt>
      <trkpt lat="46.33046" lon="4.65572">
        <ele>478.84762573242</ele>
        <time>2020-06-15T22:11:19Z</time>
      </trkpt>
      <trkpt lat="46.33102" lon="4.65622">
        <ele>474.73327636719</ele>
        <time>2020-06-15T22:11:35Z</time>
      </trkpt>
      <trkpt lat="46.33147" lon="4.6569">
        <ele>469.84866333008</ele>
        <time>2020-06-15T22:11:51Z</time>
      </trkpt>
      <trkpt lat="46.33165" lon="4.65742">
        <ele>467.50494384766</ele>
        <time>2020-06-15T22:12:06Z</time>
      </trkpt>
      <trkpt lat="46.33164" lon="4.65785">
        <ele>463.11001586914</ele>
        <time>2020-06-15T22:12:22Z</time>
      </trkpt>
      <trkpt lat="46.33149" lon="4.65858">
        <ele>459.51696777344</ele>
        <time>2020-06-15T22:12:38Z</time>
      </trkpt>
      <trkpt lat="46.33152" lon="4.65918">
        <ele>460.93161010742</ele>
        <time>2020-06-15T22:12:54Z</time>
      </trkpt>
      <trkpt lat="46.33146" lon="4.65944">
        <ele>460.54010009766</ele>
        <time>2020-06-15T22:13:09Z</time>
      </trkpt>
      <trkpt lat="46.33131" lon="4.6597">
        <ele>457.60076904297</ele>
        <time>2020-06-15T22:13:25Z</time>
      </trkpt>
      <trkpt lat="46.33072" lon="4.66038">
        <ele>449.64379882812</ele>
        <time>2020-06-15T22:13:41Z</time>
      </trkpt>
      <trkpt lat="46.33017" lon="4.66116">
        <ele>446.01614379883</ele>
        <time>2020-06-15T22:13:56Z</time>
      </trkpt>
      <trkpt lat="46.32828" lon="4.66342">
        <ele>437.53723144531</ele>
        <time>2020-06-15T22:14:12Z</time>
      </trkpt>
      <trkpt lat="46.32787" lon="4.66427">
        <ele>434.74368286133</ele>
        <time>2020-06-15T22:14:28Z</time>
      </trkpt>
      <trkpt lat="46.32767" lon="4.66516">
        <ele>433.73892211914</ele>
        <time>2020-06-15T22:14:44Z</time>
      </trkpt>
      <trkpt lat="46.32757" lon="4.66653">
        <ele>428.42880249023</ele>
        <time>2020-06-15T22:15:00Z</time>
      </trkpt>
      <trkpt lat="46.32763" lon="4.66699">
        <ele>427.12094116211</ele>
        <time>2020-06-15T22:15:15Z</time>
      </trkpt>
      <trkpt lat="46.32774" lon="4.66723">
        <ele>425.2087097168</ele>
        <time>2020-06-15T22:15:31Z</time>
      </trkpt>
      <trkpt lat="46.32803" lon="4.66741">
        <ele>428.18426513672</ele>
        <time>2020-06-15T22:15:47Z</time>
      </trkpt>
      <trkpt lat="46.32874" lon="4.66748">
        <ele>430.71594238281</ele>
        <time>2020-06-15T22:16:03Z</time>
      </trkpt>
      <trkpt lat="46.32942" lon="4.66776">
        <ele>430.02462768555</ele>
        <time>2020-06-15T22:16:19Z</time>
      </trkpt>
      <trkpt lat="46.3298" lon="4.66808">
        <ele>428.22427368164</ele>
        <time>2020-06-15T22:16:35Z</time>
      </trkpt>
      <trkpt lat="46.32994" lon="4.66847">
        <ele>424.61791992188</ele>
        <time>2020-06-15T22:16:50Z</time>
      </trkpt>
      <trkpt lat="46.32992" lon="4.66894">
        <ele>419.10467529297</ele>
        <time>2020-06-15T22:17:06Z</time>
      </trkpt>
      <trkpt lat="46.32983" lon="4.66937">
        <ele>415.28930664062</ele>
        <time>2020-06-15T22:17:22Z</time>
      </trkpt>
      <trkpt lat="46.32939" lon="4.67048">
        <ele>405.35208129883</ele>
        <time>2020-06-15T22:17:38Z</time>
      </trkpt>
      <trkpt lat="46.32923" lon="4.67162">
        <ele>403.11340332031</ele>
        <time>2020-06-15T22:17:54Z</time>
      </trkpt>
      <trkpt lat="46.32884" lon="4.67247">
        <ele>399.4700012207</ele>
        <time>2020-06-15T22:18:10Z</time>
      </trkpt>
      <trkpt lat="46.32871" lon="4.67294">
        <ele>398.31909179688</ele>
        <time>2020-06-15T22:18:26Z</time>
      </trkpt>
      <trkpt lat="46.32841" lon="4.67524">
        <ele>388.43731689453</ele>
        <time>2020-06-15T22:18:42Z</time>
      </trkpt>
      <trkpt lat="46.32845" lon="4.67564">
        <ele>385.4182434082</ele>
        <time>2020-06-15T22:18:58Z</time>
      </trkpt>
      <trkpt lat="46.32871" lon="4.67602">
        <ele>385.94296264648</ele>
        <time>2020-06-15T22:19:14Z</time>
      </trkpt>
      <trkpt lat="46.32906" lon="4.6763">
        <ele>386.14862060547</ele>
        <time>2020-06-15T22:19:29Z</time>
      </trkpt>
      <trkpt lat="46.32945" lon="4.67644">
        <ele>386.05517578125</ele>
        <time>2020-06-15T22:19:45Z</time>
      </trkpt>
      <trkpt lat="46.33014" lon="4.67654">
        <ele>388.65179443359</ele>
        <time>2020-06-15T22:20:01Z</time>
      </trkpt>
      <trkpt lat="46.33046" lon="4.67664">
        <ele>387.52908325195</ele>
        <time>2020-06-15T22:20:17Z</time>
      </trkpt>
      <trkpt lat="46.33192" lon="4.67766">
        <ele>370.48217773438</ele>
        <time>2020-06-15T22:20:33Z</time>
      </trkpt>
      <trkpt lat="46.33221" lon="4.67781">
        <ele>368.64584350586</ele>
        <time>2020-06-15T22:20:49Z</time>
      </trkpt>
      <trkpt lat="46.33251" lon="4.67786">
        <ele>366.84979248047</ele>
        <time>2020-06-15T22:21:05Z</time>
      </trkpt>
      <trkpt lat="46.3335" lon="4.67775">
        <ele>365.515625</ele>
        <time>2020-06-15T22:21:21Z</time>
      </trkpt>
      <trkpt lat="46.33457" lon="4.67792">
        <ele>358.98153686523</ele>
        <time>2020-06-15T22:21:38Z</time>
      </trkpt>
      <trkpt lat="46.33486" lon="4.67792">
        <ele>356.14624023438</ele>
        <time>2020-06-15T22:21:54Z</time>
      </trkpt>
      <trkpt lat="46.33515" lon="4.67787">
        <ele>352.18801879883</ele>
        <time>2020-06-15T22:22:10Z</time>
      </trkpt>
      <trkpt lat="46.33558" lon="4.67769">
        <ele>347.5295715332</ele>
        <time>2020-06-15T22:22:26Z</time>
      </trkpt>
      <trkpt lat="46.33579" lon="4.67748">
        <ele>343.8405456543</ele>
        <time>2020-06-15T22:22:42Z</time>
      </trkpt>
      <trkpt lat="46.33588" lon="4.67714">
        <ele>344.22222900391</ele>
        <time>2020-06-15T22:22:58Z</time>
      </trkpt>
      <trkpt lat="46.33603" lon="4.67583">
        <ele>350.16955566406</ele>
        <time>2020-06-15T22:23:14Z</time>
      </trkpt>
      <trkpt lat="46.33618" lon="4.67536">
        <ele>352.44451904297</ele>
        <time>2020-06-15T22:23:30Z</time>
      </trkpt>
      <trkpt lat="46.3364" lon="4.6752">
        <ele>348.00927734375</ele>
        <time>2020-06-15T22:23:46Z</time>
      </trkpt>
      <trkpt lat="46.33686" lon="4.67508">
        <ele>341.10830688477</ele>
        <time>2020-06-15T22:24:02Z</time>
      </trkpt>
      <trkpt lat="46.33715" lon="4.67482">
        <ele>338.59869384766</ele>
        <time>2020-06-15T22:24:18Z</time>
      </trkpt>
      <trkpt lat="46.33753" lon="4.67427">
        <ele>337.09140014648</ele>
        <time>2020-06-15T22:24:34Z</time>
      </trkpt>
      <trkpt lat="46.33778" lon="4.67322">
        <ele>340.93801879883</ele>
        <time>2020-06-15T22:24:51Z</time>
      </trkpt>
      <trkpt lat="46.33792" lon="4.67305">
        <ele>339.61990356445</ele>
        <time>2020-06-15T22:25:07Z</time>
      </trkpt>
      <trkpt lat="46.33811" lon="4.67292">
        <ele>337.0934753418</ele>
        <time>2020-06-15T22:25:23Z</time>
      </trkpt>
      <trkpt lat="46.33831" lon="4.67289">
        <ele>338.68630981445</ele>
        <time>2020-06-15T22:25:39Z</time>
      </trkpt>
      <trkpt lat="46.33848" lon="4.67304">
        <ele>339.09841918945</ele>
        <time>2020-06-15T22:25:55Z</time>
      </trkpt>
      <trkpt lat="46.33869" lon="4.67349">
        <ele>337.10409545898</ele>
        <time>2020-06-15T22:26:11Z</time>
      </trkpt>
      <trkpt lat="46.33896" lon="4.67385">
        <ele>337.52416992188</ele>
        <time>2020-06-15T22:26:28Z</time>
      </trkpt>
      <trkpt lat="46.33902" lon="4.67397">
        <ele>338.16064453125</ele>
        <time>2020-06-15T22:26:44Z</time>
      </trkpt>
      <trkpt lat="46.33903" lon="4.67418">
        <ele>337.89404296875</ele>
        <time>2020-06-15T22:27:00Z</time>
      </trkpt>
      <trkpt lat="46.33857" lon="4.67515">
        <ele>334.67343139648</ele>
        <time>2020-06-15T22:27:16Z</time>
      </trkpt>
      <trkpt lat="46.33811" lon="4.67686">
        <ele>327.033203125</ele>
        <time>2020-06-15T22:30:31Z</time>
      </trkpt>
      <trkpt lat="46.33808" lon="4.67728">
        <ele>327.94989013672</ele>
        <time>2020-06-15T22:30:47Z</time>
      </trkpt>
      <trkpt lat="46.33787" lon="4.67823">
        <ele>325.49014282227</ele>
        <time>2020-06-15T22:31:03Z</time>
      </trkpt>
      <trkpt lat="46.33788" lon="4.67833">
        <ele>325.54595947266</ele>
        <time>2020-06-15T22:31:20Z</time>
      </trkpt>
      <trkpt lat="46.33795" lon="4.67838">
        <ele>326.94100952148</ele>
        <time>2020-06-15T22:31:36Z</time>
      </trkpt>
      <trkpt lat="46.3381" lon="4.67832">
        <ele>330.47116088867</ele>
        <time>2020-06-15T22:31:52Z</time>
      </trkpt>
      <trkpt lat="46.33837" lon="4.67795">
        <ele>336.21038818359</ele>
        <time>2020-06-15T22:32:09Z</time>
      </trkpt>
      <trkpt lat="46.33896" lon="4.67732">
        <ele>352.26644897461</ele>
        <time>2020-06-15T22:32:25Z</time>
      </trkpt>
      <trkpt lat="46.33905" lon="4.6769">
        <ele>354.40594482422</ele>
        <time>2020-06-15T22:32:41Z</time>
      </trkpt>
      <trkpt lat="46.33906" lon="4.67663">
        <ele>353.22329711914</ele>
        <time>2020-06-15T22:32:58Z</time>
      </trkpt>
      <trkpt lat="46.33924" lon="4.67597">
        <ele>354.70449829102</ele>
        <time>2020-06-15T22:33:14Z</time>
      </trkpt>
      <trkpt lat="46.33956" lon="4.67537">
        <ele>356.61752319336</ele>
        <time>2020-06-15T22:33:30Z</time>
      </trkpt>
      <trkpt lat="46.33981" lon="4.67499">
        <ele>357.18472290039</ele>
        <time>2020-06-15T22:33:47Z</time>
      </trkpt>
      <trkpt lat="46.3401" lon="4.67482">
        <ele>359.04174804688</ele>
        <time>2020-06-15T22:34:03Z</time>
      </trkpt>
      <trkpt lat="46.34117" lon="4.67471">
        <ele>376.11999511719</ele>
        <time>2020-06-15T22:34:19Z</time>
      </trkpt>
      <trkpt lat="46.34136" lon="4.67458">
        <ele>379.68518066406</ele>
        <time>2020-06-15T22:34:36Z</time>
      </trkpt>
      <trkpt lat="46.34142" lon="4.67436">
        <ele>380.53942871094</ele>
        <time>2020-06-15T22:34:52Z</time>
      </trkpt>
      <trkpt lat="46.34138" lon="4.67391">
        <ele>378.89538574219</ele>
        <time>2020-06-15T22:35:08Z</time>
      </trkpt>
      <trkpt lat="46.34141" lon="4.67375">
        <ele>379.52230834961</ele>
        <time>2020-06-15T22:35:25Z</time>
      </trkpt>
      <trkpt lat="46.34182" lon="4.67299">
        <ele>381.36700439453</ele>
        <time>2020-06-15T22:35:41Z</time>
      </trkpt>
      <trkpt lat="46.34234" lon="4.67234">
        <ele>389.1845703125</ele>
        <time>2020-06-15T22:35:58Z</time>
      </trkpt>
      <trkpt lat="46.34254" lon="4.67185">
        <ele>389.67922973633</ele>
        <time>2020-06-15T22:36:14Z</time>
      </trkpt>
      <trkpt lat="46.34272" lon="4.67159">
        <ele>391.16055297852</ele>
        <time>2020-06-15T22:36:30Z</time>
      </trkpt>
      <trkpt lat="46.34304" lon="4.67143">
        <ele>389.40615844727</ele>
        <time>2020-06-15T22:36:47Z</time>
      </trkpt>
      <trkpt lat="46.34316" lon="4.67142">
        <ele>389.79244995117</ele>
        <time>2020-06-15T22:37:03Z</time>
      </trkpt>
      <trkpt lat="46.34329" lon="4.6715">
        <ele>393.14682006836</ele>
        <time>2020-06-15T22:37:20Z</time>
      </trkpt>
      <trkpt lat="46.34331" lon="4.67164">
        <ele>395.69879150391</ele>
        <time>2020-06-15T22:37:36Z</time>
      </trkpt>
      <trkpt lat="46.34322" lon="4.67183">
        <ele>397.27084350586</ele>
        <time>2020-06-15T22:37:52Z</time>
      </trkpt>
      <trkpt lat="46.34299" lon="4.67203">
        <ele>396.78869628906</ele>
        <time>2020-06-15T22:38:09Z</time>
      </trkpt>
      <trkpt lat="46.34291" lon="4.67217">
        <ele>397.29495239258</ele>
        <time>2020-06-15T22:38:25Z</time>
      </trkpt>
      <trkpt lat="46.34273" lon="4.67358">
        <ele>404.65576171875</ele>
        <time>2020-06-15T22:38:42Z</time>
      </trkpt>
      <trkpt lat="46.3428" lon="4.67362">
        <ele>406.44702148438</ele>
        <time>2020-06-15T22:38:58Z</time>
      </trkpt>
      <trkpt lat="46.34311" lon="4.67354">
        <ele>412.4755859375</ele>
        <time>2020-06-15T22:39:15Z</time>
      </trkpt>
      <trkpt lat="46.34343" lon="4.67357">
        <ele>418.49005126953</ele>
        <time>2020-06-15T22:39:31Z</time>
      </trkpt>
      <trkpt lat="46.34372" lon="4.67335">
        <ele>422.56546020508</ele>
        <time>2020-06-15T22:39:48Z</time>
      </trkpt>
      <trkpt lat="46.34383" lon="4.67346">
        <ele>425.10275268555</ele>
        <time>2020-06-15T22:40:04Z</time>
      </trkpt>
      <trkpt lat="46.34402" lon="4.67401">
        <ele>431.07928466797</ele>
        <time>2020-06-15T22:40:20Z</time>
      </trkpt>
      <trkpt lat="46.34408" lon="4.67406">
        <ele>432.2873840332</ele>
        <time>2020-06-15T22:40:37Z</time>
      </trkpt>
      <trkpt lat="46.34429" lon="4.67361">
        <ele>435.60665893555</ele>
        <time>2020-06-15T22:40:53Z</time>
      </trkpt>
      <trkpt lat="46.34443" lon="4.673">
        <ele>434.85736083984</ele>
        <time>2020-06-15T22:41:10Z</time>
      </trkpt>
      <trkpt lat="46.34457" lon="4.67273">
        <ele>434.01065063477</ele>
        <time>2020-06-15T22:41:26Z</time>
      </trkpt>
      <trkpt lat="46.34562" lon="4.67187">
        <ele>439.79275512695</ele>
        <time>2020-06-15T22:41:43Z</time>
      </trkpt>
      <trkpt lat="46.34577" lon="4.67183">
        <ele>441.12435913086</ele>
        <time>2020-06-15T22:41:59Z</time>
      </trkpt>
      <trkpt lat="46.34645" lon="4.67182">
        <ele>449.51159667969</ele>
        <time>2020-06-15T22:42:16Z</time>
      </trkpt>
      <trkpt lat="46.3466" lon="4.67177">
        <ele>451.33432006836</ele>
        <time>2020-06-15T22:42:32Z</time>
      </trkpt>
      <trkpt lat="46.34718" lon="4.67138">
        <ele>453.40661621094</ele>
        <time>2020-06-15T22:42:49Z</time>
      </trkpt>
      <trkpt lat="46.34863" lon="4.67128">
        <ele>469.9580078125</ele>
        <time>2020-06-15T22:43:06Z</time>
      </trkpt>
      <trkpt lat="46.34901" lon="4.67118">
        <ele>475.46185302734</ele>
        <time>2020-06-15T22:43:22Z</time>
      </trkpt>
      <trkpt lat="46.34912" lon="4.67107">
        <ele>477.69793701172</ele>
        <time>2020-06-15T22:43:39Z</time>
      </trkpt>
      <trkpt lat="46.34913" lon="4.6709">
        <ele>480.26879882812</ele>
        <time>2020-06-15T22:43:55Z</time>
      </trkpt>
      <trkpt lat="46.34904" lon="4.67065">
        <ele>483.2438659668</ele>
        <time>2020-06-15T22:44:12Z</time>
      </trkpt>
      <trkpt lat="46.34887" lon="4.67031">
        <ele>485.1100769043</ele>
        <time>2020-06-15T22:44:28Z</time>
      </trkpt>
      <trkpt lat="46.34851" lon="4.66977">
        <ele>482.31097412109</ele>
        <time>2020-06-15T22:44:45Z</time>
      </trkpt>
      <trkpt lat="46.34831" lon="4.66934">
        <ele>481.50650024414</ele>
        <time>2020-06-15T22:45:02Z</time>
      </trkpt>
      <trkpt lat="46.34825" lon="4.66904">
        <ele>481.54571533203</ele>
        <time>2020-06-15T22:45:18Z</time>
      </trkpt>
      <trkpt lat="46.34823" lon="4.66875">
        <ele>483.02429199219</ele>
        <time>2020-06-15T22:45:35Z</time>
      </trkpt>
      <trkpt lat="46.34832" lon="4.66817">
        <ele>487.56640625</ele>
        <time>2020-06-15T22:45:51Z</time>
      </trkpt>
      <trkpt lat="46.34853" lon="4.66773">
        <ele>497.96368408203</ele>
        <time>2020-06-15T22:46:08Z</time>
      </trkpt>
      <trkpt lat="46.34856" lon="4.66753">
        <ele>502.28631591797</ele>
        <time>2020-06-15T22:46:25Z</time>
      </trkpt>
      <trkpt lat="46.3485" lon="4.66714">
        <ele>507.03381347656</ele>
        <time>2020-06-15T22:46:41Z</time>
      </trkpt>
      <trkpt lat="46.34816" lon="4.66658">
        <ele>501.15417480469</ele>
        <time>2020-06-15T22:46:58Z</time>
      </trkpt>
      <trkpt lat="46.34815" lon="4.66597">
        <ele>505.27099609375</ele>
        <time>2020-06-15T22:47:15Z</time>
      </trkpt>
      <trkpt lat="46.34817" lon="4.66568">
        <ele>507.79309082031</ele>
        <time>2020-06-15T22:47:31Z</time>
      </trkpt>
      <trkpt lat="46.34854" lon="4.66441">
        <ele>523.34344482422</ele>
        <time>2020-06-15T22:47:48Z</time>
      </trkpt>
      <trkpt lat="46.34876" lon="4.66328">
        <ele>538.14910888672</ele>
        <time>2020-06-15T22:48:05Z</time>
      </trkpt>
      <trkpt lat="46.34897" lon="4.66173">
        <ele>536.94213867188</ele>
        <time>2020-06-15T22:48:21Z</time>
      </trkpt>
      <trkpt lat="46.34915" lon="4.66109">
        <ele>535.73510742188</ele>
        <time>2020-06-15T22:48:38Z</time>
      </trkpt>
      <trkpt lat="46.34933" lon="4.66073">
        <ele>534.68713378906</ele>
        <time>2020-06-15T22:48:55Z</time>
      </trkpt>
      <trkpt lat="46.3494" lon="4.66005">
        <ele>522.43389892578</ele>
        <time>2020-06-15T22:49:11Z</time>
      </trkpt>
      <trkpt lat="46.34931" lon="4.65972">
        <ele>517.53948974609</ele>
        <time>2020-06-15T22:49:28Z</time>
      </trkpt>
      <trkpt lat="46.34918" lon="4.65949">
        <ele>514.69183349609</ele>
        <time>2020-06-15T22:49:45Z</time>
      </trkpt>
      <trkpt lat="46.34889" lon="4.65918">
        <ele>513.90197753906</ele>
        <time>2020-06-15T22:50:01Z</time>
      </trkpt>
      <trkpt lat="46.34853" lon="4.65896">
        <ele>518.62152099609</ele>
        <time>2020-06-15T22:50:18Z</time>
      </trkpt>
      <trkpt lat="46.34843" lon="4.65882">
        <ele>518.39880371094</ele>
        <time>2020-06-15T22:50:35Z</time>
      </trkpt>
      <trkpt lat="46.34841" lon="4.65834">
        <ele>518.76019287109</ele>
        <time>2020-06-15T22:50:52Z</time>
      </trkpt>
      <trkpt lat="46.34826" lon="4.65806">
        <ele>523.86639404297</ele>
        <time>2020-06-15T22:51:08Z</time>
      </trkpt>
      <trkpt lat="46.34829" lon="4.65791">
        <ele>523.88159179688</ele>
        <time>2020-06-15T22:51:25Z</time>
      </trkpt>
      <trkpt lat="46.34864" lon="4.65759">
        <ele>516.64440917969</ele>
        <time>2020-06-15T22:51:42Z</time>
      </trkpt>
      <trkpt lat="46.34879" lon="4.65721">
        <ele>519.46246337891</ele>
        <time>2020-06-15T22:51:59Z</time>
      </trkpt>
      <trkpt lat="46.3489" lon="4.65706">
        <ele>519.81042480469</ele>
        <time>2020-06-15T22:52:15Z</time>
      </trkpt>
      <trkpt lat="46.34972" lon="4.65693">
        <ele>508.12411499023</ele>
        <time>2020-06-15T22:52:32Z</time>
      </trkpt>
      <trkpt lat="46.35022" lon="4.65675">
        <ele>500.9521484375</ele>
        <time>2020-06-15T22:52:49Z</time>
      </trkpt>
      <trkpt lat="46.35047" lon="4.65659">
        <ele>496.66821289062</ele>
        <time>2020-06-15T22:53:06Z</time>
      </trkpt>
      <trkpt lat="46.35067" lon="4.65616">
        <ele>495.5315246582</ele>
        <time>2020-06-15T22:53:23Z</time>
      </trkpt>
      <trkpt lat="46.35103" lon="4.655">
        <ele>498.27465820312</ele>
        <time>2020-06-15T22:53:39Z</time>
      </trkpt>
      <trkpt lat="46.35142" lon="4.65433">
        <ele>493.18032836914</ele>
        <time>2020-06-15T22:53:56Z</time>
      </trkpt>
      <trkpt lat="46.35193" lon="4.65359">
        <ele>486.85955810547</ele>
        <time>2020-06-15T22:54:13Z</time>
      </trkpt>
      <trkpt lat="46.35229" lon="4.65285">
        <ele>477.83340454102</ele>
        <time>2020-06-15T22:54:30Z</time>
      </trkpt>
      <trkpt lat="46.35248" lon="4.65267">
        <ele>477.72341918945</ele>
        <time>2020-06-15T22:54:47Z</time>
      </trkpt>
      <trkpt lat="46.35333" lon="4.65209">
        <ele>463.82757568359</ele>
        <time>2020-06-15T22:55:03Z</time>
      </trkpt>
      <trkpt lat="46.35357" lon="4.65178">
        <ele>460.38278198242</ele>
        <time>2020-06-15T22:55:20Z</time>
      </trkpt>
      <trkpt lat="46.35385" lon="4.65111">
        <ele>457.78164672852</ele>
        <time>2020-06-15T22:55:37Z</time>
      </trkpt>
      <trkpt lat="46.35406" lon="4.6504">
        <ele>453.85919189453</ele>
        <time>2020-06-15T22:55:54Z</time>
      </trkpt>
      <trkpt lat="46.35407" lon="4.64957">
        <ele>465.50408935547</ele>
        <time>2020-06-15T22:56:11Z</time>
      </trkpt>
      <trkpt lat="46.35419" lon="4.64946">
        <ele>465.49090576172</ele>
        <time>2020-06-15T22:56:28Z</time>
      </trkpt>
      <trkpt lat="46.35435" lon="4.6494">
        <ele>463.5908203125</ele>
        <time>2020-06-15T22:56:45Z</time>
      </trkpt>
      <trkpt lat="46.35493" lon="4.6494">
        <ele>451.34796142578</ele>
        <time>2020-06-15T22:57:02Z</time>
      </trkpt>
      <trkpt lat="46.35523" lon="4.64912">
        <ele>446.87115478516</ele>
        <time>2020-06-15T22:57:19Z</time>
      </trkpt>
      <trkpt lat="46.35541" lon="4.64876">
        <ele>445.27490234375</ele>
        <time>2020-06-15T22:57:35Z</time>
      </trkpt>
      <trkpt lat="46.35564" lon="4.64807">
        <ele>447.37335205078</ele>
        <time>2020-06-15T22:57:52Z</time>
      </trkpt>
      <trkpt lat="46.35596" lon="4.64749">
        <ele>446.78356933594</ele>
        <time>2020-06-15T22:58:09Z</time>
      </trkpt>
      <trkpt lat="46.35616" lon="4.64682">
        <ele>450.78732299805</ele>
        <time>2020-06-15T22:58:26Z</time>
      </trkpt>
      <trkpt lat="46.35627" lon="4.64672">
        <ele>449.69296264648</ele>
        <time>2020-06-15T22:58:43Z</time>
      </trkpt>
      <trkpt lat="46.35664" lon="4.64684">
        <ele>437.67575073242</ele>
        <time>2020-06-15T22:59:00Z</time>
      </trkpt>
      <trkpt lat="46.35697" lon="4.64672">
        <ele>430.99887084961</ele>
        <time>2020-06-15T22:59:17Z</time>
      </trkpt>
      <trkpt lat="46.35748" lon="4.64606">
        <ele>422.19482421875</ele>
        <time>2020-06-15T22:59:34Z</time>
      </trkpt>
      <trkpt lat="46.35766" lon="4.64568">
        <ele>421.12026977539</ele>
        <time>2020-06-15T22:59:51Z</time>
      </trkpt>
      <trkpt lat="46.35789" lon="4.64466">
        <ele>422.87704467773</ele>
        <time>2020-06-15T23:00:08Z</time>
      </trkpt>
      <trkpt lat="46.358" lon="4.64442">
        <ele>421.541015625</ele>
        <time>2020-06-15T23:00:25Z</time>
      </trkpt>
      <trkpt lat="46.35818" lon="4.64426">
        <ele>419.73153686523</ele>
        <time>2020-06-15T23:00:42Z</time>
      </trkpt>
      <trkpt lat="46.35849" lon="4.64417">
        <ele>416.20950317383</ele>
        <time>2020-06-15T23:00:59Z</time>
      </trkpt>
      <trkpt lat="46.35938" lon="4.64422">
        <ele>403.22164916992</ele>
        <time>2020-06-15T23:01:16Z</time>
      </trkpt>
      <trkpt lat="46.35978" lon="4.64419">
        <ele>398.38793945312</ele>
        <time>2020-06-15T23:01:33Z</time>
      </trkpt>
      <trkpt lat="46.36004" lon="4.64406">
        <ele>391.88702392578</ele>
        <time>2020-06-15T23:01:50Z</time>
      </trkpt>
      <trkpt lat="46.36019" lon="4.64389">
        <ele>389.54550170898</ele>
        <time>2020-06-15T23:02:07Z</time>
      </trkpt>
      <trkpt lat="46.36034" lon="4.64356">
        <ele>387.63272094727</ele>
        <time>2020-06-15T23:02:24Z</time>
      </trkpt>
      <trkpt lat="46.36039" lon="4.6433">
        <ele>386.70010375977</ele>
        <time>2020-06-15T23:02:41Z</time>
      </trkpt>
      <trkpt lat="46.36049" lon="4.64174">
        <ele>383.6110534668</ele>
        <time>2020-06-15T23:02:58Z</time>
      </trkpt>
      <trkpt lat="46.36071" lon="4.64116">
        <ele>377.44766235352</ele>
        <time>2020-06-15T23:03:15Z</time>
      </trkpt>
      <trkpt lat="46.36131" lon="4.64032">
        <ele>369.69937133789</ele>
        <time>2020-06-15T23:03:32Z</time>
      </trkpt>
      <trkpt lat="46.36156" lon="4.64015">
        <ele>367.04733276367</ele>
        <time>2020-06-15T23:03:49Z</time>
      </trkpt>
      <trkpt lat="46.36183" lon="4.64005">
        <ele>363.71939086914</ele>
        <time>2020-06-15T23:04:06Z</time>
      </trkpt>
      <trkpt lat="46.36199" lon="4.63991">
        <ele>362.07803344727</ele>
        <time>2020-06-15T23:04:24Z</time>
      </trkpt>
      <trkpt lat="46.36252" lon="4.63895">
        <ele>355.94241333008</ele>
        <time>2020-06-15T23:04:41Z</time>
      </trkpt>
      <trkpt lat="46.36293" lon="4.63743">
        <ele>350.64413452148</ele>
        <time>2020-06-15T23:04:58Z</time>
      </trkpt>
      <trkpt lat="46.36311" lon="4.63712">
        <ele>347.89465332031</ele>
        <time>2020-06-15T23:05:15Z</time>
      </trkpt>
      <trkpt lat="46.3638" lon="4.63641">
        <ele>339.53756713867</ele>
        <time>2020-06-15T23:05:32Z</time>
      </trkpt>
      <trkpt lat="46.3641" lon="4.63617">
        <ele>336.58422851562</ele>
        <time>2020-06-15T23:05:49Z</time>
      </trkpt>
      <trkpt lat="46.36464" lon="4.6358">
        <ele>331.55004882812</ele>
        <time>2020-06-15T23:06:06Z</time>
      </trkpt>
      <trkpt lat="46.36573" lon="4.63524">
        <ele>324.03433227539</ele>
        <time>2020-06-15T23:06:23Z</time>
      </trkpt>
      <trkpt lat="46.36611" lon="4.63491">
        <ele>321.51791381836</ele>
        <time>2020-06-15T23:06:41Z</time>
      </trkpt>
      <trkpt lat="46.36627" lon="4.63441">
        <ele>319.21270751953</ele>
        <time>2020-06-15T23:06:58Z</time>
      </trkpt>
      <trkpt lat="46.36633" lon="4.63338">
        <ele>314.07925415039</ele>
        <time>2020-06-15T23:07:15Z</time>
      </trkpt>
      <trkpt lat="46.3664" lon="4.63308">
        <ele>310.16442871094</ele>
        <time>2020-06-15T23:07:32Z</time>
      </trkpt>
      <trkpt lat="46.36664" lon="4.63254">
        <ele>305.13568115234</ele>
        <time>2020-06-15T23:07:49Z</time>
      </trkpt>
      <trkpt lat="46.36696" lon="4.63216">
        <ele>301.19100952148</ele>
        <time>2020-06-15T23:08:07Z</time>
      </trkpt>
      <trkpt lat="46.36759" lon="4.63173">
        <ele>294.87405395508</ele>
        <time>2020-06-15T23:08:24Z</time>
      </trkpt>
      <trkpt lat="46.3679" lon="4.63163">
        <ele>292.59240722656</ele>
        <time>2020-06-15T23:08:41Z</time>
      </trkpt>
      <trkpt lat="46.36817" lon="4.63166">
        <ele>291.00347900391</ele>
        <time>2020-06-15T23:08:58Z</time>
      </trkpt>
      <trkpt lat="46.36859" lon="4.63185">
        <ele>289.42388916016</ele>
        <time>2020-06-15T23:09:16Z</time>
      </trkpt>
      <trkpt lat="46.36946" lon="4.63148">
        <ele>281.89151000977</ele>
        <time>2020-06-15T23:09:33Z</time>
      </trkpt>
      <trkpt lat="46.36987" lon="4.63156">
        <ele>280.99938964844</ele>
        <time>2020-06-15T23:09:50Z</time>
      </trkpt>
      <trkpt lat="46.37053" lon="4.63157">
        <ele>277.46029663086</ele>
        <time>2020-06-15T23:10:07Z</time>
      </trkpt>
      <trkpt lat="46.37224" lon="4.63311">
        <ele>276.05526733398</ele>
        <time>2020-06-15T23:10:25Z</time>
      </trkpt>
      <trkpt lat="46.37298" lon="4.63416">
        <ele>275.33242797852</ele>
        <time>2020-06-15T23:10:42Z</time>
      </trkpt>
      <trkpt lat="46.37326" lon="4.63447">
        <ele>274.60354614258</ele>
        <time>2020-06-15T23:10:59Z</time>
      </trkpt>
      <trkpt lat="46.37376" lon="4.63483">
        <ele>274.24694824219</ele>
        <time>2020-06-15T23:11:17Z</time>
      </trkpt>
      <trkpt lat="46.37447" lon="4.6355">
        <ele>273.70086669922</ele>
        <time>2020-06-15T23:11:34Z</time>
      </trkpt>
      <trkpt lat="46.37485" lon="4.63579">
        <ele>273.90808105469</ele>
        <time>2020-06-15T23:11:51Z</time>
      </trkpt>
      <trkpt lat="46.37541" lon="4.63609">
        <ele>272.75216674805</ele>
        <time>2020-06-15T23:12:09Z</time>
      </trkpt>
      <trkpt lat="46.37621" lon="4.63631">
        <ele>270.00997924805</ele>
        <time>2020-06-15T23:12:26Z</time>
      </trkpt>
      <trkpt lat="46.3765" lon="4.63645">
        <ele>269.45324707031</ele>
        <time>2020-06-15T23:12:43Z</time>
      </trkpt>
      <trkpt lat="46.37677" lon="4.63666">
        <ele>269.39935302734</ele>
        <time>2020-06-15T23:13:01Z</time>
      </trkpt>
      <trkpt lat="46.37724" lon="4.63713">
        <ele>269.99893188477</ele>
        <time>2020-06-15T23:13:18Z</time>
      </trkpt>
      <trkpt lat="46.37751" lon="4.6373">
        <ele>270.19644165039</ele>
        <time>2020-06-15T23:13:36Z</time>
      </trkpt>
      <trkpt lat="46.37786" lon="4.6374">
        <ele>269.93746948242</ele>
        <time>2020-06-15T23:13:53Z</time>
      </trkpt>
      <trkpt lat="46.37859" lon="4.63741">
        <ele>268.30267333984</ele>
        <time>2020-06-15T23:14:10Z</time>
      </trkpt>
      <trkpt lat="46.37896" lon="4.63747">
        <ele>268.1598815918</ele>
        <time>2020-06-15T23:14:28Z</time>
      </trkpt>
      <trkpt lat="46.37995" lon="4.63804">
        <ele>266.02099609375</ele>
        <time>2020-06-15T23:14:45Z</time>
      </trkpt>
      <trkpt lat="46.38075" lon="4.63835">
        <ele>265.93463134766</ele>
        <time>2020-06-15T23:15:03Z</time>
      </trkpt>
      <trkpt lat="46.38149" lon="4.63879">
        <ele>264.62203979492</ele>
        <time>2020-06-15T23:15:20Z</time>
      </trkpt>
      <trkpt lat="46.38262" lon="4.6392">
        <ele>264.92727661133</ele>
        <time>2020-06-15T23:15:38Z</time>
      </trkpt>
      <trkpt lat="46.38298" lon="4.63923">
        <ele>265.73165893555</ele>
        <time>2020-06-15T23:15:55Z</time>
      </trkpt>
      <trkpt lat="46.38381" lon="4.63911">
        <ele>264.02987670898</ele>
        <time>2020-06-15T23:16:13Z</time>
      </trkpt>
      <trkpt lat="46.38475" lon="4.63927">
        <ele>263.56774902344</ele>
        <time>2020-06-15T23:16:30Z</time>
      </trkpt>
      <trkpt lat="46.38665" lon="4.63916">
        <ele>262.18438720703</ele>
        <time>2020-06-15T23:16:48Z</time>
      </trkpt>
      <trkpt lat="46.38874" lon="4.63945">
        <ele>257.65124511719</ele>
        <time>2020-06-15T23:17:06Z</time>
      </trkpt>
      <trkpt lat="46.38912" lon="4.63959">
        <ele>256.98510742188</ele>
        <time>2020-06-15T23:17:23Z</time>
      </trkpt>
      <trkpt lat="46.38984" lon="4.64001">
        <ele>257.16488647461</ele>
        <time>2020-06-15T23:17:41Z</time>
      </trkpt>
      <trkpt lat="46.39012" lon="4.6401">
        <ele>257.3752746582</ele>
        <time>2020-06-15T23:17:58Z</time>
      </trkpt>
      <trkpt lat="46.39041" lon="4.6401">
        <ele>257.30511474609</ele>
        <time>2020-06-15T23:18:16Z</time>
      </trkpt>
      <trkpt lat="46.39136" lon="4.63992">
        <ele>257.0016784668</ele>
        <time>2020-06-15T23:18:34Z</time>
      </trkpt>
      <trkpt lat="46.39146" lon="4.63986">
        <ele>257.14556884766</ele>
        <time>2020-06-15T23:18:51Z</time>
      </trkpt>
      <trkpt lat="46.39155" lon="4.63875">
        <ele>252.14527893066</ele>
        <time>2020-06-15T23:19:09Z</time>
      </trkpt>
      <trkpt lat="46.39167" lon="4.63818">
        <ele>250.93153381348</ele>
        <time>2020-06-15T23:19:27Z</time>
      </trkpt>
      <trkpt lat="46.39167" lon="4.63778">
        <ele>250.97087097168</ele>
        <time>2020-06-15T23:19:44Z</time>
      </trkpt>
      <trkpt lat="46.39207" lon="4.63426">
        <ele>253.92012023926</ele>
        <time>2020-06-15T23:20:02Z</time>
      </trkpt>
      <trkpt lat="46.39225" lon="4.63376">
        <ele>254.89912414551</ele>
        <time>2020-06-15T23:20:20Z</time>
      </trkpt>
      <trkpt lat="46.39321" lon="4.63187">
        <ele>252.84310913086</ele>
        <time>2020-06-15T23:20:37Z</time>
      </trkpt>
      <trkpt lat="46.39335" lon="4.63135">
        <ele>252.52874755859</ele>
        <time>2020-06-15T23:20:55Z</time>
      </trkpt>
      <trkpt lat="46.39335" lon="4.6308">
        <ele>252.52854919434</ele>
        <time>2020-06-15T23:21:13Z</time>
      </trkpt>
      <trkpt lat="46.39325" lon="4.63037">
        <ele>252.74656677246</ele>
        <time>2020-06-15T23:21:31Z</time>
      </trkpt>
      <trkpt lat="46.39306" lon="4.62995">
        <ele>252.03968811035</ele>
        <time>2020-06-15T23:21:48Z</time>
      </trkpt>
      <trkpt lat="46.39193" lon="4.6288">
        <ele>251.93310546875</ele>
        <time>2020-06-15T23:22:06Z</time>
      </trkpt>
      <trkpt lat="46.39146" lon="4.62817">
        <ele>251.34994506836</ele>
        <time>2020-06-15T23:22:24Z</time>
      </trkpt>
      <trkpt lat="46.39108" lon="4.62752">
        <ele>253.4899597168</ele>
        <time>2020-06-15T23:22:42Z</time>
      </trkpt>
      <trkpt lat="46.39065" lon="4.62658">
        <ele>255.92832946777</ele>
        <time>2020-06-15T23:23:00Z</time>
      </trkpt>
      <trkpt lat="46.39008" lon="4.62489">
        <ele>260.2477722168</ele>
        <time>2020-06-15T23:23:17Z</time>
      </trkpt>
      <trkpt lat="46.38825" lon="4.61908">
        <ele>261.31854248047</ele>
        <time>2020-06-15T23:23:35Z</time>
      </trkpt>
      <trkpt lat="46.38829" lon="4.6188">
        <ele>260.39144897461</ele>
        <time>2020-06-15T23:23:53Z</time>
      </trkpt>
      <trkpt lat="46.38844" lon="4.6183">
        <ele>257.09020996094</ele>
        <time>2020-06-15T23:24:11Z</time>
      </trkpt>
      <trkpt lat="46.3897" lon="4.61646">
        <ele>261.86431884766</ele>
        <time>2020-06-15T23:24:29Z</time>
      </trkpt>
      <trkpt lat="46.38975" lon="4.61627">
        <ele>263.2975769043</ele>
        <time>2020-06-15T23:24:47Z</time>
      </trkpt>
      <trkpt lat="46.38967" lon="4.61613">
        <ele>264.22790527344</ele>
        <time>2020-06-15T23:25:05Z</time>
      </trkpt>
      <trkpt lat="46.38864" lon="4.6154">
        <ele>265.79345703125</ele>
        <time>2020-06-15T23:25:23Z</time>
      </trkpt>
      <trkpt lat="46.38841" lon="4.61515">
        <ele>265.15664672852</ele>
        <time>2020-06-15T23:25:41Z</time>
      </trkpt>
      <trkpt lat="46.3882" lon="4.61463">
        <ele>265.91049194336</ele>
        <time>2020-06-15T23:25:59Z</time>
      </trkpt>
      <trkpt lat="46.38789" lon="4.61332">
        <ele>268.69906616211</ele>
        <time>2020-06-15T23:26:17Z</time>
      </trkpt>
      <trkpt lat="46.38731" lon="4.6122">
        <ele>268.64981079102</ele>
        <time>2020-06-15T23:26:35Z</time>
      </trkpt>
      <trkpt lat="46.38613" lon="4.61107">
        <ele>268.40515136719</ele>
        <time>2020-06-15T23:26:53Z</time>
      </trkpt>
      <trkpt lat="46.3854" lon="4.61014">
        <ele>272.68222045898</ele>
        <time>2020-06-15T23:27:11Z</time>
      </trkpt>
      <trkpt lat="46.38418" lon="4.60931">
        <ele>275.22100830078</ele>
        <time>2020-06-15T23:27:29Z</time>
      </trkpt>
      <trkpt lat="46.38352" lon="4.60863">
        <ele>271.98553466797</ele>
        <time>2020-06-15T23:27:47Z</time>
      </trkpt>
      <trkpt lat="46.38336" lon="4.60841">
        <ele>269.96374511719</ele>
        <time>2020-06-15T23:28:05Z</time>
      </trkpt>
      <trkpt lat="46.38328" lon="4.6082">
        <ele>268.89996337891</ele>
        <time>2020-06-15T23:28:24Z</time>
      </trkpt>
      <trkpt lat="46.38314" lon="4.60719">
        <ele>266.97756958008</ele>
        <time>2020-06-15T23:28:42Z</time>
      </trkpt>
      <trkpt lat="46.38293" lon="4.60688">
        <ele>267.27816772461</ele>
        <time>2020-06-15T23:29:00Z</time>
      </trkpt>
      <trkpt lat="46.38253" lon="4.60667">
        <ele>267.61145019531</ele>
        <time>2020-06-15T23:29:18Z</time>
      </trkpt>
      <trkpt lat="46.38199" lon="4.60673">
        <ele>268.96997070312</ele>
        <time>2020-06-15T23:29:36Z</time>
      </trkpt>
      <trkpt lat="46.38178" lon="4.6067">
        <ele>270.25006103516</ele>
        <time>2020-06-15T23:29:54Z</time>
      </trkpt>
      <trkpt lat="46.38095" lon="4.60628">
        <ele>277.72985839844</ele>
        <time>2020-06-15T23:30:12Z</time>
      </trkpt>
      <trkpt lat="46.3796" lon="4.60572">
        <ele>286.07183837891</ele>
        <time>2020-06-15T23:30:31Z</time>
      </trkpt>
      <trkpt lat="46.37938" lon="4.60555">
        <ele>286.80215454102</ele>
        <time>2020-06-15T23:30:49Z</time>
      </trkpt>
      <trkpt lat="46.37927" lon="4.60535">
        <ele>287.310546875</ele>
        <time>2020-06-15T23:31:07Z</time>
      </trkpt>
      <trkpt lat="46.37921" lon="4.60509">
        <ele>288.06076049805</ele>
        <time>2020-06-15T23:31:25Z</time>
      </trkpt>
      <trkpt lat="46.37912" lon="4.60378">
        <ele>289.71286010742</ele>
        <time>2020-06-15T23:31:43Z</time>
      </trkpt>
      <trkpt lat="46.379" lon="4.60323">
        <ele>289.98028564453</ele>
        <time>2020-06-15T23:32:02Z</time>
      </trkpt>
      <trkpt lat="46.37812" lon="4.60145">
        <ele>289.60580444336</ele>
        <time>2020-06-15T23:32:20Z</time>
      </trkpt>
      <trkpt lat="46.37777" lon="4.60086">
        <ele>289.0930480957</ele>
        <time>2020-06-15T23:32:38Z</time>
      </trkpt>
      <trkpt lat="46.37758" lon="4.60093">
        <ele>288.64996337891</ele>
        <time>2020-06-15T23:32:56Z</time>
      </trkpt>
      <trkpt lat="46.37703" lon="4.60128">
        <ele>285.82110595703</ele>
        <time>2020-06-15T23:33:14Z</time>
      </trkpt>
      <trkpt lat="46.37623" lon="4.60241">
        <ele>277.69970703125</ele>
        <time>2020-06-15T23:33:33Z</time>
      </trkpt>
      <trkpt lat="46.37569" lon="4.60295">
        <ele>271.1689453125</ele>
        <time>2020-06-15T23:33:51Z</time>
      </trkpt>
      <trkpt lat="46.37564" lon="4.60366">
        <ele>271</ele>
        <time>2020-06-15T23:34:09Z</time>
      </trkpt>
      <trkpt lat="46.37549" lon="4.60413">
        <ele>269.74114990234</ele>
        <time>2020-06-15T23:34:28Z</time>
      </trkpt>
      <trkpt lat="46.37544" lon="4.60449">
        <ele>268.60751342773</ele>
        <time>2020-06-15T23:34:46Z</time>
      </trkpt>
      <trkpt lat="46.37544" lon="4.60532">
        <ele>265.08590698242</ele>
        <time>2020-06-15T23:35:04Z</time>
      </trkpt>
      <trkpt lat="46.3753" lon="4.60601">
        <ele>262.0403137207</ele>
        <time>2020-06-15T23:35:23Z</time>
      </trkpt>
      <trkpt lat="46.37533" lon="4.60669">
        <ele>260.17120361328</ele>
        <time>2020-06-15T23:35:41Z</time>
      </trkpt>
      <trkpt lat="46.37525" lon="4.60741">
        <ele>260.90481567383</ele>
        <time>2020-06-15T23:35:59Z</time>
      </trkpt>
      <trkpt lat="46.37517" lon="4.60757">
        <ele>261.9323425293</ele>
        <time>2020-06-15T23:36:18Z</time>
      </trkpt>
      <trkpt lat="46.37489" lon="4.60793">
        <ele>265.21426391602</ele>
        <time>2020-06-15T23:36:36Z</time>
      </trkpt>
      <trkpt lat="46.37464" lon="4.60814">
        <ele>270.56466674805</ele>
        <time>2020-06-15T23:36:54Z</time>
      </trkpt>
      <trkpt lat="46.37448" lon="4.60811">
        <ele>272.58966064453</ele>
        <time>2020-06-15T23:37:13Z</time>
      </trkpt>
      <trkpt lat="46.37419" lon="4.60785">
        <ele>273.98233032227</ele>
        <time>2020-06-15T23:37:31Z</time>
      </trkpt>
      <trkpt lat="46.3741" lon="4.60757">
        <ele>272.52493286133</ele>
        <time>2020-06-15T23:37:49Z</time>
      </trkpt>
      <trkpt lat="46.3741" lon="4.60702">
        <ele>267.88439941406</ele>
        <time>2020-06-15T23:38:08Z</time>
      </trkpt>
      <trkpt lat="46.37404" lon="4.60675">
        <ele>266.10830688477</ele>
        <time>2020-06-15T23:38:26Z</time>
      </trkpt>
      <trkpt lat="46.37394" lon="4.60651">
        <ele>265.3821105957</ele>
        <time>2020-06-15T23:38:44Z</time>
      </trkpt>
      <trkpt lat="46.3736" lon="4.60603">
        <ele>266.75778198242</ele>
        <time>2020-06-15T23:39:03Z</time>
      </trkpt>
      <trkpt lat="46.37336" lon="4.60521">
        <ele>264.91305541992</ele>
        <time>2020-06-15T23:39:21Z</time>
      </trkpt>
      <trkpt lat="46.37291" lon="4.60456">
        <ele>266.953125</ele>
        <time>2020-06-15T23:39:40Z</time>
      </trkpt>
      <trkpt lat="46.37224" lon="4.60388">
        <ele>270.68395996094</ele>
        <time>2020-06-15T23:39:58Z</time>
      </trkpt>
      <trkpt lat="46.37182" lon="4.60336">
        <ele>275.49133300781</ele>
        <time>2020-06-15T23:40:16Z</time>
      </trkpt>
      <trkpt lat="46.37155" lon="4.6024">
        <ele>277.99163818359</ele>
        <time>2020-06-15T23:40:35Z</time>
      </trkpt>
      <trkpt lat="46.37075" lon="4.60115">
        <ele>282.58554077148</ele>
        <time>2020-06-15T23:40:53Z</time>
      </trkpt>
      <trkpt lat="46.37023" lon="4.60053">
        <ele>285.64682006836</ele>
        <time>2020-06-15T23:41:12Z</time>
      </trkpt>
      <trkpt lat="46.36992" lon="4.59989">
        <ele>285.72769165039</ele>
        <time>2020-06-15T23:41:30Z</time>
      </trkpt>
      <trkpt lat="46.3697" lon="4.5996">
        <ele>286.64013671875</ele>
        <time>2020-06-15T23:41:49Z</time>
      </trkpt>
      <trkpt lat="46.3694" lon="4.59903">
        <ele>287.74066162109</ele>
        <time>2020-06-15T23:42:07Z</time>
      </trkpt>
      <trkpt lat="46.36906" lon="4.59855">
        <ele>289.39883422852</ele>
        <time>2020-06-15T23:42:26Z</time>
      </trkpt>
      <trkpt lat="46.36853" lon="4.59746">
        <ele>289.52490234375</ele>
        <time>2020-06-15T23:42:44Z</time>
      </trkpt>
      <trkpt lat="46.36843" lon="4.59715">
        <ele>288.96823120117</ele>
        <time>2020-06-15T23:43:03Z</time>
      </trkpt>
      <trkpt lat="46.36835" lon="4.59651">
        <ele>285.59875488281</ele>
        <time>2020-06-15T23:43:21Z</time>
      </trkpt>
      <trkpt lat="46.36781" lon="4.59564">
        <ele>285.83514404297</ele>
        <time>2020-06-15T23:43:40Z</time>
      </trkpt>
      <trkpt lat="46.3676" lon="4.59483">
        <ele>282.43054199219</ele>
        <time>2020-06-15T23:43:58Z</time>
      </trkpt>
      <trkpt lat="46.36744" lon="4.59444">
        <ele>281.63278198242</ele>
        <time>2020-06-15T23:44:17Z</time>
      </trkpt>
      <trkpt lat="46.36709" lon="4.59398">
        <ele>280.43374633789</ele>
        <time>2020-06-15T23:44:36Z</time>
      </trkpt>
      <trkpt lat="46.36638" lon="4.59321">
        <ele>281.4248046875</ele>
        <time>2020-06-15T23:44:54Z</time>
      </trkpt>
      <trkpt lat="46.36605" lon="4.59266">
        <ele>284.66333007812</ele>
        <time>2020-06-15T23:45:13Z</time>
      </trkpt>
      <trkpt lat="46.36575" lon="4.59226">
        <ele>288.8798828125</ele>
        <time>2020-06-15T23:45:31Z</time>
      </trkpt>
      <trkpt lat="46.36516" lon="4.59176">
        <ele>293.44671630859</ele>
        <time>2020-06-15T23:45:50Z</time>
      </trkpt>
      <trkpt lat="46.36494" lon="4.59149">
        <ele>294.21502685547</ele>
        <time>2020-06-15T23:46:09Z</time>
      </trkpt>
      <trkpt lat="46.36481" lon="4.5909">
        <ele>292.28805541992</ele>
        <time>2020-06-15T23:46:27Z</time>
      </trkpt>
      <trkpt lat="46.36479" lon="4.59049">
        <ele>289.97985839844</ele>
        <time>2020-06-15T23:46:46Z</time>
      </trkpt>
      <trkpt lat="46.3649" lon="4.58934">
        <ele>281.29400634766</ele>
        <time>2020-06-15T23:47:04Z</time>
      </trkpt>
      <trkpt lat="46.36518" lon="4.58766">
        <ele>274.21069335938</ele>
        <time>2020-06-15T23:47:23Z</time>
      </trkpt>
      <trkpt lat="46.36519" lon="4.58698">
        <ele>273.11306762695</ele>
        <time>2020-06-15T23:47:42Z</time>
      </trkpt>
      <trkpt lat="46.3651" lon="4.58644">
        <ele>270.2649230957</ele>
        <time>2020-06-15T23:48:00Z</time>
      </trkpt>
      <trkpt lat="46.36466" lon="4.58564">
        <ele>270.4729309082</ele>
        <time>2020-06-15T23:48:19Z</time>
      </trkpt>
      <trkpt lat="46.36462" lon="4.58541">
        <ele>270.02493286133</ele>
        <time>2020-06-15T23:48:38Z</time>
      </trkpt>
      <trkpt lat="46.36471" lon="4.58507">
        <ele>269.83071899414</ele>
        <time>2020-06-15T23:48:56Z</time>
      </trkpt>
      <trkpt lat="46.36525" lon="4.58414">
        <ele>269.42416381836</ele>
        <time>2020-06-15T23:49:15Z</time>
      </trkpt>
      <trkpt lat="46.36525" lon="4.584">
        <ele>269.41030883789</ele>
        <time>2020-06-15T23:49:34Z</time>
      </trkpt>
      <trkpt lat="46.36515" lon="4.58389">
        <ele>269.77294921875</ele>
        <time>2020-06-15T23:49:53Z</time>
      </trkpt>
      <trkpt lat="46.36509" lon="4.58368">
        <ele>269.96658325195</ele>
        <time>2020-06-15T23:50:11Z</time>
      </trkpt>
      <trkpt lat="46.36499" lon="4.58355">
        <ele>270.03939819336</ele>
        <time>2020-06-15T23:50:30Z</time>
      </trkpt>
      <trkpt lat="46.36401" lon="4.58279">
        <ele>273.69464111328</ele>
        <time>2020-06-15T23:50:49Z</time>
      </trkpt>
      <trkpt lat="46.36359" lon="4.58257">
        <ele>277.15225219727</ele>
        <time>2020-06-15T23:51:07Z</time>
      </trkpt>
      <trkpt lat="46.36346" lon="4.58254">
        <ele>278.5231628418</ele>
        <time>2020-06-15T23:51:26Z</time>
      </trkpt>
      <trkpt lat="46.36326" lon="4.58268">
        <ele>281.1826171875</ele>
        <time>2020-06-15T23:51:45Z</time>
      </trkpt>
      <trkpt lat="46.36298" lon="4.58304">
        <ele>284.99957275391</ele>
        <time>2020-06-15T23:52:04Z</time>
      </trkpt>
      <trkpt lat="46.3627" lon="4.58357">
        <ele>288.60781860352</ele>
        <time>2020-06-15T23:52:22Z</time>
      </trkpt>
      <trkpt lat="46.36187" lon="4.58473">
        <ele>298.35876464844</ele>
        <time>2020-06-15T23:52:41Z</time>
      </trkpt>
      <trkpt lat="46.36171" lon="4.5848">
        <ele>299.18661499023</ele>
        <time>2020-06-15T23:53:00Z</time>
      </trkpt>
      <trkpt lat="46.36137" lon="4.58474">
        <ele>300.19943237305</ele>
        <time>2020-06-15T23:53:19Z</time>
      </trkpt>
      <trkpt lat="46.36087" lon="4.58483">
        <ele>302.44323730469</ele>
        <time>2020-06-15T23:53:37Z</time>
      </trkpt>
      <trkpt lat="46.36058" lon="4.58474">
        <ele>303.43695068359</ele>
        <time>2020-06-15T23:53:56Z</time>
      </trkpt>
      <trkpt lat="46.36006" lon="4.58423">
        <ele>305.17205810547</ele>
        <time>2020-06-15T23:54:15Z</time>
      </trkpt>
      <trkpt lat="46.3598" lon="4.58404">
        <ele>306.46264648438</ele>
        <time>2020-06-15T23:54:34Z</time>
      </trkpt>
      <trkpt lat="46.35842" lon="4.58365">
        <ele>307.20452880859</ele>
        <time>2020-06-15T23:54:53Z</time>
      </trkpt>
      <trkpt lat="46.35817" lon="4.58352">
        <ele>306.44476318359</ele>
        <time>2020-06-15T23:55:12Z</time>
      </trkpt>
      <trkpt lat="46.35796" lon="4.58332">
        <ele>306.14520263672</ele>
        <time>2020-06-15T23:55:30Z</time>
      </trkpt>
      <trkpt lat="46.3577" lon="4.58288">
        <ele>305.19537353516</ele>
        <time>2020-06-15T23:55:49Z</time>
      </trkpt>
      <trkpt lat="46.35759" lon="4.58196">
        <ele>306.39059448242</ele>
        <time>2020-06-15T23:56:08Z</time>
      </trkpt>
      <trkpt lat="46.35718" lon="4.5809">
        <ele>306.90356445312</ele>
        <time>2020-06-15T23:56:27Z</time>
      </trkpt>
      <trkpt lat="46.35656" lon="4.58024">
        <ele>302.10147094727</ele>
        <time>2020-06-15T23:56:46Z</time>
      </trkpt>
      <trkpt lat="46.3556" lon="4.57962">
        <ele>299.51858520508</ele>
        <time>2020-06-15T23:57:05Z</time>
      </trkpt>
      <trkpt lat="46.35509" lon="4.57906">
        <ele>299.3547668457</ele>
        <time>2020-06-15T23:57:24Z</time>
      </trkpt>
      <trkpt lat="46.3541" lon="4.57821">
        <ele>298.42727661133</ele>
        <time>2020-06-15T23:57:43Z</time>
      </trkpt>
      <trkpt lat="46.35399" lon="4.57808">
        <ele>298.07348632812</ele>
        <time>2020-06-15T23:58:02Z</time>
      </trkpt>
      <trkpt lat="46.35378" lon="4.57763">
        <ele>297.58551025391</ele>
        <time>2020-06-15T23:58:20Z</time>
      </trkpt>
      <trkpt lat="46.35351" lon="4.5773">
        <ele>298.30859375</ele>
        <time>2020-06-15T23:58:39Z</time>
      </trkpt>
      <trkpt lat="46.35239" lon="4.57656">
        <ele>300.90826416016</ele>
        <time>2020-06-15T23:58:58Z</time>
      </trkpt>
      <trkpt lat="46.35218" lon="4.57609">
        <ele>298.69271850586</ele>
        <time>2020-06-15T23:59:17Z</time>
      </trkpt>
      <trkpt lat="46.35206" lon="4.57506">
        <ele>293.849609375</ele>
        <time>2020-06-15T23:59:36Z</time>
      </trkpt>
      <trkpt lat="46.352" lon="4.57491">
        <ele>292.96444702148</ele>
        <time>2020-06-15T23:59:55Z</time>
      </trkpt>
      <trkpt lat="46.35158" lon="4.57453">
        <ele>291.74649047852</ele>
        <time>2020-06-16T00:00:14Z</time>
      </trkpt>
      <trkpt lat="46.35098" lon="4.57428">
        <ele>294.37191772461</ele>
        <time>2020-06-16T00:00:33Z</time>
      </trkpt>
      <trkpt lat="46.35096" lon="4.57415">
        <ele>294.478515625</ele>
        <time>2020-06-16T00:00:52Z</time>
      </trkpt>
      <trkpt lat="46.35123" lon="4.57334">
        <ele>285.99993896484</ele>
        <time>2020-06-16T00:01:11Z</time>
      </trkpt>
      <trkpt lat="46.35131" lon="4.57284">
        <ele>282.35040283203</ele>
        <time>2020-06-16T00:01:30Z</time>
      </trkpt>
      <trkpt lat="46.35128" lon="4.56917">
        <ele>277</ele>
        <time>2020-06-16T00:01:49Z</time>
      </trkpt>
      <trkpt lat="46.35125" lon="4.56912">
        <ele>277</ele>
        <time>2020-06-16T00:02:09Z</time>
      </trkpt>
      <trkpt lat="46.35081" lon="4.56913">
        <ele>277.34844970703</ele>
        <time>2020-06-16T00:02:28Z</time>
      </trkpt>
      <trkpt lat="46.3502" lon="4.56898">
        <ele>277.8916015625</ele>
        <time>2020-06-16T00:02:47Z</time>
      </trkpt>
      <trkpt lat="46.34908" lon="4.56833">
        <ele>277.17376708984</ele>
        <time>2020-06-16T00:03:06Z</time>
      </trkpt>
      <trkpt lat="46.34878" lon="4.56821">
        <ele>277.11666870117</ele>
        <time>2020-06-16T00:03:25Z</time>
      </trkpt>
      <trkpt lat="46.3436" lon="4.5671">
        <ele>281.89505004883</ele>
        <time>2020-06-16T00:03:44Z</time>
      </trkpt>
      <trkpt lat="46.34312" lon="4.56701">
        <ele>282.04611206055</ele>
        <time>2020-06-16T00:04:03Z</time>
      </trkpt>
      <trkpt lat="46.34249" lon="4.56696">
        <ele>284.16070556641</ele>
        <time>2020-06-16T00:04:23Z</time>
      </trkpt>
      <trkpt lat="46.33962" lon="4.56607">
        <ele>285.87240600586</ele>
        <time>2020-06-16T00:04:42Z</time>
      </trkpt>
      <trkpt lat="46.33925" lon="4.56581">
        <ele>285.55621337891</ele>
        <time>2020-06-16T00:05:01Z</time>
      </trkpt>
      <trkpt lat="46.33769" lon="4.56407">
        <ele>285</ele>
        <time>2020-06-16T00:05:20Z</time>
      </trkpt>
      <trkpt lat="46.3374" lon="4.56379">
        <ele>285</ele>
        <time>2020-06-16T00:05:40Z</time>
      </trkpt>
      <trkpt lat="46.33523" lon="4.56215">
        <ele>286.14682006836</ele>
        <time>2020-06-16T00:05:59Z</time>
      </trkpt>
      <trkpt lat="46.33406" lon="4.56141">
        <ele>288.2571105957</ele>
        <time>2020-06-16T00:06:18Z</time>
      </trkpt>
      <trkpt lat="46.33318" lon="4.56059">
        <ele>289.65713500977</ele>
        <time>2020-06-16T00:06:38Z</time>
      </trkpt>
      <trkpt lat="46.3329" lon="4.56043">
        <ele>289.90203857422</ele>
        <time>2020-06-16T00:06:57Z</time>
      </trkpt>
      <trkpt lat="46.33216" lon="4.5602">
        <ele>290.17697143555</ele>
        <time>2020-06-16T00:07:17Z</time>
      </trkpt>
      <trkpt lat="46.33024" lon="4.55944">
        <ele>291.08306884766</ele>
        <time>2020-06-16T00:07:36Z</time>
      </trkpt>
      <trkpt lat="46.32992" lon="4.55922">
        <ele>291.35278320312</ele>
        <time>2020-06-16T00:07:55Z</time>
      </trkpt>
      <trkpt lat="46.32965" lon="4.55885">
        <ele>291.60842895508</ele>
        <time>2020-06-16T00:08:15Z</time>
      </trkpt>
      <trkpt lat="46.32942" lon="4.55817">
        <ele>293.07418823242</ele>
        <time>2020-06-16T00:08:34Z</time>
      </trkpt>
      <trkpt lat="46.32876" lon="4.55466">
        <ele>296.74951171875</ele>
        <time>2020-06-16T00:08:54Z</time>
      </trkpt>
      <trkpt lat="46.32876" lon="4.55439">
        <ele>296.15856933594</ele>
        <time>2020-06-16T00:09:13Z</time>
      </trkpt>
      <trkpt lat="46.32886" lon="4.55411">
        <ele>295.41702270508</ele>
        <time>2020-06-16T00:09:33Z</time>
      </trkpt>
      <trkpt lat="46.32946" lon="4.55338">
        <ele>300.3698425293</ele>
        <time>2020-06-16T00:09:52Z</time>
      </trkpt>
      <trkpt lat="46.32961" lon="4.55298">
        <ele>306.36386108398</ele>
        <time>2020-06-16T00:10:12Z</time>
      </trkpt>
      <trkpt lat="46.32955" lon="4.55264">
        <ele>308.32034301758</ele>
        <time>2020-06-16T00:10:31Z</time>
      </trkpt>
      <trkpt lat="46.32912" lon="4.55171">
        <ele>309.09484863281</ele>
        <time>2020-06-16T00:10:51Z</time>
      </trkpt>
      <trkpt lat="46.32905" lon="4.55139">
        <ele>308.75415039062</ele>
        <time>2020-06-16T00:11:10Z</time>
      </trkpt>
      <trkpt lat="46.32912" lon="4.55019">
        <ele>313.19836425781</ele>
        <time>2020-06-16T00:11:30Z</time>
      </trkpt>
      <trkpt lat="46.32907" lon="4.5491">
        <ele>314.05422973633</ele>
        <time>2020-06-16T00:11:50Z</time>
      </trkpt>
      <trkpt lat="46.32899" lon="4.54785">
        <ele>315.76739501953</ele>
        <time>2020-06-16T00:12:09Z</time>
      </trkpt>
      <trkpt lat="46.32874" lon="4.54529">
        <ele>313.50225830078</ele>
        <time>2020-06-16T00:12:29Z</time>
      </trkpt>
      <trkpt lat="46.32854" lon="4.54212">
        <ele>311.484375</ele>
        <time>2020-06-16T00:12:48Z</time>
      </trkpt>
      <trkpt lat="46.32832" lon="4.54057">
        <ele>313.61038208008</ele>
        <time>2020-06-16T00:13:08Z</time>
      </trkpt>
      <trkpt lat="46.32812" lon="4.53961">
        <ele>315.17901611328</ele>
        <time>2020-06-16T00:13:28Z</time>
      </trkpt>
      <trkpt lat="46.32785" lon="4.5386">
        <ele>314.36618041992</ele>
        <time>2020-06-16T00:13:48Z</time>
      </trkpt>
      <trkpt lat="46.32717" lon="4.53657">
        <ele>316.95147705078</ele>
        <time>2020-06-16T00:14:07Z</time>
      </trkpt>
      <trkpt lat="46.32682" lon="4.5354">
        <ele>320.505859375</ele>
        <time>2020-06-16T00:14:27Z</time>
      </trkpt>
      <trkpt lat="46.32654" lon="4.53298">
        <ele>327.35464477539</ele>
        <time>2020-06-16T00:14:47Z</time>
      </trkpt>
      <trkpt lat="46.3266" lon="4.53255">
        <ele>327.28799438477</ele>
        <time>2020-06-16T00:15:06Z</time>
      </trkpt>
      <trkpt lat="46.32691" lon="4.53155">
        <ele>330.99871826172</ele>
        <time>2020-06-16T00:15:26Z</time>
      </trkpt>
      <trkpt lat="46.32697" lon="4.53093">
        <ele>330.41735839844</ele>
        <time>2020-06-16T00:15:46Z</time>
      </trkpt>
      <trkpt lat="46.32651" lon="4.52936">
        <ele>331.58129882812</ele>
        <time>2020-06-16T00:16:06Z</time>
      </trkpt>
      <trkpt lat="46.32592" lon="4.52585">
        <ele>333.72763061523</ele>
        <time>2020-06-16T00:16:26Z</time>
      </trkpt>
      <trkpt lat="46.32588" lon="4.52519">
        <ele>330.91555786133</ele>
        <time>2020-06-16T00:16:46Z</time>
      </trkpt>
      <trkpt lat="46.32609" lon="4.52427">
        <ele>329.04190063477</ele>
        <time>2020-06-16T00:17:05Z</time>
      </trkpt>
      <trkpt lat="46.3261" lon="4.52395">
        <ele>329.20715332031</ele>
        <time>2020-06-16T00:17:25Z</time>
      </trkpt>
      <trkpt lat="46.32575" lon="4.52223">
        <ele>324.49884033203</ele>
        <time>2020-06-16T00:17:45Z</time>
      </trkpt>
      <trkpt lat="46.32559" lon="4.52099">
        <ele>318.22137451172</ele>
        <time>2020-06-16T00:18:05Z</time>
      </trkpt>
      <trkpt lat="46.32541" lon="4.52059">
        <ele>321.28109741211</ele>
        <time>2020-06-16T00:18:25Z</time>
      </trkpt>
      <trkpt lat="46.32512" lon="4.52035">
        <ele>323.78207397461</ele>
        <time>2020-06-16T00:18:45Z</time>
      </trkpt>
      <trkpt lat="46.32336" lon="4.51973">
        <ele>334.24240112305</ele>
        <time>2020-06-16T00:19:05Z</time>
      </trkpt>
      <trkpt lat="46.32287" lon="4.51971">
        <ele>333.67114257812</ele>
        <time>2020-06-16T00:19:25Z</time>
      </trkpt>
      <trkpt lat="46.32216" lon="4.51975">
        <ele>331.09564208984</ele>
        <time>2020-06-16T00:19:45Z</time>
      </trkpt>
      <trkpt lat="46.3219" lon="4.5197">
        <ele>331.16705322266</ele>
        <time>2020-06-16T00:20:05Z</time>
      </trkpt>
      <trkpt lat="46.32092" lon="4.5191">
        <ele>334.09878540039</ele>
        <time>2020-06-16T00:20:25Z</time>
      </trkpt>
      <trkpt lat="46.31978" lon="4.51888">
        <ele>338.2141418457</ele>
        <time>2020-06-16T00:20:45Z</time>
      </trkpt>
      <trkpt lat="46.31917" lon="4.51856">
        <ele>339.91619873047</ele>
        <time>2020-06-16T00:21:05Z</time>
      </trkpt>
      <trkpt lat="46.31893" lon="4.51833">
        <ele>341.82244873047</ele>
        <time>2020-06-16T00:21:25Z</time>
      </trkpt>
      <trkpt lat="46.31877" lon="4.51809">
        <ele>342.46557617188</ele>
        <time>2020-06-16T00:21:45Z</time>
      </trkpt>
      <trkpt lat="46.31824" lon="4.51689">
        <ele>350.7932434082</ele>
        <time>2020-06-16T00:22:05Z</time>
      </trkpt>
      <trkpt lat="46.31776" lon="4.51601">
        <ele>353.55883789062</ele>
        <time>2020-06-16T00:22:25Z</time>
      </trkpt>
      <trkpt lat="46.31764" lon="4.51561">
        <ele>357.14440917969</ele>
        <time>2020-06-16T00:22:45Z</time>
      </trkpt>
      <trkpt lat="46.31713" lon="4.51516">
        <ele>356.20471191406</ele>
        <time>2020-06-16T00:23:05Z</time>
      </trkpt>
      <trkpt lat="46.3164" lon="4.51411">
        <ele>363.01614379883</ele>
        <time>2020-06-16T00:23:25Z</time>
      </trkpt>
      <trkpt lat="46.3162" lon="4.5139">
        <ele>363.5852355957</ele>
        <time>2020-06-16T00:23:45Z</time>
      </trkpt>
      <trkpt lat="46.31575" lon="4.51359">
        <ele>362.19995117188</ele>
        <time>2020-06-16T00:24:05Z</time>
      </trkpt>
      <trkpt lat="46.31556" lon="4.51335">
        <ele>363.28384399414</ele>
        <time>2020-06-16T00:24:25Z</time>
      </trkpt>
      <trkpt lat="46.31545" lon="4.51311">
        <ele>365.68975830078</ele>
        <time>2020-06-16T00:24:46Z</time>
      </trkpt>
      <trkpt lat="46.31535" lon="4.51268">
        <ele>369.23641967773</ele>
        <time>2020-06-16T00:25:06Z</time>
      </trkpt>
      <trkpt lat="46.31531" lon="4.51187">
        <ele>373.61883544922</ele>
        <time>2020-06-16T00:25:26Z</time>
      </trkpt>
      <trkpt lat="46.31525" lon="4.51157">
        <ele>375.16937255859</ele>
        <time>2020-06-16T00:25:46Z</time>
      </trkpt>
      <trkpt lat="46.31511" lon="4.51127">
        <ele>373.94207763672</ele>
        <time>2020-06-16T00:26:06Z</time>
      </trkpt>
      <trkpt lat="46.31465" lon="4.51069">
        <ele>375.82821655273</ele>
        <time>2020-06-16T00:26:26Z</time>
      </trkpt>
      <trkpt lat="46.31453" lon="4.51043">
        <ele>377.57708740234</ele>
        <time>2020-06-16T00:26:46Z</time>
      </trkpt>
      <trkpt lat="46.31437" lon="4.50975">
        <ele>380.1716003418</ele>
        <time>2020-06-16T00:27:06Z</time>
      </trkpt>
      <trkpt lat="46.31382" lon="4.50837">
        <ele>381.16799926758</ele>
        <time>2020-06-16T00:27:27Z</time>
      </trkpt>
      <trkpt lat="46.31349" lon="4.50725">
        <ele>383.51043701172</ele>
        <time>2020-06-16T00:27:47Z</time>
      </trkpt>
      <trkpt lat="46.31324" lon="4.50681">
        <ele>384.49490356445</ele>
        <time>2020-06-16T00:28:07Z</time>
      </trkpt>
      <trkpt lat="46.31253" lon="4.50593">
        <ele>383.02145385742</ele>
        <time>2020-06-16T00:28:27Z</time>
      </trkpt>
      <trkpt lat="46.31234" lon="4.50554">
        <ele>381.63244628906</ele>
        <time>2020-06-16T00:28:47Z</time>
      </trkpt>
      <trkpt lat="46.31172" lon="4.50311">
        <ele>385.52688598633</ele>
        <time>2020-06-16T00:29:08Z</time>
      </trkpt>
      <trkpt lat="46.31169" lon="4.50158">
        <ele>386.5202331543</ele>
        <time>2020-06-16T00:29:28Z</time>
      </trkpt>
      <trkpt lat="46.31161" lon="4.50105">
        <ele>385.85244750977</ele>
        <time>2020-06-16T00:29:48Z</time>
      </trkpt>
      <trkpt lat="46.30971" lon="4.49677">
        <ele>389.7131652832</ele>
        <time>2020-06-16T00:30:09Z</time>
      </trkpt>
      <trkpt lat="46.30944" lon="4.49599">
        <ele>391.81225585938</ele>
        <time>2020-06-16T00:30:29Z</time>
      </trkpt>
      <trkpt lat="46.30899" lon="4.49302">
        <ele>391.89144897461</ele>
        <time>2020-06-16T00:30:49Z</time>
      </trkpt>
      <trkpt lat="46.30835" lon="4.49064">
        <ele>400.76123046875</ele>
        <time>2020-06-16T00:31:10Z</time>
      </trkpt>
      <trkpt lat="46.30825" lon="4.48962">
        <ele>405.06945800781</ele>
        <time>2020-06-16T00:31:30Z</time>
      </trkpt>
      <trkpt lat="46.30828" lon="4.48873">
        <ele>409.0959777832</ele>
        <time>2020-06-16T00:31:50Z</time>
      </trkpt>
      <trkpt lat="46.3082" lon="4.48803">
        <ele>411.45184326172</ele>
        <time>2020-06-16T00:32:11Z</time>
      </trkpt>
      <trkpt lat="46.30802" lon="4.48749">
        <ele>415.73776245117</ele>
        <time>2020-06-16T00:32:31Z</time>
      </trkpt>
      <trkpt lat="46.30767" lon="4.48581">
        <ele>428.03820800781</ele>
        <time>2020-06-16T00:32:52Z</time>
      </trkpt>
      <trkpt lat="46.30728" lon="4.48444">
        <ele>431.87887573242</ele>
        <time>2020-06-16T00:33:12Z</time>
      </trkpt>
      <trkpt lat="46.3072" lon="4.48391">
        <ele>430.71633911133</ele>
        <time>2020-06-16T00:33:33Z</time>
      </trkpt>
      <trkpt lat="46.3072" lon="4.48345">
        <ele>429.97247314453</ele>
        <time>2020-06-16T00:33:53Z</time>
      </trkpt>
      <trkpt lat="46.30702" lon="4.48265">
        <ele>429.12194824219</ele>
        <time>2020-06-16T00:34:14Z</time>
      </trkpt>
      <trkpt lat="46.30693" lon="4.48173">
        <ele>429.66851806641</ele>
        <time>2020-06-16T00:34:34Z</time>
      </trkpt>
      <trkpt lat="46.30698" lon="4.48163">
        <ele>429.64138793945</ele>
        <time>2020-06-16T00:48:45Z</time>
      </trkpt>
      <trkpt lat="46.30721" lon="4.48088">
        <ele>431.03500366211</ele>
        <time>2020-06-16T00:49:06Z</time>
      </trkpt>
      <trkpt lat="46.30761" lon="4.48008">
        <ele>433.85424804688</ele>
        <time>2020-06-16T00:49:27Z</time>
      </trkpt>
      <trkpt lat="46.30774" lon="4.47972">
        <ele>435.4778137207</ele>
        <time>2020-06-16T00:49:48Z</time>
      </trkpt>
      <trkpt lat="46.30774" lon="4.47807">
        <ele>439.53610229492</ele>
        <time>2020-06-16T00:50:10Z</time>
      </trkpt>
      <trkpt lat="46.30807" lon="4.47697">
        <ele>444.63986206055</ele>
        <time>2020-06-16T00:50:31Z</time>
      </trkpt>
      <trkpt lat="46.30812" lon="4.47656">
        <ele>447.54809570312</ele>
        <time>2020-06-16T00:50:52Z</time>
      </trkpt>
      <trkpt lat="46.30799" lon="4.47598">
        <ele>450.23257446289</ele>
        <time>2020-06-16T00:51:13Z</time>
      </trkpt>
      <trkpt lat="46.30759" lon="4.47497">
        <ele>454.31527709961</ele>
        <time>2020-06-16T00:51:34Z</time>
      </trkpt>
      <trkpt lat="46.30741" lon="4.47479">
        <ele>454.51568603516</ele>
        <time>2020-06-16T00:51:55Z</time>
      </trkpt>
      <trkpt lat="46.30693" lon="4.47472">
        <ele>453.91180419922</ele>
        <time>2020-06-16T00:52:16Z</time>
      </trkpt>
      <trkpt lat="46.30678" lon="4.47461">
        <ele>454.55291748047</ele>
        <time>2020-06-16T00:52:37Z</time>
      </trkpt>
      <trkpt lat="46.3067" lon="4.47446">
        <ele>455.46975708008</ele>
        <time>2020-06-16T00:52:58Z</time>
      </trkpt>
      <trkpt lat="46.30663" lon="4.47413">
        <ele>456.95181274414</ele>
        <time>2020-06-16T00:53:19Z</time>
      </trkpt>
      <trkpt lat="46.30658" lon="4.47302">
        <ele>461.35641479492</ele>
        <time>2020-06-16T00:53:40Z</time>
      </trkpt>
      <trkpt lat="46.30662" lon="4.4725">
        <ele>461.69604492188</ele>
        <time>2020-06-16T00:54:02Z</time>
      </trkpt>
      <trkpt lat="46.30671" lon="4.47225">
        <ele>461.90643310547</ele>
        <time>2020-06-16T00:54:23Z</time>
      </trkpt>
      <trkpt lat="46.30688" lon="4.472">
        <ele>462.93502807617</ele>
        <time>2020-06-16T00:54:44Z</time>
      </trkpt>
      <trkpt lat="46.30757" lon="4.47152">
        <ele>467.0166015625</ele>
        <time>2020-06-16T00:55:05Z</time>
      </trkpt>
      <trkpt lat="46.3079" lon="4.47116">
        <ele>472.34045410156</ele>
        <time>2020-06-16T00:55:26Z</time>
      </trkpt>
      <trkpt lat="46.30844" lon="4.47014">
        <ele>474.64407348633</ele>
        <time>2020-06-16T00:55:47Z</time>
      </trkpt>
      <trkpt lat="46.3093" lon="4.46887">
        <ele>476.57751464844</ele>
        <time>2020-06-16T00:56:08Z</time>
      </trkpt>
      <trkpt lat="46.30948" lon="4.46842">
        <ele>476.046875</ele>
        <time>2020-06-16T00:56:30Z</time>
      </trkpt>
      <trkpt lat="46.30953" lon="4.46791">
        <ele>476.16299438477</ele>
        <time>2020-06-16T00:56:51Z</time>
      </trkpt>
      <trkpt lat="46.30948" lon="4.46761">
        <ele>476.19552612305</ele>
        <time>2020-06-16T00:57:12Z</time>
      </trkpt>
      <trkpt lat="46.30931" lon="4.46722">
        <ele>477.80920410156</ele>
        <time>2020-06-16T00:57:33Z</time>
      </trkpt>
      <trkpt lat="46.30843" lon="4.4658">
        <ele>488.5622253418</ele>
        <time>2020-06-16T00:57:54Z</time>
      </trkpt>
      <trkpt lat="46.30749" lon="4.46418">
        <ele>510.93927001953</ele>
        <time>2020-06-16T00:58:16Z</time>
      </trkpt>
      <trkpt lat="46.30721" lon="4.46386">
        <ele>517.71594238281</ele>
        <time>2020-06-16T00:58:37Z</time>
      </trkpt>
      <trkpt lat="46.30698" lon="4.4637">
        <ele>520.73681640625</ele>
        <time>2020-06-16T00:58:58Z</time>
      </trkpt>
      <trkpt lat="46.30614" lon="4.46339">
        <ele>517.16925048828</ele>
        <time>2020-06-16T00:59:20Z</time>
      </trkpt>
      <trkpt lat="46.30602" lon="4.46322">
        <ele>515.56896972656</ele>
        <time>2020-06-16T00:59:41Z</time>
      </trkpt>
      <trkpt lat="46.30599" lon="4.46293">
        <ele>515.34027099609</ele>
        <time>2020-06-16T01:00:02Z</time>
      </trkpt>
      <trkpt lat="46.30663" lon="4.46037">
        <ele>516.51226806641</ele>
        <time>2020-06-16T01:00:23Z</time>
      </trkpt>
      <trkpt lat="46.3068" lon="4.46008">
        <ele>515.8193359375</ele>
        <time>2020-06-16T01:00:45Z</time>
      </trkpt>
      <trkpt lat="46.30741" lon="4.45964">
        <ele>519.95794677734</ele>
        <time>2020-06-16T01:01:06Z</time>
      </trkpt>
      <trkpt lat="46.30768" lon="4.45928">
        <ele>525.48803710938</ele>
        <time>2020-06-16T01:01:27Z</time>
      </trkpt>
      <trkpt lat="46.30816" lon="4.45713">
        <ele>533.74615478516</ele>
        <time>2020-06-16T01:01:49Z</time>
      </trkpt>
      <trkpt lat="46.30838" lon="4.4567">
        <ele>531.31561279297</ele>
        <time>2020-06-16T01:02:10Z</time>
      </trkpt>
      <trkpt lat="46.3089" lon="4.45595">
        <ele>534.49633789062</ele>
        <time>2020-06-16T01:02:32Z</time>
      </trkpt>
      <trkpt lat="46.30915" lon="4.4551">
        <ele>541.7802734375</ele>
        <time>2020-06-16T01:02:53Z</time>
      </trkpt>
      <trkpt lat="46.30918" lon="4.45467">
        <ele>549.01678466797</ele>
        <time>2020-06-16T01:03:14Z</time>
      </trkpt>
      <trkpt lat="46.30904" lon="4.45438">
        <ele>551.74920654297</ele>
        <time>2020-06-16T01:03:36Z</time>
      </trkpt>
      <trkpt lat="46.30836" lon="4.45398">
        <ele>549.50891113281</ele>
        <time>2020-06-16T01:03:57Z</time>
      </trkpt>
      <trkpt lat="46.30804" lon="4.45358">
        <ele>551.06604003906</ele>
        <time>2020-06-16T01:04:19Z</time>
      </trkpt>
      <trkpt lat="46.30772" lon="4.45304">
        <ele>547.45263671875</ele>
        <time>2020-06-16T01:04:40Z</time>
      </trkpt>
      <trkpt lat="46.30749" lon="4.45224">
        <ele>553.11370849609</ele>
        <time>2020-06-16T01:05:01Z</time>
      </trkpt>
      <trkpt lat="46.30738" lon="4.45203">
        <ele>553.28564453125</ele>
        <time>2020-06-16T01:05:23Z</time>
      </trkpt>
      <trkpt lat="46.30717" lon="4.45185">
        <ele>551.9794921875</ele>
        <time>2020-06-16T01:05:44Z</time>
      </trkpt>
      <trkpt lat="46.30659" lon="4.45157">
        <ele>548.32470703125</ele>
        <time>2020-06-16T01:06:06Z</time>
      </trkpt>
      <trkpt lat="46.30581" lon="4.45069">
        <ele>552.46563720703</ele>
        <time>2020-06-16T01:06:27Z</time>
      </trkpt>
      <trkpt lat="46.30554" lon="4.45047">
        <ele>553.92590332031</ele>
        <time>2020-06-16T01:06:49Z</time>
      </trkpt>
      <trkpt lat="46.30534" lon="4.45038">
        <ele>554.96649169922</ele>
        <time>2020-06-16T01:07:10Z</time>
      </trkpt>
      <trkpt lat="46.30509" lon="4.45033">
        <ele>555.26232910156</ele>
        <time>2020-06-16T01:07:32Z</time>
      </trkpt>
      <trkpt lat="46.30389" lon="4.45036">
        <ele>555.77154541016</ele>
        <time>2020-06-16T01:07:53Z</time>
      </trkpt>
      <trkpt lat="46.30258" lon="4.4507">
        <ele>553.43518066406</ele>
        <time>2020-06-16T01:08:15Z</time>
      </trkpt>
      <trkpt lat="46.30227" lon="4.45061">
        <ele>555.201171875</ele>
        <time>2020-06-16T01:08:36Z</time>
      </trkpt>
      <trkpt lat="46.30195" lon="4.45034">
        <ele>554.68414306641</ele>
        <time>2020-06-16T01:08:58Z</time>
      </trkpt>
      <trkpt lat="46.30191" lon="4.45036">
        <ele>554.50579833984</ele>
        <time>2020-06-16T01:09:19Z</time>
      </trkpt>
      <trkpt lat="46.30198" lon="4.45042">
        <ele>554.63897705078</ele>
        <time>2020-06-16T01:09:41Z</time>
      </trkpt>
      <trkpt lat="46.30204" lon="4.45035">
        <ele>554.99298095703</ele>
        <time>2020-06-16T01:10:02Z</time>
      </trkpt>
      <trkpt lat="46.30207" lon="4.44956">
        <ele>553.43023681641</ele>
        <time>2020-06-16T01:10:24Z</time>
      </trkpt>
      <trkpt lat="46.30204" lon="4.44897">
        <ele>552.84002685547</ele>
        <time>2020-06-16T01:10:45Z</time>
      </trkpt>
      <trkpt lat="46.30178" lon="4.44658">
        <ele>547.22412109375</ele>
        <time>2020-06-16T01:11:07Z</time>
      </trkpt>
      <trkpt lat="46.30156" lon="4.44518">
        <ele>544.06274414062</ele>
        <time>2020-06-16T01:11:29Z</time>
      </trkpt>
      <trkpt lat="46.30174" lon="4.44413">
        <ele>544.84332275391</ele>
        <time>2020-06-16T01:11:50Z</time>
      </trkpt>
      <trkpt lat="46.30166" lon="4.44296">
        <ele>545.46643066406</ele>
        <time>2020-06-16T01:12:12Z</time>
      </trkpt>
      <trkpt lat="46.30172" lon="4.44248">
        <ele>544.44512939453</ele>
        <time>2020-06-16T01:12:34Z</time>
      </trkpt>
      <trkpt lat="46.30192" lon="4.44214">
        <ele>544.37915039062</ele>
        <time>2020-06-16T01:12:55Z</time>
      </trkpt>
      <trkpt lat="46.3028" lon="4.44142">
        <ele>549.07244873047</ele>
        <time>2020-06-16T01:13:17Z</time>
      </trkpt>
      <trkpt lat="46.30299" lon="4.44118">
        <ele>550.85076904297</ele>
        <time>2020-06-16T01:13:38Z</time>
      </trkpt>
      <trkpt lat="46.30307" lon="4.44099">
        <ele>551.19268798828</ele>
        <time>2020-06-16T01:14:00Z</time>
      </trkpt>
      <trkpt lat="46.30315" lon="4.44031">
        <ele>548.90161132812</ele>
        <time>2020-06-16T01:14:22Z</time>
      </trkpt>
      <trkpt lat="46.30323" lon="4.44006">
        <ele>546.8837890625</ele>
        <time>2020-06-16T01:14:43Z</time>
      </trkpt>
      <trkpt lat="46.30335" lon="4.43993">
        <ele>545.92938232422</ele>
        <time>2020-06-16T01:15:05Z</time>
      </trkpt>
      <trkpt lat="46.30354" lon="4.43986">
        <ele>545.42041015625</ele>
        <time>2020-06-16T01:15:27Z</time>
      </trkpt>
      <trkpt lat="46.3038" lon="4.43984">
        <ele>544.64923095703</ele>
        <time>2020-06-16T01:15:48Z</time>
      </trkpt>
      <trkpt lat="46.30401" lon="4.43992">
        <ele>545.30999755859</ele>
        <time>2020-06-16T01:16:10Z</time>
      </trkpt>
      <trkpt lat="46.30422" lon="4.44014">
        <ele>548.97625732422</ele>
        <time>2020-06-16T01:16:32Z</time>
      </trkpt>
      <trkpt lat="46.30461" lon="4.44081">
        <ele>555.41394042969</ele>
        <time>2020-06-16T01:16:54Z</time>
      </trkpt>
      <trkpt lat="46.30479" lon="4.44095">
        <ele>556.92687988281</ele>
        <time>2020-06-16T01:17:15Z</time>
      </trkpt>
      <trkpt lat="46.30498" lon="4.44092">
        <ele>556.85272216797</ele>
        <time>2020-06-16T01:17:37Z</time>
      </trkpt>
      <trkpt lat="46.30528" lon="4.44067">
        <ele>555.32556152344</ele>
        <time>2020-06-16T01:17:59Z</time>
      </trkpt>
      <trkpt lat="46.30541" lon="4.4406">
        <ele>554.55541992188</ele>
        <time>2020-06-16T01:18:20Z</time>
      </trkpt>
      <trkpt lat="46.30561" lon="4.44063">
        <ele>554.23760986328</ele>
        <time>2020-06-16T01:18:42Z</time>
      </trkpt>
      <trkpt lat="46.30601" lon="4.44087">
        <ele>560.46044921875</ele>
        <time>2020-06-16T01:19:04Z</time>
      </trkpt>
      <trkpt lat="46.3062" lon="4.44083">
        <ele>562.69604492188</ele>
        <time>2020-06-16T01:19:26Z</time>
      </trkpt>
      <trkpt lat="46.30634" lon="4.44063">
        <ele>564.65325927734</ele>
        <time>2020-06-16T01:19:47Z</time>
      </trkpt>
      <trkpt lat="46.3065" lon="4.44017">
        <ele>566.98382568359</ele>
        <time>2020-06-16T01:20:09Z</time>
      </trkpt>
      <trkpt lat="46.3066" lon="4.43955">
        <ele>570.38732910156</ele>
        <time>2020-06-16T01:20:31Z</time>
      </trkpt>
      <trkpt lat="46.30653" lon="4.43864">
        <ele>572.16625976562</ele>
        <time>2020-06-16T01:20:53Z</time>
      </trkpt>
      <trkpt lat="46.30681" lon="4.43756">
        <ele>571.84735107422</ele>
        <time>2020-06-16T01:21:14Z</time>
      </trkpt>
      <trkpt lat="46.30716" lon="4.43647">
        <ele>570.46636962891</ele>
        <time>2020-06-16T01:21:36Z</time>
      </trkpt>
      <trkpt lat="46.30736" lon="4.43624">
        <ele>571.78143310547</ele>
        <time>2020-06-16T01:21:58Z</time>
      </trkpt>
      <trkpt lat="46.30759" lon="4.43626">
        <ele>575.65698242188</ele>
        <time>2020-06-16T01:22:20Z</time>
      </trkpt>
      <trkpt lat="46.30775" lon="4.43621">
        <ele>578.76300048828</ele>
        <time>2020-06-16T01:22:41Z</time>
      </trkpt>
      <trkpt lat="46.30782" lon="4.43608">
        <ele>580.71746826172</ele>
        <time>2020-06-16T01:23:03Z</time>
      </trkpt>
      <trkpt lat="46.30783" lon="4.43589">
        <ele>582.05853271484</ele>
        <time>2020-06-16T01:23:25Z</time>
      </trkpt>
      <trkpt lat="46.30744" lon="4.4351">
        <ele>577.90997314453</ele>
        <time>2020-06-16T01:23:47Z</time>
      </trkpt>
      <trkpt lat="46.3074" lon="4.43466">
        <ele>576.27136230469</ele>
        <time>2020-06-16T01:24:09Z</time>
      </trkpt>
      <trkpt lat="46.30753" lon="4.43407">
        <ele>576.91424560547</ele>
        <time>2020-06-16T01:24:30Z</time>
      </trkpt>
      <trkpt lat="46.30757" lon="4.43338">
        <ele>579.15246582031</ele>
        <time>2020-06-16T01:24:52Z</time>
      </trkpt>
      <trkpt lat="46.30748" lon="4.43308">
        <ele>580.17242431641</ele>
        <time>2020-06-16T01:25:14Z</time>
      </trkpt>
      <trkpt lat="46.30726" lon="4.43286">
        <ele>578.61541748047</ele>
        <time>2020-06-16T01:25:36Z</time>
      </trkpt>
      <trkpt lat="46.30695" lon="4.43275">
        <ele>579.67822265625</ele>
        <time>2020-06-16T01:25:58Z</time>
      </trkpt>
      <trkpt lat="46.3065" lon="4.43299">
        <ele>577.07177734375</ele>
        <time>2020-06-16T01:26:20Z</time>
      </trkpt>
      <trkpt lat="46.30576" lon="4.43287">
        <ele>582.62646484375</ele>
        <time>2020-06-16T01:26:41Z</time>
      </trkpt>
      <trkpt lat="46.30563" lon="4.43301">
        <ele>581.33245849609</ele>
        <time>2020-06-16T01:27:03Z</time>
      </trkpt>
      <trkpt lat="46.30552" lon="4.43325">
        <ele>578.95751953125</ele>
        <time>2020-06-16T01:27:25Z</time>
      </trkpt>
      <trkpt lat="46.30548" lon="4.43353">
        <ele>575.34289550781</ele>
        <time>2020-06-16T01:27:47Z</time>
      </trkpt>
      <trkpt lat="46.30533" lon="4.43395">
        <ele>575.65594482422</ele>
        <time>2020-06-16T01:28:09Z</time>
      </trkpt>
      <trkpt lat="46.30521" lon="4.43409">
        <ele>576.97998046875</ele>
        <time>2020-06-16T01:28:31Z</time>
      </trkpt>
      <trkpt lat="46.30496" lon="4.43424">
        <ele>578.05487060547</ele>
        <time>2020-06-16T01:28:53Z</time>
      </trkpt>
      <trkpt lat="46.30437" lon="4.43393">
        <ele>582.76403808594</ele>
        <time>2020-06-16T01:29:15Z</time>
      </trkpt>
      <trkpt lat="46.30389" lon="4.43346">
        <ele>586.87249755859</ele>
        <time>2020-06-16T01:29:37Z</time>
      </trkpt>
      <trkpt lat="46.30372" lon="4.43317">
        <ele>587.41833496094</ele>
        <time>2020-06-16T01:29:58Z</time>
      </trkpt>
      <trkpt lat="46.30363" lon="4.43286">
        <ele>589.2705078125</ele>
        <time>2020-06-16T01:30:20Z</time>
      </trkpt>
      <trkpt lat="46.30361" lon="4.43246">
        <ele>590.17095947266</ele>
        <time>2020-06-16T01:30:42Z</time>
      </trkpt>
      <trkpt lat="46.30384" lon="4.43133">
        <ele>596.43859863281</ele>
        <time>2020-06-16T01:31:04Z</time>
      </trkpt>
      <trkpt lat="46.3039" lon="4.43075">
        <ele>600.49578857422</ele>
        <time>2020-06-16T01:31:26Z</time>
      </trkpt>
      <trkpt lat="46.30357" lon="4.43008">
        <ele>599.47174072266</ele>
        <time>2020-06-16T01:31:48Z</time>
      </trkpt>
      <trkpt lat="46.30333" lon="4.42932">
        <ele>599.26611328125</ele>
        <time>2020-06-16T01:32:10Z</time>
      </trkpt>
      <trkpt lat="46.30329" lon="4.42882">
        <ele>598.68743896484</ele>
        <time>2020-06-16T01:32:32Z</time>
      </trkpt>
      <trkpt lat="46.30345" lon="4.42796">
        <ele>602.31689453125</ele>
        <time>2020-06-16T01:32:54Z</time>
      </trkpt>
      <trkpt lat="46.30351" lon="4.42727">
        <ele>610.98114013672</ele>
        <time>2020-06-16T01:33:16Z</time>
      </trkpt>
      <trkpt lat="46.30346" lon="4.42705">
        <ele>612.66119384766</ele>
        <time>2020-06-16T01:33:38Z</time>
      </trkpt>
      <trkpt lat="46.30332" lon="4.42687">
        <ele>613.34582519531</ele>
        <time>2020-06-16T01:34:00Z</time>
      </trkpt>
      <trkpt lat="46.30271" lon="4.42671">
        <ele>607.61114501953</ele>
        <time>2020-06-16T01:34:22Z</time>
      </trkpt>
      <trkpt lat="46.30258" lon="4.42663">
        <ele>606.24279785156</ele>
        <time>2020-06-16T01:34:44Z</time>
      </trkpt>
      <trkpt lat="46.30244" lon="4.42645">
        <ele>604.66693115234</ele>
        <time>2020-06-16T01:35:06Z</time>
      </trkpt>
      <trkpt lat="46.30235" lon="4.42594">
        <ele>603.03100585938</ele>
        <time>2020-06-16T01:35:28Z</time>
      </trkpt>
      <trkpt lat="46.30252" lon="4.42464">
        <ele>598.79840087891</ele>
        <time>2020-06-16T01:35:50Z</time>
      </trkpt>
      <trkpt lat="46.30261" lon="4.42431">
        <ele>597.34515380859</ele>
        <time>2020-06-16T01:36:12Z</time>
      </trkpt>
      <trkpt lat="46.30293" lon="4.42371">
        <ele>592.73913574219</ele>
        <time>2020-06-16T01:36:34Z</time>
      </trkpt>
      <trkpt lat="46.30364" lon="4.42281">
        <ele>578.61010742188</ele>
        <time>2020-06-16T01:36:56Z</time>
      </trkpt>
      <trkpt lat="46.30394" lon="4.42253">
        <ele>576.31146240234</ele>
        <time>2020-06-16T01:37:18Z</time>
      </trkpt>
      <trkpt lat="46.30461" lon="4.42206">
        <ele>573.21795654297</ele>
        <time>2020-06-16T01:37:40Z</time>
      </trkpt>
      <trkpt lat="46.30628" lon="4.42108">
        <ele>563.87213134766</ele>
        <time>2020-06-16T01:38:02Z</time>
      </trkpt>
      <trkpt lat="46.30684" lon="4.42091">
        <ele>558.10272216797</ele>
        <time>2020-06-16T01:38:24Z</time>
      </trkpt>
      <trkpt lat="46.30715" lon="4.42091">
        <ele>555.58325195312</ele>
        <time>2020-06-16T01:38:46Z</time>
      </trkpt>
      <trkpt lat="46.30744" lon="4.42099">
        <ele>554.78240966797</ele>
        <time>2020-06-16T01:39:09Z</time>
      </trkpt>
      <trkpt lat="46.30853" lon="4.42157">
        <ele>557.41583251953</ele>
        <time>2020-06-16T01:39:31Z</time>
      </trkpt>
      <trkpt lat="46.30871" lon="4.42157">
        <ele>558.57843017578</ele>
        <time>2020-06-16T01:39:53Z</time>
      </trkpt>
      <trkpt lat="46.30888" lon="4.42139">
        <ele>557.92102050781</ele>
        <time>2020-06-16T01:40:15Z</time>
      </trkpt>
      <trkpt lat="46.30911" lon="4.42074">
        <ele>556.224609375</ele>
        <time>2020-06-16T01:40:37Z</time>
      </trkpt>
      <trkpt lat="46.30942" lon="4.41903">
        <ele>547.37341308594</ele>
        <time>2020-06-16T01:40:59Z</time>
      </trkpt>
      <trkpt lat="46.30972" lon="4.41833">
        <ele>544.36730957031</ele>
        <time>2020-06-16T01:41:21Z</time>
      </trkpt>
      <trkpt lat="46.30984" lon="4.41789">
        <ele>543.64794921875</ele>
        <time>2020-06-16T01:41:44Z</time>
      </trkpt>
      <trkpt lat="46.30979" lon="4.41747">
        <ele>542.50744628906</ele>
        <time>2020-06-16T01:42:06Z</time>
      </trkpt>
      <trkpt lat="46.30948" lon="4.41637">
        <ele>539.34490966797</ele>
        <time>2020-06-16T01:42:28Z</time>
      </trkpt>
      <trkpt lat="46.30941" lon="4.4158">
        <ele>536.47808837891</ele>
        <time>2020-06-16T01:42:50Z</time>
      </trkpt>
      <trkpt lat="46.30945" lon="4.41471">
        <ele>529.50109863281</ele>
        <time>2020-06-16T01:43:13Z</time>
      </trkpt>
      <trkpt lat="46.30952" lon="4.41442">
        <ele>527.64508056641</ele>
        <time>2020-06-16T01:43:35Z</time>
      </trkpt>
      <trkpt lat="46.30969" lon="4.41412">
        <ele>525.99780273438</ele>
        <time>2020-06-16T01:43:57Z</time>
      </trkpt>
      <trkpt lat="46.30987" lon="4.41397">
        <ele>525.51147460938</ele>
        <time>2020-06-16T01:44:19Z</time>
      </trkpt>
      <trkpt lat="46.31005" lon="4.41397">
        <ele>525.07550048828</ele>
        <time>2020-06-16T01:44:41Z</time>
      </trkpt>
      <trkpt lat="46.31041" lon="4.41426">
        <ele>526.64630126953</ele>
        <time>2020-06-16T01:45:04Z</time>
      </trkpt>
      <trkpt lat="46.31059" lon="4.41434">
        <ele>526.59051513672</ele>
        <time>2020-06-16T01:45:26Z</time>
      </trkpt>
      <trkpt lat="46.31082" lon="4.4143">
        <ele>525.37896728516</ele>
        <time>2020-06-16T01:45:48Z</time>
      </trkpt>
      <trkpt lat="46.31118" lon="4.41409">
        <ele>521.36315917969</ele>
        <time>2020-06-16T01:46:10Z</time>
      </trkpt>
      <trkpt lat="46.31149" lon="4.41408">
        <ele>518.25714111328</ele>
        <time>2020-06-16T01:46:33Z</time>
      </trkpt>
      <trkpt lat="46.31169" lon="4.41418">
        <ele>516.33905029297</ele>
        <time>2020-06-16T01:46:55Z</time>
      </trkpt>
      <trkpt lat="46.31217" lon="4.4148">
        <ele>518.52581787109</ele>
        <time>2020-06-16T01:47:17Z</time>
      </trkpt>
      <trkpt lat="46.31236" lon="4.41483">
        <ele>516.54144287109</ele>
        <time>2020-06-16T01:47:40Z</time>
      </trkpt>
      <trkpt lat="46.3128" lon="4.41448">
        <ele>510.50079345703</ele>
        <time>2020-06-16T01:48:02Z</time>
      </trkpt>
      <trkpt lat="46.31346" lon="4.41407">
        <ele>507.76153564453</ele>
        <time>2020-06-16T01:48:24Z</time>
      </trkpt>
      <trkpt lat="46.31383" lon="4.41325">
        <ele>497.99432373047</ele>
        <time>2020-06-16T01:48:46Z</time>
      </trkpt>
      <trkpt lat="46.31401" lon="4.41311">
        <ele>496.3938293457</ele>
        <time>2020-06-16T01:49:09Z</time>
      </trkpt>
      <trkpt lat="46.31421" lon="4.41314">
        <ele>496.25708007812</ele>
        <time>2020-06-16T01:49:31Z</time>
      </trkpt>
      <trkpt lat="46.3146" lon="4.41345">
        <ele>499.02374267578</ele>
        <time>2020-06-16T01:49:53Z</time>
      </trkpt>
      <trkpt lat="46.3148" lon="4.41354">
        <ele>499.34985351562</ele>
        <time>2020-06-16T01:50:16Z</time>
      </trkpt>
      <trkpt lat="46.31544" lon="4.41353">
        <ele>496.89855957031</ele>
        <time>2020-06-16T01:50:38Z</time>
      </trkpt>
      <trkpt lat="46.31582" lon="4.41327">
        <ele>492.63732910156</ele>
        <time>2020-06-16T01:51:00Z</time>
      </trkpt>
      <trkpt lat="46.31712" lon="4.41213">
        <ele>484.10845947266</ele>
        <time>2020-06-16T01:51:23Z</time>
      </trkpt>
      <trkpt lat="46.31727" lon="4.41187">
        <ele>484.26202392578</ele>
        <time>2020-06-16T01:51:45Z</time>
      </trkpt>
      <trkpt lat="46.31751" lon="4.41117">
        <ele>481.53161621094</ele>
        <time>2020-06-16T01:52:08Z</time>
      </trkpt>
      <trkpt lat="46.31829" lon="4.40978">
        <ele>479.51797485352</ele>
        <time>2020-06-16T01:52:30Z</time>
      </trkpt>
      <trkpt lat="46.31844" lon="4.4094">
        <ele>476.43264770508</ele>
        <time>2020-06-16T01:52:52Z</time>
      </trkpt>
      <trkpt lat="46.31852" lon="4.40901">
        <ele>475.84106445312</ele>
        <time>2020-06-16T01:53:15Z</time>
      </trkpt>
      <trkpt lat="46.3185" lon="4.40827">
        <ele>475.03527832031</ele>
        <time>2020-06-16T01:53:37Z</time>
      </trkpt>
      <trkpt lat="46.31862" lon="4.40757">
        <ele>473.97216796875</ele>
        <time>2020-06-16T01:54:00Z</time>
      </trkpt>
      <trkpt lat="46.32099" lon="4.39679">
        <ele>466.98260498047</ele>
        <time>2020-06-16T01:54:22Z</time>
      </trkpt>
      <trkpt lat="46.32226" lon="4.39067">
        <ele>456.58129882812</ele>
        <time>2020-06-16T01:54:45Z</time>
      </trkpt>
      <trkpt lat="46.32345" lon="4.38537">
        <ele>448.89886474609</ele>
        <time>2020-06-16T01:55:08Z</time>
      </trkpt>
      <trkpt lat="46.32385" lon="4.38334">
        <ele>454.85299682617</ele>
        <time>2020-06-16T01:55:30Z</time>
      </trkpt>
      <trkpt lat="46.32411" lon="4.38213">
        <ele>460.33245849609</ele>
        <time>2020-06-16T01:55:53Z</time>
      </trkpt>
      <trkpt lat="46.32425" lon="4.38174">
        <ele>463.88946533203</ele>
        <time>2020-06-16T01:56:16Z</time>
      </trkpt>
      <trkpt lat="46.32436" lon="4.38093">
        <ele>467.03741455078</ele>
        <time>2020-06-16T01:56:38Z</time>
      </trkpt>
      <trkpt lat="46.32427" lon="4.37858">
        <ele>464.43795776367</ele>
        <time>2020-06-16T01:57:01Z</time>
      </trkpt>
      <trkpt lat="46.32406" lon="4.37751">
        <ele>464.79824829102</ele>
        <time>2020-06-16T01:57:24Z</time>
      </trkpt>
      <trkpt lat="46.32406" lon="4.3777">
        <ele>464.77471923828</ele>
        <time>2020-06-16T01:57:47Z</time>
      </trkpt>
      <trkpt lat="46.32378" lon="4.37831">
        <ele>464.62548828125</ele>
        <time>2020-06-16T01:58:10Z</time>
      </trkpt>
      <trkpt lat="46.32275" lon="4.37907">
        <ele>464.93658447266</ele>
        <time>2020-06-16T01:58:32Z</time>
      </trkpt>
      <trkpt lat="46.32254" lon="4.37941">
        <ele>464.61987304688</ele>
        <time>2020-06-16T01:58:55Z</time>
      </trkpt>
      <trkpt lat="46.32142" lon="4.38257">
        <ele>454.47607421875</ele>
        <time>2020-06-16T01:59:18Z</time>
      </trkpt>
      <trkpt lat="46.31924" lon="4.38708">
        <ele>437.55718994141</ele>
        <time>2020-06-16T01:59:41Z</time>
      </trkpt>
      <trkpt lat="46.31893" lon="4.38844">
        <ele>441.12655639648</ele>
        <time>2020-06-16T02:00:04Z</time>
      </trkpt>
      <trkpt lat="46.31856" lon="4.38955">
        <ele>445.03805541992</ele>
        <time>2020-06-16T02:00:27Z</time>
      </trkpt>
      <trkpt lat="46.31837" lon="4.38973">
        <ele>443.80081176758</ele>
        <time>2020-06-16T02:00:50Z</time>
      </trkpt>
      <trkpt lat="46.31816" lon="4.38983">
        <ele>439.93524169922</ele>
        <time>2020-06-16T02:01:13Z</time>
      </trkpt>
      <trkpt lat="46.31767" lon="4.38989">
        <ele>439.32928466797</ele>
        <time>2020-06-16T02:01:36Z</time>
      </trkpt>
      <trkpt lat="46.31747" lon="4.38984">
        <ele>438.74780273438</ele>
        <time>2020-06-16T02:01:59Z</time>
      </trkpt>
      <trkpt lat="46.31727" lon="4.38965">
        <ele>438.93862915039</ele>
        <time>2020-06-16T02:02:22Z</time>
      </trkpt>
      <trkpt lat="46.31696" lon="4.3889">
        <ele>443.24499511719</ele>
        <time>2020-06-16T02:02:45Z</time>
      </trkpt>
      <trkpt lat="46.3168" lon="4.38862">
        <ele>445.19717407227</ele>
        <time>2020-06-16T02:03:08Z</time>
      </trkpt>
      <trkpt lat="46.31663" lon="4.38846">
        <ele>446.2301940918</ele>
        <time>2020-06-16T02:03:31Z</time>
      </trkpt>
      <trkpt lat="46.3164" lon="4.38836">
        <ele>446.69125366211</ele>
        <time>2020-06-16T02:03:54Z</time>
      </trkpt>
      <trkpt lat="46.31581" lon="4.38836">
        <ele>444.91152954102</ele>
        <time>2020-06-16T02:04:17Z</time>
      </trkpt>
      <trkpt lat="46.3148" lon="4.38847">
        <ele>448.74481201172</ele>
        <time>2020-06-16T02:04:40Z</time>
      </trkpt>
      <trkpt lat="46.31444" lon="4.38863">
        <ele>449.43240356445</ele>
        <time>2020-06-16T02:05:03Z</time>
      </trkpt>
      <trkpt lat="46.31424" lon="4.38883">
        <ele>451.10223388672</ele>
        <time>2020-06-16T02:05:26Z</time>
      </trkpt>
      <trkpt lat="46.31238" lon="4.39264">
        <ele>460.42330932617</ele>
        <time>2020-06-16T02:05:49Z</time>
      </trkpt>
      <trkpt lat="46.31211" lon="4.39297">
        <ele>460.59283447266</ele>
        <time>2020-06-16T02:06:12Z</time>
      </trkpt>
      <trkpt lat="46.31125" lon="4.39352">
        <ele>458.34262084961</ele>
        <time>2020-06-16T02:06:35Z</time>
      </trkpt>
      <trkpt lat="46.31103" lon="4.39387">
        <ele>458.89508056641</ele>
        <time>2020-06-16T02:06:58Z</time>
      </trkpt>
      <trkpt lat="46.31016" lon="4.39655">
        <ele>465.47750854492</ele>
        <time>2020-06-16T02:07:22Z</time>
      </trkpt>
      <trkpt lat="46.30965" lon="4.39752">
        <ele>466.82327270508</ele>
        <time>2020-06-16T02:07:45Z</time>
      </trkpt>
      <trkpt lat="46.3092" lon="4.39883">
        <ele>467.60534667969</ele>
        <time>2020-06-16T02:08:08Z</time>
      </trkpt>
      <trkpt lat="46.30903" lon="4.40019">
        <ele>466.59036254883</ele>
        <time>2020-06-16T02:08:31Z</time>
      </trkpt>
      <trkpt lat="46.30842" lon="4.40186">
        <ele>465.79769897461</ele>
        <time>2020-06-16T02:08:54Z</time>
      </trkpt>
      <trkpt lat="46.30825" lon="4.40361">
        <ele>466.81369018555</ele>
        <time>2020-06-16T02:09:18Z</time>
      </trkpt>
      <trkpt lat="46.30811" lon="4.40401">
        <ele>465.48910522461</ele>
        <time>2020-06-16T02:09:41Z</time>
      </trkpt>
      <trkpt lat="46.30727" lon="4.40518">
        <ele>466.55581665039</ele>
        <time>2020-06-16T02:10:04Z</time>
      </trkpt>
      <trkpt lat="46.30698" lon="4.40547">
        <ele>467.18197631836</ele>
        <time>2020-06-16T02:10:27Z</time>
      </trkpt>
      <trkpt lat="46.30657" lon="4.40558">
        <ele>467.69122314453</ele>
        <time>2020-06-16T02:10:51Z</time>
      </trkpt>
      <trkpt lat="46.30623" lon="4.40553">
        <ele>468.638671875</ele>
        <time>2020-06-16T02:11:14Z</time>
      </trkpt>
      <trkpt lat="46.30543" lon="4.40557">
        <ele>471.73080444336</ele>
        <time>2020-06-16T02:11:37Z</time>
      </trkpt>
      <trkpt lat="46.30516" lon="4.40568">
        <ele>472.75305175781</ele>
        <time>2020-06-16T02:12:01Z</time>
      </trkpt>
      <trkpt lat="46.30479" lon="4.40599">
        <ele>475.03305053711</ele>
        <time>2020-06-16T02:12:24Z</time>
      </trkpt>
      <trkpt lat="46.30456" lon="4.40632">
        <ele>475.24523925781</ele>
        <time>2020-06-16T02:12:47Z</time>
      </trkpt>
      <trkpt lat="46.30371" lon="4.40787">
        <ele>478.18096923828</ele>
        <time>2020-06-16T02:13:11Z</time>
      </trkpt>
      <trkpt lat="46.30353" lon="4.40839">
        <ele>478.59979248047</ele>
        <time>2020-06-16T02:13:34Z</time>
      </trkpt>
      <trkpt lat="46.30339" lon="4.40921">
        <ele>479.21621704102</ele>
        <time>2020-06-16T02:13:57Z</time>
      </trkpt>
      <trkpt lat="46.3033" lon="4.40941">
        <ele>478.88275146484</ele>
        <time>2020-06-16T02:14:21Z</time>
      </trkpt>
      <trkpt lat="46.30306" lon="4.40967">
        <ele>479.06396484375</ele>
        <time>2020-06-16T02:14:44Z</time>
      </trkpt>
      <trkpt lat="46.30185" lon="4.41073">
        <ele>482.32962036133</ele>
        <time>2020-06-16T02:15:07Z</time>
      </trkpt>
      <trkpt lat="46.30166" lon="4.41106">
        <ele>481.79852294922</ele>
        <time>2020-06-16T02:15:31Z</time>
      </trkpt>
      <trkpt lat="46.30147" lon="4.41163">
        <ele>483.30950927734</ele>
        <time>2020-06-16T02:15:54Z</time>
      </trkpt>
      <trkpt lat="46.30129" lon="4.41191">
        <ele>485.33520507812</ele>
        <time>2020-06-16T02:16:18Z</time>
      </trkpt>
      <trkpt lat="46.30098" lon="4.41219">
        <ele>487.90090942383</ele>
        <time>2020-06-16T02:16:41Z</time>
      </trkpt>
      <trkpt lat="46.30031" lon="4.41257">
        <ele>493.70138549805</ele>
        <time>2020-06-16T02:17:04Z</time>
      </trkpt>
      <trkpt lat="46.30004" lon="4.41283">
        <ele>491.6217956543</ele>
        <time>2020-06-16T02:17:28Z</time>
      </trkpt>
      <trkpt lat="46.29981" lon="4.41319">
        <ele>493.86895751953</ele>
        <time>2020-06-16T02:17:51Z</time>
      </trkpt>
      <trkpt lat="46.29945" lon="4.41399">
        <ele>499.54595947266</ele>
        <time>2020-06-16T02:18:15Z</time>
      </trkpt>
      <trkpt lat="46.29919" lon="4.4144">
        <ele>502.16772460938</ele>
        <time>2020-06-16T02:18:38Z</time>
      </trkpt>
      <trkpt lat="46.29888" lon="4.4146">
        <ele>502.25411987305</ele>
        <time>2020-06-16T02:19:02Z</time>
      </trkpt>
      <trkpt lat="46.29837" lon="4.41483">
        <ele>504.06494140625</ele>
        <time>2020-06-16T02:19:25Z</time>
      </trkpt>
      <trkpt lat="46.29667" lon="4.41497">
        <ele>514.95703125</ele>
        <time>2020-06-16T02:19:49Z</time>
      </trkpt>
      <trkpt lat="46.29607" lon="4.41515">
        <ele>514.92346191406</ele>
        <time>2020-06-16T02:20:12Z</time>
      </trkpt>
      <trkpt lat="46.29557" lon="4.41554">
        <ele>515.50347900391</ele>
        <time>2020-06-16T02:20:36Z</time>
      </trkpt>
      <trkpt lat="46.29495" lon="4.41635">
        <ele>517.75939941406</ele>
        <time>2020-06-16T02:20:59Z</time>
      </trkpt>
      <trkpt lat="46.29459" lon="4.41656">
        <ele>518.65869140625</ele>
        <time>2020-06-16T02:21:23Z</time>
      </trkpt>
      <trkpt lat="46.29418" lon="4.4166">
        <ele>517.68859863281</ele>
        <time>2020-06-16T02:21:46Z</time>
      </trkpt>
      <trkpt lat="46.29327" lon="4.41642">
        <ele>520.44299316406</ele>
        <time>2020-06-16T02:22:10Z</time>
      </trkpt>
      <trkpt lat="46.2922" lon="4.4163">
        <ele>525.30749511719</ele>
        <time>2020-06-16T02:22:33Z</time>
      </trkpt>
      <trkpt lat="46.29146" lon="4.41629">
        <ele>523.12530517578</ele>
        <time>2020-06-16T02:22:57Z</time>
      </trkpt>
      <trkpt lat="46.29127" lon="4.41632">
        <ele>522.52789306641</ele>
        <time>2020-06-16T02:23:20Z</time>
      </trkpt>
      <trkpt lat="46.29111" lon="4.41643">
        <ele>522.60717773438</ele>
        <time>2020-06-16T02:23:44Z</time>
      </trkpt>
      <trkpt lat="46.29099" lon="4.41663">
        <ele>523.11401367188</ele>
        <time>2020-06-16T02:24:08Z</time>
      </trkpt>
      <trkpt lat="46.2909" lon="4.41748">
        <ele>526.09020996094</ele>
        <time>2020-06-16T02:24:31Z</time>
      </trkpt>
      <trkpt lat="46.29083" lon="4.41766">
        <ele>524.70642089844</ele>
        <time>2020-06-16T02:24:55Z</time>
      </trkpt>
      <trkpt lat="46.29065" lon="4.41784">
        <ele>521.45941162109</ele>
        <time>2020-06-16T02:25:18Z</time>
      </trkpt>
      <trkpt lat="46.2899" lon="4.41797">
        <ele>516.90460205078</ele>
        <time>2020-06-16T02:25:42Z</time>
      </trkpt>
      <trkpt lat="46.28905" lon="4.4184">
        <ele>519.68249511719</ele>
        <time>2020-06-16T02:26:06Z</time>
      </trkpt>
      <trkpt lat="46.28887" lon="4.4184">
        <ele>518.88586425781</ele>
        <time>2020-06-16T02:26:29Z</time>
      </trkpt>
      <trkpt lat="46.28827" lon="4.41824">
        <ele>513.19293212891</ele>
        <time>2020-06-16T02:26:53Z</time>
      </trkpt>
      <trkpt lat="46.28801" lon="4.41823">
        <ele>512.36340332031</ele>
        <time>2020-06-16T02:27:17Z</time>
      </trkpt>
      <trkpt lat="46.2877" lon="4.41829">
        <ele>512.44189453125</ele>
        <time>2020-06-16T02:27:40Z</time>
      </trkpt>
      <trkpt lat="46.28623" lon="4.41928">
        <ele>507.04925537109</ele>
        <time>2020-06-16T02:28:04Z</time>
      </trkpt>
      <trkpt lat="46.28541" lon="4.4202">
        <ele>504.76919555664</ele>
        <time>2020-06-16T02:28:28Z</time>
      </trkpt>
      <trkpt lat="46.2842" lon="4.42083">
        <ele>497.13763427734</ele>
        <time>2020-06-16T02:28:51Z</time>
      </trkpt>
      <trkpt lat="46.2839" lon="4.42083">
        <ele>495.41799926758</ele>
        <time>2020-06-16T02:29:15Z</time>
      </trkpt>
      <trkpt lat="46.28334" lon="4.42054">
        <ele>491.61047363281</ele>
        <time>2020-06-16T02:29:39Z</time>
      </trkpt>
      <trkpt lat="46.28295" lon="4.42045">
        <ele>490.02563476562</ele>
        <time>2020-06-16T02:30:03Z</time>
      </trkpt>
      <trkpt lat="46.2819" lon="4.4204">
        <ele>486.00506591797</ele>
        <time>2020-06-16T02:30:26Z</time>
      </trkpt>
      <trkpt lat="46.28171" lon="4.42045">
        <ele>485.74884033203</ele>
        <time>2020-06-16T02:30:50Z</time>
      </trkpt>
      <trkpt lat="46.28154" lon="4.42057">
        <ele>486.3381652832</ele>
        <time>2020-06-16T02:31:14Z</time>
      </trkpt>
      <trkpt lat="46.28127" lon="4.42094">
        <ele>487.92156982422</ele>
        <time>2020-06-16T02:31:38Z</time>
      </trkpt>
      <trkpt lat="46.28109" lon="4.42146">
        <ele>488.69842529297</ele>
        <time>2020-06-16T02:32:01Z</time>
      </trkpt>
      <trkpt lat="46.2809" lon="4.42247">
        <ele>488.03414916992</ele>
        <time>2020-06-16T02:32:25Z</time>
      </trkpt>
      <trkpt lat="46.28087" lon="4.42295">
        <ele>486.931640625</ele>
        <time>2020-06-16T02:32:49Z</time>
      </trkpt>
      <trkpt lat="46.28093" lon="4.42344">
        <ele>486.61996459961</ele>
        <time>2020-06-16T02:33:13Z</time>
      </trkpt>
      <trkpt lat="46.28102" lon="4.42374">
        <ele>486.63046264648</ele>
        <time>2020-06-16T02:33:37Z</time>
      </trkpt>
      <trkpt lat="46.28116" lon="4.424">
        <ele>485.43511962891</ele>
        <time>2020-06-16T02:34:01Z</time>
      </trkpt>
      <trkpt lat="46.28166" lon="4.42467">
        <ele>484.6467590332</ele>
        <time>2020-06-16T02:34:24Z</time>
      </trkpt>
      <trkpt lat="46.28179" lon="4.42495">
        <ele>483.00314331055</ele>
        <time>2020-06-16T02:34:48Z</time>
      </trkpt>
      <trkpt lat="46.28183" lon="4.42524">
        <ele>479.80856323242</ele>
        <time>2020-06-16T02:35:12Z</time>
      </trkpt>
      <trkpt lat="46.28178" lon="4.42589">
        <ele>475.8134765625</ele>
        <time>2020-06-16T02:35:36Z</time>
      </trkpt>
      <trkpt lat="46.28169" lon="4.42613">
        <ele>474.02380371094</ele>
        <time>2020-06-16T02:36:00Z</time>
      </trkpt>
      <trkpt lat="46.28148" lon="4.42626">
        <ele>471.28787231445</ele>
        <time>2020-06-16T02:36:24Z</time>
      </trkpt>
      <trkpt lat="46.28138" lon="4.42628">
        <ele>470.24868774414</ele>
        <time>2020-06-16T02:36:47Z</time>
      </trkpt>
      <trkpt lat="46.28097" lon="4.42609">
        <ele>465.6884765625</ele>
        <time>2020-06-16T02:37:11Z</time>
      </trkpt>
      <trkpt lat="46.28075" lon="4.42605">
        <ele>463.38198852539</ele>
        <time>2020-06-16T02:37:35Z</time>
      </trkpt>
      <trkpt lat="46.28043" lon="4.42615">
        <ele>460.82388305664</ele>
        <time>2020-06-16T02:37:59Z</time>
      </trkpt>
      <trkpt lat="46.2788" lon="4.42744">
        <ele>453.91583251953</ele>
        <time>2020-06-16T02:38:23Z</time>
      </trkpt>
      <trkpt lat="46.27847" lon="4.42786">
        <ele>451.68475341797</ele>
        <time>2020-06-16T02:38:47Z</time>
      </trkpt>
      <trkpt lat="46.27832" lon="4.42824">
        <ele>450.5947265625</ele>
        <time>2020-06-16T02:39:11Z</time>
      </trkpt>
      <trkpt lat="46.27817" lon="4.42889">
        <ele>450.51007080078</ele>
        <time>2020-06-16T02:39:35Z</time>
      </trkpt>
      <trkpt lat="46.27815" lon="4.42938">
        <ele>450.97198486328</ele>
        <time>2020-06-16T02:39:58Z</time>
      </trkpt>
      <trkpt lat="46.27821" lon="4.43002">
        <ele>449.37786865234</ele>
        <time>2020-06-16T02:40:22Z</time>
      </trkpt>
      <trkpt lat="46.27834" lon="4.43047">
        <ele>447.52426147461</ele>
        <time>2020-06-16T02:40:46Z</time>
      </trkpt>
      <trkpt lat="46.27847" lon="4.43072">
        <ele>445.90798950195</ele>
        <time>2020-06-16T02:41:10Z</time>
      </trkpt>
      <trkpt lat="46.27927" lon="4.43176">
        <ele>441.12057495117</ele>
        <time>2020-06-16T02:41:34Z</time>
      </trkpt>
      <trkpt lat="46.27937" lon="4.43202">
        <ele>439.89196777344</ele>
        <time>2020-06-16T02:41:58Z</time>
      </trkpt>
      <trkpt lat="46.27938" lon="4.4323">
        <ele>439.25576782227</ele>
        <time>2020-06-16T02:42:22Z</time>
      </trkpt>
      <trkpt lat="46.27929" lon="4.43266">
        <ele>438.57870483398</ele>
        <time>2020-06-16T02:42:46Z</time>
      </trkpt>
      <trkpt lat="46.27913" lon="4.43295">
        <ele>439.08996582031</ele>
        <time>2020-06-16T02:43:10Z</time>
      </trkpt>
      <trkpt lat="46.27844" lon="4.43378">
        <ele>443.63580322266</ele>
        <time>2020-06-16T02:43:34Z</time>
      </trkpt>
      <trkpt lat="46.27803" lon="4.43412">
        <ele>447.8037109375</ele>
        <time>2020-06-16T02:43:58Z</time>
      </trkpt>
      <trkpt lat="46.27782" lon="4.4342">
        <ele>449.31939697266</ele>
        <time>2020-06-16T02:44:22Z</time>
      </trkpt>
      <trkpt lat="46.27748" lon="4.43424">
        <ele>450.48828125</ele>
        <time>2020-06-16T02:44:46Z</time>
      </trkpt>
      <trkpt lat="46.27715" lon="4.43398">
        <ele>448.52618408203</ele>
        <time>2020-06-16T02:45:10Z</time>
      </trkpt>
      <trkpt lat="46.27709" lon="4.43363">
        <ele>445.62185668945</ele>
        <time>2020-06-16T02:45:34Z</time>
      </trkpt>
      <trkpt lat="46.2768" lon="4.43324">
        <ele>443.41314697266</ele>
        <time>2020-06-16T02:45:58Z</time>
      </trkpt>
      <trkpt lat="46.27638" lon="4.43239">
        <ele>438.00527954102</ele>
        <time>2020-06-16T02:46:22Z</time>
      </trkpt>
      <trkpt lat="46.27547" lon="4.43164">
        <ele>437.12268066406</ele>
        <time>2020-06-16T02:46:46Z</time>
      </trkpt>
      <trkpt lat="46.27494" lon="4.4303">
        <ele>437.72882080078</ele>
        <time>2020-06-16T02:47:10Z</time>
      </trkpt>
      <trkpt lat="46.27421" lon="4.42891">
        <ele>437.43948364258</ele>
        <time>2020-06-16T02:47:34Z</time>
      </trkpt>
      <trkpt lat="46.27406" lon="4.42819">
        <ele>436.40124511719</ele>
        <time>2020-06-16T02:47:58Z</time>
      </trkpt>
      <trkpt lat="46.27351" lon="4.42406">
        <ele>431.77255249023</ele>
        <time>2020-06-16T02:48:23Z</time>
      </trkpt>
      <trkpt lat="46.27345" lon="4.42274">
        <ele>432.80078125</ele>
        <time>2020-06-16T02:48:47Z</time>
      </trkpt>
      <trkpt lat="46.27374" lon="4.42046">
        <ele>429.10971069336</ele>
        <time>2020-06-16T02:49:11Z</time>
      </trkpt>
      <trkpt lat="46.27433" lon="4.41079">
        <ele>427.42297363281</ele>
        <time>2020-06-16T02:49:35Z</time>
      </trkpt>
      <trkpt lat="46.2745" lon="4.41009">
        <ele>430.87158203125</ele>
        <time>2020-06-16T02:50:00Z</time>
      </trkpt>
      <trkpt lat="46.27515" lon="4.40874">
        <ele>431.09237670898</ele>
        <time>2020-06-16T02:50:24Z</time>
      </trkpt>
      <trkpt lat="46.27534" lon="4.40824">
        <ele>427.89044189453</ele>
        <time>2020-06-16T02:50:48Z</time>
      </trkpt>
      <trkpt lat="46.27539" lon="4.40789">
        <ele>425.14379882812</ele>
        <time>2020-06-16T02:51:13Z</time>
      </trkpt>
      <trkpt lat="46.27533" lon="4.40711">
        <ele>422.08782958984</ele>
        <time>2020-06-16T02:51:37Z</time>
      </trkpt>
      <trkpt lat="46.27524" lon="4.40676">
        <ele>419.21127319336</ele>
        <time>2020-06-16T02:52:01Z</time>
      </trkpt>
      <trkpt lat="46.27507" lon="4.40637">
        <ele>416.34411621094</ele>
        <time>2020-06-16T02:52:26Z</time>
      </trkpt>
      <trkpt lat="46.27402" lon="4.40468">
        <ele>416.11657714844</ele>
        <time>2020-06-16T02:52:50Z</time>
      </trkpt>
      <trkpt lat="46.27367" lon="4.40371">
        <ele>417.09158325195</ele>
        <time>2020-06-16T02:53:14Z</time>
      </trkpt>
      <trkpt lat="46.27349" lon="4.40337">
        <ele>416.7092590332</ele>
        <time>2020-06-16T02:53:39Z</time>
      </trkpt>
      <trkpt lat="46.27256" lon="4.40214">
        <ele>415.19305419922</ele>
        <time>2020-06-16T02:54:03Z</time>
      </trkpt>
      <trkpt lat="46.27138" lon="4.40133">
        <ele>411.86273193359</ele>
        <time>2020-06-16T02:54:28Z</time>
      </trkpt>
      <trkpt lat="46.27121" lon="4.40114">
        <ele>412.63751220703</ele>
        <time>2020-06-16T02:54:52Z</time>
      </trkpt>
      <trkpt lat="46.27101" lon="4.40082">
        <ele>412.37844848633</ele>
        <time>2020-06-16T02:55:16Z</time>
      </trkpt>
      <trkpt lat="46.27074" lon="4.40013">
        <ele>411.68884277344</ele>
        <time>2020-06-16T02:55:41Z</time>
      </trkpt>
      <trkpt lat="46.26998" lon="4.39769">
        <ele>409.19610595703</ele>
        <time>2020-06-16T02:56:05Z</time>
      </trkpt>
      <trkpt lat="46.26973" lon="4.3966">
        <ele>408.5422668457</ele>
        <time>2020-06-16T02:56:30Z</time>
      </trkpt>
      <trkpt lat="46.26953" lon="4.39595">
        <ele>408</ele>
        <time>2020-06-16T02:56:54Z</time>
      </trkpt>
      <trkpt lat="46.26953" lon="4.39579">
        <ele>408.22567749023</ele>
        <time>2020-06-16T02:57:19Z</time>
      </trkpt>
      <trkpt lat="46.26957" lon="4.39567">
        <ele>408.61907958984</ele>
        <time>2020-06-16T02:57:43Z</time>
      </trkpt>
      <trkpt lat="46.27014" lon="4.39488">
        <ele>416.20779418945</ele>
        <time>2020-06-16T02:58:08Z</time>
      </trkpt>
      <trkpt lat="46.27047" lon="4.39429">
        <ele>420.87509155273</ele>
        <time>2020-06-16T02:58:32Z</time>
      </trkpt>
      <trkpt lat="46.27086" lon="4.39336">
        <ele>416.9157409668</ele>
        <time>2020-06-16T02:58:57Z</time>
      </trkpt>
      <trkpt lat="46.27152" lon="4.39199">
        <ele>414.50512695312</ele>
        <time>2020-06-16T02:59:22Z</time>
      </trkpt>
      <trkpt lat="46.27258" lon="4.38825">
        <ele>404.08737182617</ele>
        <time>2020-06-16T02:59:46Z</time>
      </trkpt>
      <trkpt lat="46.27322" lon="4.38568">
        <ele>405.13928222656</ele>
        <time>2020-06-16T03:00:11Z</time>
      </trkpt>
      <trkpt lat="46.27351" lon="4.38">
        <ele>405.03427124023</ele>
        <time>2020-06-16T03:00:36Z</time>
      </trkpt>
      <trkpt lat="46.27348" lon="4.37947">
        <ele>408.0461730957</ele>
        <time>2020-06-16T03:01:00Z</time>
      </trkpt>
      <trkpt lat="46.27327" lon="4.37833">
        <ele>404.44107055664</ele>
        <time>2020-06-16T03:01:25Z</time>
      </trkpt>
      <trkpt lat="46.27323" lon="4.37789">
        <ele>403.5266418457</ele>
        <time>2020-06-16T03:01:50Z</time>
      </trkpt>
      <trkpt lat="46.27355" lon="4.37603">
        <ele>407.83966064453</ele>
        <time>2020-06-16T03:02:14Z</time>
      </trkpt>
      <trkpt lat="46.27353" lon="4.37558">
        <ele>406.65048217773</ele>
        <time>2020-06-16T03:02:39Z</time>
      </trkpt>
      <trkpt lat="46.27339" lon="4.37458">
        <ele>399.38806152344</ele>
        <time>2020-06-16T03:03:04Z</time>
      </trkpt>
      <trkpt lat="46.27341" lon="4.37427">
        <ele>397.43603515625</ele>
        <time>2020-06-16T03:03:29Z</time>
      </trkpt>
      <trkpt lat="46.27349" lon="4.37398">
        <ele>396.10415649414</ele>
        <time>2020-06-16T03:03:54Z</time>
      </trkpt>
      <trkpt lat="46.27368" lon="4.37365">
        <ele>393.37860107422</ele>
        <time>2020-06-16T03:04:18Z</time>
      </trkpt>
      <trkpt lat="46.274" lon="4.37339">
        <ele>392.57885742188</ele>
        <time>2020-06-16T03:04:43Z</time>
      </trkpt>
      <trkpt lat="46.27499" lon="4.37308">
        <ele>391.71002197266</ele>
        <time>2020-06-16T03:05:08Z</time>
      </trkpt>
      <trkpt lat="46.27531" lon="4.37304">
        <ele>392.07202148438</ele>
        <time>2020-06-16T03:05:33Z</time>
      </trkpt>
      <trkpt lat="46.27554" lon="4.37309">
        <ele>392.76318359375</ele>
        <time>2020-06-16T03:05:58Z</time>
      </trkpt>
      <trkpt lat="46.27583" lon="4.37323">
        <ele>392.52581787109</ele>
        <time>2020-06-16T03:06:22Z</time>
      </trkpt>
      <trkpt lat="46.2771" lon="4.37421">
        <ele>391.49230957031</ele>
        <time>2020-06-16T03:06:47Z</time>
      </trkpt>
      <trkpt lat="46.27743" lon="4.3743">
        <ele>391.67193603516</ele>
        <time>2020-06-16T03:07:12Z</time>
      </trkpt>
      <trkpt lat="46.27776" lon="4.37421">
        <ele>392.1354675293</ele>
        <time>2020-06-16T03:07:37Z</time>
      </trkpt>
      <trkpt lat="46.27804" lon="4.37393">
        <ele>390.13940429688</ele>
        <time>2020-06-16T03:08:02Z</time>
      </trkpt>
      <trkpt lat="46.27882" lon="4.37278">
        <ele>385.96420288086</ele>
        <time>2020-06-16T03:08:27Z</time>
      </trkpt>
      <trkpt lat="46.2793" lon="4.37225">
        <ele>384.12640380859</ele>
        <time>2020-06-16T03:08:52Z</time>
      </trkpt>
      <trkpt lat="46.27957" lon="4.37186">
        <ele>384.32061767578</ele>
        <time>2020-06-16T03:09:16Z</time>
      </trkpt>
      <trkpt lat="46.28031" lon="4.3706">
        <ele>387.28622436523</ele>
        <time>2020-06-16T03:09:41Z</time>
      </trkpt>
      <trkpt lat="46.28063" lon="4.36972">
        <ele>392.12847900391</ele>
        <time>2020-06-16T03:10:06Z</time>
      </trkpt>
      <trkpt lat="46.28071" lon="4.36903">
        <ele>395.85845947266</ele>
        <time>2020-06-16T03:10:31Z</time>
      </trkpt>
      <trkpt lat="46.28022" lon="4.36424">
        <ele>378.66305541992</ele>
        <time>2020-06-16T03:10:56Z</time>
      </trkpt>
      <trkpt lat="46.28026" lon="4.36337">
        <ele>377.33581542969</ele>
        <time>2020-06-16T03:11:21Z</time>
      </trkpt>
      <trkpt lat="46.2804" lon="4.36285">
        <ele>377.22592163086</ele>
        <time>2020-06-16T03:11:46Z</time>
      </trkpt>
      <trkpt lat="46.28102" lon="4.3614">
        <ele>375.53720092773</ele>
        <time>2020-06-16T03:12:11Z</time>
      </trkpt>
      <trkpt lat="46.28196" lon="4.35895">
        <ele>374.36407470703</ele>
        <time>2020-06-16T03:12:36Z</time>
      </trkpt>
      <trkpt lat="46.28336" lon="4.35508">
        <ele>379.94998168945</ele>
        <time>2020-06-16T03:13:01Z</time>
      </trkpt>
      <trkpt lat="46.28361" lon="4.35336">
        <ele>387.77261352539</ele>
        <time>2020-06-16T03:13:27Z</time>
      </trkpt>
      <trkpt lat="46.2838" lon="4.35093">
        <ele>379.30233764648</ele>
        <time>2020-06-16T03:13:52Z</time>
      </trkpt>
      <trkpt lat="46.28389" lon="4.35048">
        <ele>374.66864013672</ele>
        <time>2020-06-16T03:14:17Z</time>
      </trkpt>
      <trkpt lat="46.28404" lon="4.35016">
        <ele>372.45892333984</ele>
        <time>2020-06-16T03:14:42Z</time>
      </trkpt>
      <trkpt lat="46.28457" lon="4.34946">
        <ele>370.42306518555</ele>
        <time>2020-06-16T03:15:07Z</time>
      </trkpt>
      <trkpt lat="46.28485" lon="4.34898">
        <ele>369.40145874023</ele>
        <time>2020-06-16T03:15:32Z</time>
      </trkpt>
      <trkpt lat="46.28563" lon="4.3473">
        <ele>368.63107299805</ele>
        <time>2020-06-16T03:15:58Z</time>
      </trkpt>
      <trkpt lat="46.28592" lon="4.34647">
        <ele>372.00119018555</ele>
        <time>2020-06-16T03:16:23Z</time>
      </trkpt>
      <trkpt lat="46.28597" lon="4.34555">
        <ele>373.67691040039</ele>
        <time>2020-06-16T03:16:48Z</time>
      </trkpt>
      <trkpt lat="46.28587" lon="4.34487">
        <ele>374.81838989258</ele>
        <time>2020-06-16T03:17:13Z</time>
      </trkpt>
      <trkpt lat="46.28552" lon="4.34397">
        <ele>375.80081176758</ele>
        <time>2020-06-16T03:17:39Z</time>
      </trkpt>
      <trkpt lat="46.28481" lon="4.34288">
        <ele>372.88491821289</ele>
        <time>2020-06-16T03:18:04Z</time>
      </trkpt>
      <trkpt lat="46.2847" lon="4.34248">
        <ele>372.48623657227</ele>
        <time>2020-06-16T03:18:29Z</time>
      </trkpt>
      <trkpt lat="46.2847" lon="4.34205">
        <ele>371.98178100586</ele>
        <time>2020-06-16T03:18:54Z</time>
      </trkpt>
      <trkpt lat="46.28482" lon="4.34165">
        <ele>370.98001098633</ele>
        <time>2020-06-16T03:19:20Z</time>
      </trkpt>
      <trkpt lat="46.28532" lon="4.3405">
        <ele>372.1611328125</ele>
        <time>2020-06-16T03:19:45Z</time>
      </trkpt>
      <trkpt lat="46.28558" lon="4.33925">
        <ele>369.42007446289</ele>
        <time>2020-06-16T03:20:10Z</time>
      </trkpt>
      <trkpt lat="46.28573" lon="4.33887">
        <ele>368.83746337891</ele>
        <time>2020-06-16T03:20:36Z</time>
      </trkpt>
      <trkpt lat="46.28632" lon="4.33801">
        <ele>367.36776733398</ele>
        <time>2020-06-16T03:21:01Z</time>
      </trkpt>
      <trkpt lat="46.28701" lon="4.33734">
        <ele>365.33218383789</ele>
        <time>2020-06-16T03:21:26Z</time>
      </trkpt>
      <trkpt lat="46.28741" lon="4.33686">
        <ele>364.11560058594</ele>
        <time>2020-06-16T03:21:52Z</time>
      </trkpt>
      <trkpt lat="46.28785" lon="4.33604">
        <ele>361.99099731445</ele>
        <time>2020-06-16T03:22:17Z</time>
      </trkpt>
      <trkpt lat="46.28803" lon="4.33555">
        <ele>361.45645141602</ele>
        <time>2020-06-16T03:22:42Z</time>
      </trkpt>
      <trkpt lat="46.2887" lon="4.33251">
        <ele>368.39495849609</ele>
        <time>2020-06-16T03:23:08Z</time>
      </trkpt>
      <trkpt lat="46.28922" lon="4.33117">
        <ele>369.88687133789</ele>
        <time>2020-06-16T03:23:33Z</time>
      </trkpt>
      <trkpt lat="46.28943" lon="4.33046">
        <ele>371.1051940918</ele>
        <time>2020-06-16T03:23:59Z</time>
      </trkpt>
      <trkpt lat="46.28951" lon="4.32998">
        <ele>372.49749755859</ele>
        <time>2020-06-16T03:24:24Z</time>
      </trkpt>
      <trkpt lat="46.28948" lon="4.32786">
        <ele>376.39779663086</ele>
        <time>2020-06-16T03:24:49Z</time>
      </trkpt>
      <trkpt lat="46.28992" lon="4.32131">
        <ele>383.30383300781</ele>
        <time>2020-06-16T03:25:15Z</time>
      </trkpt>
      <trkpt lat="46.29016" lon="4.31945">
        <ele>387.04553222656</ele>
        <time>2020-06-16T03:25:41Z</time>
      </trkpt>
      <trkpt lat="46.29035" lon="4.31899">
        <ele>386.96759033203</ele>
        <time>2020-06-16T03:26:06Z</time>
      </trkpt>
      <trkpt lat="46.29025" lon="4.31859">
        <ele>386.21075439453</ele>
        <time>2020-06-16T03:26:32Z</time>
      </trkpt>
      <trkpt lat="46.29025" lon="4.31832">
        <ele>385.91116333008</ele>
        <time>2020-06-16T03:26:57Z</time>
      </trkpt>
      <trkpt lat="46.29093" lon="4.31573">
        <ele>377.28024291992</ele>
        <time>2020-06-16T03:27:23Z</time>
      </trkpt>
      <trkpt lat="46.29095" lon="4.31523">
        <ele>377.32006835938</ele>
        <time>2020-06-16T03:27:49Z</time>
      </trkpt>
      <trkpt lat="46.29101" lon="4.31505">
        <ele>377.40362548828</ele>
        <time>2020-06-16T03:28:14Z</time>
      </trkpt>
      <trkpt lat="46.29094" lon="4.31469">
        <ele>377.89141845703</ele>
        <time>2020-06-16T03:28:40Z</time>
      </trkpt>
      <trkpt lat="46.29105" lon="4.31347">
        <ele>378.40469360352</ele>
        <time>2020-06-16T03:29:05Z</time>
      </trkpt>
      <trkpt lat="46.29122" lon="4.31183">
        <ele>378.56750488281</ele>
        <time>2020-06-16T03:29:31Z</time>
      </trkpt>
      <trkpt lat="46.29135" lon="4.31116">
        <ele>377.41723632812</ele>
        <time>2020-06-16T03:29:57Z</time>
      </trkpt>
      <trkpt lat="46.29146" lon="4.31068">
        <ele>378.25100708008</ele>
        <time>2020-06-16T03:30:22Z</time>
      </trkpt>
      <trkpt lat="46.29168" lon="4.31007">
        <ele>380.33474731445</ele>
        <time>2020-06-16T03:30:48Z</time>
      </trkpt>
      <trkpt lat="46.2926" lon="4.30809">
        <ele>379.85189819336</ele>
        <time>2020-06-16T03:31:14Z</time>
      </trkpt>
      <trkpt lat="46.29281" lon="4.30753">
        <ele>378.31442260742</ele>
        <time>2020-06-16T03:31:39Z</time>
      </trkpt>
      <trkpt lat="46.29286" lon="4.30718">
        <ele>378.39526367188</ele>
        <time>2020-06-16T03:32:05Z</time>
      </trkpt>
      <trkpt lat="46.29284" lon="4.30694">
        <ele>378.50463867188</ele>
        <time>2020-06-16T03:32:31Z</time>
      </trkpt>
      <trkpt lat="46.29259" lon="4.30602">
        <ele>374.73251342773</ele>
        <time>2020-06-16T03:32:57Z</time>
      </trkpt>
      <trkpt lat="46.29257" lon="4.30579">
        <ele>374.16268920898</ele>
        <time>2020-06-16T03:33:22Z</time>
      </trkpt>
      <trkpt lat="46.29266" lon="4.30549">
        <ele>374.0549621582</ele>
        <time>2020-06-16T03:33:48Z</time>
      </trkpt>
      <trkpt lat="46.29305" lon="4.30495">
        <ele>375.57327270508</ele>
        <time>2020-06-16T03:34:14Z</time>
      </trkpt>
      <trkpt lat="46.29317" lon="4.30468">
        <ele>375.56265258789</ele>
        <time>2020-06-16T03:34:40Z</time>
      </trkpt>
      <trkpt lat="46.2928" lon="4.30372">
        <ele>375.99035644531</ele>
        <time>2020-06-16T03:35:05Z</time>
      </trkpt>
      <trkpt lat="46.29272" lon="4.30388">
        <ele>375.42153930664</ele>
        <time>2020-06-16T03:36:48Z</time>
      </trkpt>
      <trkpt lat="46.29255" lon="4.304">
        <ele>375</ele>
        <time>2020-06-16T03:37:14Z</time>
      </trkpt>
      <trkpt lat="46.29153" lon="4.30441">
        <ele>377.71380615234</ele>
        <time>2020-06-16T03:37:40Z</time>
      </trkpt>
      <trkpt lat="46.29109" lon="4.30485">
        <ele>380.27041625977</ele>
        <time>2020-06-16T03:38:06Z</time>
      </trkpt>
      <trkpt lat="46.29099" lon="4.30488">
        <ele>380.94338989258</ele>
        <time>2020-06-16T03:38:32Z</time>
      </trkpt>
      <trkpt lat="46.29062" lon="4.30389">
        <ele>381.01278686523</ele>
        <time>2020-06-16T03:38:57Z</time>
      </trkpt>
      <trkpt lat="46.28991" lon="4.30269">
        <ele>376.81976318359</ele>
        <time>2020-06-16T03:39:23Z</time>
      </trkpt>
      <trkpt lat="46.28819" lon="4.30061">
        <ele>366.63754272461</ele>
        <time>2020-06-16T03:39:49Z</time>
      </trkpt>
      <trkpt lat="46.28689" lon="4.29895">
        <ele>367.51248168945</ele>
        <time>2020-06-16T03:40:15Z</time>
      </trkpt>
      <trkpt lat="46.28666" lon="4.29873">
        <ele>367.2301940918</ele>
        <time>2020-06-16T03:40:41Z</time>
      </trkpt>
      <trkpt lat="46.28641" lon="4.29872">
        <ele>367.03674316406</ele>
        <time>2020-06-16T03:41:07Z</time>
      </trkpt>
      <trkpt lat="46.28445" lon="4.2991">
        <ele>366.71731567383</ele>
        <time>2020-06-16T03:41:33Z</time>
      </trkpt>
      <trkpt lat="46.28417" lon="4.29899">
        <ele>368.5641784668</ele>
        <time>2020-06-16T03:41:59Z</time>
      </trkpt>
      <trkpt lat="46.28368" lon="4.29843">
        <ele>372.02029418945</ele>
        <time>2020-06-16T03:42:25Z</time>
      </trkpt>
      <trkpt lat="46.28348" lon="4.29842">
        <ele>372.33636474609</ele>
        <time>2020-06-16T03:42:51Z</time>
      </trkpt>
      <trkpt lat="46.283" lon="4.29852">
        <ele>371.62271118164</ele>
        <time>2020-06-16T03:43:17Z</time>
      </trkpt>
      <trkpt lat="46.2825" lon="4.29848">
        <ele>370.41171264648</ele>
        <time>2020-06-16T03:43:43Z</time>
      </trkpt>
      <trkpt lat="46.28156" lon="4.29882">
        <ele>368.87789916992</ele>
        <time>2020-06-16T03:44:09Z</time>
      </trkpt>
      <trkpt lat="46.28009" lon="4.29984">
        <ele>373.15707397461</ele>
        <time>2020-06-16T03:44:35Z</time>
      </trkpt>
      <trkpt lat="46.27984" lon="4.29998">
        <ele>368.16213989258</ele>
        <time>2020-06-16T03:45:01Z</time>
      </trkpt>
      <trkpt lat="46.27964" lon="4.30002">
        <ele>366.11856079102</ele>
        <time>2020-06-16T03:45:27Z</time>
      </trkpt>
      <trkpt lat="46.27928" lon="4.29994">
        <ele>365.73815917969</ele>
        <time>2020-06-16T03:45:53Z</time>
      </trkpt>
      <trkpt lat="46.27878" lon="4.29952">
        <ele>366.62606811523</ele>
        <time>2020-06-16T03:46:19Z</time>
      </trkpt>
      <trkpt lat="46.2786" lon="4.29945">
        <ele>366.29626464844</ele>
        <time>2020-06-16T03:46:45Z</time>
      </trkpt>
      <trkpt lat="46.27841" lon="4.29947">
        <ele>364.7336730957</ele>
        <time>2020-06-16T03:47:11Z</time>
      </trkpt>
      <trkpt lat="46.27797" lon="4.29973">
        <ele>362.09634399414</ele>
        <time>2020-06-16T03:47:37Z</time>
      </trkpt>
      <trkpt lat="46.27778" lon="4.29979">
        <ele>360.40905761719</ele>
        <time>2020-06-16T03:48:03Z</time>
      </trkpt>
      <trkpt lat="46.27671" lon="4.29979">
        <ele>347.04681396484</ele>
        <time>2020-06-16T03:48:29Z</time>
      </trkpt>
      <trkpt lat="46.27633" lon="4.29966">
        <ele>346.10766601562</ele>
        <time>2020-06-16T03:48:55Z</time>
      </trkpt>
      <trkpt lat="46.27607" lon="4.29938">
        <ele>347.38491821289</ele>
        <time>2020-06-16T03:49:22Z</time>
      </trkpt>
      <trkpt lat="46.27571" lon="4.29863">
        <ele>343.6240234375</ele>
        <time>2020-06-16T03:49:48Z</time>
      </trkpt>
      <trkpt lat="46.27511" lon="4.29816">
        <ele>346.79525756836</ele>
        <time>2020-06-16T03:50:14Z</time>
      </trkpt>
      <trkpt lat="46.27495" lon="4.29787">
        <ele>347.43200683594</ele>
        <time>2020-06-16T03:50:40Z</time>
      </trkpt>
      <trkpt lat="46.27492" lon="4.29739">
        <ele>348.89208984375</ele>
        <time>2020-06-16T03:51:06Z</time>
      </trkpt>
      <trkpt lat="46.2752" lon="4.29616">
        <ele>343.08197021484</ele>
        <time>2020-06-16T03:51:32Z</time>
      </trkpt>
      <trkpt lat="46.27518" lon="4.29579">
        <ele>341.67428588867</ele>
        <time>2020-06-16T03:51:58Z</time>
      </trkpt>
      <trkpt lat="46.27506" lon="4.29553">
        <ele>342.15029907227</ele>
        <time>2020-06-16T03:52:25Z</time>
      </trkpt>
      <trkpt lat="46.27492" lon="4.29538">
        <ele>342.9333190918</ele>
        <time>2020-06-16T03:52:51Z</time>
      </trkpt>
      <trkpt lat="46.27456" lon="4.29514">
        <ele>342.70965576172</ele>
        <time>2020-06-16T03:53:17Z</time>
      </trkpt>
      <trkpt lat="46.27299" lon="4.29426">
        <ele>340.92031860352</ele>
        <time>2020-06-16T03:53:43Z</time>
      </trkpt>
      <trkpt lat="46.27273" lon="4.29404">
        <ele>340.97631835938</ele>
        <time>2020-06-16T03:54:09Z</time>
      </trkpt>
      <trkpt lat="46.27251" lon="4.29374">
        <ele>340.87243652344</ele>
        <time>2020-06-16T03:54:36Z</time>
      </trkpt>
      <trkpt lat="46.27222" lon="4.29309">
        <ele>341.0849609375</ele>
        <time>2020-06-16T03:55:02Z</time>
      </trkpt>
      <trkpt lat="46.27187" lon="4.29204">
        <ele>341.72912597656</ele>
        <time>2020-06-16T03:55:28Z</time>
      </trkpt>
      <trkpt lat="46.27163" lon="4.29177">
        <ele>343.08853149414</ele>
        <time>2020-06-16T03:55:54Z</time>
      </trkpt>
      <trkpt lat="46.27143" lon="4.29169">
        <ele>343.17254638672</ele>
        <time>2020-06-16T03:56:20Z</time>
      </trkpt>
      <trkpt lat="46.27012" lon="4.29169">
        <ele>338.09661865234</ele>
        <time>2020-06-16T03:56:47Z</time>
      </trkpt>
      <trkpt lat="46.26969" lon="4.29161">
        <ele>337.04641723633</ele>
        <time>2020-06-16T03:57:13Z</time>
      </trkpt>
      <trkpt lat="46.26938" lon="4.29134">
        <ele>336.25616455078</ele>
        <time>2020-06-16T03:57:39Z</time>
      </trkpt>
      <trkpt lat="46.26842" lon="4.2901">
        <ele>333.1780090332</ele>
        <time>2020-06-16T03:58:06Z</time>
      </trkpt>
      <trkpt lat="46.26823" lon="4.28993">
        <ele>333.00415039062</ele>
        <time>2020-06-16T03:58:32Z</time>
      </trkpt>
      <trkpt lat="46.26799" lon="4.28981">
        <ele>332.8244934082</ele>
        <time>2020-06-16T03:58:58Z</time>
      </trkpt>
      <trkpt lat="46.2676" lon="4.28973">
        <ele>332.63000488281</ele>
        <time>2020-06-16T03:59:24Z</time>
      </trkpt>
      <trkpt lat="46.2673" lon="4.28972">
        <ele>333.53125</ele>
        <time>2020-06-16T03:59:51Z</time>
      </trkpt>
      <trkpt lat="46.26696" lon="4.28977">
        <ele>333.84753417969</ele>
        <time>2020-06-16T04:00:17Z</time>
      </trkpt>
      <trkpt lat="46.26673" lon="4.28988">
        <ele>334.47204589844</ele>
        <time>2020-06-16T04:00:43Z</time>
      </trkpt>
      <trkpt lat="46.26351" lon="4.29241">
        <ele>331.53137207031</ele>
        <time>2020-06-16T04:01:10Z</time>
      </trkpt>
      <trkpt lat="46.26305" lon="4.29272">
        <ele>331.73690795898</ele>
        <time>2020-06-16T04:01:36Z</time>
      </trkpt>
      <trkpt lat="46.26272" lon="4.2928">
        <ele>332.46951293945</ele>
        <time>2020-06-16T04:02:03Z</time>
      </trkpt>
      <trkpt lat="46.26228" lon="4.29261">
        <ele>332.04306030273</ele>
        <time>2020-06-16T04:02:29Z</time>
      </trkpt>
      <trkpt lat="46.26206" lon="4.29261">
        <ele>331.50201416016</ele>
        <time>2020-06-16T04:02:55Z</time>
      </trkpt>
      <trkpt lat="46.26054" lon="4.29325">
        <ele>338.16708374023</ele>
        <time>2020-06-16T04:03:22Z</time>
      </trkpt>
      <trkpt lat="46.25983" lon="4.29395">
        <ele>343.87515258789</ele>
        <time>2020-06-16T04:03:48Z</time>
      </trkpt>
      <trkpt lat="46.25966" lon="4.29424">
        <ele>345.9528503418</ele>
        <time>2020-06-16T04:04:15Z</time>
      </trkpt>
      <trkpt lat="46.25937" lon="4.29499">
        <ele>350.26550292969</ele>
        <time>2020-06-16T04:04:41Z</time>
      </trkpt>
      <trkpt lat="46.25918" lon="4.29528">
        <ele>350.9248046875</ele>
        <time>2020-06-16T04:05:08Z</time>
      </trkpt>
      <trkpt lat="46.25893" lon="4.29533">
        <ele>349.39294433594</ele>
        <time>2020-06-16T04:05:34Z</time>
      </trkpt>
      <trkpt lat="46.25845" lon="4.29525">
        <ele>349.7951965332</ele>
        <time>2020-06-16T04:06:01Z</time>
      </trkpt>
      <trkpt lat="46.25815" lon="4.29536">
        <ele>351.60781860352</ele>
        <time>2020-06-16T04:06:27Z</time>
      </trkpt>
      <trkpt lat="46.25692" lon="4.29615">
        <ele>353.91674804688</ele>
        <time>2020-06-16T04:06:54Z</time>
      </trkpt>
      <trkpt lat="46.25623" lon="4.29685">
        <ele>356.67614746094</ele>
        <time>2020-06-16T04:07:20Z</time>
      </trkpt>
      <trkpt lat="46.25602" lon="4.29729">
        <ele>359.63513183594</ele>
        <time>2020-06-16T04:07:47Z</time>
      </trkpt>
      <trkpt lat="46.25597" lon="4.29758">
        <ele>360.81491088867</ele>
        <time>2020-06-16T04:08:13Z</time>
      </trkpt>
      <trkpt lat="46.256" lon="4.29787">
        <ele>362.61666870117</ele>
        <time>2020-06-16T04:08:40Z</time>
      </trkpt>
      <trkpt lat="46.25627" lon="4.29862">
        <ele>369.22573852539</ele>
        <time>2020-06-16T04:09:06Z</time>
      </trkpt>
      <trkpt lat="46.25623" lon="4.29892">
        <ele>370.76705932617</ele>
        <time>2020-06-16T04:09:33Z</time>
      </trkpt>
      <trkpt lat="46.25613" lon="4.29907">
        <ele>370.41830444336</ele>
        <time>2020-06-16T04:09:59Z</time>
      </trkpt>
      <trkpt lat="46.25548" lon="4.29938">
        <ele>368.20611572266</ele>
        <time>2020-06-16T04:10:26Z</time>
      </trkpt>
      <trkpt lat="46.25414" lon="4.30018">
        <ele>376.46215820312</ele>
        <time>2020-06-16T04:10:52Z</time>
      </trkpt>
      <trkpt lat="46.25371" lon="4.30061">
        <ele>379.70040893555</ele>
        <time>2020-06-16T04:11:19Z</time>
      </trkpt>
      <trkpt lat="46.25322" lon="4.30144">
        <ele>385.23602294922</ele>
        <time>2020-06-16T04:11:46Z</time>
      </trkpt>
      <trkpt lat="46.25291" lon="4.30177">
        <ele>387.35473632812</ele>
        <time>2020-06-16T04:12:12Z</time>
      </trkpt>
      <trkpt lat="46.25225" lon="4.30213">
        <ele>382.77066040039</ele>
        <time>2020-06-16T04:12:39Z</time>
      </trkpt>
      <trkpt lat="46.25178" lon="4.30255">
        <ele>384.3473815918</ele>
        <time>2020-06-16T04:13:06Z</time>
      </trkpt>
      <trkpt lat="46.25107" lon="4.30287">
        <ele>386.06402587891</ele>
        <time>2020-06-16T04:13:32Z</time>
      </trkpt>
      <trkpt lat="46.25054" lon="4.30324">
        <ele>387.9326171875</ele>
        <time>2020-06-16T04:13:59Z</time>
      </trkpt>
      <trkpt lat="46.2504" lon="4.30342">
        <ele>389.57653808594</ele>
        <time>2020-06-16T04:14:25Z</time>
      </trkpt>
      <trkpt lat="46.25023" lon="4.30388">
        <ele>395.17810058594</ele>
        <time>2020-06-16T04:14:52Z</time>
      </trkpt>
      <trkpt lat="46.24967" lon="4.30436">
        <ele>397.76403808594</ele>
        <time>2020-06-16T04:15:19Z</time>
      </trkpt>
      <trkpt lat="46.24929" lon="4.30511">
        <ele>403.48825073242</ele>
        <time>2020-06-16T04:15:45Z</time>
      </trkpt>
      <trkpt lat="46.24916" lon="4.30525">
        <ele>401.81393432617</ele>
        <time>2020-06-16T04:16:12Z</time>
      </trkpt>
      <trkpt lat="46.24896" lon="4.30535">
        <ele>398.84454345703</ele>
        <time>2020-06-16T04:16:39Z</time>
      </trkpt>
      <trkpt lat="46.24854" lon="4.30539">
        <ele>398.8649597168</ele>
        <time>2020-06-16T04:17:06Z</time>
      </trkpt>
      <trkpt lat="46.24829" lon="4.30547">
        <ele>399.76077270508</ele>
        <time>2020-06-16T04:17:32Z</time>
      </trkpt>
      <trkpt lat="46.24634" lon="4.30633">
        <ele>409.29257202148</ele>
        <time>2020-06-16T04:17:59Z</time>
      </trkpt>
      <trkpt lat="46.24411" lon="4.30666">
        <ele>400</ele>
        <time>2020-06-16T04:18:26Z</time>
      </trkpt>
      <trkpt lat="46.24176" lon="4.30614">
        <ele>393.34545898438</ele>
        <time>2020-06-16T04:18:53Z</time>
      </trkpt>
      <trkpt lat="46.24063" lon="4.30615">
        <ele>386.93103027344</ele>
        <time>2020-06-16T04:19:19Z</time>
      </trkpt>
      <trkpt lat="46.24033" lon="4.30599">
        <ele>385.57662963867</ele>
        <time>2020-06-16T04:19:46Z</time>
      </trkpt>
      <trkpt lat="46.23981" lon="4.30551">
        <ele>384.66409301758</ele>
        <time>2020-06-16T04:20:13Z</time>
      </trkpt>
      <trkpt lat="46.23898" lon="4.30457">
        <ele>380.86895751953</ele>
        <time>2020-06-16T04:20:40Z</time>
      </trkpt>
      <trkpt lat="46.23783" lon="4.30385">
        <ele>376.46841430664</ele>
        <time>2020-06-16T04:21:07Z</time>
      </trkpt>
      <trkpt lat="46.23754" lon="4.30371">
        <ele>375.19888305664</ele>
        <time>2020-06-16T04:21:34Z</time>
      </trkpt>
      <trkpt lat="46.23722" lon="4.30371">
        <ele>373.28466796875</ele>
        <time>2020-06-16T04:22:01Z</time>
      </trkpt>
      <trkpt lat="46.23637" lon="4.30394">
        <ele>368.61987304688</ele>
        <time>2020-06-16T04:22:28Z</time>
      </trkpt>
      <trkpt lat="46.23572" lon="4.30372">
        <ele>367.04531860352</ele>
        <time>2020-06-16T04:22:54Z</time>
      </trkpt>
      <trkpt lat="46.23494" lon="4.30373">
        <ele>362.48458862305</ele>
        <time>2020-06-16T04:23:21Z</time>
      </trkpt>
      <trkpt lat="46.23001" lon="4.30231">
        <ele>343.83471679688</ele>
        <time>2020-06-16T04:23:48Z</time>
      </trkpt>
      <trkpt lat="46.22957" lon="4.30225">
        <ele>341.43197631836</ele>
        <time>2020-06-16T04:24:15Z</time>
      </trkpt>
      <trkpt lat="46.22936" lon="4.30232">
        <ele>339.62210083008</ele>
        <time>2020-06-16T04:24:42Z</time>
      </trkpt>
      <trkpt lat="46.22909" lon="4.3026">
        <ele>337.31475830078</ele>
        <time>2020-06-16T04:25:09Z</time>
      </trkpt>
      <trkpt lat="46.22773" lon="4.30488">
        <ele>337.57794189453</ele>
        <time>2020-06-16T04:25:37Z</time>
      </trkpt>
      <trkpt lat="46.2276" lon="4.30501">
        <ele>337.41995239258</ele>
        <time>2020-06-16T04:26:04Z</time>
      </trkpt>
      <trkpt lat="46.22717" lon="4.30529">
        <ele>336.70449829102</ele>
        <time>2020-06-16T04:26:31Z</time>
      </trkpt>
      <trkpt lat="46.22563" lon="4.30611">
        <ele>340.88571166992</ele>
        <time>2020-06-16T04:26:58Z</time>
      </trkpt>
      <trkpt lat="46.22498" lon="4.30699">
        <ele>347.19390869141</ele>
        <time>2020-06-16T04:27:25Z</time>
      </trkpt>
      <trkpt lat="46.22468" lon="4.30754">
        <ele>345.64636230469</ele>
        <time>2020-06-16T04:27:52Z</time>
      </trkpt>
      <trkpt lat="46.22461" lon="4.30775">
        <ele>345.3049621582</ele>
        <time>2020-06-16T04:28:19Z</time>
      </trkpt>
      <trkpt lat="46.22453" lon="4.30819">
        <ele>345.19384765625</ele>
        <time>2020-06-16T04:28:46Z</time>
      </trkpt>
      <trkpt lat="46.22443" lon="4.30951">
        <ele>347.33126831055</ele>
        <time>2020-06-16T04:29:13Z</time>
      </trkpt>
      <trkpt lat="46.22479" lon="4.31039">
        <ele>343.46704101562</ele>
        <time>2020-06-16T04:29:41Z</time>
      </trkpt>
      <trkpt lat="46.22486" lon="4.31074">
        <ele>344.71475219727</ele>
        <time>2020-06-16T04:30:08Z</time>
      </trkpt>
      <trkpt lat="46.22487" lon="4.31195">
        <ele>345.74053955078</ele>
        <time>2020-06-16T04:30:35Z</time>
      </trkpt>
      <trkpt lat="46.22475" lon="4.31277">
        <ele>345.62673950195</ele>
        <time>2020-06-16T04:31:02Z</time>
      </trkpt>
      <trkpt lat="46.2248" lon="4.31319">
        <ele>345.37142944336</ele>
        <time>2020-06-16T04:31:29Z</time>
      </trkpt>
      <trkpt lat="46.22452" lon="4.31279">
        <ele>347.42767333984</ele>
        <time>2020-06-16T04:36:56Z</time>
      </trkpt>
      <trkpt lat="46.2243" lon="4.31279">
        <ele>349.20599365234</ele>
        <time>2020-06-16T04:37:23Z</time>
      </trkpt>
      <trkpt lat="46.22331" lon="4.31346">
        <ele>355.4382019043</ele>
        <time>2020-06-16T04:37:51Z</time>
      </trkpt>
      <trkpt lat="46.22126" lon="4.31514">
        <ele>359.79901123047</ele>
        <time>2020-06-16T04:38:18Z</time>
      </trkpt>
      <trkpt lat="46.22054" lon="4.31559">
        <ele>363.07214355469</ele>
        <time>2020-06-16T04:38:45Z</time>
      </trkpt>
      <trkpt lat="46.2204" lon="4.31559">
        <ele>364.23016357422</ele>
        <time>2020-06-16T04:39:13Z</time>
      </trkpt>
      <trkpt lat="46.21964" lon="4.31534">
        <ele>368.5022277832</ele>
        <time>2020-06-16T04:39:40Z</time>
      </trkpt>
      <trkpt lat="46.21855" lon="4.31482">
        <ele>375.44012451172</ele>
        <time>2020-06-16T04:40:07Z</time>
      </trkpt>
      <trkpt lat="46.21785" lon="4.31472">
        <ele>380.09841918945</ele>
        <time>2020-06-16T04:40:35Z</time>
      </trkpt>
      <trkpt lat="46.21743" lon="4.31472">
        <ele>381.80630493164</ele>
        <time>2020-06-16T04:41:02Z</time>
      </trkpt>
      <trkpt lat="46.21704" lon="4.31478">
        <ele>385.10980224609</ele>
        <time>2020-06-16T04:41:30Z</time>
      </trkpt>
      <trkpt lat="46.21587" lon="4.31514">
        <ele>395.83251953125</ele>
        <time>2020-06-16T04:41:57Z</time>
      </trkpt>
      <trkpt lat="46.21457" lon="4.31547">
        <ele>400.12948608398</ele>
        <time>2020-06-16T04:42:25Z</time>
      </trkpt>
      <trkpt lat="46.21388" lon="4.31559">
        <ele>399.14859008789</ele>
        <time>2020-06-16T04:42:52Z</time>
      </trkpt>
      <trkpt lat="46.21373" lon="4.31558">
        <ele>398.05685424805</ele>
        <time>2020-06-16T04:43:19Z</time>
      </trkpt>
      <trkpt lat="46.21358" lon="4.31551">
        <ele>396.83355712891</ele>
        <time>2020-06-16T04:43:47Z</time>
      </trkpt>
      <trkpt lat="46.21326" lon="4.31521">
        <ele>394.23504638672</ele>
        <time>2020-06-16T04:44:14Z</time>
      </trkpt>
      <trkpt lat="46.21316" lon="4.31531">
        <ele>393.30047607422</ele>
        <time>2020-06-16T04:44:42Z</time>
      </trkpt>
      <trkpt lat="46.21308" lon="4.31566">
        <ele>393.28973388672</ele>
        <time>2020-06-16T04:45:09Z</time>
      </trkpt>
      <trkpt lat="46.213" lon="4.31577">
        <ele>393.12841796875</ele>
        <time>2020-06-16T04:45:37Z</time>
      </trkpt>
      <trkpt lat="46.2122" lon="4.31592">
        <ele>395.22427368164</ele>
        <time>2020-06-16T04:46:04Z</time>
      </trkpt>
      <trkpt lat="46.21187" lon="4.31603">
        <ele>396.52401733398</ele>
        <time>2020-06-16T04:46:32Z</time>
      </trkpt>
      <trkpt lat="46.21155" lon="4.31621">
        <ele>398.22265625</ele>
        <time>2020-06-16T04:46:59Z</time>
      </trkpt>
      <trkpt lat="46.20983" lon="4.31755">
        <ele>399.70935058594</ele>
        <time>2020-06-16T04:47:27Z</time>
      </trkpt>
      <trkpt lat="46.20847" lon="4.31884">
        <ele>391.38854980469</ele>
        <time>2020-06-16T04:47:54Z</time>
      </trkpt>
      <trkpt lat="46.2083" lon="4.31917">
        <ele>389.75775146484</ele>
        <time>2020-06-16T04:48:22Z</time>
      </trkpt>
      <trkpt lat="46.20827" lon="4.31958">
        <ele>389.33340454102</ele>
        <time>2020-06-16T04:48:49Z</time>
      </trkpt>
      <trkpt lat="46.20883" lon="4.32634">
        <ele>385.00274658203</ele>
        <time>2020-06-16T04:49:17Z</time>
      </trkpt>
      <trkpt lat="46.20885" lon="4.32719">
        <ele>382.49841308594</ele>
        <time>2020-06-16T04:49:45Z</time>
      </trkpt>
      <trkpt lat="46.20803" lon="4.3324">
        <ele>396.6985168457</ele>
        <time>2020-06-16T04:50:12Z</time>
      </trkpt>
      <trkpt lat="46.20803" lon="4.33321">
        <ele>401.99862670898</ele>
        <time>2020-06-16T04:50:40Z</time>
      </trkpt>
      <trkpt lat="46.2081" lon="4.33415">
        <ele>405.45220947266</ele>
        <time>2020-06-16T04:51:08Z</time>
      </trkpt>
      <trkpt lat="46.20799" lon="4.33546">
        <ele>405.25573730469</ele>
        <time>2020-06-16T04:51:36Z</time>
      </trkpt>
      <trkpt lat="46.20721" lon="4.33803">
        <ele>404.14422607422</ele>
        <time>2020-06-16T04:52:03Z</time>
      </trkpt>
      <trkpt lat="46.20628" lon="4.33966">
        <ele>403.03707885742</ele>
        <time>2020-06-16T04:52:31Z</time>
      </trkpt>
      <trkpt lat="46.20596" lon="4.34009">
        <ele>403.44165039062</ele>
        <time>2020-06-16T04:52:59Z</time>
      </trkpt>
      <trkpt lat="46.20197" lon="4.34078">
        <ele>397.24002075195</ele>
        <time>2020-06-16T04:53:27Z</time>
      </trkpt>
      <trkpt lat="46.20123" lon="4.34074">
        <ele>394.05953979492</ele>
        <time>2020-06-16T04:53:55Z</time>
      </trkpt>
      <trkpt lat="46.20108" lon="4.34076">
        <ele>394.19027709961</ele>
        <time>2020-06-16T04:54:23Z</time>
      </trkpt>
      <trkpt lat="46.20094" lon="4.34085">
        <ele>393.81567382812</ele>
        <time>2020-06-16T04:54:51Z</time>
      </trkpt>
      <trkpt lat="46.19649" lon="4.34701">
        <ele>405.83850097656</ele>
        <time>2020-06-16T04:55:19Z</time>
      </trkpt>
      <trkpt lat="46.19612" lon="4.34741">
        <ele>415.28353881836</ele>
        <time>2020-06-16T04:55:47Z</time>
      </trkpt>
      <trkpt lat="46.19546" lon="4.34793">
        <ele>411.15213012695</ele>
        <time>2020-06-16T04:56:15Z</time>
      </trkpt>
      <trkpt lat="46.19525" lon="4.34821">
        <ele>415.74838256836</ele>
        <time>2020-06-16T04:56:43Z</time>
      </trkpt>
      <trkpt lat="46.19488" lon="4.34905">
        <ele>412.20126342773</ele>
        <time>2020-06-16T04:57:11Z</time>
      </trkpt>
      <trkpt lat="46.19476" lon="4.34962">
        <ele>412.31802368164</ele>
        <time>2020-06-16T04:57:39Z</time>
      </trkpt>
      <trkpt lat="46.19466" lon="4.35226">
        <ele>413.3332824707</ele>
        <time>2020-06-16T04:58:07Z</time>
      </trkpt>
      <trkpt lat="46.19432" lon="4.35395">
        <ele>418.08767700195</ele>
        <time>2020-06-16T04:58:35Z</time>
      </trkpt>
      <trkpt lat="46.19434" lon="4.3543">
        <ele>420.24163818359</ele>
        <time>2020-06-16T04:59:03Z</time>
      </trkpt>
      <trkpt lat="46.19449" lon="4.35512">
        <ele>420.45858764648</ele>
        <time>2020-06-16T04:59:31Z</time>
      </trkpt>
      <trkpt lat="46.19451" lon="4.35555">
        <ele>419.16461181641</ele>
        <time>2020-06-16T04:59:59Z</time>
      </trkpt>
      <trkpt lat="46.19378" lon="4.35812">
        <ele>417.69534301758</ele>
        <time>2020-06-16T05:00:27Z</time>
      </trkpt>
      <trkpt lat="46.19381" lon="4.35862">
        <ele>420.73040771484</ele>
        <time>2020-06-16T05:00:56Z</time>
      </trkpt>
      <trkpt lat="46.19406" lon="4.3597">
        <ele>421.62301635742</ele>
        <time>2020-06-16T05:01:24Z</time>
      </trkpt>
      <trkpt lat="46.19404" lon="4.35997">
        <ele>421.72860717773</ele>
        <time>2020-06-16T05:01:52Z</time>
      </trkpt>
      <trkpt lat="46.19359" lon="4.36048">
        <ele>420.07345581055</ele>
        <time>2020-06-16T05:02:20Z</time>
      </trkpt>
      <trkpt lat="46.19326" lon="4.36142">
        <ele>421.38876342773</ele>
        <time>2020-06-16T05:02:48Z</time>
      </trkpt>
      <trkpt lat="46.193" lon="4.36192">
        <ele>421.93792724609</ele>
        <time>2020-06-16T05:03:16Z</time>
      </trkpt>
      <trkpt lat="46.19121" lon="4.36438">
        <ele>424.50067138672</ele>
        <time>2020-06-16T05:03:45Z</time>
      </trkpt>
      <trkpt lat="46.18902" lon="4.36922">
        <ele>434.1741027832</ele>
        <time>2020-06-16T05:04:13Z</time>
      </trkpt>
      <trkpt lat="46.1885" lon="4.37082">
        <ele>440.77020263672</ele>
        <time>2020-06-16T05:04:41Z</time>
      </trkpt>
      <trkpt lat="46.18721" lon="4.3736">
        <ele>444.12536621094</ele>
        <time>2020-06-16T05:05:10Z</time>
      </trkpt>
      <trkpt lat="46.18676" lon="4.37425">
        <ele>441.13803100586</ele>
        <time>2020-06-16T05:05:38Z</time>
      </trkpt>
      <trkpt lat="46.18439" lon="4.37677">
        <ele>442.5505065918</ele>
        <time>2020-06-16T05:06:06Z</time>
      </trkpt>
      <trkpt lat="46.18279" lon="4.37802">
        <ele>449.57720947266</ele>
        <time>2020-06-16T05:06:35Z</time>
      </trkpt>
      <trkpt lat="46.18259" lon="4.37852">
        <ele>449.5771484375</ele>
        <time>2020-06-16T05:07:03Z</time>
      </trkpt>
      <trkpt lat="46.18244" lon="4.38005">
        <ele>453.87515258789</ele>
        <time>2020-06-16T05:07:32Z</time>
      </trkpt>
      <trkpt lat="46.18208" lon="4.38111">
        <ele>455.68606567383</ele>
        <time>2020-06-16T05:08:00Z</time>
      </trkpt>
      <trkpt lat="46.18185" lon="4.38152">
        <ele>454.67639160156</ele>
        <time>2020-06-16T05:08:29Z</time>
      </trkpt>
      <trkpt lat="46.18138" lon="4.38178">
        <ele>452.73532104492</ele>
        <time>2020-06-16T05:08:57Z</time>
      </trkpt>
      <trkpt lat="46.18124" lon="4.38194">
        <ele>452.52142333984</ele>
        <time>2020-06-16T05:09:26Z</time>
      </trkpt>
      <trkpt lat="46.18099" lon="4.38288">
        <ele>457.11801147461</ele>
        <time>2020-06-16T05:09:54Z</time>
      </trkpt>
      <trkpt lat="46.18074" lon="4.38333">
        <ele>457.0791015625</ele>
        <time>2020-06-16T05:10:23Z</time>
      </trkpt>
      <trkpt lat="46.17989" lon="4.38402">
        <ele>458.81927490234</ele>
        <time>2020-06-16T05:10:51Z</time>
      </trkpt>
      <trkpt lat="46.1781" lon="4.38532">
        <ele>464.03106689453</ele>
        <time>2020-06-16T05:11:20Z</time>
      </trkpt>
      <trkpt lat="46.17679" lon="4.38663">
        <ele>477.12905883789</ele>
        <time>2020-06-16T05:11:49Z</time>
      </trkpt>
      <trkpt lat="46.1757" lon="4.38735">
        <ele>479.03778076172</ele>
        <time>2020-06-16T05:12:17Z</time>
      </trkpt>
      <trkpt lat="46.17487" lon="4.38816">
        <ele>481.6145324707</ele>
        <time>2020-06-16T05:12:46Z</time>
      </trkpt>
      <trkpt lat="46.1743" lon="4.38927">
        <ele>487.1787109375</ele>
        <time>2020-06-16T05:13:14Z</time>
      </trkpt>
      <trkpt lat="46.17379" lon="4.38993">
        <ele>488.03424072266</ele>
        <time>2020-06-16T05:13:43Z</time>
      </trkpt>
      <trkpt lat="46.17359" lon="4.39026">
        <ele>487.47268676758</ele>
        <time>2020-06-16T05:14:12Z</time>
      </trkpt>
      <trkpt lat="46.17347" lon="4.39064">
        <ele>491.767578125</ele>
        <time>2020-06-16T05:14:40Z</time>
      </trkpt>
      <trkpt lat="46.17334" lon="4.39154">
        <ele>493.8376159668</ele>
        <time>2020-06-16T05:15:09Z</time>
      </trkpt>
      <trkpt lat="46.1729" lon="4.39256">
        <ele>494.63131713867</ele>
        <time>2020-06-16T05:15:38Z</time>
      </trkpt>
      <trkpt lat="46.17258" lon="4.3932">
        <ele>496.56143188477</ele>
        <time>2020-06-16T05:16:07Z</time>
      </trkpt>
      <trkpt lat="46.17232" lon="4.39356">
        <ele>489.65072631836</ele>
        <time>2020-06-16T05:16:35Z</time>
      </trkpt>
      <trkpt lat="46.17161" lon="4.3941">
        <ele>490.7951965332</ele>
        <time>2020-06-16T05:17:04Z</time>
      </trkpt>
      <trkpt lat="46.17103" lon="4.3949">
        <ele>499.4753112793</ele>
        <time>2020-06-16T05:17:33Z</time>
      </trkpt>
      <trkpt lat="46.17054" lon="4.39528">
        <ele>497.12231445312</ele>
        <time>2020-06-16T05:18:02Z</time>
      </trkpt>
      <trkpt lat="46.17036" lon="4.39558">
        <ele>503.18026733398</ele>
        <time>2020-06-16T05:18:30Z</time>
      </trkpt>
      <trkpt lat="46.17023" lon="4.39616">
        <ele>504.62371826172</ele>
        <time>2020-06-16T05:18:59Z</time>
      </trkpt>
      <trkpt lat="46.16999" lon="4.39654">
        <ele>509.27621459961</ele>
        <time>2020-06-16T05:19:28Z</time>
      </trkpt>
      <trkpt lat="46.16975" lon="4.3967">
        <ele>507.90600585938</ele>
        <time>2020-06-16T05:19:57Z</time>
      </trkpt>
      <trkpt lat="46.16967" lon="4.39683">
        <ele>510.62219238281</ele>
        <time>2020-06-16T05:20:25Z</time>
      </trkpt>
      <trkpt lat="46.16961" lon="4.39713">
        <ele>510.20639038086</ele>
        <time>2020-06-16T05:20:54Z</time>
      </trkpt>
      <trkpt lat="46.16961" lon="4.39787">
        <ele>513.02502441406</ele>
        <time>2020-06-16T05:21:23Z</time>
      </trkpt>
      <trkpt lat="46.16954" lon="4.39832">
        <ele>512.83758544922</ele>
        <time>2020-06-16T05:21:52Z</time>
      </trkpt>
      <trkpt lat="46.16938" lon="4.39901">
        <ele>512.54614257812</ele>
        <time>2020-06-16T05:22:20Z</time>
      </trkpt>
      <trkpt lat="46.169" lon="4.40003">
        <ele>506.80355834961</ele>
        <time>2020-06-16T05:22:49Z</time>
      </trkpt>
      <trkpt lat="46.16888" lon="4.40125">
        <ele>510.32086181641</ele>
        <time>2020-06-16T05:23:18Z</time>
      </trkpt>
      <trkpt lat="46.16863" lon="4.40261">
        <ele>514.30548095703</ele>
        <time>2020-06-16T05:23:47Z</time>
      </trkpt>
      <trkpt lat="46.16854" lon="4.40335">
        <ele>516.50500488281</ele>
        <time>2020-06-16T05:24:16Z</time>
      </trkpt>
      <trkpt lat="46.16824" lon="4.40425">
        <ele>516.98553466797</ele>
        <time>2020-06-16T05:24:45Z</time>
      </trkpt>
      <trkpt lat="46.16828" lon="4.4049">
        <ele>519.01129150391</ele>
        <time>2020-06-16T05:25:14Z</time>
      </trkpt>
      <trkpt lat="46.16831" lon="4.4049">
        <ele>519.34313964844</ele>
        <time>2020-06-16T05:29:05Z</time>
      </trkpt>
      <trkpt lat="46.16837" lon="4.40509">
        <ele>520.0732421875</ele>
        <time>2020-06-16T05:29:34Z</time>
      </trkpt>
      <trkpt lat="46.16842" lon="4.4057">
        <ele>519.46728515625</ele>
        <time>2020-06-16T05:30:03Z</time>
      </trkpt>
      <trkpt lat="46.16849" lon="4.40589">
        <ele>519.72534179688</ele>
        <time>2020-06-16T05:30:31Z</time>
      </trkpt>
      <trkpt lat="46.16865" lon="4.40607">
        <ele>521.06634521484</ele>
        <time>2020-06-16T05:31:00Z</time>
      </trkpt>
      <trkpt lat="46.1692" lon="4.40639">
        <ele>525.02917480469</ele>
        <time>2020-06-16T05:31:29Z</time>
      </trkpt>
      <trkpt lat="46.16933" lon="4.40663">
        <ele>524.39428710938</ele>
        <time>2020-06-16T05:31:58Z</time>
      </trkpt>
      <trkpt lat="46.16933" lon="4.40689">
        <ele>522.03955078125</ele>
        <time>2020-06-16T05:32:27Z</time>
      </trkpt>
      <trkpt lat="46.16919" lon="4.40714">
        <ele>518.27484130859</ele>
        <time>2020-06-16T05:32:56Z</time>
      </trkpt>
      <trkpt lat="46.16908" lon="4.40721">
        <ele>516.85668945312</ele>
        <time>2020-06-16T05:33:25Z</time>
      </trkpt>
      <trkpt lat="46.16886" lon="4.40725">
        <ele>515.47247314453</ele>
        <time>2020-06-16T05:33:54Z</time>
      </trkpt>
      <trkpt lat="46.16872" lon="4.40722">
        <ele>515.19097900391</ele>
        <time>2020-06-16T05:34:23Z</time>
      </trkpt>
      <trkpt lat="46.16778" lon="4.40661">
        <ele>512.83099365234</ele>
        <time>2020-06-16T05:34:52Z</time>
      </trkpt>
      <trkpt lat="46.1675" lon="4.40663">
        <ele>513.64038085938</ele>
        <time>2020-06-16T05:35:21Z</time>
      </trkpt>
      <trkpt lat="46.16729" lon="4.40679">
        <ele>515.57940673828</ele>
        <time>2020-06-16T05:35:50Z</time>
      </trkpt>
      <trkpt lat="46.16709" lon="4.40711">
        <ele>517.85260009766</ele>
        <time>2020-06-16T05:36:19Z</time>
      </trkpt>
      <trkpt lat="46.16698" lon="4.4075">
        <ele>522.13897705078</ele>
        <time>2020-06-16T05:36:48Z</time>
      </trkpt>
      <trkpt lat="46.16687" lon="4.409">
        <ele>528.28747558594</ele>
        <time>2020-06-16T05:37:17Z</time>
      </trkpt>
      <trkpt lat="46.16693" lon="4.40969">
        <ele>532.353515625</ele>
        <time>2020-06-16T05:37:46Z</time>
      </trkpt>
      <trkpt lat="46.16685" lon="4.41018">
        <ele>533.70013427734</ele>
        <time>2020-06-16T05:38:15Z</time>
      </trkpt>
      <trkpt lat="46.16669" lon="4.41045">
        <ele>533.49877929688</ele>
        <time>2020-06-16T05:38:44Z</time>
      </trkpt>
      <trkpt lat="46.16628" lon="4.4107">
        <ele>532.72570800781</ele>
        <time>2020-06-16T05:39:13Z</time>
      </trkpt>
      <trkpt lat="46.16621" lon="4.41088">
        <ele>533.56030273438</ele>
        <time>2020-06-16T05:39:42Z</time>
      </trkpt>
      <trkpt lat="46.16626" lon="4.41108">
        <ele>535.1845703125</ele>
        <time>2020-06-16T05:40:11Z</time>
      </trkpt>
      <trkpt lat="46.16637" lon="4.41122">
        <ele>536.66229248047</ele>
        <time>2020-06-16T05:40:40Z</time>
      </trkpt>
      <trkpt lat="46.16704" lon="4.41169">
        <ele>541.47857666016</ele>
        <time>2020-06-16T05:41:09Z</time>
      </trkpt>
      <trkpt lat="46.16731" lon="4.41177">
        <ele>543.51013183594</ele>
        <time>2020-06-16T05:41:38Z</time>
      </trkpt>
      <trkpt lat="46.16747" lon="4.4117">
        <ele>544.59039306641</ele>
        <time>2020-06-16T05:42:07Z</time>
      </trkpt>
      <trkpt lat="46.16757" lon="4.41159">
        <ele>545.05969238281</ele>
        <time>2020-06-16T05:42:36Z</time>
      </trkpt>
      <trkpt lat="46.16787" lon="4.41102">
        <ele>546.19219970703</ele>
        <time>2020-06-16T05:43:05Z</time>
      </trkpt>
      <trkpt lat="46.16803" lon="4.41085">
        <ele>547.39892578125</ele>
        <time>2020-06-16T05:43:34Z</time>
      </trkpt>
      <trkpt lat="46.16848" lon="4.4106">
        <ele>548.56707763672</ele>
        <time>2020-06-16T05:44:04Z</time>
      </trkpt>
      <trkpt lat="46.16873" lon="4.41067">
        <ele>549.32312011719</ele>
        <time>2020-06-16T05:44:33Z</time>
      </trkpt>
      <trkpt lat="46.1688" lon="4.41081">
        <ele>549.82495117188</ele>
        <time>2020-06-16T05:45:02Z</time>
      </trkpt>
      <trkpt lat="46.16882" lon="4.41099">
        <ele>550.31549072266</ele>
        <time>2020-06-16T05:45:31Z</time>
      </trkpt>
      <trkpt lat="46.16873" lon="4.41167">
        <ele>550.48034667969</ele>
        <time>2020-06-16T05:46:00Z</time>
      </trkpt>
      <trkpt lat="46.16829" lon="4.41352">
        <ele>554.47113037109</ele>
        <time>2020-06-16T05:46:29Z</time>
      </trkpt>
      <trkpt lat="46.1682" lon="4.41363">
        <ele>555.40002441406</ele>
        <time>2020-06-16T05:46:58Z</time>
      </trkpt>
      <trkpt lat="46.16809" lon="4.41369">
        <ele>556.30755615234</ele>
        <time>2020-06-16T05:47:27Z</time>
      </trkpt>
      <trkpt lat="46.1673" lon="4.41351">
        <ele>556.37835693359</ele>
        <time>2020-06-16T05:47:56Z</time>
      </trkpt>
      <trkpt lat="46.16674" lon="4.41359">
        <ele>560.56262207031</ele>
        <time>2020-06-16T05:48:26Z</time>
      </trkpt>
      <trkpt lat="46.16649" lon="4.41368">
        <ele>563.02124023438</ele>
        <time>2020-06-16T05:48:55Z</time>
      </trkpt>
      <trkpt lat="46.16546" lon="4.41449">
        <ele>575.29333496094</ele>
        <time>2020-06-16T05:49:24Z</time>
      </trkpt>
      <trkpt lat="46.16409" lon="4.41534">
        <ele>580.0908203125</ele>
        <time>2020-06-16T05:49:53Z</time>
      </trkpt>
      <trkpt lat="46.16372" lon="4.41561">
        <ele>580.8203125</ele>
        <time>2020-06-16T05:50:22Z</time>
      </trkpt>
      <trkpt lat="46.16338" lon="4.41591">
        <ele>582.36389160156</ele>
        <time>2020-06-16T05:50:51Z</time>
      </trkpt>
      <trkpt lat="46.16278" lon="4.41661">
        <ele>588.970703125</ele>
        <time>2020-06-16T05:51:21Z</time>
      </trkpt>
      <trkpt lat="46.1622" lon="4.41744">
        <ele>598.0546875</ele>
        <time>2020-06-16T05:51:50Z</time>
      </trkpt>
      <trkpt lat="46.16187" lon="4.41808">
        <ele>601.97454833984</ele>
        <time>2020-06-16T05:52:19Z</time>
      </trkpt>
      <trkpt lat="46.16174" lon="4.41867">
        <ele>605.5859375</ele>
        <time>2020-06-16T05:52:48Z</time>
      </trkpt>
      <trkpt lat="46.16169" lon="4.41981">
        <ele>611.783203125</ele>
        <time>2020-06-16T05:53:18Z</time>
      </trkpt>
      <trkpt lat="46.16153" lon="4.42023">
        <ele>611.85601806641</ele>
        <time>2020-06-16T05:53:47Z</time>
      </trkpt>
      <trkpt lat="46.16139" lon="4.42041">
        <ele>611.63287353516</ele>
        <time>2020-06-16T05:54:16Z</time>
      </trkpt>
      <trkpt lat="46.16066" lon="4.42094">
        <ele>614.17266845703</ele>
        <time>2020-06-16T05:54:45Z</time>
      </trkpt>
      <trkpt lat="46.16007" lon="4.4218">
        <ele>621.01922607422</ele>
        <time>2020-06-16T05:55:15Z</time>
      </trkpt>
      <trkpt lat="46.15952" lon="4.42247">
        <ele>624.25598144531</ele>
        <time>2020-06-16T05:55:44Z</time>
      </trkpt>
      <trkpt lat="46.15846" lon="4.42306">
        <ele>627.42034912109</ele>
        <time>2020-06-16T05:56:13Z</time>
      </trkpt>
      <trkpt lat="46.15817" lon="4.42334">
        <ele>627.73077392578</ele>
        <time>2020-06-16T05:56:43Z</time>
      </trkpt>
      <trkpt lat="46.15812" lon="4.42359">
        <ele>630.19927978516</ele>
        <time>2020-06-16T05:57:12Z</time>
      </trkpt>
      <trkpt lat="46.15821" lon="4.4238">
        <ele>634.56579589844</ele>
        <time>2020-06-16T05:57:41Z</time>
      </trkpt>
      <trkpt lat="46.15848" lon="4.42391">
        <ele>639.9921875</ele>
        <time>2020-06-16T05:58:11Z</time>
      </trkpt>
      <trkpt lat="46.15969" lon="4.4236">
        <ele>641.80462646484</ele>
        <time>2020-06-16T05:58:40Z</time>
      </trkpt>
      <trkpt lat="46.15987" lon="4.4235">
        <ele>640.54595947266</ele>
        <time>2020-06-16T05:59:10Z</time>
      </trkpt>
      <trkpt lat="46.16004" lon="4.42354">
        <ele>640.17907714844</ele>
        <time>2020-06-16T05:59:39Z</time>
      </trkpt>
      <trkpt lat="46.1602" lon="4.42347">
        <ele>638.59344482422</ele>
        <time>2020-06-16T06:00:08Z</time>
      </trkpt>
      <trkpt lat="46.16043" lon="4.42349">
        <ele>637.68475341797</ele>
        <time>2020-06-16T06:00:38Z</time>
      </trkpt>
      <trkpt lat="46.16135" lon="4.4239">
        <ele>642.89947509766</ele>
        <time>2020-06-16T06:01:07Z</time>
      </trkpt>
      <trkpt lat="46.16167" lon="4.42398">
        <ele>644.67529296875</ele>
        <time>2020-06-16T06:01:36Z</time>
      </trkpt>
      <trkpt lat="46.16277" lon="4.42388">
        <ele>649.84039306641</ele>
        <time>2020-06-16T06:02:06Z</time>
      </trkpt>
      <trkpt lat="46.16292" lon="4.424">
        <ele>651.81109619141</ele>
        <time>2020-06-16T06:02:35Z</time>
      </trkpt>
      <trkpt lat="46.16296" lon="4.42415">
        <ele>653.271484375</ele>
        <time>2020-06-16T06:03:05Z</time>
      </trkpt>
      <trkpt lat="46.16292" lon="4.42431">
        <ele>654.34924316406</ele>
        <time>2020-06-16T06:03:34Z</time>
      </trkpt>
      <trkpt lat="46.1628" lon="4.42445">
        <ele>655.11999511719</ele>
        <time>2020-06-16T06:04:04Z</time>
      </trkpt>
      <trkpt lat="46.16252" lon="4.42461">
        <ele>655.07891845703</ele>
        <time>2020-06-16T06:04:33Z</time>
      </trkpt>
      <trkpt lat="46.16086" lon="4.42529">
        <ele>661.99621582031</ele>
        <time>2020-06-16T06:05:02Z</time>
      </trkpt>
      <trkpt lat="46.16064" lon="4.42544">
        <ele>664.45886230469</ele>
        <time>2020-06-16T06:05:32Z</time>
      </trkpt>
      <trkpt lat="46.16026" lon="4.42596">
        <ele>669.01477050781</ele>
        <time>2020-06-16T06:06:01Z</time>
      </trkpt>
      <trkpt lat="46.15879" lon="4.4288">
        <ele>680.91259765625</ele>
        <time>2020-06-16T06:06:31Z</time>
      </trkpt>
      <trkpt lat="46.15859" lon="4.42904">
        <ele>681.35827636719</ele>
        <time>2020-06-16T06:07:00Z</time>
      </trkpt>
      <trkpt lat="46.15708" lon="4.43015">
        <ele>700.62127685547</ele>
        <time>2020-06-16T06:07:30Z</time>
      </trkpt>
      <trkpt lat="46.15683" lon="4.43017">
        <ele>700.34356689453</ele>
        <time>2020-06-16T06:08:00Z</time>
      </trkpt>
      <trkpt lat="46.15619" lon="4.42998">
        <ele>699.49639892578</ele>
        <time>2020-06-16T06:08:29Z</time>
      </trkpt>
      <trkpt lat="46.15591" lon="4.42998">
        <ele>700.88586425781</ele>
        <time>2020-06-16T06:08:59Z</time>
      </trkpt>
      <trkpt lat="46.15579" lon="4.4301">
        <ele>702.04748535156</ele>
        <time>2020-06-16T06:09:28Z</time>
      </trkpt>
      <trkpt lat="46.15536" lon="4.43023">
        <ele>703.85949707031</ele>
        <time>2020-06-16T06:09:58Z</time>
      </trkpt>
      <trkpt lat="46.15514" lon="4.43035">
        <ele>704.64300537109</ele>
        <time>2020-06-16T06:10:27Z</time>
      </trkpt>
      <trkpt lat="46.15487" lon="4.43066">
        <ele>703.93664550781</ele>
        <time>2020-06-16T06:10:57Z</time>
      </trkpt>
      <trkpt lat="46.1547" lon="4.43162">
        <ele>701.10980224609</ele>
        <time>2020-06-16T06:11:27Z</time>
      </trkpt>
      <trkpt lat="46.15492" lon="4.43321">
        <ele>701.76000976562</ele>
        <time>2020-06-16T06:11:56Z</time>
      </trkpt>
      <trkpt lat="46.15523" lon="4.43391">
        <ele>698.55847167969</ele>
        <time>2020-06-16T06:12:26Z</time>
      </trkpt>
      <trkpt lat="46.15542" lon="4.43416">
        <ele>697.37976074219</ele>
        <time>2020-06-16T06:12:55Z</time>
      </trkpt>
      <trkpt lat="46.15566" lon="4.43429">
        <ele>698.44158935547</ele>
        <time>2020-06-16T06:13:25Z</time>
      </trkpt>
      <trkpt lat="46.15632" lon="4.43452">
        <ele>706.91076660156</ele>
        <time>2020-06-16T06:13:55Z</time>
      </trkpt>
      <trkpt lat="46.15714" lon="4.43516">
        <ele>703.91613769531</ele>
        <time>2020-06-16T06:14:24Z</time>
      </trkpt>
      <trkpt lat="46.15737" lon="4.4353">
        <ele>704.02209472656</ele>
        <time>2020-06-16T06:14:54Z</time>
      </trkpt>
      <trkpt lat="46.15772" lon="4.43543">
        <ele>707.81903076172</ele>
        <time>2020-06-16T06:15:24Z</time>
      </trkpt>
      <trkpt lat="46.15787" lon="4.43556">
        <ele>708.50024414062</ele>
        <time>2020-06-16T06:15:53Z</time>
      </trkpt>
      <trkpt lat="46.15825" lon="4.43623">
        <ele>707.04510498047</ele>
        <time>2020-06-16T06:16:23Z</time>
      </trkpt>
      <trkpt lat="46.15861" lon="4.43721">
        <ele>705.89190673828</ele>
        <time>2020-06-16T06:16:53Z</time>
      </trkpt>
      <trkpt lat="46.15879" lon="4.43743">
        <ele>705.77337646484</ele>
        <time>2020-06-16T06:17:22Z</time>
      </trkpt>
      <trkpt lat="46.15897" lon="4.43752">
        <ele>707.36273193359</ele>
        <time>2020-06-16T06:17:52Z</time>
      </trkpt>
      <trkpt lat="46.15924" lon="4.43755">
        <ele>705.1220703125</ele>
        <time>2020-06-16T06:18:22Z</time>
      </trkpt>
      <trkpt lat="46.15949" lon="4.4375">
        <ele>704.55993652344</ele>
        <time>2020-06-16T06:18:52Z</time>
      </trkpt>
      <trkpt lat="46.15996" lon="4.43727">
        <ele>709.49816894531</ele>
        <time>2020-06-16T06:19:21Z</time>
      </trkpt>
      <trkpt lat="46.16027" lon="4.43731">
        <ele>710.26641845703</ele>
        <time>2020-06-16T06:19:51Z</time>
      </trkpt>
      <trkpt lat="46.16062" lon="4.43749">
        <ele>708.39727783203</ele>
        <time>2020-06-16T06:20:21Z</time>
      </trkpt>
      <trkpt lat="46.16146" lon="4.43827">
        <ele>715.81878662109</ele>
        <time>2020-06-16T06:20:50Z</time>
      </trkpt>
      <trkpt lat="46.16188" lon="4.43855">
        <ele>717.17687988281</ele>
        <time>2020-06-16T06:21:20Z</time>
      </trkpt>
      <trkpt lat="46.16239" lon="4.43881">
        <ele>716.02252197266</ele>
        <time>2020-06-16T06:21:50Z</time>
      </trkpt>
      <trkpt lat="46.16269" lon="4.43888">
        <ele>714.19891357422</ele>
        <time>2020-06-16T06:22:20Z</time>
      </trkpt>
      <trkpt lat="46.16362" lon="4.43885">
        <ele>714.45031738281</ele>
        <time>2020-06-16T06:22:50Z</time>
      </trkpt>
      <trkpt lat="46.16471" lon="4.4391">
        <ele>713.45678710938</ele>
        <time>2020-06-16T06:23:19Z</time>
      </trkpt>
      <trkpt lat="46.1652" lon="4.43909">
        <ele>716.15667724609</ele>
        <time>2020-06-16T06:23:49Z</time>
      </trkpt>
      <trkpt lat="46.16523" lon="4.43918">
        <ele>714.46453857422</ele>
        <time>2020-06-16T06:24:19Z</time>
      </trkpt>
      <trkpt lat="46.1645" lon="4.43927">
        <ele>708.61108398438</ele>
        <time>2020-06-16T06:24:49Z</time>
      </trkpt>
      <trkpt lat="46.16376" lon="4.43917">
        <ele>706.76654052734</ele>
        <time>2020-06-16T06:25:19Z</time>
      </trkpt>
      <trkpt lat="46.16348" lon="4.43921">
        <ele>705.74969482422</ele>
        <time>2020-06-16T06:25:48Z</time>
      </trkpt>
      <trkpt lat="46.16291" lon="4.43949">
        <ele>698.68237304688</ele>
        <time>2020-06-16T06:26:18Z</time>
      </trkpt>
      <trkpt lat="46.16223" lon="4.44019">
        <ele>692.53845214844</ele>
        <time>2020-06-16T06:26:48Z</time>
      </trkpt>
      <trkpt lat="46.16202" lon="4.4403">
        <ele>690.94232177734</ele>
        <time>2020-06-16T06:27:18Z</time>
      </trkpt>
      <trkpt lat="46.16179" lon="4.44034">
        <ele>690.25830078125</ele>
        <time>2020-06-16T06:27:48Z</time>
      </trkpt>
      <trkpt lat="46.16155" lon="4.4403">
        <ele>690.408203125</ele>
        <time>2020-06-16T06:28:18Z</time>
      </trkpt>
      <trkpt lat="46.16143" lon="4.44022">
        <ele>690.96087646484</ele>
        <time>2020-06-16T06:28:48Z</time>
      </trkpt>
      <trkpt lat="46.16051" lon="4.43934">
        <ele>687.48504638672</ele>
        <time>2020-06-16T06:29:18Z</time>
      </trkpt>
      <trkpt lat="46.16016" lon="4.43913">
        <ele>685.10876464844</ele>
        <time>2020-06-16T06:29:47Z</time>
      </trkpt>
      <trkpt lat="46.1598" lon="4.43899">
        <ele>681.49108886719</ele>
        <time>2020-06-16T06:30:17Z</time>
      </trkpt>
      <trkpt lat="46.15941" lon="4.43893">
        <ele>681.59185791016</ele>
        <time>2020-06-16T06:30:47Z</time>
      </trkpt>
      <trkpt lat="46.1589" lon="4.43901">
        <ele>675.89489746094</ele>
        <time>2020-06-16T06:31:17Z</time>
      </trkpt>
      <trkpt lat="46.15823" lon="4.43951">
        <ele>669.06158447266</ele>
        <time>2020-06-16T06:31:47Z</time>
      </trkpt>
      <trkpt lat="46.15764" lon="4.43975">
        <ele>664.01715087891</ele>
        <time>2020-06-16T06:32:17Z</time>
      </trkpt>
      <trkpt lat="46.15696" lon="4.4399">
        <ele>657.41595458984</ele>
        <time>2020-06-16T06:32:47Z</time>
      </trkpt>
      <trkpt lat="46.15646" lon="4.43991">
        <ele>656.443359375</ele>
        <time>2020-06-16T06:33:17Z</time>
      </trkpt>
      <trkpt lat="46.15598" lon="4.44008">
        <ele>648.26483154297</ele>
        <time>2020-06-16T06:33:47Z</time>
      </trkpt>
      <trkpt lat="46.14529" lon="4.44508">
        <ele>595.91485595703</ele>
        <time>2020-06-16T06:34:17Z</time>
      </trkpt>
      <trkpt lat="46.14389" lon="4.44558">
        <ele>593.55224609375</ele>
        <time>2020-06-16T06:34:47Z</time>
      </trkpt>
      <trkpt lat="46.14204" lon="4.44608">
        <ele>584.28582763672</ele>
        <time>2020-06-16T06:35:18Z</time>
      </trkpt>
      <trkpt lat="46.14114" lon="4.44649">
        <ele>577.67816162109</ele>
        <time>2020-06-16T06:35:48Z</time>
      </trkpt>
      <trkpt lat="46.13969" lon="4.44698">
        <ele>568.40637207031</ele>
        <time>2020-06-16T06:36:18Z</time>
      </trkpt>
      <trkpt lat="46.13925" lon="4.44724">
        <ele>562.05212402344</ele>
        <time>2020-06-16T06:36:48Z</time>
      </trkpt>
      <trkpt lat="46.13839" lon="4.4479">
        <ele>561.10443115234</ele>
        <time>2020-06-16T06:37:19Z</time>
      </trkpt>
      <trkpt lat="46.13734" lon="4.44854">
        <ele>554.00061035156</ele>
        <time>2020-06-16T06:37:49Z</time>
      </trkpt>
      <trkpt lat="46.1367" lon="4.44912">
        <ele>551.23681640625</ele>
        <time>2020-06-16T06:38:19Z</time>
      </trkpt>
      <trkpt lat="46.13573" lon="4.45029">
        <ele>545.93908691406</ele>
        <time>2020-06-16T06:38:50Z</time>
      </trkpt>
      <trkpt lat="46.13463" lon="4.45147">
        <ele>543.75213623047</ele>
        <time>2020-06-16T06:39:20Z</time>
      </trkpt>
      <trkpt lat="46.13422" lon="4.45216">
        <ele>544.08483886719</ele>
        <time>2020-06-16T06:39:50Z</time>
      </trkpt>
      <trkpt lat="46.1336" lon="4.45379">
        <ele>544.89965820312</ele>
        <time>2020-06-16T06:40:21Z</time>
      </trkpt>
      <trkpt lat="46.1331" lon="4.45473">
        <ele>537.69921875</ele>
        <time>2020-06-16T06:40:51Z</time>
      </trkpt>
      <trkpt lat="46.13224" lon="4.45585">
        <ele>529.60595703125</ele>
        <time>2020-06-16T06:41:21Z</time>
      </trkpt>
      <trkpt lat="46.13092" lon="4.45735">
        <ele>521.7412109375</ele>
        <time>2020-06-16T06:41:52Z</time>
      </trkpt>
      <trkpt lat="46.13063" lon="4.4578">
        <ele>520.32861328125</ele>
        <time>2020-06-16T06:42:22Z</time>
      </trkpt>
      <trkpt lat="46.12975" lon="4.45954">
        <ele>516.15570068359</ele>
        <time>2020-06-16T06:42:53Z</time>
      </trkpt>
      <trkpt lat="46.12834" lon="4.46183">
        <ele>506.71704101562</ele>
        <time>2020-06-16T06:43:23Z</time>
      </trkpt>
      <trkpt lat="46.1278" lon="4.46315">
        <ele>504.77487182617</ele>
        <time>2020-06-16T06:43:54Z</time>
      </trkpt>
      <trkpt lat="46.12748" lon="4.4641">
        <ele>501.23501586914</ele>
        <time>2020-06-16T06:44:24Z</time>
      </trkpt>
      <trkpt lat="46.12739" lon="4.46462">
        <ele>498.65057373047</ele>
        <time>2020-06-16T06:44:55Z</time>
      </trkpt>
      <trkpt lat="46.12732" lon="4.46556">
        <ele>491.05969238281</ele>
        <time>2020-06-16T06:45:26Z</time>
      </trkpt>
      <trkpt lat="46.12718" lon="4.4661">
        <ele>488.30581665039</ele>
        <time>2020-06-16T06:45:56Z</time>
      </trkpt>
      <trkpt lat="46.12602" lon="4.46856">
        <ele>493.9289855957</ele>
        <time>2020-06-16T06:46:27Z</time>
      </trkpt>
      <trkpt lat="46.12575" lon="4.46895">
        <ele>495.19967651367</ele>
        <time>2020-06-16T06:46:57Z</time>
      </trkpt>
      <trkpt lat="46.12551" lon="4.46915">
        <ele>490.62866210938</ele>
        <time>2020-06-16T06:47:28Z</time>
      </trkpt>
      <trkpt lat="46.12524" lon="4.46923">
        <ele>487.48138427734</ele>
        <time>2020-06-16T06:47:59Z</time>
      </trkpt>
      <trkpt lat="46.12499" lon="4.46921">
        <ele>488.15777587891</ele>
        <time>2020-06-16T06:48:29Z</time>
      </trkpt>
      <trkpt lat="46.12476" lon="4.46906">
        <ele>489.3544921875</ele>
        <time>2020-06-16T06:49:00Z</time>
      </trkpt>
      <trkpt lat="46.1246" lon="4.4689">
        <ele>487.73226928711</ele>
        <time>2020-06-16T06:49:30Z</time>
      </trkpt>
      <trkpt lat="46.12438" lon="4.46839">
        <ele>487.08813476562</ele>
        <time>2020-06-16T06:50:01Z</time>
      </trkpt>
      <trkpt lat="46.12426" lon="4.46731">
        <ele>499.26504516602</ele>
        <time>2020-06-16T06:50:32Z</time>
      </trkpt>
      <trkpt lat="46.12409" lon="4.46678">
        <ele>506.00305175781</ele>
        <time>2020-06-16T06:51:02Z</time>
      </trkpt>
      <trkpt lat="46.12366" lon="4.46623">
        <ele>510.32653808594</ele>
        <time>2020-06-16T06:51:33Z</time>
      </trkpt>
      <trkpt lat="46.12344" lon="4.46603">
        <ele>512.11560058594</ele>
        <time>2020-06-16T06:52:04Z</time>
      </trkpt>
      <trkpt lat="46.12317" lon="4.4659">
        <ele>511.56649780273</ele>
        <time>2020-06-16T06:52:34Z</time>
      </trkpt>
      <trkpt lat="46.12273" lon="4.46584">
        <ele>508.88754272461</ele>
        <time>2020-06-16T06:53:05Z</time>
      </trkpt>
      <trkpt lat="46.12152" lon="4.46589">
        <ele>494.46957397461</ele>
        <time>2020-06-16T06:53:36Z</time>
      </trkpt>
      <trkpt lat="46.12118" lon="4.46596">
        <ele>495.49932861328</ele>
        <time>2020-06-16T06:54:06Z</time>
      </trkpt>
      <trkpt lat="46.12008" lon="4.46636">
        <ele>495.10705566406</ele>
        <time>2020-06-16T06:54:37Z</time>
      </trkpt>
      <trkpt lat="46.11889" lon="4.46635">
        <ele>495.0266418457</ele>
        <time>2020-06-16T06:55:08Z</time>
      </trkpt>
      <trkpt lat="46.1183" lon="4.46643">
        <ele>492.01116943359</ele>
        <time>2020-06-16T06:55:39Z</time>
      </trkpt>
      <trkpt lat="46.11742" lon="4.46671">
        <ele>487.4407043457</ele>
        <time>2020-06-16T06:56:09Z</time>
      </trkpt>
      <trkpt lat="46.11587" lon="4.46674">
        <ele>476.78787231445</ele>
        <time>2020-06-16T06:56:40Z</time>
      </trkpt>
      <trkpt lat="46.11562" lon="4.46667">
        <ele>476.53707885742</ele>
        <time>2020-06-16T06:57:11Z</time>
      </trkpt>
      <trkpt lat="46.11508" lon="4.46637">
        <ele>475.87887573242</ele>
        <time>2020-06-16T06:57:42Z</time>
      </trkpt>
      <trkpt lat="46.11435" lon="4.46567">
        <ele>479.94424438477</ele>
        <time>2020-06-16T06:58:13Z</time>
      </trkpt>
      <trkpt lat="46.11411" lon="4.46549">
        <ele>479.49078369141</ele>
        <time>2020-06-16T06:58:44Z</time>
      </trkpt>
      <trkpt lat="46.11385" lon="4.46538">
        <ele>477.9587097168</ele>
        <time>2020-06-16T06:59:14Z</time>
      </trkpt>
      <trkpt lat="46.11358" lon="4.46536">
        <ele>475.43954467773</ele>
        <time>2020-06-16T06:59:45Z</time>
      </trkpt>
      <trkpt lat="46.11317" lon="4.46542">
        <ele>469.99795532227</ele>
        <time>2020-06-16T07:00:16Z</time>
      </trkpt>
      <trkpt lat="46.11279" lon="4.46553">
        <ele>473.73675537109</ele>
        <time>2020-06-16T07:00:47Z</time>
      </trkpt>
      <trkpt lat="46.11059" lon="4.46672">
        <ele>469.87640380859</ele>
        <time>2020-06-16T07:01:18Z</time>
      </trkpt>
      <trkpt lat="46.10981" lon="4.46688">
        <ele>471.00982666016</ele>
        <time>2020-06-16T07:01:49Z</time>
      </trkpt>
      <trkpt lat="46.10956" lon="4.46699">
        <ele>471.83581542969</ele>
        <time>2020-06-16T07:02:20Z</time>
      </trkpt>
      <trkpt lat="46.10876" lon="4.46752">
        <ele>464.70648193359</ele>
        <time>2020-06-16T07:02:50Z</time>
      </trkpt>
      <trkpt lat="46.10802" lon="4.46812">
        <ele>459.70965576172</ele>
        <time>2020-06-16T07:03:21Z</time>
      </trkpt>
      <trkpt lat="46.10764" lon="4.46832">
        <ele>457.48986816406</ele>
        <time>2020-06-16T07:03:52Z</time>
      </trkpt>
      <trkpt lat="46.10723" lon="4.46837">
        <ele>457.49261474609</ele>
        <time>2020-06-16T07:04:23Z</time>
      </trkpt>
      <trkpt lat="46.10674" lon="4.46834">
        <ele>456.42535400391</ele>
        <time>2020-06-16T07:04:54Z</time>
      </trkpt>
      <trkpt lat="46.10521" lon="4.46793">
        <ele>453.78869628906</ele>
        <time>2020-06-16T07:05:25Z</time>
      </trkpt>
      <trkpt lat="46.10487" lon="4.46793">
        <ele>452.20428466797</ele>
        <time>2020-06-16T07:05:56Z</time>
      </trkpt>
      <trkpt lat="46.10447" lon="4.46802">
        <ele>452.85888671875</ele>
        <time>2020-06-16T07:06:27Z</time>
      </trkpt>
      <trkpt lat="46.10398" lon="4.46824">
        <ele>454.18640136719</ele>
        <time>2020-06-16T07:06:58Z</time>
      </trkpt>
      <trkpt lat="46.10291" lon="4.46886">
        <ele>453.37603759766</ele>
        <time>2020-06-16T07:07:29Z</time>
      </trkpt>
      <trkpt lat="46.1001" lon="4.47103">
        <ele>442.62893676758</ele>
        <time>2020-06-16T07:08:00Z</time>
      </trkpt>
      <trkpt lat="46.09981" lon="4.47118">
        <ele>441.76931762695</ele>
        <time>2020-06-16T07:08:31Z</time>
      </trkpt>
      <trkpt lat="46.09941" lon="4.47131">
        <ele>441.70642089844</ele>
        <time>2020-06-16T07:09:02Z</time>
      </trkpt>
      <trkpt lat="46.09878" lon="4.47146">
        <ele>442.13516235352</ele>
        <time>2020-06-16T07:09:34Z</time>
      </trkpt>
      <trkpt lat="46.09846" lon="4.47146">
        <ele>445.26196289062</ele>
        <time>2020-06-16T07:10:05Z</time>
      </trkpt>
      <trkpt lat="46.09685" lon="4.47095">
        <ele>443.40725708008</ele>
        <time>2020-06-16T07:10:36Z</time>
      </trkpt>
      <trkpt lat="46.0962" lon="4.47064">
        <ele>444.50698852539</ele>
        <time>2020-06-16T07:11:07Z</time>
      </trkpt>
      <trkpt lat="46.0958" lon="4.47059">
        <ele>447.2326965332</ele>
        <time>2020-06-16T07:11:38Z</time>
      </trkpt>
      <trkpt lat="46.09531" lon="4.47069">
        <ele>445.1676940918</ele>
        <time>2020-06-16T07:12:09Z</time>
      </trkpt>
      <trkpt lat="46.09465" lon="4.47106">
        <ele>441.90777587891</ele>
        <time>2020-06-16T07:12:40Z</time>
      </trkpt>
      <trkpt lat="46.09377" lon="4.47182">
        <ele>434.70797729492</ele>
        <time>2020-06-16T07:13:12Z</time>
      </trkpt>
      <trkpt lat="46.09225" lon="4.47294">
        <ele>430.50750732422</ele>
        <time>2020-06-16T07:13:43Z</time>
      </trkpt>
      <trkpt lat="46.09117" lon="4.47387">
        <ele>425.70352172852</ele>
        <time>2020-06-16T07:14:14Z</time>
      </trkpt>
      <trkpt lat="46.09072" lon="4.47434">
        <ele>426.10546875</ele>
        <time>2020-06-16T07:14:45Z</time>
      </trkpt>
      <trkpt lat="46.09033" lon="4.47486">
        <ele>427.33309936523</ele>
        <time>2020-06-16T07:15:17Z</time>
      </trkpt>
      <trkpt lat="46.08902" lon="4.47688">
        <ele>420.28948974609</ele>
        <time>2020-06-16T07:15:48Z</time>
      </trkpt>
      <trkpt lat="46.0876" lon="4.47873">
        <ele>424.70260620117</ele>
        <time>2020-06-16T07:16:19Z</time>
      </trkpt>
      <trkpt lat="46.08727" lon="4.47936">
        <ele>420.89340209961</ele>
        <time>2020-06-16T07:16:50Z</time>
      </trkpt>
      <trkpt lat="46.08688" lon="4.4804">
        <ele>417.39294433594</ele>
        <time>2020-06-16T07:17:22Z</time>
      </trkpt>
      <trkpt lat="46.08653" lon="4.4809">
        <ele>419.27731323242</ele>
        <time>2020-06-16T07:17:53Z</time>
      </trkpt>
      <trkpt lat="46.08522" lon="4.48212">
        <ele>417.02438354492</ele>
        <time>2020-06-16T07:18:25Z</time>
      </trkpt>
      <trkpt lat="46.08498" lon="4.48227">
        <ele>416.6745300293</ele>
        <time>2020-06-16T07:18:56Z</time>
      </trkpt>
      <trkpt lat="46.08469" lon="4.48232">
        <ele>416.94219970703</ele>
        <time>2020-06-16T07:19:27Z</time>
      </trkpt>
      <trkpt lat="46.08394" lon="4.48234">
        <ele>419.49075317383</ele>
        <time>2020-06-16T07:19:59Z</time>
      </trkpt>
      <trkpt lat="46.08239" lon="4.48279">
        <ele>411.63995361328</ele>
        <time>2020-06-16T07:20:30Z</time>
      </trkpt>
      <trkpt lat="46.08117" lon="4.48293">
        <ele>416.65295410156</ele>
        <time>2020-06-16T07:21:02Z</time>
      </trkpt>
      <trkpt lat="46.0808" lon="4.48307">
        <ele>418.70361328125</ele>
        <time>2020-06-16T07:21:33Z</time>
      </trkpt>
      <trkpt lat="46.08029" lon="4.48339">
        <ele>413.85534667969</ele>
        <time>2020-06-16T07:22:04Z</time>
      </trkpt>
      <trkpt lat="46.07994" lon="4.48373">
        <ele>413.09945678711</ele>
        <time>2020-06-16T07:22:36Z</time>
      </trkpt>
      <trkpt lat="46.07964" lon="4.48415">
        <ele>411.95782470703</ele>
        <time>2020-06-16T07:23:07Z</time>
      </trkpt>
      <trkpt lat="46.07935" lon="4.48472">
        <ele>413.83477783203</ele>
        <time>2020-06-16T07:23:39Z</time>
      </trkpt>
      <trkpt lat="46.07904" lon="4.48553">
        <ele>411.40289306641</ele>
        <time>2020-06-16T07:24:10Z</time>
      </trkpt>
      <trkpt lat="46.07872" lon="4.48603">
        <ele>411.33889770508</ele>
        <time>2020-06-16T07:24:42Z</time>
      </trkpt>
      <trkpt lat="46.07711" lon="4.4876">
        <ele>406.27584838867</ele>
        <time>2020-06-16T07:25:13Z</time>
      </trkpt>
      <trkpt lat="46.0752" lon="4.48974">
        <ele>403.23220825195</ele>
        <time>2020-06-16T07:25:45Z</time>
      </trkpt>
      <trkpt lat="46.07482" lon="4.49012">
        <ele>401.78674316406</ele>
        <time>2020-06-16T07:26:17Z</time>
      </trkpt>
      <trkpt lat="46.07454" lon="4.49025">
        <ele>400.3583984375</ele>
        <time>2020-06-16T07:26:48Z</time>
      </trkpt>
      <trkpt lat="46.07435" lon="4.49028">
        <ele>400.54565429688</ele>
        <time>2020-06-16T07:27:20Z</time>
      </trkpt>
      <trkpt lat="46.07223" lon="4.49003">
        <ele>424.92907714844</ele>
        <time>2020-06-16T07:27:51Z</time>
      </trkpt>
      <trkpt lat="46.07174" lon="4.49009">
        <ele>425.31698608398</ele>
        <time>2020-06-16T07:28:23Z</time>
      </trkpt>
      <trkpt lat="46.0709" lon="4.49034">
        <ele>416.43194580078</ele>
        <time>2020-06-16T07:28:55Z</time>
      </trkpt>
      <trkpt lat="46.07024" lon="4.49065">
        <ele>412.51126098633</ele>
        <time>2020-06-16T07:29:26Z</time>
      </trkpt>
      <trkpt lat="46.06958" lon="4.49109">
        <ele>410.99319458008</ele>
        <time>2020-06-16T07:29:58Z</time>
      </trkpt>
      <trkpt lat="46.06907" lon="4.49125">
        <ele>416.81793212891</ele>
        <time>2020-06-16T07:30:30Z</time>
      </trkpt>
      <trkpt lat="46.06818" lon="4.49163">
        <ele>422.30477905273</ele>
        <time>2020-06-16T07:31:01Z</time>
      </trkpt>
      <trkpt lat="46.06652" lon="4.49216">
        <ele>403.00561523438</ele>
        <time>2020-06-16T07:31:33Z</time>
      </trkpt>
      <trkpt lat="46.06604" lon="4.49223">
        <ele>399.96243286133</ele>
        <time>2020-06-16T07:32:05Z</time>
      </trkpt>
      <trkpt lat="46.06498" lon="4.49222">
        <ele>392.42956542969</ele>
        <time>2020-06-16T07:32:36Z</time>
      </trkpt>
      <trkpt lat="46.06417" lon="4.49248">
        <ele>388.70538330078</ele>
        <time>2020-06-16T07:33:08Z</time>
      </trkpt>
      <trkpt lat="46.06389" lon="4.49243">
        <ele>388.09387207031</ele>
        <time>2020-06-16T07:33:40Z</time>
      </trkpt>
      <trkpt lat="46.06334" lon="4.492">
        <ele>386.08737182617</ele>
        <time>2020-06-16T07:34:12Z</time>
      </trkpt>
      <trkpt lat="46.06319" lon="4.4918">
        <ele>385.572265625</ele>
        <time>2020-06-16T07:34:43Z</time>
      </trkpt>
      <trkpt lat="46.06307" lon="4.49149">
        <ele>385.60192871094</ele>
        <time>2020-06-16T07:35:15Z</time>
      </trkpt>
      <trkpt lat="46.06279" lon="4.49032">
        <ele>400.25866699219</ele>
        <time>2020-06-16T07:35:47Z</time>
      </trkpt>
      <trkpt lat="46.06259" lon="4.49004">
        <ele>404.23858642578</ele>
        <time>2020-06-16T07:36:19Z</time>
      </trkpt>
      <trkpt lat="46.06234" lon="4.48993">
        <ele>403.72769165039</ele>
        <time>2020-06-16T07:36:51Z</time>
      </trkpt>
      <trkpt lat="46.06159" lon="4.48994">
        <ele>395.02774047852</ele>
        <time>2020-06-16T07:37:22Z</time>
      </trkpt>
      <trkpt lat="46.06039" lon="4.48961">
        <ele>391.62380981445</ele>
        <time>2020-06-16T07:37:54Z</time>
      </trkpt>
      <trkpt lat="46.06" lon="4.4896">
        <ele>389.45993041992</ele>
        <time>2020-06-16T07:38:26Z</time>
      </trkpt>
      <trkpt lat="46.05961" lon="4.48972">
        <ele>387.24645996094</ele>
        <time>2020-06-16T07:38:58Z</time>
      </trkpt>
      <trkpt lat="46.05881" lon="4.49023">
        <ele>386.08895874023</ele>
        <time>2020-06-16T07:39:30Z</time>
      </trkpt>
      <trkpt lat="46.05752" lon="4.49093">
        <ele>389.64245605469</ele>
        <time>2020-06-16T07:40:02Z</time>
      </trkpt>
      <trkpt lat="46.05674" lon="4.4916">
        <ele>390.64627075195</ele>
        <time>2020-06-16T07:40:34Z</time>
      </trkpt>
      <trkpt lat="46.05572" lon="4.49227">
        <ele>389.44256591797</ele>
        <time>2020-06-16T07:41:06Z</time>
      </trkpt>
      <trkpt lat="46.05511" lon="4.49308">
        <ele>382.26119995117</ele>
        <time>2020-06-16T07:41:37Z</time>
      </trkpt>
      <trkpt lat="46.05481" lon="4.49335">
        <ele>382.28533935547</ele>
        <time>2020-06-16T07:42:09Z</time>
      </trkpt>
      <trkpt lat="46.05385" lon="4.49368">
        <ele>385.29467773438</ele>
        <time>2020-06-16T07:42:41Z</time>
      </trkpt>
      <trkpt lat="46.05341" lon="4.49372">
        <ele>387.2106628418</ele>
        <time>2020-06-16T07:43:13Z</time>
      </trkpt>
      <trkpt lat="46.05306" lon="4.49362">
        <ele>389.2268371582</ele>
        <time>2020-06-16T07:43:45Z</time>
      </trkpt>
      <trkpt lat="46.05235" lon="4.49329">
        <ele>389.47695922852</ele>
        <time>2020-06-16T07:44:17Z</time>
      </trkpt>
      <trkpt lat="46.05134" lon="4.49299">
        <ele>390.92654418945</ele>
        <time>2020-06-16T07:44:49Z</time>
      </trkpt>
      <trkpt lat="46.05103" lon="4.49284">
        <ele>390.53131103516</ele>
        <time>2020-06-16T07:45:21Z</time>
      </trkpt>
      <trkpt lat="46.05066" lon="4.49244">
        <ele>390.76626586914</ele>
        <time>2020-06-16T07:45:53Z</time>
      </trkpt>
      <trkpt lat="46.05012" lon="4.49147">
        <ele>387.84295654297</ele>
        <time>2020-06-16T07:46:25Z</time>
      </trkpt>
      <trkpt lat="46.04946" lon="4.49045">
        <ele>383.65649414062</ele>
        <time>2020-06-16T07:46:57Z</time>
      </trkpt>
      <trkpt lat="46.04921" lon="4.49019">
        <ele>383.0466003418</ele>
        <time>2020-06-16T07:47:29Z</time>
      </trkpt>
      <trkpt lat="46.04894" lon="4.48999">
        <ele>381.88104248047</ele>
        <time>2020-06-16T07:48:01Z</time>
      </trkpt>
      <trkpt lat="46.04681" lon="4.4889">
        <ele>377.32955932617</ele>
        <time>2020-06-16T07:48:34Z</time>
      </trkpt>
      <trkpt lat="46.04647" lon="4.48882">
        <ele>377.89688110352</ele>
        <time>2020-06-16T07:49:06Z</time>
      </trkpt>
      <trkpt lat="46.04562" lon="4.48874">
        <ele>379.77194213867</ele>
        <time>2020-06-16T07:49:38Z</time>
      </trkpt>
      <trkpt lat="46.04413" lon="4.48819">
        <ele>375.95599365234</ele>
        <time>2020-06-16T07:50:10Z</time>
      </trkpt>
      <trkpt lat="46.04369" lon="4.48812">
        <ele>375.74960327148</ele>
        <time>2020-06-16T07:50:42Z</time>
      </trkpt>
      <trkpt lat="46.04333" lon="4.4882">
        <ele>374.59561157227</ele>
        <time>2020-06-16T07:51:14Z</time>
      </trkpt>
      <trkpt lat="46.04263" lon="4.4885">
        <ele>370.75988769531</ele>
        <time>2020-06-16T07:51:46Z</time>
      </trkpt>
      <trkpt lat="46.04104" lon="4.48939">
        <ele>367.04693603516</ele>
        <time>2020-06-16T07:52:18Z</time>
      </trkpt>
      <trkpt lat="46.04062" lon="4.48949">
        <ele>367.97778320312</ele>
        <time>2020-06-16T07:52:51Z</time>
      </trkpt>
      <trkpt lat="46.03989" lon="4.48951">
        <ele>372.083984375</ele>
        <time>2020-06-16T07:53:23Z</time>
      </trkpt>
      <trkpt lat="46.03911" lon="4.48964">
        <ele>375.06600952148</ele>
        <time>2020-06-16T07:53:55Z</time>
      </trkpt>
      <trkpt lat="46.03881" lon="4.48975">
        <ele>374.29620361328</ele>
        <time>2020-06-16T07:54:27Z</time>
      </trkpt>
      <trkpt lat="46.03838" lon="4.48997">
        <ele>373.82257080078</ele>
        <time>2020-06-16T07:55:00Z</time>
      </trkpt>
      <trkpt lat="46.03801" lon="4.49035">
        <ele>370.6506652832</ele>
        <time>2020-06-16T07:55:32Z</time>
      </trkpt>
      <trkpt lat="46.03628" lon="4.49257">
        <ele>358.56060791016</ele>
        <time>2020-06-16T07:56:04Z</time>
      </trkpt>
      <trkpt lat="46.03505" lon="4.49445">
        <ele>352.58261108398</ele>
        <time>2020-06-16T07:56:36Z</time>
      </trkpt>
      <trkpt lat="46.03448" lon="4.495">
        <ele>354.53686523438</ele>
        <time>2020-06-16T07:57:09Z</time>
      </trkpt>
      <trkpt lat="46.03405" lon="4.49527">
        <ele>352.57806396484</ele>
        <time>2020-06-16T07:57:41Z</time>
      </trkpt>
      <trkpt lat="46.03154" lon="4.49658">
        <ele>353.96383666992</ele>
        <time>2020-06-16T07:58:13Z</time>
      </trkpt>
      <trkpt lat="46.02968" lon="4.49736">
        <ele>350.01696777344</ele>
        <time>2020-06-16T07:58:46Z</time>
      </trkpt>
      <trkpt lat="46.02918" lon="4.49748">
        <ele>349.80172729492</ele>
        <time>2020-06-16T07:59:18Z</time>
      </trkpt>
      <trkpt lat="46.02724" lon="4.49778">
        <ele>346.94454956055</ele>
        <time>2020-06-16T07:59:51Z</time>
      </trkpt>
      <trkpt lat="46.02633" lon="4.49814">
        <ele>349.6340637207</ele>
        <time>2020-06-16T08:00:23Z</time>
      </trkpt>
      <trkpt lat="46.02558" lon="4.49857">
        <ele>352.15689086914</ele>
        <time>2020-06-16T08:00:56Z</time>
      </trkpt>
      <trkpt lat="46.02478" lon="4.49896">
        <ele>351.31643676758</ele>
        <time>2020-06-16T08:01:28Z</time>
      </trkpt>
      <trkpt lat="46.02367" lon="4.4993">
        <ele>344.5768737793</ele>
        <time>2020-06-16T08:02:01Z</time>
      </trkpt>
      <trkpt lat="46.02325" lon="4.49936">
        <ele>342.58999633789</ele>
        <time>2020-06-16T08:02:33Z</time>
      </trkpt>
      <trkpt lat="46.02176" lon="4.49943">
        <ele>338.79107666016</ele>
        <time>2020-06-16T08:03:06Z</time>
      </trkpt>
      <trkpt lat="46.02106" lon="4.49939">
        <ele>341.21405029297</ele>
        <time>2020-06-16T08:03:38Z</time>
      </trkpt>
      <trkpt lat="46.02048" lon="4.49928">
        <ele>342.79885864258</ele>
        <time>2020-06-16T08:04:11Z</time>
      </trkpt>
      <trkpt lat="46.01979" lon="4.49938">
        <ele>344.86157226562</ele>
        <time>2020-06-16T08:04:43Z</time>
      </trkpt>
      <trkpt lat="46.01927" lon="4.4993">
        <ele>346.10903930664</ele>
        <time>2020-06-16T08:05:16Z</time>
      </trkpt>
      <trkpt lat="46.01848" lon="4.49899">
        <ele>344.74462890625</ele>
        <time>2020-06-16T08:05:48Z</time>
      </trkpt>
      <trkpt lat="46.01784" lon="4.49842">
        <ele>340.86346435547</ele>
        <time>2020-06-16T08:06:21Z</time>
      </trkpt>
      <trkpt lat="46.01675" lon="4.49771">
        <ele>339.26770019531</ele>
        <time>2020-06-16T08:06:54Z</time>
      </trkpt>
      <trkpt lat="46.0162" lon="4.49727">
        <ele>337.9514465332</ele>
        <time>2020-06-16T08:07:26Z</time>
      </trkpt>
      <trkpt lat="46.01604" lon="4.49718">
        <ele>337.93334960938</ele>
        <time>2020-06-16T08:07:59Z</time>
      </trkpt>
      <trkpt lat="46.0158" lon="4.49711">
        <ele>338.82861328125</ele>
        <time>2020-06-16T08:08:32Z</time>
      </trkpt>
      <trkpt lat="46.01562" lon="4.49713">
        <ele>340.40301513672</ele>
        <time>2020-06-16T08:09:04Z</time>
      </trkpt>
      <trkpt lat="46.01536" lon="4.49724">
        <ele>342.20501708984</ele>
        <time>2020-06-16T08:09:37Z</time>
      </trkpt>
      <trkpt lat="46.01431" lon="4.49805">
        <ele>341.45007324219</ele>
        <time>2020-06-16T08:10:10Z</time>
      </trkpt>
      <trkpt lat="46.0139" lon="4.49818">
        <ele>338.66751098633</ele>
        <time>2020-06-16T08:10:42Z</time>
      </trkpt>
      <trkpt lat="46.01371" lon="4.49815">
        <ele>338.42333984375</ele>
        <time>2020-06-16T08:11:15Z</time>
      </trkpt>
      <trkpt lat="46.01311" lon="4.4977">
        <ele>334.64630126953</ele>
        <time>2020-06-16T08:11:48Z</time>
      </trkpt>
      <trkpt lat="46.01277" lon="4.49755">
        <ele>334.12866210938</ele>
        <time>2020-06-16T08:12:20Z</time>
      </trkpt>
      <trkpt lat="46.01262" lon="4.49754">
        <ele>334.58270263672</ele>
        <time>2020-06-16T08:12:53Z</time>
      </trkpt>
      <trkpt lat="46.01165" lon="4.49773">
        <ele>335.46014404297</ele>
        <time>2020-06-16T08:13:26Z</time>
      </trkpt>
      <trkpt lat="46.01111" lon="4.49769">
        <ele>335.46649169922</ele>
        <time>2020-06-16T08:13:58Z</time>
      </trkpt>
      <trkpt lat="46.01057" lon="4.49749">
        <ele>336.49060058594</ele>
        <time>2020-06-16T08:14:31Z</time>
      </trkpt>
      <trkpt lat="46.00973" lon="4.49705">
        <ele>330.6728515625</ele>
        <time>2020-06-16T08:15:04Z</time>
      </trkpt>
      <trkpt lat="46.0094" lon="4.49695">
        <ele>329.88259887695</ele>
        <time>2020-06-16T08:15:37Z</time>
      </trkpt>
      <trkpt lat="46.00831" lon="4.49705">
        <ele>330.83807373047</ele>
        <time>2020-06-16T08:16:09Z</time>
      </trkpt>
      <trkpt lat="46.00708" lon="4.4977">
        <ele>328.57907104492</ele>
        <time>2020-06-16T08:16:42Z</time>
      </trkpt>
      <trkpt lat="46.00647" lon="4.49779">
        <ele>327.12567138672</ele>
        <time>2020-06-16T08:17:15Z</time>
      </trkpt>
      <trkpt lat="46.00605" lon="4.49773">
        <ele>325.94110107422</ele>
        <time>2020-06-16T08:17:48Z</time>
      </trkpt>
      <trkpt lat="46.00557" lon="4.49753">
        <ele>324.74130249023</ele>
        <time>2020-06-16T08:18:21Z</time>
      </trkpt>
      <trkpt lat="46.00462" lon="4.49687">
        <ele>329.55117797852</ele>
        <time>2020-06-16T08:18:53Z</time>
      </trkpt>
      <trkpt lat="46.0043" lon="4.49674">
        <ele>333.16647338867</ele>
        <time>2020-06-16T08:19:26Z</time>
      </trkpt>
      <trkpt lat="46.00349" lon="4.49678">
        <ele>336.55523681641</ele>
        <time>2020-06-16T08:19:59Z</time>
      </trkpt>
      <trkpt lat="46.00203" lon="4.49702">
        <ele>328.45867919922</ele>
        <time>2020-06-16T08:20:32Z</time>
      </trkpt>
      <trkpt lat="46.00161" lon="4.49723">
        <ele>331.0651550293</ele>
        <time>2020-06-16T08:21:05Z</time>
      </trkpt>
      <trkpt lat="45.99891" lon="4.49912">
        <ele>328.07913208008</ele>
        <time>2020-06-16T08:21:38Z</time>
      </trkpt>
      <trkpt lat="45.99854" lon="4.49925">
        <ele>328.91586303711</ele>
        <time>2020-06-16T08:22:11Z</time>
      </trkpt>
      <trkpt lat="45.99822" lon="4.49929">
        <ele>326.07717895508</ele>
        <time>2020-06-16T08:22:44Z</time>
      </trkpt>
      <trkpt lat="45.99789" lon="4.49928">
        <ele>325.12896728516</ele>
        <time>2020-06-16T08:23:17Z</time>
      </trkpt>
      <trkpt lat="45.99738" lon="4.49917">
        <ele>323.9208984375</ele>
        <time>2020-06-16T08:23:50Z</time>
      </trkpt>
      <trkpt lat="45.99713" lon="4.49918">
        <ele>325.46453857422</ele>
        <time>2020-06-16T08:24:23Z</time>
      </trkpt>
      <trkpt lat="45.99655" lon="4.49944">
        <ele>322.53833007812</ele>
        <time>2020-06-16T08:24:56Z</time>
      </trkpt>
      <trkpt lat="45.99599" lon="4.49982">
        <ele>332.02185058594</ele>
        <time>2020-06-16T08:25:29Z</time>
      </trkpt>
      <trkpt lat="45.99556" lon="4.50029">
        <ele>323.71817016602</ele>
        <time>2020-06-16T08:26:02Z</time>
      </trkpt>
      <trkpt lat="45.99459" lon="4.50188">
        <ele>333.81887817383</ele>
        <time>2020-06-16T08:26:35Z</time>
      </trkpt>
      <trkpt lat="45.99401" lon="4.5026">
        <ele>331.97085571289</ele>
        <time>2020-06-16T08:27:08Z</time>
      </trkpt>
      <trkpt lat="45.99325" lon="4.50331">
        <ele>329.7727355957</ele>
        <time>2020-06-16T08:27:41Z</time>
      </trkpt>
      <trkpt lat="45.9928" lon="4.50357">
        <ele>325.28143310547</ele>
        <time>2020-06-16T08:28:14Z</time>
      </trkpt>
      <trkpt lat="45.99148" lon="4.50386">
        <ele>322.41693115234</ele>
        <time>2020-06-16T08:28:47Z</time>
      </trkpt>
      <trkpt lat="45.99101" lon="4.50388">
        <ele>321.54690551758</ele>
        <time>2020-06-16T08:29:20Z</time>
      </trkpt>
      <trkpt lat="45.99069" lon="4.50381">
        <ele>319.37512207031</ele>
        <time>2020-06-16T08:29:53Z</time>
      </trkpt>
      <trkpt lat="45.99035" lon="4.50367">
        <ele>319.32662963867</ele>
        <time>2020-06-16T08:30:26Z</time>
      </trkpt>
      <trkpt lat="45.99014" lon="4.50348">
        <ele>320.34719848633</ele>
        <time>2020-06-16T08:30:59Z</time>
      </trkpt>
      <trkpt lat="45.98971" lon="4.50249">
        <ele>317.9260559082</ele>
        <time>2020-06-16T08:31:32Z</time>
      </trkpt>
      <trkpt lat="45.98954" lon="4.50226">
        <ele>316.39916992188</ele>
        <time>2020-06-16T08:32:05Z</time>
      </trkpt>
      <trkpt lat="45.98934" lon="4.5021">
        <ele>314.80328369141</ele>
        <time>2020-06-16T08:32:39Z</time>
      </trkpt>
      <trkpt lat="45.98912" lon="4.50205">
        <ele>313.31491088867</ele>
        <time>2020-06-16T08:33:12Z</time>
      </trkpt>
      <trkpt lat="45.98873" lon="4.50208">
        <ele>312.86117553711</ele>
        <time>2020-06-16T08:33:45Z</time>
      </trkpt>
      <trkpt lat="45.98832" lon="4.5022">
        <ele>313.85760498047</ele>
        <time>2020-06-16T08:34:18Z</time>
      </trkpt>
      <trkpt lat="45.98809" lon="4.50232">
        <ele>314.5530090332</ele>
        <time>2020-06-16T08:34:51Z</time>
      </trkpt>
      <trkpt lat="45.98776" lon="4.50264">
        <ele>317.62817382812</ele>
        <time>2020-06-16T08:35:24Z</time>
      </trkpt>
      <trkpt lat="45.98756" lon="4.50299">
        <ele>318.06188964844</ele>
        <time>2020-06-16T08:35:57Z</time>
      </trkpt>
      <trkpt lat="45.98745" lon="4.50341">
        <ele>319.22961425781</ele>
        <time>2020-06-16T08:36:31Z</time>
      </trkpt>
      <trkpt lat="45.98735" lon="4.50453">
        <ele>321.83862304688</ele>
        <time>2020-06-16T08:37:04Z</time>
      </trkpt>
      <trkpt lat="45.98723" lon="4.50508">
        <ele>319.62847900391</ele>
        <time>2020-06-16T08:37:37Z</time>
      </trkpt>
      <trkpt lat="45.98706" lon="4.50546">
        <ele>319.8186340332</ele>
        <time>2020-06-16T08:38:10Z</time>
      </trkpt>
      <trkpt lat="45.98653" lon="4.50605">
        <ele>317.96099853516</ele>
        <time>2020-06-16T08:38:43Z</time>
      </trkpt>
      <trkpt lat="45.98631" lon="4.50641">
        <ele>320.70550537109</ele>
        <time>2020-06-16T08:39:16Z</time>
      </trkpt>
      <trkpt lat="45.98608" lon="4.50761">
        <ele>323.00817871094</ele>
        <time>2020-06-16T08:39:50Z</time>
      </trkpt>
      <trkpt lat="45.98564" lon="4.50887">
        <ele>320.74139404297</ele>
        <time>2020-06-16T08:40:23Z</time>
      </trkpt>
      <trkpt lat="45.98553" lon="4.50908">
        <ele>321.02893066406</ele>
        <time>2020-06-16T08:40:56Z</time>
      </trkpt>
      <trkpt lat="45.98524" lon="4.50943">
        <ele>319.58560180664</ele>
        <time>2020-06-16T08:41:29Z</time>
      </trkpt>
      <trkpt lat="45.98501" lon="4.50965">
        <ele>318.31201171875</ele>
        <time>2020-06-16T08:42:03Z</time>
      </trkpt>
      <trkpt lat="45.98485" lon="4.50974">
        <ele>316.54913330078</ele>
        <time>2020-06-16T08:42:36Z</time>
      </trkpt>
      <trkpt lat="45.98468" lon="4.50976">
        <ele>314.83517456055</ele>
        <time>2020-06-16T08:43:09Z</time>
      </trkpt>
      <trkpt lat="45.98452" lon="4.50968">
        <ele>313.9342956543</ele>
        <time>2020-06-16T08:43:42Z</time>
      </trkpt>
      <trkpt lat="45.98408" lon="4.509">
        <ele>309.38430786133</ele>
        <time>2020-06-16T08:44:16Z</time>
      </trkpt>
      <trkpt lat="45.98389" lon="4.50885">
        <ele>309.10739135742</ele>
        <time>2020-06-16T08:44:49Z</time>
      </trkpt>
      <trkpt lat="45.98361" lon="4.50879">
        <ele>308.74282836914</ele>
        <time>2020-06-16T08:45:22Z</time>
      </trkpt>
      <trkpt lat="45.98292" lon="4.50883">
        <ele>309.60238647461</ele>
        <time>2020-06-16T08:45:55Z</time>
      </trkpt>
      <trkpt lat="45.98235" lon="4.50871">
        <ele>305.9016418457</ele>
        <time>2020-06-16T08:46:29Z</time>
      </trkpt>
      <trkpt lat="45.98169" lon="4.50865">
        <ele>305</ele>
        <time>2020-06-16T08:47:02Z</time>
      </trkpt>
      <trkpt lat="45.98156" lon="4.50859">
        <ele>305</ele>
        <time>2020-06-16T08:47:35Z</time>
      </trkpt>
      <trkpt lat="45.98056" lon="4.50773">
        <ele>304.20114135742</ele>
        <time>2020-06-16T08:48:09Z</time>
      </trkpt>
      <trkpt lat="45.98036" lon="4.50744">
        <ele>305.27209472656</ele>
        <time>2020-06-16T08:48:42Z</time>
      </trkpt>
      <trkpt lat="45.98014" lon="4.507">
        <ele>306.58935546875</ele>
        <time>2020-06-16T08:49:15Z</time>
      </trkpt>
      <trkpt lat="45.97993" lon="4.50674">
        <ele>307.35629272461</ele>
        <time>2020-06-16T08:49:49Z</time>
      </trkpt>
      <trkpt lat="45.97966" lon="4.50658">
        <ele>307.77947998047</ele>
        <time>2020-06-16T08:50:22Z</time>
      </trkpt>
      <trkpt lat="45.97944" lon="4.50654">
        <ele>307.25595092773</ele>
        <time>2020-06-16T08:50:55Z</time>
      </trkpt>
      <trkpt lat="45.97914" lon="4.50659">
        <ele>307.02325439453</ele>
        <time>2020-06-16T08:51:29Z</time>
      </trkpt>
      <trkpt lat="45.97894" lon="4.50672">
        <ele>307.3271484375</ele>
        <time>2020-06-16T08:52:02Z</time>
      </trkpt>
      <trkpt lat="45.97869" lon="4.50699">
        <ele>306.69708251953</ele>
        <time>2020-06-16T08:52:35Z</time>
      </trkpt>
      <trkpt lat="45.97838" lon="4.50752">
        <ele>310.97445678711</ele>
        <time>2020-06-16T08:53:09Z</time>
      </trkpt>
      <trkpt lat="45.97771" lon="4.50799">
        <ele>309.20959472656</ele>
        <time>2020-06-16T08:53:42Z</time>
      </trkpt>
      <trkpt lat="45.97737" lon="4.50806">
        <ele>307.63372802734</ele>
        <time>2020-06-16T08:54:16Z</time>
      </trkpt>
      <trkpt lat="45.97656" lon="4.50791">
        <ele>302.4167175293</ele>
        <time>2020-06-16T08:54:49Z</time>
      </trkpt>
      <trkpt lat="45.97614" lon="4.50797">
        <ele>302.62545776367</ele>
        <time>2020-06-16T08:55:22Z</time>
      </trkpt>
      <trkpt lat="45.97521" lon="4.50847">
        <ele>305.66082763672</ele>
        <time>2020-06-16T08:55:56Z</time>
      </trkpt>
      <trkpt lat="45.97441" lon="4.50879">
        <ele>304.44223022461</ele>
        <time>2020-06-16T08:56:29Z</time>
      </trkpt>
      <trkpt lat="45.97325" lon="4.50933">
        <ele>305.74856567383</ele>
        <time>2020-06-16T08:57:03Z</time>
      </trkpt>
      <trkpt lat="45.97309" lon="4.50936">
        <ele>304.68942260742</ele>
        <time>2020-06-16T08:57:36Z</time>
      </trkpt>
      <trkpt lat="45.97276" lon="4.50931">
        <ele>304.73675537109</ele>
        <time>2020-06-16T08:58:10Z</time>
      </trkpt>
      <trkpt lat="45.97192" lon="4.5088">
        <ele>300.45202636719</ele>
        <time>2020-06-16T08:58:43Z</time>
      </trkpt>
      <trkpt lat="45.97169" lon="4.50872">
        <ele>299.52520751953</ele>
        <time>2020-06-16T08:59:17Z</time>
      </trkpt>
      <trkpt lat="45.97145" lon="4.50869">
        <ele>299.24645996094</ele>
        <time>2020-06-16T08:59:50Z</time>
      </trkpt>
      <trkpt lat="45.97114" lon="4.50876">
        <ele>301.79360961914</ele>
        <time>2020-06-16T09:00:24Z</time>
      </trkpt>
      <trkpt lat="45.96998" lon="4.50924">
        <ele>304.41885375977</ele>
        <time>2020-06-16T09:00:57Z</time>
      </trkpt>
      <trkpt lat="45.96949" lon="4.50939">
        <ele>302.90283203125</ele>
        <time>2020-06-16T09:01:31Z</time>
      </trkpt>
      <trkpt lat="45.96914" lon="4.50942">
        <ele>301.21099853516</ele>
        <time>2020-06-16T09:02:04Z</time>
      </trkpt>
      <trkpt lat="45.96871" lon="4.50934">
        <ele>299.86093139648</ele>
        <time>2020-06-16T09:02:38Z</time>
      </trkpt>
      <trkpt lat="45.96844" lon="4.50935">
        <ele>300.19360351562</ele>
        <time>2020-06-16T09:03:11Z</time>
      </trkpt>
      <trkpt lat="45.96738" lon="4.50964">
        <ele>299.01303100586</ele>
        <time>2020-06-16T09:03:45Z</time>
      </trkpt>
      <trkpt lat="45.96665" lon="4.50971">
        <ele>299.06112670898</ele>
        <time>2020-06-16T09:04:18Z</time>
      </trkpt>
      <trkpt lat="45.96638" lon="4.50981">
        <ele>297.93096923828</ele>
        <time>2020-06-16T09:04:52Z</time>
      </trkpt>
      <trkpt lat="45.96598" lon="4.51011">
        <ele>299.44805908203</ele>
        <time>2020-06-16T09:05:26Z</time>
      </trkpt>
      <trkpt lat="45.96479" lon="4.51148">
        <ele>296.99200439453</ele>
        <time>2020-06-16T09:05:59Z</time>
      </trkpt>
      <trkpt lat="45.96317" lon="4.51296">
        <ele>297.27920532227</ele>
        <time>2020-06-16T09:06:33Z</time>
      </trkpt>
      <trkpt lat="45.96277" lon="4.51342">
        <ele>298.72763061523</ele>
        <time>2020-06-16T09:07:06Z</time>
      </trkpt>
      <trkpt lat="45.96246" lon="4.51398">
        <ele>297.18725585938</ele>
        <time>2020-06-16T09:07:40Z</time>
      </trkpt>
      <trkpt lat="45.96181" lon="4.51545">
        <ele>295.34469604492</ele>
        <time>2020-06-16T09:08:14Z</time>
      </trkpt>
      <trkpt lat="45.96142" lon="4.51623">
        <ele>293.14367675781</ele>
        <time>2020-06-16T09:08:47Z</time>
      </trkpt>
      <trkpt lat="45.96097" lon="4.51684">
        <ele>290.80941772461</ele>
        <time>2020-06-16T09:09:21Z</time>
      </trkpt>
      <trkpt lat="45.95976" lon="4.518">
        <ele>289.95904541016</ele>
        <time>2020-06-16T09:09:55Z</time>
      </trkpt>
      <trkpt lat="45.95901" lon="4.51895">
        <ele>288.73620605469</ele>
        <time>2020-06-16T09:10:29Z</time>
      </trkpt>
      <trkpt lat="45.9586" lon="4.5196">
        <ele>287.75863647461</ele>
        <time>2020-06-16T09:11:02Z</time>
      </trkpt>
      <trkpt lat="45.95731" lon="4.52204">
        <ele>287.40438842773</ele>
        <time>2020-06-16T09:11:36Z</time>
      </trkpt>
      <trkpt lat="45.95659" lon="4.52313">
        <ele>285.52487182617</ele>
        <time>2020-06-16T09:12:10Z</time>
      </trkpt>
      <trkpt lat="45.95617" lon="4.52358">
        <ele>285.91363525391</ele>
        <time>2020-06-16T09:12:44Z</time>
      </trkpt>
      <trkpt lat="45.95525" lon="4.52438">
        <ele>287.33694458008</ele>
        <time>2020-06-16T09:13:18Z</time>
      </trkpt>
      <trkpt lat="45.95414" lon="4.52547">
        <ele>287.95120239258</ele>
        <time>2020-06-16T09:13:51Z</time>
      </trkpt>
      <trkpt lat="45.95266" lon="4.52701">
        <ele>287.02819824219</ele>
        <time>2020-06-16T09:14:25Z</time>
      </trkpt>
      <trkpt lat="45.95074" lon="4.52866">
        <ele>284.55969238281</ele>
        <time>2020-06-16T09:14:59Z</time>
      </trkpt>
      <trkpt lat="45.95044" lon="4.52905">
        <ele>286.40557861328</ele>
        <time>2020-06-16T09:15:33Z</time>
      </trkpt>
      <trkpt lat="45.9496" lon="4.53035">
        <ele>278.7724609375</ele>
        <time>2020-06-16T09:16:07Z</time>
      </trkpt>
      <trkpt lat="45.94754" lon="4.53264">
        <ele>279.21496582031</ele>
        <time>2020-06-16T09:16:41Z</time>
      </trkpt>
      <trkpt lat="45.94723" lon="4.53308">
        <ele>279.57183837891</ele>
        <time>2020-06-16T09:17:15Z</time>
      </trkpt>
      <trkpt lat="45.947" lon="4.5336">
        <ele>283.03512573242</ele>
        <time>2020-06-16T09:17:49Z</time>
      </trkpt>
      <trkpt lat="45.94637" lon="4.53593">
        <ele>284.38671875</ele>
        <time>2020-06-16T09:18:23Z</time>
      </trkpt>
      <trkpt lat="45.94616" lon="4.53645">
        <ele>283.11428833008</ele>
        <time>2020-06-16T09:18:57Z</time>
      </trkpt>
      <trkpt lat="45.94582" lon="4.53699">
        <ele>280.45846557617</ele>
        <time>2020-06-16T09:19:31Z</time>
      </trkpt>
      <trkpt lat="45.94576" lon="4.53701">
        <ele>279.76614379883</ele>
        <time>2020-06-16T09:20:05Z</time>
      </trkpt>
      <trkpt lat="45.94567" lon="4.53694">
        <ele>278.02355957031</ele>
        <time>2020-06-16T09:20:39Z</time>
      </trkpt>
      <trkpt lat="45.94497" lon="4.53595">
        <ele>273.72027587891</ele>
        <time>2020-06-16T09:21:13Z</time>
      </trkpt>
      <trkpt lat="45.94446" lon="4.53455">
        <ele>276.23049926758</ele>
        <time>2020-06-16T09:21:47Z</time>
      </trkpt>
      <trkpt lat="45.94428" lon="4.53426">
        <ele>278.03186035156</ele>
        <time>2020-06-16T09:22:22Z</time>
      </trkpt>
      <trkpt lat="45.94417" lon="4.53424">
        <ele>278.2668762207</ele>
        <time>2020-06-16T09:22:56Z</time>
      </trkpt>
      <trkpt lat="45.94408" lon="4.53429">
        <ele>278.10607910156</ele>
        <time>2020-06-16T09:23:30Z</time>
      </trkpt>
      <trkpt lat="45.94375" lon="4.53467">
        <ele>278.32437133789</ele>
        <time>2020-06-16T09:24:04Z</time>
      </trkpt>
      <trkpt lat="45.94373" lon="4.53474">
        <ele>278.42886352539</ele>
        <time>2020-06-16T09:26:20Z</time>
      </trkpt>
      <trkpt lat="45.9435" lon="4.53462">
        <ele>280.80383300781</ele>
        <time>2020-06-16T09:26:54Z</time>
      </trkpt>
      <trkpt lat="45.94338" lon="4.53446">
        <ele>281.93246459961</ele>
        <time>2020-06-16T09:27:28Z</time>
      </trkpt>
      <trkpt lat="45.94282" lon="4.53275">
        <ele>288.53890991211</ele>
        <time>2020-06-16T09:28:03Z</time>
      </trkpt>
      <trkpt lat="45.9426" lon="4.53228">
        <ele>289.28704833984</ele>
        <time>2020-06-16T09:28:37Z</time>
      </trkpt>
      <trkpt lat="45.94205" lon="4.53181">
        <ele>292.47277832031</ele>
        <time>2020-06-16T09:29:11Z</time>
      </trkpt>
      <trkpt lat="45.94186" lon="4.53149">
        <ele>294.66290283203</ele>
        <time>2020-06-16T09:29:45Z</time>
      </trkpt>
      <trkpt lat="45.9417" lon="4.53091">
        <ele>295.44281005859</ele>
        <time>2020-06-16T09:30:19Z</time>
      </trkpt>
      <trkpt lat="45.94137" lon="4.53068">
        <ele>300.03494262695</ele>
        <time>2020-06-16T09:30:53Z</time>
      </trkpt>
      <trkpt lat="45.94128" lon="4.53055">
        <ele>301.57250976562</ele>
        <time>2020-06-16T09:31:28Z</time>
      </trkpt>
      <trkpt lat="45.94123" lon="4.53025">
        <ele>302.42120361328</ele>
        <time>2020-06-16T09:32:02Z</time>
      </trkpt>
      <trkpt lat="45.94123" lon="4.52958">
        <ele>304.72305297852</ele>
        <time>2020-06-16T09:32:36Z</time>
      </trkpt>
      <trkpt lat="45.94108" lon="4.52889">
        <ele>308.61383056641</ele>
        <time>2020-06-16T09:33:10Z</time>
      </trkpt>
      <trkpt lat="45.94089" lon="4.52854">
        <ele>311.90795898438</ele>
        <time>2020-06-16T09:33:44Z</time>
      </trkpt>
      <trkpt lat="45.94066" lon="4.52841">
        <ele>314.79611206055</ele>
        <time>2020-06-16T09:34:19Z</time>
      </trkpt>
      <trkpt lat="45.94055" lon="4.5284">
        <ele>316.58755493164</ele>
        <time>2020-06-16T09:34:53Z</time>
      </trkpt>
      <trkpt lat="45.94036" lon="4.52847">
        <ele>320.76846313477</ele>
        <time>2020-06-16T09:35:27Z</time>
      </trkpt>
      <trkpt lat="45.94019" lon="4.52871">
        <ele>324.45928955078</ele>
        <time>2020-06-16T09:36:01Z</time>
      </trkpt>
      <trkpt lat="45.94001" lon="4.52914">
        <ele>328.36441040039</ele>
        <time>2020-06-16T09:36:36Z</time>
      </trkpt>
      <trkpt lat="45.93959" lon="4.52958">
        <ele>333.17135620117</ele>
        <time>2020-06-16T09:37:10Z</time>
      </trkpt>
      <trkpt lat="45.93872" lon="4.53026">
        <ele>341.98852539062</ele>
        <time>2020-06-16T09:37:44Z</time>
      </trkpt>
      <trkpt lat="45.93836" lon="4.53042">
        <ele>345.22402954102</ele>
        <time>2020-06-16T09:38:18Z</time>
      </trkpt>
      <trkpt lat="45.93816" lon="4.53065">
        <ele>345.64016723633</ele>
        <time>2020-06-16T09:38:53Z</time>
      </trkpt>
      <trkpt lat="45.93797" lon="4.53133">
        <ele>342.19720458984</ele>
        <time>2020-06-16T09:39:27Z</time>
      </trkpt>
      <trkpt lat="45.93778" lon="4.53243">
        <ele>342.06036376953</ele>
        <time>2020-06-16T09:40:01Z</time>
      </trkpt>
      <trkpt lat="45.93759" lon="4.53287">
        <ele>347.8913269043</ele>
        <time>2020-06-16T09:40:35Z</time>
      </trkpt>
      <trkpt lat="45.93733" lon="4.53326">
        <ele>354.04544067383</ele>
        <time>2020-06-16T09:41:10Z</time>
      </trkpt>
      <trkpt lat="45.93728" lon="4.53347">
        <ele>354.7971496582</ele>
        <time>2020-06-16T09:41:44Z</time>
      </trkpt>
      <trkpt lat="45.93728" lon="4.53366">
        <ele>353.75689697266</ele>
        <time>2020-06-16T09:42:18Z</time>
      </trkpt>
      <trkpt lat="45.93742" lon="4.53415">
        <ele>350.79220581055</ele>
        <time>2020-06-16T09:42:53Z</time>
      </trkpt>
      <trkpt lat="45.93749" lon="4.5346">
        <ele>350.38031005859</ele>
        <time>2020-06-16T09:43:27Z</time>
      </trkpt>
      <trkpt lat="45.9374" lon="4.53512">
        <ele>355.86828613281</ele>
        <time>2020-06-16T09:44:01Z</time>
      </trkpt>
      <trkpt lat="45.93706" lon="4.5358">
        <ele>364.7248840332</ele>
        <time>2020-06-16T09:44:36Z</time>
      </trkpt>
      <trkpt lat="45.93643" lon="4.53679">
        <ele>373.48843383789</ele>
        <time>2020-06-16T09:45:10Z</time>
      </trkpt>
      <trkpt lat="45.9362" lon="4.53692">
        <ele>376.45077514648</ele>
        <time>2020-06-16T09:45:44Z</time>
      </trkpt>
      <trkpt lat="45.93543" lon="4.53676">
        <ele>389.55465698242</ele>
        <time>2020-06-16T09:46:19Z</time>
      </trkpt>
      <trkpt lat="45.935" lon="4.53681">
        <ele>392.69250488281</ele>
        <time>2020-06-16T09:46:53Z</time>
      </trkpt>
      <trkpt lat="45.93472" lon="4.53694">
        <ele>393.10202026367</ele>
        <time>2020-06-16T09:47:27Z</time>
      </trkpt>
      <trkpt lat="45.93447" lon="4.53697">
        <ele>394.73013305664</ele>
        <time>2020-06-16T09:48:02Z</time>
      </trkpt>
      <trkpt lat="45.93411" lon="4.53688">
        <ele>399.00799560547</ele>
        <time>2020-06-16T09:48:36Z</time>
      </trkpt>
      <trkpt lat="45.93393" lon="4.53701">
        <ele>398.72396850586</ele>
        <time>2020-06-16T09:49:10Z</time>
      </trkpt>
      <trkpt lat="45.93377" lon="4.53733">
        <ele>394.31256103516</ele>
        <time>2020-06-16T09:49:45Z</time>
      </trkpt>
      <trkpt lat="45.93339" lon="4.53774">
        <ele>394.73126220703</ele>
        <time>2020-06-16T09:50:19Z</time>
      </trkpt>
      <trkpt lat="45.933" lon="4.53791">
        <ele>399.22589111328</ele>
        <time>2020-06-16T09:50:54Z</time>
      </trkpt>
      <trkpt lat="45.93245" lon="4.53808">
        <ele>398.52770996094</ele>
        <time>2020-06-16T09:51:28Z</time>
      </trkpt>
      <trkpt lat="45.9323" lon="4.53806">
        <ele>399.9153137207</ele>
        <time>2020-06-16T09:52:02Z</time>
      </trkpt>
      <trkpt lat="45.93197" lon="4.53776">
        <ele>401.60110473633</ele>
        <time>2020-06-16T09:52:37Z</time>
      </trkpt>
      <trkpt lat="45.93177" lon="4.53735">
        <ele>399.75180053711</ele>
        <time>2020-06-16T09:53:11Z</time>
      </trkpt>
      <trkpt lat="45.93169" lon="4.53695">
        <ele>399.03564453125</ele>
        <time>2020-06-16T09:53:46Z</time>
      </trkpt>
      <trkpt lat="45.93172" lon="4.53645">
        <ele>396.33053588867</ele>
        <time>2020-06-16T09:54:20Z</time>
      </trkpt>
      <trkpt lat="45.93218" lon="4.53448">
        <ele>389.23422241211</ele>
        <time>2020-06-16T09:54:55Z</time>
      </trkpt>
      <trkpt lat="45.93232" lon="4.53349">
        <ele>386.90097045898</ele>
        <time>2020-06-16T09:55:29Z</time>
      </trkpt>
      <trkpt lat="45.9323" lon="4.53276">
        <ele>385.67874145508</ele>
        <time>2020-06-16T09:56:04Z</time>
      </trkpt>
      <trkpt lat="45.93223" lon="4.53238">
        <ele>384.50500488281</ele>
        <time>2020-06-16T09:56:38Z</time>
      </trkpt>
      <trkpt lat="45.93213" lon="4.53216">
        <ele>384.7287902832</ele>
        <time>2020-06-16T09:57:13Z</time>
      </trkpt>
      <trkpt lat="45.93189" lon="4.532">
        <ele>385.69207763672</ele>
        <time>2020-06-16T09:57:47Z</time>
      </trkpt>
      <trkpt lat="45.93175" lon="4.532">
        <ele>386.42459106445</ele>
        <time>2020-06-16T09:58:22Z</time>
      </trkpt>
      <trkpt lat="45.93151" lon="4.53208">
        <ele>387.6076965332</ele>
        <time>2020-06-16T09:58:56Z</time>
      </trkpt>
      <trkpt lat="45.93062" lon="4.53262">
        <ele>392.8967590332</ele>
        <time>2020-06-16T09:59:31Z</time>
      </trkpt>
      <trkpt lat="45.92919" lon="4.53418">
        <ele>382.20593261719</ele>
        <time>2020-06-16T10:00:05Z</time>
      </trkpt>
      <trkpt lat="45.92886" lon="4.53429">
        <ele>381.20428466797</ele>
        <time>2020-06-16T10:00:40Z</time>
      </trkpt>
      <trkpt lat="45.92858" lon="4.5343">
        <ele>380.02236938477</ele>
        <time>2020-06-16T10:01:14Z</time>
      </trkpt>
      <trkpt lat="45.92841" lon="4.53418">
        <ele>381.12298583984</ele>
        <time>2020-06-16T10:01:49Z</time>
      </trkpt>
      <trkpt lat="45.92814" lon="4.53379">
        <ele>384.87289428711</ele>
        <time>2020-06-16T10:02:23Z</time>
      </trkpt>
      <trkpt lat="45.92793" lon="4.53375">
        <ele>385.44271850586</ele>
        <time>2020-06-16T10:02:58Z</time>
      </trkpt>
      <trkpt lat="45.92697" lon="4.53434">
        <ele>380.21145629883</ele>
        <time>2020-06-16T10:03:33Z</time>
      </trkpt>
      <trkpt lat="45.9263" lon="4.53502">
        <ele>375.75451660156</ele>
        <time>2020-06-16T10:04:07Z</time>
      </trkpt>
      <trkpt lat="45.92547" lon="4.53554">
        <ele>380.24768066406</ele>
        <time>2020-06-16T10:04:42Z</time>
      </trkpt>
      <trkpt lat="45.92464" lon="4.53631">
        <ele>376.95098876953</ele>
        <time>2020-06-16T10:05:16Z</time>
      </trkpt>
      <trkpt lat="45.92431" lon="4.53655">
        <ele>376.04489135742</ele>
        <time>2020-06-16T10:05:51Z</time>
      </trkpt>
      <trkpt lat="45.92321" lon="4.53692">
        <ele>377.20974731445</ele>
        <time>2020-06-16T10:06:26Z</time>
      </trkpt>
      <trkpt lat="45.92307" lon="4.5369">
        <ele>377.22521972656</ele>
        <time>2020-06-16T10:07:00Z</time>
      </trkpt>
      <trkpt lat="45.92296" lon="4.53679">
        <ele>376.42895507812</ele>
        <time>2020-06-16T10:07:35Z</time>
      </trkpt>
      <trkpt lat="45.9229" lon="4.53649">
        <ele>376.56491088867</ele>
        <time>2020-06-16T10:08:10Z</time>
      </trkpt>
      <trkpt lat="45.92292" lon="4.53604">
        <ele>376.77136230469</ele>
        <time>2020-06-16T10:08:44Z</time>
      </trkpt>
      <trkpt lat="45.92443" lon="4.52976">
        <ele>369.60772705078</ele>
        <time>2020-06-16T10:09:19Z</time>
      </trkpt>
      <trkpt lat="45.92447" lon="4.52942">
        <ele>369.39279174805</ele>
        <time>2020-06-16T10:09:54Z</time>
      </trkpt>
      <trkpt lat="45.92443" lon="4.52922">
        <ele>370.36669921875</ele>
        <time>2020-06-16T10:10:29Z</time>
      </trkpt>
      <trkpt lat="45.92431" lon="4.52906">
        <ele>371.05865478516</ele>
        <time>2020-06-16T10:11:03Z</time>
      </trkpt>
      <trkpt lat="45.92418" lon="4.52898">
        <ele>371.53887939453</ele>
        <time>2020-06-16T10:11:38Z</time>
      </trkpt>
      <trkpt lat="45.9239" lon="4.52897">
        <ele>371.58215332031</ele>
        <time>2020-06-16T10:12:13Z</time>
      </trkpt>
      <trkpt lat="45.92355" lon="4.52917">
        <ele>376.35232543945</ele>
        <time>2020-06-16T10:12:48Z</time>
      </trkpt>
      <trkpt lat="45.92286" lon="4.52985">
        <ele>371.9880065918</ele>
        <time>2020-06-16T10:13:22Z</time>
      </trkpt>
      <trkpt lat="45.92261" lon="4.52996">
        <ele>371.97567749023</ele>
        <time>2020-06-16T10:13:57Z</time>
      </trkpt>
      <trkpt lat="45.92242" lon="4.52996">
        <ele>373.57830810547</ele>
        <time>2020-06-16T10:14:32Z</time>
      </trkpt>
      <trkpt lat="45.92224" lon="4.52986">
        <ele>376.14334106445</ele>
        <time>2020-06-16T10:15:07Z</time>
      </trkpt>
      <trkpt lat="45.92199" lon="4.52963">
        <ele>377.10278320312</ele>
        <time>2020-06-16T10:15:42Z</time>
      </trkpt>
      <trkpt lat="45.92161" lon="4.52883">
        <ele>381.94915771484</ele>
        <time>2020-06-16T10:16:16Z</time>
      </trkpt>
      <trkpt lat="45.92151" lon="4.52868">
        <ele>382.69134521484</ele>
        <time>2020-06-16T10:16:51Z</time>
      </trkpt>
      <trkpt lat="45.92134" lon="4.52855">
        <ele>382.69873046875</ele>
        <time>2020-06-16T10:17:26Z</time>
      </trkpt>
      <trkpt lat="45.92111" lon="4.52848">
        <ele>382.82183837891</ele>
        <time>2020-06-16T10:18:01Z</time>
      </trkpt>
      <trkpt lat="45.92074" lon="4.52851">
        <ele>383.19323730469</ele>
        <time>2020-06-16T10:18:36Z</time>
      </trkpt>
      <trkpt lat="45.92006" lon="4.52889">
        <ele>384.21865844727</ele>
        <time>2020-06-16T10:19:10Z</time>
      </trkpt>
      <trkpt lat="45.91993" lon="4.52893">
        <ele>384.75549316406</ele>
        <time>2020-06-16T10:19:45Z</time>
      </trkpt>
      <trkpt lat="45.91978" lon="4.52891">
        <ele>385.90316772461</ele>
        <time>2020-06-16T10:20:20Z</time>
      </trkpt>
      <trkpt lat="45.91947" lon="4.52871">
        <ele>388.06896972656</ele>
        <time>2020-06-16T10:20:55Z</time>
      </trkpt>
      <trkpt lat="45.91912" lon="4.52808">
        <ele>390.15228271484</ele>
        <time>2020-06-16T10:21:30Z</time>
      </trkpt>
      <trkpt lat="45.91928" lon="4.52737">
        <ele>387.43341064453</ele>
        <time>2020-06-16T10:22:05Z</time>
      </trkpt>
      <trkpt lat="45.91988" lon="4.52607">
        <ele>384.46478271484</ele>
        <time>2020-06-16T10:22:40Z</time>
      </trkpt>
      <trkpt lat="45.92003" lon="4.52553">
        <ele>382.82180786133</ele>
        <time>2020-06-16T10:23:15Z</time>
      </trkpt>
      <trkpt lat="45.92005" lon="4.52516">
        <ele>382.93295288086</ele>
        <time>2020-06-16T10:23:49Z</time>
      </trkpt>
      <trkpt lat="45.91998" lon="4.52386">
        <ele>380.20034790039</ele>
        <time>2020-06-16T10:24:24Z</time>
      </trkpt>
      <trkpt lat="45.92003" lon="4.52274">
        <ele>375.07601928711</ele>
        <time>2020-06-16T10:24:59Z</time>
      </trkpt>
      <trkpt lat="45.92028" lon="4.52149">
        <ele>372.6653137207</ele>
        <time>2020-06-16T10:25:34Z</time>
      </trkpt>
      <trkpt lat="45.92075" lon="4.52011">
        <ele>368.83825683594</ele>
        <time>2020-06-16T10:26:09Z</time>
      </trkpt>
      <trkpt lat="45.92072" lon="4.51963">
        <ele>368.57522583008</ele>
        <time>2020-06-16T10:26:44Z</time>
      </trkpt>
      <trkpt lat="45.92062" lon="4.51946">
        <ele>366.49423217773</ele>
        <time>2020-06-16T10:27:19Z</time>
      </trkpt>
      <trkpt lat="45.92042" lon="4.51933">
        <ele>367.52642822266</ele>
        <time>2020-06-16T10:27:54Z</time>
      </trkpt>
      <trkpt lat="45.92016" lon="4.51929">
        <ele>368.7414855957</ele>
        <time>2020-06-16T10:28:29Z</time>
      </trkpt>
      <trkpt lat="45.91997" lon="4.51936">
        <ele>369.0657043457</ele>
        <time>2020-06-16T10:29:04Z</time>
      </trkpt>
      <trkpt lat="45.91957" lon="4.51967">
        <ele>369.20593261719</ele>
        <time>2020-06-16T10:29:39Z</time>
      </trkpt>
      <trkpt lat="45.91898" lon="4.52034">
        <ele>368.51602172852</ele>
        <time>2020-06-16T10:30:14Z</time>
      </trkpt>
      <trkpt lat="45.91722" lon="4.5213">
        <ele>376.81311035156</ele>
        <time>2020-06-16T10:30:49Z</time>
      </trkpt>
      <trkpt lat="45.91707" lon="4.52144">
        <ele>377.32849121094</ele>
        <time>2020-06-16T10:31:24Z</time>
      </trkpt>
      <trkpt lat="45.91647" lon="4.52224">
        <ele>376.35424804688</ele>
        <time>2020-06-16T10:31:59Z</time>
      </trkpt>
      <trkpt lat="45.91595" lon="4.52262">
        <ele>379.57977294922</ele>
        <time>2020-06-16T10:32:34Z</time>
      </trkpt>
      <trkpt lat="45.91574" lon="4.52268">
        <ele>382.37631225586</ele>
        <time>2020-06-16T10:33:09Z</time>
      </trkpt>
      <trkpt lat="45.91488" lon="4.52221">
        <ele>383.7490234375</ele>
        <time>2020-06-16T10:33:44Z</time>
      </trkpt>
      <trkpt lat="45.91467" lon="4.52204">
        <ele>383.10073852539</ele>
        <time>2020-06-16T10:34:19Z</time>
      </trkpt>
      <trkpt lat="45.91264" lon="4.51964">
        <ele>370.24801635742</ele>
        <time>2020-06-16T10:34:54Z</time>
      </trkpt>
      <trkpt lat="45.91251" lon="4.51934">
        <ele>368.18682861328</ele>
        <time>2020-06-16T10:35:30Z</time>
      </trkpt>
      <trkpt lat="45.91245" lon="4.51893">
        <ele>365.77444458008</ele>
        <time>2020-06-16T10:36:05Z</time>
      </trkpt>
      <trkpt lat="45.91247" lon="4.51866">
        <ele>365.47973632812</ele>
        <time>2020-06-16T10:36:40Z</time>
      </trkpt>
      <trkpt lat="45.91279" lon="4.51758">
        <ele>366.43161010742</ele>
        <time>2020-06-16T10:37:15Z</time>
      </trkpt>
      <trkpt lat="45.9127" lon="4.51715">
        <ele>367.74600219727</ele>
        <time>2020-06-16T10:37:50Z</time>
      </trkpt>
      <trkpt lat="45.91252" lon="4.51699">
        <ele>366.74700927734</ele>
        <time>2020-06-16T10:38:25Z</time>
      </trkpt>
      <trkpt lat="45.91182" lon="4.51681">
        <ele>358.07974243164</ele>
        <time>2020-06-16T10:39:00Z</time>
      </trkpt>
      <trkpt lat="45.9116" lon="4.51668">
        <ele>354.88534545898</ele>
        <time>2020-06-16T10:39:36Z</time>
      </trkpt>
      <trkpt lat="45.9114" lon="4.51648">
        <ele>352.01440429688</ele>
        <time>2020-06-16T10:40:11Z</time>
      </trkpt>
      <trkpt lat="45.91091" lon="4.51568">
        <ele>344.31787109375</ele>
        <time>2020-06-16T10:40:46Z</time>
      </trkpt>
      <trkpt lat="45.9108" lon="4.51538">
        <ele>342.8186340332</ele>
        <time>2020-06-16T10:41:21Z</time>
      </trkpt>
      <trkpt lat="45.91078" lon="4.51504">
        <ele>343.2197265625</ele>
        <time>2020-06-16T10:41:56Z</time>
      </trkpt>
      <trkpt lat="45.91089" lon="4.51462">
        <ele>346.62777709961</ele>
        <time>2020-06-16T10:42:32Z</time>
      </trkpt>
      <trkpt lat="45.91089" lon="4.51431">
        <ele>347.31362915039</ele>
        <time>2020-06-16T10:43:07Z</time>
      </trkpt>
      <trkpt lat="45.91065" lon="4.51407">
        <ele>343.02508544922</ele>
        <time>2020-06-16T10:43:42Z</time>
      </trkpt>
      <trkpt lat="45.91019" lon="4.51388">
        <ele>333.60873413086</ele>
        <time>2020-06-16T10:44:17Z</time>
      </trkpt>
      <trkpt lat="45.9101" lon="4.51379">
        <ele>331.69967651367</ele>
        <time>2020-06-16T10:44:52Z</time>
      </trkpt>
      <trkpt lat="45.90999" lon="4.51354">
        <ele>328.49053955078</ele>
        <time>2020-06-16T10:45:28Z</time>
      </trkpt>
      <trkpt lat="45.90997" lon="4.51322">
        <ele>325.87118530273</ele>
        <time>2020-06-16T10:46:03Z</time>
      </trkpt>
      <trkpt lat="45.91019" lon="4.5121">
        <ele>328.34359741211</ele>
        <time>2020-06-16T10:46:38Z</time>
      </trkpt>
      <trkpt lat="45.91019" lon="4.51097">
        <ele>323.85122680664</ele>
        <time>2020-06-16T10:47:13Z</time>
      </trkpt>
      <trkpt lat="45.91028" lon="4.51033">
        <ele>322.68966674805</ele>
        <time>2020-06-16T10:47:49Z</time>
      </trkpt>
      <trkpt lat="45.91023" lon="4.51012">
        <ele>322.48873901367</ele>
        <time>2020-06-16T10:48:24Z</time>
      </trkpt>
      <trkpt lat="45.91013" lon="4.51">
        <ele>320.83059692383</ele>
        <time>2020-06-16T10:48:59Z</time>
      </trkpt>
      <trkpt lat="45.90978" lon="4.50984">
        <ele>313.64837646484</ele>
        <time>2020-06-16T10:49:34Z</time>
      </trkpt>
      <trkpt lat="45.90892" lon="4.50962">
        <ele>310.65832519531</ele>
        <time>2020-06-16T10:50:10Z</time>
      </trkpt>
      <trkpt lat="45.90883" lon="4.50952">
        <ele>312.83551025391</ele>
        <time>2020-06-16T10:50:45Z</time>
      </trkpt>
      <trkpt lat="45.9088" lon="4.5094">
        <ele>313.8076171875</ele>
        <time>2020-06-16T10:51:20Z</time>
      </trkpt>
      <trkpt lat="45.90876" lon="4.509">
        <ele>315.40600585938</ele>
        <time>2020-06-16T10:51:55Z</time>
      </trkpt>
      <trkpt lat="45.90885" lon="4.50783">
        <ele>313.66842651367</ele>
        <time>2020-06-16T10:52:31Z</time>
      </trkpt>
      <trkpt lat="45.90883" lon="4.50671">
        <ele>318.94079589844</ele>
        <time>2020-06-16T10:53:06Z</time>
      </trkpt>
      <trkpt lat="45.90891" lon="4.50601">
        <ele>319.74096679688</ele>
        <time>2020-06-16T10:53:41Z</time>
      </trkpt>
      <trkpt lat="45.90886" lon="4.50528">
        <ele>324.41674804688</ele>
        <time>2020-06-16T10:54:17Z</time>
      </trkpt>
      <trkpt lat="45.90894" lon="4.50424">
        <ele>331.51605224609</ele>
        <time>2020-06-16T10:54:52Z</time>
      </trkpt>
      <trkpt lat="45.90869" lon="4.50272">
        <ele>342.89297485352</ele>
        <time>2020-06-16T10:55:27Z</time>
      </trkpt>
      <trkpt lat="45.90872" lon="4.50201">
        <ele>349.41271972656</ele>
        <time>2020-06-16T10:56:03Z</time>
      </trkpt>
      <trkpt lat="45.90831" lon="4.49968">
        <ele>353.02627563477</ele>
        <time>2020-06-16T10:56:38Z</time>
      </trkpt>
      <trkpt lat="45.9082" lon="4.49942">
        <ele>355.05545043945</ele>
        <time>2020-06-16T10:57:14Z</time>
      </trkpt>
      <trkpt lat="45.90803" lon="4.49921">
        <ele>357.01477050781</ele>
        <time>2020-06-16T10:57:49Z</time>
      </trkpt>
      <trkpt lat="45.90786" lon="4.49913">
        <ele>358.5329284668</ele>
        <time>2020-06-16T10:58:24Z</time>
      </trkpt>
      <trkpt lat="45.90769" lon="4.49914">
        <ele>360.22930908203</ele>
        <time>2020-06-16T10:59:00Z</time>
      </trkpt>
      <trkpt lat="45.90742" lon="4.49929">
        <ele>363.49850463867</ele>
        <time>2020-06-16T10:59:35Z</time>
      </trkpt>
      <trkpt lat="45.90653" lon="4.5">
        <ele>370.66561889648</ele>
        <time>2020-06-16T11:00:11Z</time>
      </trkpt>
      <trkpt lat="45.90477" lon="4.50123">
        <ele>382.94146728516</ele>
        <time>2020-06-16T11:00:46Z</time>
      </trkpt>
      <trkpt lat="45.90461" lon="4.50127">
        <ele>383.69976806641</ele>
        <time>2020-06-16T11:01:22Z</time>
      </trkpt>
      <trkpt lat="45.90438" lon="4.50116">
        <ele>384.73486328125</ele>
        <time>2020-06-16T11:01:57Z</time>
      </trkpt>
      <trkpt lat="45.90405" lon="4.50076">
        <ele>388.7502746582</ele>
        <time>2020-06-16T11:02:33Z</time>
      </trkpt>
      <trkpt lat="45.9039" lon="4.5003">
        <ele>392.13208007812</ele>
        <time>2020-06-16T11:03:08Z</time>
      </trkpt>
      <trkpt lat="45.90388" lon="4.49955">
        <ele>395.66104125977</ele>
        <time>2020-06-16T11:03:44Z</time>
      </trkpt>
      <trkpt lat="45.90402" lon="4.49796">
        <ele>402.48150634766</ele>
        <time>2020-06-16T11:04:19Z</time>
      </trkpt>
      <trkpt lat="45.9042" lon="4.49697">
        <ele>406.93695068359</ele>
        <time>2020-06-16T11:04:55Z</time>
      </trkpt>
      <trkpt lat="45.90416" lon="4.49598">
        <ele>411.12078857422</ele>
        <time>2020-06-16T11:05:30Z</time>
      </trkpt>
      <trkpt lat="45.90437" lon="4.49424">
        <ele>418.68054199219</ele>
        <time>2020-06-16T11:06:06Z</time>
      </trkpt>
      <trkpt lat="45.90433" lon="4.49383">
        <ele>421.28485107422</ele>
        <time>2020-06-16T11:06:41Z</time>
      </trkpt>
      <trkpt lat="45.90396" lon="4.49276">
        <ele>427.3974609375</ele>
        <time>2020-06-16T11:07:17Z</time>
      </trkpt>
      <trkpt lat="45.90377" lon="4.49265">
        <ele>429.24722290039</ele>
        <time>2020-06-16T11:07:52Z</time>
      </trkpt>
      <trkpt lat="45.90343" lon="4.4926">
        <ele>433.24865722656</ele>
        <time>2020-06-16T11:08:28Z</time>
      </trkpt>
      <trkpt lat="45.90327" lon="4.49245">
        <ele>435.63418579102</ele>
        <time>2020-06-16T11:09:04Z</time>
      </trkpt>
      <trkpt lat="45.90313" lon="4.49206">
        <ele>438.98413085938</ele>
        <time>2020-06-16T11:09:39Z</time>
      </trkpt>
      <trkpt lat="45.90297" lon="4.49114">
        <ele>439.0524597168</ele>
        <time>2020-06-16T11:10:15Z</time>
      </trkpt>
      <trkpt lat="45.90278" lon="4.49062">
        <ele>439.99758911133</ele>
        <time>2020-06-16T11:10:50Z</time>
      </trkpt>
      <trkpt lat="45.90013" lon="4.48546">
        <ele>444.01229858398</ele>
        <time>2020-06-16T11:11:26Z</time>
      </trkpt>
      <trkpt lat="45.89996" lon="4.48534">
        <ele>442.96832275391</ele>
        <time>2020-06-16T11:12:02Z</time>
      </trkpt>
      <trkpt lat="45.89971" lon="4.48535">
        <ele>439.96997070312</ele>
        <time>2020-06-16T11:12:37Z</time>
      </trkpt>
      <trkpt lat="45.89945" lon="4.48556">
        <ele>439.71813964844</ele>
        <time>2020-06-16T11:13:13Z</time>
      </trkpt>
      <trkpt lat="45.8993" lon="4.48583">
        <ele>439.10711669922</ele>
        <time>2020-06-16T11:13:49Z</time>
      </trkpt>
      <trkpt lat="45.89925" lon="4.48615">
        <ele>439.26257324219</ele>
        <time>2020-06-16T11:14:25Z</time>
      </trkpt>
      <trkpt lat="45.89931" lon="4.4871">
        <ele>435.58544921875</ele>
        <time>2020-06-16T11:15:00Z</time>
      </trkpt>
      <trkpt lat="45.89926" lon="4.48763">
        <ele>437.33206176758</ele>
        <time>2020-06-16T11:15:36Z</time>
      </trkpt>
      <trkpt lat="45.89893" lon="4.48918">
        <ele>439.75927734375</ele>
        <time>2020-06-16T11:16:12Z</time>
      </trkpt>
      <trkpt lat="45.89883" lon="4.48943">
        <ele>441.48138427734</ele>
        <time>2020-06-16T11:16:47Z</time>
      </trkpt>
      <trkpt lat="45.8986" lon="4.4897">
        <ele>445.17208862305</ele>
        <time>2020-06-16T11:17:23Z</time>
      </trkpt>
      <trkpt lat="45.89836" lon="4.4898">
        <ele>450.45095825195</ele>
        <time>2020-06-16T11:17:59Z</time>
      </trkpt>
      <trkpt lat="45.89799" lon="4.48981">
        <ele>456.2541809082</ele>
        <time>2020-06-16T11:18:35Z</time>
      </trkpt>
      <trkpt lat="45.89773" lon="4.48997">
        <ele>458.81338500977</ele>
        <time>2020-06-16T11:19:10Z</time>
      </trkpt>
      <trkpt lat="45.89728" lon="4.49046">
        <ele>460.15322875977</ele>
        <time>2020-06-16T11:19:46Z</time>
      </trkpt>
      <trkpt lat="45.8968" lon="4.4912">
        <ele>458.4714050293</ele>
        <time>2020-06-16T11:20:22Z</time>
      </trkpt>
      <trkpt lat="45.89667" lon="4.49132">
        <ele>460.01669311523</ele>
        <time>2020-06-16T11:20:58Z</time>
      </trkpt>
      <trkpt lat="45.89551" lon="4.49157">
        <ele>467.75500488281</ele>
        <time>2020-06-16T11:21:34Z</time>
      </trkpt>
      <trkpt lat="45.89472" lon="4.49181">
        <ele>468.44744873047</ele>
        <time>2020-06-16T11:22:09Z</time>
      </trkpt>
      <trkpt lat="45.89381" lon="4.49225">
        <ele>463.09866333008</ele>
        <time>2020-06-16T11:22:45Z</time>
      </trkpt>
      <trkpt lat="45.89352" lon="4.49226">
        <ele>463.68548583984</ele>
        <time>2020-06-16T11:23:21Z</time>
      </trkpt>
      <trkpt lat="45.8933" lon="4.49215">
        <ele>465.13119506836</ele>
        <time>2020-06-16T11:23:57Z</time>
      </trkpt>
      <trkpt lat="45.89267" lon="4.4912">
        <ele>468.4289855957</ele>
        <time>2020-06-16T11:24:33Z</time>
      </trkpt>
      <trkpt lat="45.89238" lon="4.49098">
        <ele>469.05114746094</ele>
        <time>2020-06-16T11:25:09Z</time>
      </trkpt>
      <trkpt lat="45.89201" lon="4.49091">
        <ele>470.27340698242</ele>
        <time>2020-06-16T11:25:45Z</time>
      </trkpt>
      <trkpt lat="45.89167" lon="4.49097">
        <ele>470.74987792969</ele>
        <time>2020-06-16T11:26:20Z</time>
      </trkpt>
      <trkpt lat="45.89138" lon="4.49114">
        <ele>470.23480224609</ele>
        <time>2020-06-16T11:26:56Z</time>
      </trkpt>
      <trkpt lat="45.89125" lon="4.49133">
        <ele>469.72686767578</ele>
        <time>2020-06-16T11:27:32Z</time>
      </trkpt>
      <trkpt lat="45.89113" lon="4.49237">
        <ele>464.73083496094</ele>
        <time>2020-06-16T11:28:08Z</time>
      </trkpt>
      <trkpt lat="45.89074" lon="4.49337">
        <ele>460.75024414062</ele>
        <time>2020-06-16T11:28:44Z</time>
      </trkpt>
      <trkpt lat="45.89049" lon="4.49375">
        <ele>459.62078857422</ele>
        <time>2020-06-16T11:29:20Z</time>
      </trkpt>
      <trkpt lat="45.89016" lon="4.494">
        <ele>459.06869506836</ele>
        <time>2020-06-16T11:29:56Z</time>
      </trkpt>
      <trkpt lat="45.88997" lon="4.494">
        <ele>459.72970581055</ele>
        <time>2020-06-16T11:30:32Z</time>
      </trkpt>
      <trkpt lat="45.88979" lon="4.4939">
        <ele>461.09762573242</ele>
        <time>2020-06-16T11:31:08Z</time>
      </trkpt>
      <trkpt lat="45.88946" lon="4.49341">
        <ele>460.65579223633</ele>
        <time>2020-06-16T11:31:44Z</time>
      </trkpt>
      <trkpt lat="45.88872" lon="4.49145">
        <ele>459.59307861328</ele>
        <time>2020-06-16T11:32:20Z</time>
      </trkpt>
      <trkpt lat="45.88805" lon="4.49002">
        <ele>453.92245483398</ele>
        <time>2020-06-16T11:32:56Z</time>
      </trkpt>
      <trkpt lat="45.8878" lon="4.48923">
        <ele>453.80654907227</ele>
        <time>2020-06-16T11:33:32Z</time>
      </trkpt>
      <trkpt lat="45.88757" lon="4.48893">
        <ele>452.34188842773</ele>
        <time>2020-06-16T11:34:08Z</time>
      </trkpt>
      <trkpt lat="45.88621" lon="4.48749">
        <ele>439.11822509766</ele>
        <time>2020-06-16T11:34:44Z</time>
      </trkpt>
      <trkpt lat="45.88565" lon="4.48647">
        <ele>433.97344970703</ele>
        <time>2020-06-16T11:35:20Z</time>
      </trkpt>
      <trkpt lat="45.88521" lon="4.48722">
        <ele>424.87246704102</ele>
        <time>2020-06-16T11:35:56Z</time>
      </trkpt>
      <trkpt lat="45.88512" lon="4.48751">
        <ele>423.46383666992</ele>
        <time>2020-06-16T11:36:32Z</time>
      </trkpt>
      <trkpt lat="45.8852" lon="4.48807">
        <ele>422.7907409668</ele>
        <time>2020-06-16T11:37:08Z</time>
      </trkpt>
      <trkpt lat="45.88537" lon="4.48846">
        <ele>423.40167236328</ele>
        <time>2020-06-16T11:37:44Z</time>
      </trkpt>
      <trkpt lat="45.88548" lon="4.48859">
        <ele>424.23693847656</ele>
        <time>2020-06-16T11:38:20Z</time>
      </trkpt>
      <trkpt lat="45.88547" lon="4.48854">
        <ele>424.36590576172</ele>
        <time>2020-06-16T11:38:56Z</time>
      </trkpt>
      <trkpt lat="45.8853" lon="4.48837">
        <ele>422.94348144531</ele>
        <time>2020-06-16T11:39:32Z</time>
      </trkpt>
    </trkseg>
  </trk>
</gpx>